<?xml version="1.0" encoding="UTF-8" standalone="no" ?>
<gpx xmlns="http://www.topografix.com/GPX/1/1" xmlns:xsi="http://www.w3.org/2001/XMLSchema-instance" xsi:schemaLocation="http://www.topografix.com/GPX/1/1 http://www.topografix.com/GPX/1/1/gpx.xsd" version="1.1" creator="VisuGPX - https://www.visugpx.com">
  <metadata>
    <name>Caudan T11</name>
    <desc><![CDATA[T11 parcours actif des travaux exterieurs]]></desc>
  </metadata>
  <trk>
    <name><![CDATA[Parcours 18]]></name>
    <desc><![CDATA[]]></desc>
    <trkseg>
      <trkpt lat="47.78817" lon="-3.31598">
        <ele>82</ele>
        <time>2015-01-30T09:12:39.916Z</time>
      </trkpt>
      <trkpt lat="47.78844" lon="-3.31607">
        <ele>69</ele>
        <time>2015-01-30T09:13:24.228Z</time>
      </trkpt>
      <trkpt lat="47.78839" lon="-3.31614">
        <ele>91</ele>
        <time>2015-01-30T09:13:25.972Z</time>
      </trkpt>
      <trkpt lat="47.78835" lon="-3.31617">
        <ele>96</ele>
        <time>2015-01-30T09:13:26.981Z</time>
      </trkpt>
      <trkpt lat="47.78829" lon="-3.31622">
        <ele>94</ele>
        <time>2015-01-30T09:13:33.001Z</time>
      </trkpt>
      <trkpt lat="47.78826" lon="-3.31622">
        <ele>94</ele>
        <time>2015-01-30T09:13:33.988Z</time>
      </trkpt>
      <trkpt lat="47.78821" lon="-3.31617">
        <ele>91</ele>
        <time>2015-01-30T09:13:34.975Z</time>
      </trkpt>
      <trkpt lat="47.78817" lon="-3.31616">
        <ele>91</ele>
        <time>2015-01-30T09:13:35.993Z</time>
      </trkpt>
      <trkpt lat="47.78813" lon="-3.31613">
        <ele>92</ele>
        <time>2015-01-30T09:13:37.002Z</time>
      </trkpt>
      <trkpt lat="47.78806" lon="-3.31608">
        <ele>90</ele>
        <time>2015-01-30T09:13:37.998Z</time>
      </trkpt>
      <trkpt lat="47.78798" lon="-3.31607">
        <ele>92</ele>
        <time>2015-01-30T09:13:39.012Z</time>
      </trkpt>
      <trkpt lat="47.78791" lon="-3.31606">
        <ele>94</ele>
        <time>2015-01-30T09:13:39.985Z</time>
      </trkpt>
      <trkpt lat="47.78785" lon="-3.31603">
        <ele>92</ele>
        <time>2015-01-30T09:13:40.993Z</time>
      </trkpt>
      <trkpt lat="47.78781" lon="-3.31601">
        <ele>94</ele>
        <time>2015-01-30T09:13:41.995Z</time>
      </trkpt>
      <trkpt lat="47.78773" lon="-3.31597">
        <ele>93</ele>
        <time>2015-01-30T09:13:43.991Z</time>
      </trkpt>
      <trkpt lat="47.7877" lon="-3.31594">
        <ele>94</ele>
        <time>2015-01-30T09:13:44.991Z</time>
      </trkpt>
      <trkpt lat="47.78775" lon="-3.31584">
        <ele>89</ele>
        <time>2015-01-30T09:14:30.967Z</time>
      </trkpt>
      <trkpt lat="47.78779" lon="-3.31586">
        <ele>89</ele>
        <time>2015-01-30T09:14:32.005Z</time>
      </trkpt>
      <trkpt lat="47.78787" lon="-3.31592">
        <ele>89</ele>
        <time>2015-01-30T09:14:34.041Z</time>
      </trkpt>
      <trkpt lat="47.78793" lon="-3.31598">
        <ele>89</ele>
        <time>2015-01-30T09:14:34.965Z</time>
      </trkpt>
      <trkpt lat="47.78798" lon="-3.31602">
        <ele>89</ele>
        <time>2015-01-30T09:14:36.042Z</time>
      </trkpt>
      <trkpt lat="47.78803" lon="-3.31606">
        <ele>89</ele>
        <time>2015-01-30T09:14:37.047Z</time>
      </trkpt>
      <trkpt lat="47.78809" lon="-3.31611">
        <ele>88</ele>
        <time>2015-01-30T09:14:37.968Z</time>
      </trkpt>
      <trkpt lat="47.78814" lon="-3.31614">
        <ele>88</ele>
        <time>2015-01-30T09:14:38.965Z</time>
      </trkpt>
      <trkpt lat="47.7882" lon="-3.31618">
        <ele>88</ele>
        <time>2015-01-30T09:14:39.965Z</time>
      </trkpt>
      <trkpt lat="47.78825" lon="-3.31621">
        <ele>88</ele>
        <time>2015-01-30T09:14:40.964Z</time>
      </trkpt>
      <trkpt lat="47.78831" lon="-3.31624">
        <ele>88</ele>
        <time>2015-01-30T09:14:41.964Z</time>
      </trkpt>
      <trkpt lat="47.78838" lon="-3.31628">
        <ele>88</ele>
        <time>2015-01-30T09:14:42.965Z</time>
      </trkpt>
      <trkpt lat="47.78843" lon="-3.31632">
        <ele>88</ele>
        <time>2015-01-30T09:14:43.967Z</time>
      </trkpt>
      <trkpt lat="47.78849" lon="-3.31636">
        <ele>88</ele>
        <time>2015-01-30T09:14:44.974Z</time>
      </trkpt>
      <trkpt lat="47.78854" lon="-3.31639">
        <ele>88</ele>
        <time>2015-01-30T09:14:45.970Z</time>
      </trkpt>
      <trkpt lat="47.7886" lon="-3.31641">
        <ele>87</ele>
        <time>2015-01-30T09:14:46.965Z</time>
      </trkpt>
      <trkpt lat="47.78867" lon="-3.31638">
        <ele>88</ele>
        <time>2015-01-30T09:14:49.961Z</time>
      </trkpt>
      <trkpt lat="47.7887" lon="-3.3164">
        <ele>89</ele>
        <time>2015-01-30T09:14:50.964Z</time>
      </trkpt>
      <trkpt lat="47.78877" lon="-3.31645">
        <ele>85</ele>
        <time>2015-01-30T09:15:20.963Z</time>
      </trkpt>
      <trkpt lat="47.78878" lon="-3.31648">
        <ele>85</ele>
        <time>2015-01-30T09:15:21.965Z</time>
      </trkpt>
      <trkpt lat="47.78883" lon="-3.31656">
        <ele>85</ele>
        <time>2015-01-30T09:15:23.961Z</time>
      </trkpt>
      <trkpt lat="47.78886" lon="-3.31658">
        <ele>85</ele>
        <time>2015-01-30T09:15:24.965Z</time>
      </trkpt>
      <trkpt lat="47.78891" lon="-3.31663">
        <ele>84</ele>
        <time>2015-01-30T09:15:26.964Z</time>
      </trkpt>
      <trkpt lat="47.78894" lon="-3.31665">
        <ele>84</ele>
        <time>2015-01-30T09:15:27.962Z</time>
      </trkpt>
      <trkpt lat="47.78899" lon="-3.3167">
        <ele>82</ele>
        <time>2015-01-30T09:15:34.963Z</time>
      </trkpt>
      <trkpt lat="47.78903" lon="-3.31674">
        <ele>81</ele>
        <time>2015-01-30T09:15:35.961Z</time>
      </trkpt>
      <trkpt lat="47.78907" lon="-3.31677">
        <ele>81</ele>
        <time>2015-01-30T09:15:36.963Z</time>
      </trkpt>
      <trkpt lat="47.78913" lon="-3.3168">
        <ele>81</ele>
        <time>2015-01-30T09:15:37.961Z</time>
      </trkpt>
      <trkpt lat="47.78919" lon="-3.31682">
        <ele>81</ele>
        <time>2015-01-30T09:15:38.962Z</time>
      </trkpt>
      <trkpt lat="47.78925" lon="-3.31682">
        <ele>82</ele>
        <time>2015-01-30T09:15:39.995Z</time>
      </trkpt>
      <trkpt lat="47.7893" lon="-3.31682">
        <ele>83</ele>
        <time>2015-01-30T09:15:40.959Z</time>
      </trkpt>
      <trkpt lat="47.78934" lon="-3.31679">
        <ele>83</ele>
        <time>2015-01-30T09:15:41.971Z</time>
      </trkpt>
      <trkpt lat="47.7894" lon="-3.31669">
        <ele>81</ele>
        <time>2015-01-30T09:15:44.977Z</time>
      </trkpt>
      <trkpt lat="47.78939" lon="-3.31665">
        <ele>80</ele>
        <time>2015-01-30T09:15:45.962Z</time>
      </trkpt>
      <trkpt lat="47.78941" lon="-3.31659">
        <ele>81</ele>
        <time>2015-01-30T09:15:46.961Z</time>
      </trkpt>
      <trkpt lat="47.78941" lon="-3.31651">
        <ele>82</ele>
        <time>2015-01-30T09:15:47.964Z</time>
      </trkpt>
      <trkpt lat="47.78942" lon="-3.31644">
        <ele>82</ele>
        <time>2015-01-30T09:15:48.961Z</time>
      </trkpt>
      <trkpt lat="47.78941" lon="-3.31635">
        <ele>81</ele>
        <time>2015-01-30T09:15:49.961Z</time>
      </trkpt>
      <trkpt lat="47.7894" lon="-3.31627">
        <ele>81</ele>
        <time>2015-01-30T09:15:50.961Z</time>
      </trkpt>
      <trkpt lat="47.7894" lon="-3.31618">
        <ele>82</ele>
        <time>2015-01-30T09:15:51.962Z</time>
      </trkpt>
      <trkpt lat="47.78938" lon="-3.3161">
        <ele>82</ele>
        <time>2015-01-30T09:15:52.963Z</time>
      </trkpt>
      <trkpt lat="47.78938" lon="-3.31602">
        <ele>82</ele>
        <time>2015-01-30T09:15:53.963Z</time>
      </trkpt>
      <trkpt lat="47.78937" lon="-3.31595">
        <ele>82</ele>
        <time>2015-01-30T09:15:54.962Z</time>
      </trkpt>
      <trkpt lat="47.78936" lon="-3.31585">
        <ele>83</ele>
        <time>2015-01-30T09:15:55.964Z</time>
      </trkpt>
      <trkpt lat="47.7894" lon="-3.31578">
        <ele>83</ele>
        <time>2015-01-30T09:15:57.961Z</time>
      </trkpt>
      <trkpt lat="47.78942" lon="-3.31574">
        <ele>82</ele>
        <time>2015-01-30T09:15:58.962Z</time>
      </trkpt>
      <trkpt lat="47.78948" lon="-3.31565">
        <ele>84</ele>
        <time>2015-01-30T09:16:05.961Z</time>
      </trkpt>
      <trkpt lat="47.78948" lon="-3.31565">
        <ele>84</ele>
        <time>2015-01-30T09:16:06.963Z</time>
      </trkpt>
      <trkpt lat="47.78946" lon="-3.31555">
        <ele>86</ele>
        <time>2015-01-30T09:17:04.963Z</time>
      </trkpt>
      <trkpt lat="47.78943" lon="-3.31548">
        <ele>84</ele>
        <time>2015-01-30T09:17:05.964Z</time>
      </trkpt>
      <trkpt lat="47.78942" lon="-3.3154">
        <ele>84</ele>
        <time>2015-01-30T09:17:06.963Z</time>
      </trkpt>
      <trkpt lat="47.7894" lon="-3.31527">
        <ele>85</ele>
        <time>2015-01-30T09:17:07.964Z</time>
      </trkpt>
      <trkpt lat="47.78938" lon="-3.31518">
        <ele>87</ele>
        <time>2015-01-30T09:17:08.964Z</time>
      </trkpt>
      <trkpt lat="47.78937" lon="-3.31509">
        <ele>87</ele>
        <time>2015-01-30T09:17:09.973Z</time>
      </trkpt>
      <trkpt lat="47.78935" lon="-3.31502">
        <ele>88</ele>
        <time>2015-01-30T09:17:10.965Z</time>
      </trkpt>
      <trkpt lat="47.78934" lon="-3.31494">
        <ele>88</ele>
        <time>2015-01-30T09:17:11.962Z</time>
      </trkpt>
      <trkpt lat="47.78935" lon="-3.31487">
        <ele>88</ele>
        <time>2015-01-30T09:17:12.960Z</time>
      </trkpt>
      <trkpt lat="47.78937" lon="-3.31481">
        <ele>88</ele>
        <time>2015-01-30T09:17:13.961Z</time>
      </trkpt>
      <trkpt lat="47.7894" lon="-3.31477">
        <ele>88</ele>
        <time>2015-01-30T09:17:14.959Z</time>
      </trkpt>
      <trkpt lat="47.78945" lon="-3.31473">
        <ele>88</ele>
        <time>2015-01-30T09:17:15.961Z</time>
      </trkpt>
      <trkpt lat="47.7895" lon="-3.31471">
        <ele>87</ele>
        <time>2015-01-30T09:17:16.959Z</time>
      </trkpt>
      <trkpt lat="47.78957" lon="-3.31471">
        <ele>87</ele>
        <time>2015-01-30T09:17:17.960Z</time>
      </trkpt>
      <trkpt lat="47.78964" lon="-3.3147">
        <ele>87</ele>
        <time>2015-01-30T09:17:19.063Z</time>
      </trkpt>
      <trkpt lat="47.78971" lon="-3.31469">
        <ele>88</ele>
        <time>2015-01-30T09:17:19.982Z</time>
      </trkpt>
      <trkpt lat="47.78975" lon="-3.31468">
        <ele>89</ele>
        <time>2015-01-30T09:17:20.962Z</time>
      </trkpt>
      <trkpt lat="47.78984" lon="-3.31468">
        <ele>90</ele>
        <time>2015-01-30T09:17:21.961Z</time>
      </trkpt>
      <trkpt lat="47.7899" lon="-3.31467">
        <ele>91</ele>
        <time>2015-01-30T09:17:22.961Z</time>
      </trkpt>
      <trkpt lat="47.78998" lon="-3.31466">
        <ele>90</ele>
        <time>2015-01-30T09:17:23.961Z</time>
      </trkpt>
      <trkpt lat="47.79005" lon="-3.31464">
        <ele>90</ele>
        <time>2015-01-30T09:17:24.961Z</time>
      </trkpt>
      <trkpt lat="47.79011" lon="-3.31463">
        <ele>89</ele>
        <time>2015-01-30T09:17:25.958Z</time>
      </trkpt>
      <trkpt lat="47.79016" lon="-3.3146">
        <ele>89</ele>
        <time>2015-01-30T09:17:26.960Z</time>
      </trkpt>
      <trkpt lat="47.7902" lon="-3.31455">
        <ele>90</ele>
        <time>2015-01-30T09:17:27.960Z</time>
      </trkpt>
      <trkpt lat="47.79024" lon="-3.3145">
        <ele>89</ele>
        <time>2015-01-30T09:17:28.962Z</time>
      </trkpt>
      <trkpt lat="47.79028" lon="-3.31444">
        <ele>88</ele>
        <time>2015-01-30T09:17:29.962Z</time>
      </trkpt>
      <trkpt lat="47.79028" lon="-3.3143">
        <ele>87</ele>
        <time>2015-01-30T09:17:31.962Z</time>
      </trkpt>
      <trkpt lat="47.79026" lon="-3.31425">
        <ele>86</ele>
        <time>2015-01-30T09:17:32.960Z</time>
      </trkpt>
      <trkpt lat="47.79022" lon="-3.31413">
        <ele>86</ele>
        <time>2015-01-30T09:17:40.958Z</time>
      </trkpt>
      <trkpt lat="47.79023" lon="-3.31412">
        <ele>85</ele>
        <time>2015-01-30T09:17:41.958Z</time>
      </trkpt>
      <trkpt lat="47.79029" lon="-3.31404">
        <ele>84</ele>
        <time>2015-01-30T09:17:49.960Z</time>
      </trkpt>
      <trkpt lat="47.79029" lon="-3.31403">
        <ele>84</ele>
        <time>2015-01-30T09:17:50.960Z</time>
      </trkpt>
      <trkpt lat="47.79028" lon="-3.3139">
        <ele>85</ele>
        <time>2015-01-30T09:18:10.963Z</time>
      </trkpt>
      <trkpt lat="47.79027" lon="-3.31389">
        <ele>85</ele>
        <time>2015-01-30T09:18:11.963Z</time>
      </trkpt>
      <trkpt lat="47.79019" lon="-3.31381">
        <ele>86</ele>
        <time>2015-01-30T09:18:17.964Z</time>
      </trkpt>
      <trkpt lat="47.79018" lon="-3.3138">
        <ele>87</ele>
        <time>2015-01-30T09:18:18.964Z</time>
      </trkpt>
      <trkpt lat="47.79016" lon="-3.31391">
        <ele>87</ele>
        <time>2015-01-30T09:18:30.972Z</time>
      </trkpt>
      <trkpt lat="47.79017" lon="-3.31394">
        <ele>87</ele>
        <time>2015-01-30T09:18:32.026Z</time>
      </trkpt>
      <trkpt lat="47.79018" lon="-3.31407">
        <ele>88</ele>
        <time>2015-01-30T09:18:37.980Z</time>
      </trkpt>
      <trkpt lat="47.79019" lon="-3.31409">
        <ele>88</ele>
        <time>2015-01-30T09:18:38.968Z</time>
      </trkpt>
      <trkpt lat="47.79026" lon="-3.31412">
        <ele>87</ele>
        <time>2015-01-30T09:18:49.965Z</time>
      </trkpt>
      <trkpt lat="47.79027" lon="-3.31413">
        <ele>86</ele>
        <time>2015-01-30T09:18:50.975Z</time>
      </trkpt>
      <trkpt lat="47.79028" lon="-3.31422">
        <ele>84</ele>
        <time>2015-01-30T09:19:14.961Z</time>
      </trkpt>
      <trkpt lat="47.79029" lon="-3.3143">
        <ele>84</ele>
        <time>2015-01-30T09:19:15.963Z</time>
      </trkpt>
      <trkpt lat="47.79029" lon="-3.31437">
        <ele>83</ele>
        <time>2015-01-30T09:19:16.964Z</time>
      </trkpt>
      <trkpt lat="47.79027" lon="-3.31444">
        <ele>84</ele>
        <time>2015-01-30T09:19:17.962Z</time>
      </trkpt>
      <trkpt lat="47.79024" lon="-3.31456">
        <ele>83</ele>
        <time>2015-01-30T09:19:18.963Z</time>
      </trkpt>
      <trkpt lat="47.79021" lon="-3.31462">
        <ele>83</ele>
        <time>2015-01-30T09:19:19.964Z</time>
      </trkpt>
      <trkpt lat="47.79013" lon="-3.31464">
        <ele>82</ele>
        <time>2015-01-30T09:19:21.957Z</time>
      </trkpt>
      <trkpt lat="47.7901" lon="-3.31463">
        <ele>82</ele>
        <time>2015-01-30T09:19:22.957Z</time>
      </trkpt>
      <trkpt lat="47.79002" lon="-3.31462">
        <ele>83</ele>
        <time>2015-01-30T09:19:24.959Z</time>
      </trkpt>
      <trkpt lat="47.78999" lon="-3.31461">
        <ele>83</ele>
        <time>2015-01-30T09:19:25.958Z</time>
      </trkpt>
      <trkpt lat="47.78991" lon="-3.31459">
        <ele>85</ele>
        <time>2015-01-30T09:20:08.957Z</time>
      </trkpt>
      <trkpt lat="47.78987" lon="-3.31459">
        <ele>86</ele>
        <time>2015-01-30T09:20:09.957Z</time>
      </trkpt>
      <trkpt lat="47.78978" lon="-3.31461">
        <ele>87</ele>
        <time>2015-01-30T09:20:11.958Z</time>
      </trkpt>
      <trkpt lat="47.78973" lon="-3.31462">
        <ele>89</ele>
        <time>2015-01-30T09:20:12.958Z</time>
      </trkpt>
      <trkpt lat="47.78964" lon="-3.31469">
        <ele>89</ele>
        <time>2015-01-30T09:20:13.959Z</time>
      </trkpt>
      <trkpt lat="47.78959" lon="-3.3147">
        <ele>89</ele>
        <time>2015-01-30T09:20:14.957Z</time>
      </trkpt>
      <trkpt lat="47.78952" lon="-3.3147">
        <ele>90</ele>
        <time>2015-01-30T09:20:15.958Z</time>
      </trkpt>
      <trkpt lat="47.78945" lon="-3.31469">
        <ele>90</ele>
        <time>2015-01-30T09:20:16.958Z</time>
      </trkpt>
      <trkpt lat="47.7894" lon="-3.3147">
        <ele>90</ele>
        <time>2015-01-30T09:20:17.957Z</time>
      </trkpt>
      <trkpt lat="47.78931" lon="-3.3147">
        <ele>90</ele>
        <time>2015-01-30T09:20:19.957Z</time>
      </trkpt>
      <trkpt lat="47.78928" lon="-3.31468">
        <ele>91</ele>
        <time>2015-01-30T09:20:20.958Z</time>
      </trkpt>
      <trkpt lat="47.78924" lon="-3.31456">
        <ele>90</ele>
        <time>2015-01-30T09:20:22.958Z</time>
      </trkpt>
      <trkpt lat="47.78925" lon="-3.31447">
        <ele>91</ele>
        <time>2015-01-30T09:20:23.957Z</time>
      </trkpt>
      <trkpt lat="47.78925" lon="-3.3144">
        <ele>89</ele>
        <time>2015-01-30T09:20:24.957Z</time>
      </trkpt>
      <trkpt lat="47.78925" lon="-3.31431">
        <ele>89</ele>
        <time>2015-01-30T09:20:25.957Z</time>
      </trkpt>
      <trkpt lat="47.78925" lon="-3.31423">
        <ele>88</ele>
        <time>2015-01-30T09:20:27.026Z</time>
      </trkpt>
      <trkpt lat="47.78926" lon="-3.31415">
        <ele>89</ele>
        <time>2015-01-30T09:20:28.045Z</time>
      </trkpt>
      <trkpt lat="47.78927" lon="-3.31406">
        <ele>91</ele>
        <time>2015-01-30T09:20:28.985Z</time>
      </trkpt>
      <trkpt lat="47.78928" lon="-3.31399">
        <ele>90</ele>
        <time>2015-01-30T09:20:30.028Z</time>
      </trkpt>
      <trkpt lat="47.7893" lon="-3.31387">
        <ele>91</ele>
        <time>2015-01-30T09:20:32.038Z</time>
      </trkpt>
      <trkpt lat="47.7893" lon="-3.31383">
        <ele>91</ele>
        <time>2015-01-30T09:20:33.071Z</time>
      </trkpt>
      <trkpt lat="47.78925" lon="-3.31377">
        <ele>92</ele>
        <time>2015-01-30T09:20:58.046Z</time>
      </trkpt>
      <trkpt lat="47.78923" lon="-3.31376">
        <ele>93</ele>
        <time>2015-01-30T09:20:59.009Z</time>
      </trkpt>
      <trkpt lat="47.78918" lon="-3.31374">
        <ele>93</ele>
        <time>2015-01-30T09:20:59.957Z</time>
      </trkpt>
      <trkpt lat="47.78913" lon="-3.31374">
        <ele>93</ele>
        <time>2015-01-30T09:21:00.958Z</time>
      </trkpt>
      <trkpt lat="47.78905" lon="-3.31375">
        <ele>94</ele>
        <time>2015-01-30T09:21:01.957Z</time>
      </trkpt>
      <trkpt lat="47.78898" lon="-3.31377">
        <ele>95</ele>
        <time>2015-01-30T09:21:02.957Z</time>
      </trkpt>
      <trkpt lat="47.7889" lon="-3.31378">
        <ele>97</ele>
        <time>2015-01-30T09:21:03.957Z</time>
      </trkpt>
      <trkpt lat="47.78884" lon="-3.3138">
        <ele>97</ele>
        <time>2015-01-30T09:21:04.958Z</time>
      </trkpt>
      <trkpt lat="47.78878" lon="-3.31382">
        <ele>96</ele>
        <time>2015-01-30T09:21:05.957Z</time>
      </trkpt>
      <trkpt lat="47.78871" lon="-3.31384">
        <ele>96</ele>
        <time>2015-01-30T09:21:06.958Z</time>
      </trkpt>
      <trkpt lat="47.78864" lon="-3.31386">
        <ele>97</ele>
        <time>2015-01-30T09:21:07.958Z</time>
      </trkpt>
      <trkpt lat="47.78858" lon="-3.31389">
        <ele>96</ele>
        <time>2015-01-30T09:21:08.957Z</time>
      </trkpt>
      <trkpt lat="47.78851" lon="-3.31391">
        <ele>96</ele>
        <time>2015-01-30T09:21:09.957Z</time>
      </trkpt>
      <trkpt lat="47.78844" lon="-3.31393">
        <ele>96</ele>
        <time>2015-01-30T09:21:10.978Z</time>
      </trkpt>
      <trkpt lat="47.78838" lon="-3.31397">
        <ele>96</ele>
        <time>2015-01-30T09:21:11.957Z</time>
      </trkpt>
      <trkpt lat="47.7883" lon="-3.31397">
        <ele>96</ele>
        <time>2015-01-30T09:21:12.957Z</time>
      </trkpt>
      <trkpt lat="47.78823" lon="-3.31396">
        <ele>96</ele>
        <time>2015-01-30T09:21:13.957Z</time>
      </trkpt>
      <trkpt lat="47.78818" lon="-3.31391">
        <ele>95</ele>
        <time>2015-01-30T09:21:14.957Z</time>
      </trkpt>
      <trkpt lat="47.78813" lon="-3.31385">
        <ele>95</ele>
        <time>2015-01-30T09:21:15.957Z</time>
      </trkpt>
      <trkpt lat="47.78809" lon="-3.31377">
        <ele>94</ele>
        <time>2015-01-30T09:21:16.956Z</time>
      </trkpt>
      <trkpt lat="47.78805" lon="-3.31367">
        <ele>94</ele>
        <time>2015-01-30T09:21:17.956Z</time>
      </trkpt>
      <trkpt lat="47.788" lon="-3.31357">
        <ele>93</ele>
        <time>2015-01-30T09:21:18.956Z</time>
      </trkpt>
      <trkpt lat="47.78797" lon="-3.31347">
        <ele>94</ele>
        <time>2015-01-30T09:21:19.956Z</time>
      </trkpt>
      <trkpt lat="47.78792" lon="-3.31336">
        <ele>93</ele>
        <time>2015-01-30T09:21:20.979Z</time>
      </trkpt>
      <trkpt lat="47.78788" lon="-3.31326">
        <ele>91</ele>
        <time>2015-01-30T09:21:21.957Z</time>
      </trkpt>
      <trkpt lat="47.78785" lon="-3.31315">
        <ele>91</ele>
        <time>2015-01-30T09:21:22.957Z</time>
      </trkpt>
      <trkpt lat="47.78781" lon="-3.31302">
        <ele>90</ele>
        <time>2015-01-30T09:21:23.956Z</time>
      </trkpt>
      <trkpt lat="47.78778" lon="-3.31287">
        <ele>91</ele>
        <time>2015-01-30T09:21:24.957Z</time>
      </trkpt>
      <trkpt lat="47.78773" lon="-3.31274">
        <ele>92</ele>
        <time>2015-01-30T09:21:25.957Z</time>
      </trkpt>
      <trkpt lat="47.7877" lon="-3.31262">
        <ele>92</ele>
        <time>2015-01-30T09:21:26.958Z</time>
      </trkpt>
      <trkpt lat="47.78766" lon="-3.3125">
        <ele>92</ele>
        <time>2015-01-30T09:21:27.958Z</time>
      </trkpt>
      <trkpt lat="47.78762" lon="-3.31238">
        <ele>93</ele>
        <time>2015-01-30T09:21:28.957Z</time>
      </trkpt>
      <trkpt lat="47.7876" lon="-3.31225">
        <ele>94</ele>
        <time>2015-01-30T09:21:29.957Z</time>
      </trkpt>
      <trkpt lat="47.78757" lon="-3.31215">
        <ele>93</ele>
        <time>2015-01-30T09:21:30.957Z</time>
      </trkpt>
      <trkpt lat="47.78753" lon="-3.31205">
        <ele>92</ele>
        <time>2015-01-30T09:21:31.978Z</time>
      </trkpt>
      <trkpt lat="47.78749" lon="-3.31197">
        <ele>92</ele>
        <time>2015-01-30T09:21:32.956Z</time>
      </trkpt>
      <trkpt lat="47.78743" lon="-3.31192">
        <ele>91</ele>
        <time>2015-01-30T09:21:33.956Z</time>
      </trkpt>
      <trkpt lat="47.78737" lon="-3.31191">
        <ele>90</ele>
        <time>2015-01-30T09:21:34.956Z</time>
      </trkpt>
      <trkpt lat="47.78731" lon="-3.31193">
        <ele>90</ele>
        <time>2015-01-30T09:21:35.956Z</time>
      </trkpt>
      <trkpt lat="47.78724" lon="-3.31198">
        <ele>89</ele>
        <time>2015-01-30T09:21:36.956Z</time>
      </trkpt>
      <trkpt lat="47.78717" lon="-3.31202">
        <ele>89</ele>
        <time>2015-01-30T09:21:37.956Z</time>
      </trkpt>
      <trkpt lat="47.7871" lon="-3.31207">
        <ele>88</ele>
        <time>2015-01-30T09:21:38.957Z</time>
      </trkpt>
      <trkpt lat="47.78702" lon="-3.31212">
        <ele>88</ele>
        <time>2015-01-30T09:21:39.961Z</time>
      </trkpt>
      <trkpt lat="47.78695" lon="-3.31218">
        <ele>88</ele>
        <time>2015-01-30T09:21:40.956Z</time>
      </trkpt>
      <trkpt lat="47.78688" lon="-3.31225">
        <ele>88</ele>
        <time>2015-01-30T09:21:41.957Z</time>
      </trkpt>
      <trkpt lat="47.78682" lon="-3.31233">
        <ele>88</ele>
        <time>2015-01-30T09:21:42.956Z</time>
      </trkpt>
      <trkpt lat="47.78679" lon="-3.31241">
        <ele>86</ele>
        <time>2015-01-30T09:21:43.956Z</time>
      </trkpt>
      <trkpt lat="47.78673" lon="-3.31248">
        <ele>86</ele>
        <time>2015-01-30T09:21:44.956Z</time>
      </trkpt>
      <trkpt lat="47.78669" lon="-3.31252">
        <ele>85</ele>
        <time>2015-01-30T09:21:45.955Z</time>
      </trkpt>
      <trkpt lat="47.78663" lon="-3.31256">
        <ele>84</ele>
        <time>2015-01-30T09:21:46.955Z</time>
      </trkpt>
      <trkpt lat="47.78658" lon="-3.31259">
        <ele>84</ele>
        <time>2015-01-30T09:21:47.956Z</time>
      </trkpt>
      <trkpt lat="47.78652" lon="-3.31261">
        <ele>83</ele>
        <time>2015-01-30T09:21:48.955Z</time>
      </trkpt>
      <trkpt lat="47.78647" lon="-3.31262">
        <ele>84</ele>
        <time>2015-01-30T09:21:49.955Z</time>
      </trkpt>
      <trkpt lat="47.78638" lon="-3.31264">
        <ele>84</ele>
        <time>2015-01-30T09:21:52.957Z</time>
      </trkpt>
      <trkpt lat="47.78637" lon="-3.31266">
        <ele>84</ele>
        <time>2015-01-30T09:21:53.957Z</time>
      </trkpt>
      <trkpt lat="47.7863" lon="-3.31271">
        <ele>87</ele>
        <time>2015-01-30T09:22:13.955Z</time>
      </trkpt>
      <trkpt lat="47.78627" lon="-3.31272">
        <ele>87</ele>
        <time>2015-01-30T09:22:14.956Z</time>
      </trkpt>
      <trkpt lat="47.78619" lon="-3.31273">
        <ele>88</ele>
        <time>2015-01-30T09:22:16.957Z</time>
      </trkpt>
      <trkpt lat="47.78614" lon="-3.31271">
        <ele>88</ele>
        <time>2015-01-30T09:22:17.956Z</time>
      </trkpt>
      <trkpt lat="47.78605" lon="-3.3127">
        <ele>86</ele>
        <time>2015-01-30T09:22:19.957Z</time>
      </trkpt>
      <trkpt lat="47.78601" lon="-3.31271">
        <ele>86</ele>
        <time>2015-01-30T09:22:20.956Z</time>
      </trkpt>
      <trkpt lat="47.78596" lon="-3.31279">
        <ele>84</ele>
        <time>2015-01-30T09:22:22.956Z</time>
      </trkpt>
      <trkpt lat="47.78594" lon="-3.31285">
        <ele>84</ele>
        <time>2015-01-30T09:22:23.956Z</time>
      </trkpt>
      <trkpt lat="47.7859" lon="-3.31295">
        <ele>85</ele>
        <time>2015-01-30T09:22:25.956Z</time>
      </trkpt>
      <trkpt lat="47.78589" lon="-3.31299">
        <ele>84</ele>
        <time>2015-01-30T09:22:26.956Z</time>
      </trkpt>
      <trkpt lat="47.78593" lon="-3.3131">
        <ele>85</ele>
        <time>2015-01-30T09:22:42.956Z</time>
      </trkpt>
      <trkpt lat="47.78593" lon="-3.31312">
        <ele>82</ele>
        <time>2015-01-30T09:22:43.999Z</time>
      </trkpt>
      <trkpt lat="47.78596" lon="-3.313">
        <ele>84</ele>
        <time>2015-01-30T09:23:51.957Z</time>
      </trkpt>
      <trkpt lat="47.78598" lon="-3.31297">
        <ele>84</ele>
        <time>2015-01-30T09:23:52.959Z</time>
      </trkpt>
      <trkpt lat="47.78601" lon="-3.31288">
        <ele>82</ele>
        <time>2015-01-30T09:23:54.957Z</time>
      </trkpt>
      <trkpt lat="47.78603" lon="-3.31283">
        <ele>83</ele>
        <time>2015-01-30T09:23:55.983Z</time>
      </trkpt>
      <trkpt lat="47.78607" lon="-3.31274">
        <ele>83</ele>
        <time>2015-01-30T09:23:57.959Z</time>
      </trkpt>
      <trkpt lat="47.78609" lon="-3.3127">
        <ele>83</ele>
        <time>2015-01-30T09:23:58.955Z</time>
      </trkpt>
      <trkpt lat="47.78617" lon="-3.31271">
        <ele>83</ele>
        <time>2015-01-30T09:24:01.994Z</time>
      </trkpt>
      <trkpt lat="47.78618" lon="-3.31273">
        <ele>83</ele>
        <time>2015-01-30T09:24:02.956Z</time>
      </trkpt>
      <trkpt lat="47.78626" lon="-3.31275">
        <ele>84</ele>
        <time>2015-01-30T09:24:20.844Z</time>
      </trkpt>
      <trkpt lat="47.7863" lon="-3.31273">
        <ele>84</ele>
        <time>2015-01-30T09:24:21.845Z</time>
      </trkpt>
      <trkpt lat="47.78634" lon="-3.31271">
        <ele>84</ele>
        <time>2015-01-30T09:24:22.846Z</time>
      </trkpt>
      <trkpt lat="47.78639" lon="-3.31268">
        <ele>85</ele>
        <time>2015-01-30T09:24:23.845Z</time>
      </trkpt>
      <trkpt lat="47.78646" lon="-3.31267">
        <ele>84</ele>
        <time>2015-01-30T09:24:24.846Z</time>
      </trkpt>
      <trkpt lat="47.78651" lon="-3.31263">
        <ele>86</ele>
        <time>2015-01-30T09:24:25.845Z</time>
      </trkpt>
      <trkpt lat="47.78657" lon="-3.31261">
        <ele>86</ele>
        <time>2015-01-30T09:24:26.847Z</time>
      </trkpt>
      <trkpt lat="47.78663" lon="-3.31257">
        <ele>86</ele>
        <time>2015-01-30T09:24:27.844Z</time>
      </trkpt>
      <trkpt lat="47.78669" lon="-3.31251">
        <ele>89</ele>
        <time>2015-01-30T09:24:28.844Z</time>
      </trkpt>
      <trkpt lat="47.78675" lon="-3.31245">
        <ele>90</ele>
        <time>2015-01-30T09:24:29.845Z</time>
      </trkpt>
      <trkpt lat="47.78683" lon="-3.31239">
        <ele>89</ele>
        <time>2015-01-30T09:24:30.845Z</time>
      </trkpt>
      <trkpt lat="47.78688" lon="-3.31231">
        <ele>88</ele>
        <time>2015-01-30T09:24:31.844Z</time>
      </trkpt>
      <trkpt lat="47.78694" lon="-3.31224">
        <ele>88</ele>
        <time>2015-01-30T09:24:32.844Z</time>
      </trkpt>
      <trkpt lat="47.787" lon="-3.31217">
        <ele>88</ele>
        <time>2015-01-30T09:24:33.846Z</time>
      </trkpt>
      <trkpt lat="47.78707" lon="-3.31211">
        <ele>85</ele>
        <time>2015-01-30T09:24:34.332Z</time>
      </trkpt>
      <trkpt lat="47.78714" lon="-3.31208">
        <ele>85</ele>
        <time>2015-01-30T09:24:35.329Z</time>
      </trkpt>
      <trkpt lat="47.78721" lon="-3.31205">
        <ele>85</ele>
        <time>2015-01-30T09:24:36.330Z</time>
      </trkpt>
      <trkpt lat="47.78729" lon="-3.31203">
        <ele>86</ele>
        <time>2015-01-30T09:24:37.342Z</time>
      </trkpt>
      <trkpt lat="47.78737" lon="-3.31199">
        <ele>87</ele>
        <time>2015-01-30T09:24:38.342Z</time>
      </trkpt>
      <trkpt lat="47.78746" lon="-3.31198">
        <ele>87</ele>
        <time>2015-01-30T09:24:39.352Z</time>
      </trkpt>
      <trkpt lat="47.78752" lon="-3.31201">
        <ele>86</ele>
        <time>2015-01-30T09:24:40.343Z</time>
      </trkpt>
      <trkpt lat="47.78755" lon="-3.31207">
        <ele>85</ele>
        <time>2015-01-30T09:24:41.363Z</time>
      </trkpt>
      <trkpt lat="47.78757" lon="-3.31214">
        <ele>85</ele>
        <time>2015-01-30T09:24:42.343Z</time>
      </trkpt>
      <trkpt lat="47.78761" lon="-3.31223">
        <ele>87</ele>
        <time>2015-01-30T09:24:43.343Z</time>
      </trkpt>
      <trkpt lat="47.78764" lon="-3.31233">
        <ele>87</ele>
        <time>2015-01-30T09:24:44.342Z</time>
      </trkpt>
      <trkpt lat="47.78767" lon="-3.31243">
        <ele>88</ele>
        <time>2015-01-30T09:24:45.342Z</time>
      </trkpt>
      <trkpt lat="47.78769" lon="-3.31254">
        <ele>87</ele>
        <time>2015-01-30T09:24:46.343Z</time>
      </trkpt>
      <trkpt lat="47.78772" lon="-3.31264">
        <ele>87</ele>
        <time>2015-01-30T09:24:47.343Z</time>
      </trkpt>
      <trkpt lat="47.78776" lon="-3.31275">
        <ele>86</ele>
        <time>2015-01-30T09:24:48.343Z</time>
      </trkpt>
      <trkpt lat="47.7878" lon="-3.31285">
        <ele>86</ele>
        <time>2015-01-30T09:24:49.343Z</time>
      </trkpt>
      <trkpt lat="47.78782" lon="-3.31296">
        <ele>87</ele>
        <time>2015-01-30T09:24:50.343Z</time>
      </trkpt>
      <trkpt lat="47.78785" lon="-3.31309">
        <ele>87</ele>
        <time>2015-01-30T09:24:51.341Z</time>
      </trkpt>
      <trkpt lat="47.78788" lon="-3.3132">
        <ele>87</ele>
        <time>2015-01-30T09:24:52.343Z</time>
      </trkpt>
      <trkpt lat="47.78794" lon="-3.31328">
        <ele>87</ele>
        <time>2015-01-30T09:24:53.342Z</time>
      </trkpt>
      <trkpt lat="47.78796" lon="-3.31339">
        <ele>87</ele>
        <time>2015-01-30T09:24:54.343Z</time>
      </trkpt>
      <trkpt lat="47.788" lon="-3.3135">
        <ele>88</ele>
        <time>2015-01-30T09:24:55.343Z</time>
      </trkpt>
      <trkpt lat="47.78803" lon="-3.31361">
        <ele>88</ele>
        <time>2015-01-30T09:24:56.344Z</time>
      </trkpt>
      <trkpt lat="47.78807" lon="-3.31373">
        <ele>88</ele>
        <time>2015-01-30T09:24:57.343Z</time>
      </trkpt>
      <trkpt lat="47.78812" lon="-3.3138">
        <ele>90</ele>
        <time>2015-01-30T09:24:58.343Z</time>
      </trkpt>
      <trkpt lat="47.78817" lon="-3.31387">
        <ele>89</ele>
        <time>2015-01-30T09:24:59.343Z</time>
      </trkpt>
      <trkpt lat="47.78823" lon="-3.31392">
        <ele>89</ele>
        <time>2015-01-30T09:25:00.342Z</time>
      </trkpt>
      <trkpt lat="47.78829" lon="-3.31394">
        <ele>89</ele>
        <time>2015-01-30T09:25:01.342Z</time>
      </trkpt>
      <trkpt lat="47.78838" lon="-3.31396">
        <ele>88</ele>
        <time>2015-01-30T09:25:02.342Z</time>
      </trkpt>
      <trkpt lat="47.78845" lon="-3.31398">
        <ele>86</ele>
        <time>2015-01-30T09:25:03.342Z</time>
      </trkpt>
      <trkpt lat="47.78852" lon="-3.31396">
        <ele>85</ele>
        <time>2015-01-30T09:25:04.343Z</time>
      </trkpt>
      <trkpt lat="47.7886" lon="-3.31394">
        <ele>85</ele>
        <time>2015-01-30T09:25:05.343Z</time>
      </trkpt>
      <trkpt lat="47.78868" lon="-3.31391">
        <ele>85</ele>
        <time>2015-01-30T09:25:06.342Z</time>
      </trkpt>
      <trkpt lat="47.78876" lon="-3.31386">
        <ele>84</ele>
        <time>2015-01-30T09:25:07.341Z</time>
      </trkpt>
      <trkpt lat="47.78885" lon="-3.31385">
        <ele>84</ele>
        <time>2015-01-30T09:25:08.340Z</time>
      </trkpt>
      <trkpt lat="47.78893" lon="-3.3138">
        <ele>85</ele>
        <time>2015-01-30T09:25:09.340Z</time>
      </trkpt>
      <trkpt lat="47.78902" lon="-3.31377">
        <ele>84</ele>
        <time>2015-01-30T09:25:10.342Z</time>
      </trkpt>
      <trkpt lat="47.78909" lon="-3.31375">
        <ele>85</ele>
        <time>2015-01-30T09:25:11.341Z</time>
      </trkpt>
      <trkpt lat="47.78915" lon="-3.31373">
        <ele>83</ele>
        <time>2015-01-30T09:25:12.341Z</time>
      </trkpt>
      <trkpt lat="47.78921" lon="-3.31374">
        <ele>84</ele>
        <time>2015-01-30T09:25:13.340Z</time>
      </trkpt>
      <trkpt lat="47.78925" lon="-3.31378">
        <ele>84</ele>
        <time>2015-01-30T09:25:14.341Z</time>
      </trkpt>
      <trkpt lat="47.78929" lon="-3.31383">
        <ele>83</ele>
        <time>2015-01-30T09:25:15.342Z</time>
      </trkpt>
      <trkpt lat="47.78931" lon="-3.3139">
        <ele>85</ele>
        <time>2015-01-30T09:25:16.341Z</time>
      </trkpt>
      <trkpt lat="47.78932" lon="-3.31398">
        <ele>86</ele>
        <time>2015-01-30T09:25:17.341Z</time>
      </trkpt>
      <trkpt lat="47.78932" lon="-3.31409">
        <ele>86</ele>
        <time>2015-01-30T09:25:18.340Z</time>
      </trkpt>
      <trkpt lat="47.78932" lon="-3.31419">
        <ele>86</ele>
        <time>2015-01-30T09:25:19.341Z</time>
      </trkpt>
      <trkpt lat="47.78932" lon="-3.31429">
        <ele>86</ele>
        <time>2015-01-30T09:25:20.341Z</time>
      </trkpt>
      <trkpt lat="47.78931" lon="-3.31439">
        <ele>86</ele>
        <time>2015-01-30T09:25:21.342Z</time>
      </trkpt>
      <trkpt lat="47.78932" lon="-3.3145">
        <ele>86</ele>
        <time>2015-01-30T09:25:22.341Z</time>
      </trkpt>
      <trkpt lat="47.78933" lon="-3.31461">
        <ele>85</ele>
        <time>2015-01-30T09:25:23.340Z</time>
      </trkpt>
      <trkpt lat="47.78932" lon="-3.31473">
        <ele>84</ele>
        <time>2015-01-30T09:25:24.341Z</time>
      </trkpt>
      <trkpt lat="47.78933" lon="-3.31484">
        <ele>83</ele>
        <time>2015-01-30T09:25:25.340Z</time>
      </trkpt>
      <trkpt lat="47.78933" lon="-3.31496">
        <ele>83</ele>
        <time>2015-01-30T09:25:26.340Z</time>
      </trkpt>
      <trkpt lat="47.78934" lon="-3.3151">
        <ele>82</ele>
        <time>2015-01-30T09:25:27.341Z</time>
      </trkpt>
      <trkpt lat="47.78934" lon="-3.31522">
        <ele>83</ele>
        <time>2015-01-30T09:25:28.414Z</time>
      </trkpt>
      <trkpt lat="47.78935" lon="-3.31537">
        <ele>84</ele>
        <time>2015-01-30T09:25:29.420Z</time>
      </trkpt>
      <trkpt lat="47.78936" lon="-3.31549">
        <ele>82</ele>
        <time>2015-01-30T09:25:30.407Z</time>
      </trkpt>
      <trkpt lat="47.78937" lon="-3.31563">
        <ele>82</ele>
        <time>2015-01-30T09:25:31.406Z</time>
      </trkpt>
      <trkpt lat="47.78938" lon="-3.31577">
        <ele>83</ele>
        <time>2015-01-30T09:25:32.359Z</time>
      </trkpt>
      <trkpt lat="47.78939" lon="-3.31591">
        <ele>84</ele>
        <time>2015-01-30T09:25:33.412Z</time>
      </trkpt>
      <trkpt lat="47.7894" lon="-3.31604">
        <ele>83</ele>
        <time>2015-01-30T09:25:34.380Z</time>
      </trkpt>
      <trkpt lat="47.78942" lon="-3.31618">
        <ele>85</ele>
        <time>2015-01-30T09:25:35.340Z</time>
      </trkpt>
      <trkpt lat="47.78944" lon="-3.31631">
        <ele>85</ele>
        <time>2015-01-30T09:25:36.346Z</time>
      </trkpt>
      <trkpt lat="47.78945" lon="-3.31644">
        <ele>85</ele>
        <time>2015-01-30T09:25:37.342Z</time>
      </trkpt>
      <trkpt lat="47.78947" lon="-3.31656">
        <ele>85</ele>
        <time>2015-01-30T09:25:38.371Z</time>
      </trkpt>
      <trkpt lat="47.78948" lon="-3.31669">
        <ele>85</ele>
        <time>2015-01-30T09:25:39.349Z</time>
      </trkpt>
      <trkpt lat="47.78949" lon="-3.31681">
        <ele>85</ele>
        <time>2015-01-30T09:25:40.408Z</time>
      </trkpt>
      <trkpt lat="47.78953" lon="-3.3169">
        <ele>85</ele>
        <time>2015-01-30T09:25:41.401Z</time>
      </trkpt>
      <trkpt lat="47.78956" lon="-3.317">
        <ele>85</ele>
        <time>2015-01-30T09:25:42.388Z</time>
      </trkpt>
      <trkpt lat="47.78962" lon="-3.31705">
        <ele>86</ele>
        <time>2015-01-30T09:25:43.386Z</time>
      </trkpt>
      <trkpt lat="47.78969" lon="-3.31711">
        <ele>86</ele>
        <time>2015-01-30T09:25:44.371Z</time>
      </trkpt>
      <trkpt lat="47.78976" lon="-3.31716">
        <ele>86</ele>
        <time>2015-01-30T09:25:45.440Z</time>
      </trkpt>
      <trkpt lat="47.78983" lon="-3.31722">
        <ele>88</ele>
        <time>2015-01-30T09:25:46.340Z</time>
      </trkpt>
      <trkpt lat="47.7899" lon="-3.31726">
        <ele>89</ele>
        <time>2015-01-30T09:25:47.437Z</time>
      </trkpt>
      <trkpt lat="47.78997" lon="-3.31729">
        <ele>88</ele>
        <time>2015-01-30T09:25:48.392Z</time>
      </trkpt>
      <trkpt lat="47.79003" lon="-3.31732">
        <ele>89</ele>
        <time>2015-01-30T09:25:49.342Z</time>
      </trkpt>
      <trkpt lat="47.79008" lon="-3.31731">
        <ele>89</ele>
        <time>2015-01-30T09:25:50.341Z</time>
      </trkpt>
      <trkpt lat="47.79013" lon="-3.31727">
        <ele>87</ele>
        <time>2015-01-30T09:25:51.341Z</time>
      </trkpt>
      <trkpt lat="47.79017" lon="-3.31719">
        <ele>87</ele>
        <time>2015-01-30T09:25:52.342Z</time>
      </trkpt>
      <trkpt lat="47.7902" lon="-3.31711">
        <ele>87</ele>
        <time>2015-01-30T09:25:53.341Z</time>
      </trkpt>
      <trkpt lat="47.79022" lon="-3.317">
        <ele>86</ele>
        <time>2015-01-30T09:25:54.339Z</time>
      </trkpt>
      <trkpt lat="47.79025" lon="-3.31689">
        <ele>87</ele>
        <time>2015-01-30T09:25:55.340Z</time>
      </trkpt>
      <trkpt lat="47.79027" lon="-3.3168">
        <ele>86</ele>
        <time>2015-01-30T09:25:56.341Z</time>
      </trkpt>
      <trkpt lat="47.79031" lon="-3.31671">
        <ele>84</ele>
        <time>2015-01-30T09:25:57.358Z</time>
      </trkpt>
      <trkpt lat="47.79035" lon="-3.31664">
        <ele>84</ele>
        <time>2015-01-30T09:25:58.341Z</time>
      </trkpt>
      <trkpt lat="47.7904" lon="-3.31657">
        <ele>84</ele>
        <time>2015-01-30T09:25:59.365Z</time>
      </trkpt>
      <trkpt lat="47.79047" lon="-3.31653">
        <ele>84</ele>
        <time>2015-01-30T09:26:00.341Z</time>
      </trkpt>
      <trkpt lat="47.79052" lon="-3.31647">
        <ele>85</ele>
        <time>2015-01-30T09:26:01.394Z</time>
      </trkpt>
      <trkpt lat="47.79056" lon="-3.3164">
        <ele>86</ele>
        <time>2015-01-30T09:26:02.340Z</time>
      </trkpt>
      <trkpt lat="47.79062" lon="-3.31633">
        <ele>85</ele>
        <time>2015-01-30T09:26:03.361Z</time>
      </trkpt>
      <trkpt lat="47.79067" lon="-3.31624">
        <ele>84</ele>
        <time>2015-01-30T09:26:04.340Z</time>
      </trkpt>
      <trkpt lat="47.79072" lon="-3.31615">
        <ele>84</ele>
        <time>2015-01-30T09:26:05.344Z</time>
      </trkpt>
      <trkpt lat="47.79077" lon="-3.31607">
        <ele>84</ele>
        <time>2015-01-30T09:26:06.344Z</time>
      </trkpt>
      <trkpt lat="47.79081" lon="-3.31598">
        <ele>84</ele>
        <time>2015-01-30T09:26:07.356Z</time>
      </trkpt>
      <trkpt lat="47.79084" lon="-3.31591">
        <ele>84</ele>
        <time>2015-01-30T09:26:08.404Z</time>
      </trkpt>
      <trkpt lat="47.79088" lon="-3.31585">
        <ele>84</ele>
        <time>2015-01-30T09:26:09.358Z</time>
      </trkpt>
      <trkpt lat="47.79093" lon="-3.31576">
        <ele>84</ele>
        <time>2015-01-30T09:26:11.432Z</time>
      </trkpt>
      <trkpt lat="47.79095" lon="-3.31571">
        <ele>83</ele>
        <time>2015-01-30T09:26:12.435Z</time>
      </trkpt>
      <trkpt lat="47.791" lon="-3.31561">
        <ele>89</ele>
        <time>2015-01-30T09:26:47.382Z</time>
      </trkpt>
      <trkpt lat="47.791" lon="-3.3156">
        <ele>88</ele>
        <time>2015-01-30T09:26:48.341Z</time>
      </trkpt>
      <trkpt lat="47.79092" lon="-3.31563">
        <ele>90</ele>
        <time>2015-01-30T09:27:30.394Z</time>
      </trkpt>
      <trkpt lat="47.79089" lon="-3.31565">
        <ele>89</ele>
        <time>2015-01-30T09:27:31.342Z</time>
      </trkpt>
      <trkpt lat="47.79086" lon="-3.31575">
        <ele>89</ele>
        <time>2015-01-30T09:27:33.342Z</time>
      </trkpt>
      <trkpt lat="47.79084" lon="-3.31581">
        <ele>89</ele>
        <time>2015-01-30T09:27:34.342Z</time>
      </trkpt>
      <trkpt lat="47.79083" lon="-3.31588">
        <ele>89</ele>
        <time>2015-01-30T09:27:35.339Z</time>
      </trkpt>
      <trkpt lat="47.7908" lon="-3.31598">
        <ele>88</ele>
        <time>2015-01-30T09:27:36.338Z</time>
      </trkpt>
      <trkpt lat="47.79076" lon="-3.31606">
        <ele>87</ele>
        <time>2015-01-30T09:27:37.338Z</time>
      </trkpt>
      <trkpt lat="47.79073" lon="-3.31612">
        <ele>88</ele>
        <time>2015-01-30T09:27:38.348Z</time>
      </trkpt>
      <trkpt lat="47.79069" lon="-3.3162">
        <ele>88</ele>
        <time>2015-01-30T09:27:39.367Z</time>
      </trkpt>
      <trkpt lat="47.79065" lon="-3.31627">
        <ele>89</ele>
        <time>2015-01-30T09:27:40.341Z</time>
      </trkpt>
      <trkpt lat="47.79061" lon="-3.31634">
        <ele>89</ele>
        <time>2015-01-30T09:27:41.406Z</time>
      </trkpt>
      <trkpt lat="47.79058" lon="-3.31639">
        <ele>90</ele>
        <time>2015-01-30T09:27:42.405Z</time>
      </trkpt>
      <trkpt lat="47.79051" lon="-3.31647">
        <ele>90</ele>
        <time>2015-01-30T09:27:45.341Z</time>
      </trkpt>
      <trkpt lat="47.79049" lon="-3.31646">
        <ele>89</ele>
        <time>2015-01-30T09:27:46.446Z</time>
      </trkpt>
      <trkpt lat="47.79042" lon="-3.31638">
        <ele>89</ele>
        <time>2015-01-30T09:27:50.398Z</time>
      </trkpt>
      <trkpt lat="47.79041" lon="-3.31636">
        <ele>89</ele>
        <time>2015-01-30T09:27:51.427Z</time>
      </trkpt>
      <trkpt lat="47.79035" lon="-3.31646">
        <ele>90</ele>
        <time>2015-01-30T09:28:36.339Z</time>
      </trkpt>
      <trkpt lat="47.79033" lon="-3.31652">
        <ele>90</ele>
        <time>2015-01-30T09:28:37.370Z</time>
      </trkpt>
      <trkpt lat="47.79031" lon="-3.31659">
        <ele>90</ele>
        <time>2015-01-30T09:28:38.385Z</time>
      </trkpt>
      <trkpt lat="47.7903" lon="-3.31667">
        <ele>90</ele>
        <time>2015-01-30T09:28:39.421Z</time>
      </trkpt>
      <trkpt lat="47.79028" lon="-3.31675">
        <ele>89</ele>
        <time>2015-01-30T09:28:40.339Z</time>
      </trkpt>
      <trkpt lat="47.79026" lon="-3.31684">
        <ele>90</ele>
        <time>2015-01-30T09:28:41.424Z</time>
      </trkpt>
      <trkpt lat="47.79023" lon="-3.31693">
        <ele>90</ele>
        <time>2015-01-30T09:28:42.410Z</time>
      </trkpt>
      <trkpt lat="47.79021" lon="-3.31704">
        <ele>90</ele>
        <time>2015-01-30T09:28:43.398Z</time>
      </trkpt>
      <trkpt lat="47.79018" lon="-3.31712">
        <ele>90</ele>
        <time>2015-01-30T09:28:44.411Z</time>
      </trkpt>
      <trkpt lat="47.79016" lon="-3.3172">
        <ele>90</ele>
        <time>2015-01-30T09:28:45.416Z</time>
      </trkpt>
      <trkpt lat="47.79013" lon="-3.31732">
        <ele>90</ele>
        <time>2015-01-30T09:28:47.355Z</time>
      </trkpt>
      <trkpt lat="47.79013" lon="-3.31736">
        <ele>89</ele>
        <time>2015-01-30T09:28:48.429Z</time>
      </trkpt>
      <trkpt lat="47.79016" lon="-3.31747">
        <ele>88</ele>
        <time>2015-01-30T09:28:52.428Z</time>
      </trkpt>
      <trkpt lat="47.79022" lon="-3.31751">
        <ele>88</ele>
        <time>2015-01-30T09:28:53.430Z</time>
      </trkpt>
      <trkpt lat="47.79026" lon="-3.31755">
        <ele>89</ele>
        <time>2015-01-30T09:28:54.382Z</time>
      </trkpt>
      <trkpt lat="47.79031" lon="-3.31758">
        <ele>89</ele>
        <time>2015-01-30T09:28:55.426Z</time>
      </trkpt>
      <trkpt lat="47.79037" lon="-3.31761">
        <ele>89</ele>
        <time>2015-01-30T09:28:56.337Z</time>
      </trkpt>
      <trkpt lat="47.79043" lon="-3.31765">
        <ele>89</ele>
        <time>2015-01-30T09:28:57.419Z</time>
      </trkpt>
      <trkpt lat="47.79049" lon="-3.31768">
        <ele>90</ele>
        <time>2015-01-30T09:28:58.343Z</time>
      </trkpt>
      <trkpt lat="47.79056" lon="-3.31769">
        <ele>91</ele>
        <time>2015-01-30T09:28:59.358Z</time>
      </trkpt>
      <trkpt lat="47.79061" lon="-3.31769">
        <ele>92</ele>
        <time>2015-01-30T09:29:00.338Z</time>
      </trkpt>
      <trkpt lat="47.79065" lon="-3.31765">
        <ele>92</ele>
        <time>2015-01-30T09:29:01.338Z</time>
      </trkpt>
      <trkpt lat="47.79068" lon="-3.31759">
        <ele>92</ele>
        <time>2015-01-30T09:29:02.338Z</time>
      </trkpt>
      <trkpt lat="47.7907" lon="-3.31753">
        <ele>92</ele>
        <time>2015-01-30T09:29:03.337Z</time>
      </trkpt>
      <trkpt lat="47.79073" lon="-3.31747">
        <ele>92</ele>
        <time>2015-01-30T09:29:04.367Z</time>
      </trkpt>
      <trkpt lat="47.79077" lon="-3.31744">
        <ele>92</ele>
        <time>2015-01-30T09:29:05.356Z</time>
      </trkpt>
      <trkpt lat="47.79082" lon="-3.31741">
        <ele>93</ele>
        <time>2015-01-30T09:29:06.377Z</time>
      </trkpt>
      <trkpt lat="47.79086" lon="-3.31739">
        <ele>93</ele>
        <time>2015-01-30T09:29:07.338Z</time>
      </trkpt>
      <trkpt lat="47.79092" lon="-3.31731">
        <ele>93</ele>
        <time>2015-01-30T09:29:09.336Z</time>
      </trkpt>
      <trkpt lat="47.79092" lon="-3.31724">
        <ele>91</ele>
        <time>2015-01-30T09:29:10.359Z</time>
      </trkpt>
      <trkpt lat="47.79094" lon="-3.31717">
        <ele>91</ele>
        <time>2015-01-30T09:29:11.361Z</time>
      </trkpt>
      <trkpt lat="47.79097" lon="-3.31708">
        <ele>90</ele>
        <time>2015-01-30T09:29:12.338Z</time>
      </trkpt>
      <trkpt lat="47.79098" lon="-3.317">
        <ele>90</ele>
        <time>2015-01-30T09:29:13.436Z</time>
      </trkpt>
      <trkpt lat="47.79098" lon="-3.31692">
        <ele>89</ele>
        <time>2015-01-30T09:29:14.338Z</time>
      </trkpt>
      <trkpt lat="47.79101" lon="-3.31682">
        <ele>89</ele>
        <time>2015-01-30T09:29:16.337Z</time>
      </trkpt>
      <trkpt lat="47.79104" lon="-3.31678">
        <ele>90</ele>
        <time>2015-01-30T09:29:17.339Z</time>
      </trkpt>
      <trkpt lat="47.79111" lon="-3.31671">
        <ele>93</ele>
        <time>2015-01-30T09:30:25.337Z</time>
      </trkpt>
      <trkpt lat="47.79113" lon="-3.31673">
        <ele>93</ele>
        <time>2015-01-30T09:30:26.339Z</time>
      </trkpt>
      <trkpt lat="47.79112" lon="-3.31681">
        <ele>91</ele>
        <time>2015-01-30T09:30:38.339Z</time>
      </trkpt>
      <trkpt lat="47.79111" lon="-3.31687">
        <ele>91</ele>
        <time>2015-01-30T09:30:39.365Z</time>
      </trkpt>
      <trkpt lat="47.79109" lon="-3.31693">
        <ele>92</ele>
        <time>2015-01-30T09:30:40.337Z</time>
      </trkpt>
      <trkpt lat="47.79106" lon="-3.317">
        <ele>91</ele>
        <time>2015-01-30T09:30:41.337Z</time>
      </trkpt>
      <trkpt lat="47.79103" lon="-3.31711">
        <ele>92</ele>
        <time>2015-01-30T09:30:42.337Z</time>
      </trkpt>
      <trkpt lat="47.79101" lon="-3.31721">
        <ele>92</ele>
        <time>2015-01-30T09:30:43.388Z</time>
      </trkpt>
      <trkpt lat="47.79099" lon="-3.31728">
        <ele>90</ele>
        <time>2015-01-30T09:30:44.422Z</time>
      </trkpt>
      <trkpt lat="47.79096" lon="-3.31734">
        <ele>90</ele>
        <time>2015-01-30T09:30:45.509Z</time>
      </trkpt>
      <trkpt lat="47.79092" lon="-3.31739">
        <ele>90</ele>
        <time>2015-01-30T09:30:46.407Z</time>
      </trkpt>
      <trkpt lat="47.79086" lon="-3.3174">
        <ele>89</ele>
        <time>2015-01-30T09:30:47.417Z</time>
      </trkpt>
      <trkpt lat="47.79082" lon="-3.31744">
        <ele>89</ele>
        <time>2015-01-30T09:30:48.336Z</time>
      </trkpt>
      <trkpt lat="47.79077" lon="-3.31748">
        <ele>88</ele>
        <time>2015-01-30T09:30:49.397Z</time>
      </trkpt>
      <trkpt lat="47.79073" lon="-3.31759">
        <ele>90</ele>
        <time>2015-01-30T09:30:52.424Z</time>
      </trkpt>
      <trkpt lat="47.79073" lon="-3.31762">
        <ele>91</ele>
        <time>2015-01-30T09:30:53.427Z</time>
      </trkpt>
      <trkpt lat="47.79079" lon="-3.31765">
        <ele>92</ele>
        <time>2015-01-30T09:30:55.367Z</time>
      </trkpt>
      <trkpt lat="47.79083" lon="-3.31768">
        <ele>93</ele>
        <time>2015-01-30T09:30:56.417Z</time>
      </trkpt>
      <trkpt lat="47.79087" lon="-3.31771">
        <ele>93</ele>
        <time>2015-01-30T09:30:57.336Z</time>
      </trkpt>
      <trkpt lat="47.79091" lon="-3.31775">
        <ele>94</ele>
        <time>2015-01-30T09:30:58.435Z</time>
      </trkpt>
      <trkpt lat="47.79096" lon="-3.31784">
        <ele>93</ele>
        <time>2015-01-30T09:31:04.336Z</time>
      </trkpt>
      <trkpt lat="47.79097" lon="-3.31788">
        <ele>93</ele>
        <time>2015-01-30T09:31:05.335Z</time>
      </trkpt>
      <trkpt lat="47.79097" lon="-3.31801">
        <ele>91</ele>
        <time>2015-01-30T09:31:07.337Z</time>
      </trkpt>
      <trkpt lat="47.79091" lon="-3.31813">
        <ele>91</ele>
        <time>2015-01-30T09:31:08.337Z</time>
      </trkpt>
      <trkpt lat="47.79089" lon="-3.31823">
        <ele>91</ele>
        <time>2015-01-30T09:31:09.336Z</time>
      </trkpt>
      <trkpt lat="47.79085" lon="-3.31833">
        <ele>92</ele>
        <time>2015-01-30T09:31:10.336Z</time>
      </trkpt>
      <trkpt lat="47.79082" lon="-3.31843">
        <ele>91</ele>
        <time>2015-01-30T09:31:11.337Z</time>
      </trkpt>
      <trkpt lat="47.79078" lon="-3.31858">
        <ele>90</ele>
        <time>2015-01-30T09:31:12.338Z</time>
      </trkpt>
      <trkpt lat="47.79073" lon="-3.31871">
        <ele>91</ele>
        <time>2015-01-30T09:31:13.355Z</time>
      </trkpt>
      <trkpt lat="47.79069" lon="-3.31884">
        <ele>90</ele>
        <time>2015-01-30T09:31:14.401Z</time>
      </trkpt>
      <trkpt lat="47.79065" lon="-3.31899">
        <ele>90</ele>
        <time>2015-01-30T09:31:15.408Z</time>
      </trkpt>
      <trkpt lat="47.7906" lon="-3.31915">
        <ele>89</ele>
        <time>2015-01-30T09:31:16.409Z</time>
      </trkpt>
      <trkpt lat="47.79055" lon="-3.31932">
        <ele>90</ele>
        <time>2015-01-30T09:31:17.407Z</time>
      </trkpt>
      <trkpt lat="47.7905" lon="-3.31948">
        <ele>89</ele>
        <time>2015-01-30T09:31:18.384Z</time>
      </trkpt>
      <trkpt lat="47.79044" lon="-3.31965">
        <ele>88</ele>
        <time>2015-01-30T09:31:19.339Z</time>
      </trkpt>
      <trkpt lat="47.79039" lon="-3.31982">
        <ele>89</ele>
        <time>2015-01-30T09:31:20.336Z</time>
      </trkpt>
      <trkpt lat="47.79034" lon="-3.31997">
        <ele>89</ele>
        <time>2015-01-30T09:31:21.337Z</time>
      </trkpt>
      <trkpt lat="47.7903" lon="-3.32012">
        <ele>89</ele>
        <time>2015-01-30T09:31:22.401Z</time>
      </trkpt>
      <trkpt lat="47.79024" lon="-3.32029">
        <ele>90</ele>
        <time>2015-01-30T09:31:23.420Z</time>
      </trkpt>
      <trkpt lat="47.79019" lon="-3.32044">
        <ele>92</ele>
        <time>2015-01-30T09:31:24.392Z</time>
      </trkpt>
      <trkpt lat="47.79013" lon="-3.32059">
        <ele>91</ele>
        <time>2015-01-30T09:31:25.406Z</time>
      </trkpt>
      <trkpt lat="47.79008" lon="-3.32072">
        <ele>90</ele>
        <time>2015-01-30T09:31:26.420Z</time>
      </trkpt>
      <trkpt lat="47.79002" lon="-3.32089">
        <ele>91</ele>
        <time>2015-01-30T09:31:27.350Z</time>
      </trkpt>
      <trkpt lat="47.78996" lon="-3.32104">
        <ele>92</ele>
        <time>2015-01-30T09:31:28.346Z</time>
      </trkpt>
      <trkpt lat="47.78991" lon="-3.32119">
        <ele>93</ele>
        <time>2015-01-30T09:31:29.335Z</time>
      </trkpt>
      <trkpt lat="47.78984" lon="-3.32132">
        <ele>92</ele>
        <time>2015-01-30T09:31:30.393Z</time>
      </trkpt>
      <trkpt lat="47.78977" lon="-3.32145">
        <ele>92</ele>
        <time>2015-01-30T09:31:31.399Z</time>
      </trkpt>
      <trkpt lat="47.7897" lon="-3.32157">
        <ele>90</ele>
        <time>2015-01-30T09:31:32.379Z</time>
      </trkpt>
      <trkpt lat="47.78961" lon="-3.32168">
        <ele>90</ele>
        <time>2015-01-30T09:31:33.336Z</time>
      </trkpt>
      <trkpt lat="47.78952" lon="-3.32178">
        <ele>90</ele>
        <time>2015-01-30T09:31:34.338Z</time>
      </trkpt>
      <trkpt lat="47.78944" lon="-3.32187">
        <ele>90</ele>
        <time>2015-01-30T09:31:35.338Z</time>
      </trkpt>
      <trkpt lat="47.78934" lon="-3.32197">
        <ele>91</ele>
        <time>2015-01-30T09:31:36.356Z</time>
      </trkpt>
      <trkpt lat="47.78927" lon="-3.32205">
        <ele>91</ele>
        <time>2015-01-30T09:31:37.337Z</time>
      </trkpt>
      <trkpt lat="47.78921" lon="-3.32213">
        <ele>90</ele>
        <time>2015-01-30T09:31:38.336Z</time>
      </trkpt>
      <trkpt lat="47.78919" lon="-3.32221">
        <ele>90</ele>
        <time>2015-01-30T09:31:39.342Z</time>
      </trkpt>
      <trkpt lat="47.78917" lon="-3.32229">
        <ele>91</ele>
        <time>2015-01-30T09:31:40.336Z</time>
      </trkpt>
      <trkpt lat="47.78915" lon="-3.32236">
        <ele>92</ele>
        <time>2015-01-30T09:31:41.339Z</time>
      </trkpt>
      <trkpt lat="47.78915" lon="-3.3224">
        <ele>92</ele>
        <time>2015-01-30T09:31:42.337Z</time>
      </trkpt>
      <trkpt lat="47.78915" lon="-3.32249">
        <ele>91</ele>
        <time>2015-01-30T09:31:43.337Z</time>
      </trkpt>
      <trkpt lat="47.78916" lon="-3.32257">
        <ele>92</ele>
        <time>2015-01-30T09:31:44.332Z</time>
      </trkpt>
      <trkpt lat="47.78918" lon="-3.32268">
        <ele>90</ele>
        <time>2015-01-30T09:31:45.337Z</time>
      </trkpt>
      <trkpt lat="47.78916" lon="-3.32276">
        <ele>92</ele>
        <time>2015-01-30T09:31:46.357Z</time>
      </trkpt>
      <trkpt lat="47.78912" lon="-3.32283">
        <ele>91</ele>
        <time>2015-01-30T09:31:47.337Z</time>
      </trkpt>
      <trkpt lat="47.78907" lon="-3.32286">
        <ele>92</ele>
        <time>2015-01-30T09:31:48.335Z</time>
      </trkpt>
      <trkpt lat="47.78899" lon="-3.32288">
        <ele>92</ele>
        <time>2015-01-30T09:31:49.336Z</time>
      </trkpt>
      <trkpt lat="47.78893" lon="-3.32285">
        <ele>91</ele>
        <time>2015-01-30T09:31:50.334Z</time>
      </trkpt>
      <trkpt lat="47.78887" lon="-3.3228">
        <ele>90</ele>
        <time>2015-01-30T09:31:51.345Z</time>
      </trkpt>
      <trkpt lat="47.78882" lon="-3.32271">
        <ele>92</ele>
        <time>2015-01-30T09:31:52.333Z</time>
      </trkpt>
      <trkpt lat="47.78878" lon="-3.32263">
        <ele>92</ele>
        <time>2015-01-30T09:31:53.336Z</time>
      </trkpt>
      <trkpt lat="47.78874" lon="-3.32253">
        <ele>92</ele>
        <time>2015-01-30T09:31:54.335Z</time>
      </trkpt>
      <trkpt lat="47.78869" lon="-3.32242">
        <ele>93</ele>
        <time>2015-01-30T09:31:55.336Z</time>
      </trkpt>
      <trkpt lat="47.78862" lon="-3.32234">
        <ele>93</ele>
        <time>2015-01-30T09:31:56.335Z</time>
      </trkpt>
      <trkpt lat="47.78858" lon="-3.32228">
        <ele>91</ele>
        <time>2015-01-30T09:31:57.337Z</time>
      </trkpt>
      <trkpt lat="47.78849" lon="-3.3222">
        <ele>91</ele>
        <time>2015-01-30T09:31:58.335Z</time>
      </trkpt>
      <trkpt lat="47.78842" lon="-3.32212">
        <ele>91</ele>
        <time>2015-01-30T09:31:59.390Z</time>
      </trkpt>
      <trkpt lat="47.78835" lon="-3.32201">
        <ele>90</ele>
        <time>2015-01-30T09:32:00.333Z</time>
      </trkpt>
      <trkpt lat="47.78823" lon="-3.32192">
        <ele>90</ele>
        <time>2015-01-30T09:32:01.337Z</time>
      </trkpt>
      <trkpt lat="47.78813" lon="-3.32184">
        <ele>89</ele>
        <time>2015-01-30T09:32:02.334Z</time>
      </trkpt>
      <trkpt lat="47.78804" lon="-3.32176">
        <ele>88</ele>
        <time>2015-01-30T09:32:03.336Z</time>
      </trkpt>
      <trkpt lat="47.78795" lon="-3.32171">
        <ele>87</ele>
        <time>2015-01-30T09:32:04.334Z</time>
      </trkpt>
      <trkpt lat="47.78787" lon="-3.32165">
        <ele>85</ele>
        <time>2015-01-30T09:32:05.335Z</time>
      </trkpt>
      <trkpt lat="47.78779" lon="-3.32156">
        <ele>85</ele>
        <time>2015-01-30T09:32:06.334Z</time>
      </trkpt>
      <trkpt lat="47.7877" lon="-3.32149">
        <ele>86</ele>
        <time>2015-01-30T09:32:07.337Z</time>
      </trkpt>
      <trkpt lat="47.78763" lon="-3.32142">
        <ele>86</ele>
        <time>2015-01-30T09:32:08.335Z</time>
      </trkpt>
      <trkpt lat="47.78757" lon="-3.32136">
        <ele>86</ele>
        <time>2015-01-30T09:32:09.356Z</time>
      </trkpt>
      <trkpt lat="47.78752" lon="-3.32131">
        <ele>86</ele>
        <time>2015-01-30T09:32:10.347Z</time>
      </trkpt>
      <trkpt lat="47.7875" lon="-3.32124">
        <ele>86</ele>
        <time>2015-01-30T09:32:11.338Z</time>
      </trkpt>
      <trkpt lat="47.78754" lon="-3.32115">
        <ele>85</ele>
        <time>2015-01-30T09:32:13.335Z</time>
      </trkpt>
      <trkpt lat="47.78756" lon="-3.32111">
        <ele>85</ele>
        <time>2015-01-30T09:32:14.336Z</time>
      </trkpt>
      <trkpt lat="47.78763" lon="-3.32108">
        <ele>86</ele>
        <time>2015-01-30T09:32:16.338Z</time>
      </trkpt>
      <trkpt lat="47.78766" lon="-3.32109">
        <ele>87</ele>
        <time>2015-01-30T09:32:17.336Z</time>
      </trkpt>
      <trkpt lat="47.78774" lon="-3.32114">
        <ele>86</ele>
        <time>2015-01-30T09:32:19.422Z</time>
      </trkpt>
      <trkpt lat="47.78779" lon="-3.32117">
        <ele>85</ele>
        <time>2015-01-30T09:32:20.417Z</time>
      </trkpt>
      <trkpt lat="47.78783" lon="-3.3212">
        <ele>86</ele>
        <time>2015-01-30T09:32:21.338Z</time>
      </trkpt>
      <trkpt lat="47.78789" lon="-3.32123">
        <ele>86</ele>
        <time>2015-01-30T09:32:22.406Z</time>
      </trkpt>
      <trkpt lat="47.78794" lon="-3.32127">
        <ele>86</ele>
        <time>2015-01-30T09:32:23.434Z</time>
      </trkpt>
      <trkpt lat="47.788" lon="-3.32131">
        <ele>85</ele>
        <time>2015-01-30T09:32:24.337Z</time>
      </trkpt>
      <trkpt lat="47.78808" lon="-3.32135">
        <ele>84</ele>
        <time>2015-01-30T09:32:26.336Z</time>
      </trkpt>
      <trkpt lat="47.78811" lon="-3.32138">
        <ele>84</ele>
        <time>2015-01-30T09:32:27.460Z</time>
      </trkpt>
      <trkpt lat="47.78817" lon="-3.32129">
        <ele>86</ele>
        <time>2015-01-30T09:33:04.420Z</time>
      </trkpt>
      <trkpt lat="47.78818" lon="-3.32127">
        <ele>87</ele>
        <time>2015-01-30T09:33:05.337Z</time>
      </trkpt>
      <trkpt lat="47.78822" lon="-3.32116">
        <ele>83</ele>
        <time>2015-01-30T09:33:16.430Z</time>
      </trkpt>
      <trkpt lat="47.78823" lon="-3.32115">
        <ele>82</ele>
        <time>2015-01-30T09:33:17.361Z</time>
      </trkpt>
      <trkpt lat="47.78817" lon="-3.32123">
        <ele>88</ele>
        <time>2015-01-30T09:34:22.399Z</time>
      </trkpt>
      <trkpt lat="47.78816" lon="-3.32125">
        <ele>88</ele>
        <time>2015-01-30T09:34:23.363Z</time>
      </trkpt>
      <trkpt lat="47.78817" lon="-3.32138">
        <ele>86</ele>
        <time>2015-01-30T09:34:41.335Z</time>
      </trkpt>
      <trkpt lat="47.78817" lon="-3.3214">
        <ele>86</ele>
        <time>2015-01-30T09:34:42.422Z</time>
      </trkpt>
      <trkpt lat="47.7881" lon="-3.32139">
        <ele>88</ele>
        <time>2015-01-30T09:34:56.421Z</time>
      </trkpt>
      <trkpt lat="47.78806" lon="-3.32136">
        <ele>89</ele>
        <time>2015-01-30T09:34:57.334Z</time>
      </trkpt>
      <trkpt lat="47.78802" lon="-3.32132">
        <ele>89</ele>
        <time>2015-01-30T09:34:58.337Z</time>
      </trkpt>
      <trkpt lat="47.78798" lon="-3.32129">
        <ele>90</ele>
        <time>2015-01-30T09:34:59.337Z</time>
      </trkpt>
      <trkpt lat="47.78792" lon="-3.32125">
        <ele>89</ele>
        <time>2015-01-30T09:35:00.334Z</time>
      </trkpt>
      <trkpt lat="47.78787" lon="-3.32122">
        <ele>90</ele>
        <time>2015-01-30T09:35:01.334Z</time>
      </trkpt>
      <trkpt lat="47.78782" lon="-3.32117">
        <ele>89</ele>
        <time>2015-01-30T09:35:02.341Z</time>
      </trkpt>
      <trkpt lat="47.78777" lon="-3.32113">
        <ele>91</ele>
        <time>2015-01-30T09:35:03.342Z</time>
      </trkpt>
      <trkpt lat="47.78768" lon="-3.32109">
        <ele>90</ele>
        <time>2015-01-30T09:35:05.332Z</time>
      </trkpt>
      <trkpt lat="47.78764" lon="-3.32109">
        <ele>91</ele>
        <time>2015-01-30T09:35:06.333Z</time>
      </trkpt>
      <trkpt lat="47.78758" lon="-3.32115">
        <ele>92</ele>
        <time>2015-01-30T09:35:08.334Z</time>
      </trkpt>
      <trkpt lat="47.78757" lon="-3.32118">
        <ele>92</ele>
        <time>2015-01-30T09:35:09.352Z</time>
      </trkpt>
      <trkpt lat="47.7875" lon="-3.32122">
        <ele>91</ele>
        <time>2015-01-30T09:35:23.409Z</time>
      </trkpt>
      <trkpt lat="47.78747" lon="-3.32119">
        <ele>91</ele>
        <time>2015-01-30T09:35:24.411Z</time>
      </trkpt>
      <trkpt lat="47.78743" lon="-3.32116">
        <ele>91</ele>
        <time>2015-01-30T09:35:25.340Z</time>
      </trkpt>
      <trkpt lat="47.78737" lon="-3.3211">
        <ele>91</ele>
        <time>2015-01-30T09:35:26.339Z</time>
      </trkpt>
      <trkpt lat="47.78731" lon="-3.32104">
        <ele>90</ele>
        <time>2015-01-30T09:35:27.346Z</time>
      </trkpt>
      <trkpt lat="47.78725" lon="-3.32097">
        <ele>90</ele>
        <time>2015-01-30T09:35:28.404Z</time>
      </trkpt>
      <trkpt lat="47.7872" lon="-3.32091">
        <ele>90</ele>
        <time>2015-01-30T09:35:29.334Z</time>
      </trkpt>
      <trkpt lat="47.78714" lon="-3.32085">
        <ele>89</ele>
        <time>2015-01-30T09:35:30.445Z</time>
      </trkpt>
      <trkpt lat="47.78708" lon="-3.3208">
        <ele>90</ele>
        <time>2015-01-30T09:35:31.393Z</time>
      </trkpt>
      <trkpt lat="47.78704" lon="-3.32076">
        <ele>89</ele>
        <time>2015-01-30T09:35:32.404Z</time>
      </trkpt>
      <trkpt lat="47.78695" lon="-3.32073">
        <ele>89</ele>
        <time>2015-01-30T09:35:34.390Z</time>
      </trkpt>
      <trkpt lat="47.78693" lon="-3.32077">
        <ele>88</ele>
        <time>2015-01-30T09:35:35.398Z</time>
      </trkpt>
      <trkpt lat="47.78694" lon="-3.32089">
        <ele>87</ele>
        <time>2015-01-30T09:35:37.405Z</time>
      </trkpt>
      <trkpt lat="47.78696" lon="-3.32093">
        <ele>86</ele>
        <time>2015-01-30T09:35:38.394Z</time>
      </trkpt>
      <trkpt lat="47.78701" lon="-3.32097">
        <ele>87</ele>
        <time>2015-01-30T09:35:39.365Z</time>
      </trkpt>
      <trkpt lat="47.78706" lon="-3.321">
        <ele>88</ele>
        <time>2015-01-30T09:35:40.424Z</time>
      </trkpt>
      <trkpt lat="47.78711" lon="-3.32104">
        <ele>88</ele>
        <time>2015-01-30T09:35:41.338Z</time>
      </trkpt>
      <trkpt lat="47.78717" lon="-3.3211">
        <ele>87</ele>
        <time>2015-01-30T09:35:42.431Z</time>
      </trkpt>
      <trkpt lat="47.78724" lon="-3.32116">
        <ele>86</ele>
        <time>2015-01-30T09:35:43.361Z</time>
      </trkpt>
      <trkpt lat="47.7873" lon="-3.32122">
        <ele>86</ele>
        <time>2015-01-30T09:35:44.408Z</time>
      </trkpt>
      <trkpt lat="47.78735" lon="-3.32128">
        <ele>86</ele>
        <time>2015-01-30T09:35:45.334Z</time>
      </trkpt>
      <trkpt lat="47.78741" lon="-3.32133">
        <ele>86</ele>
        <time>2015-01-30T09:35:46.441Z</time>
      </trkpt>
      <trkpt lat="47.78747" lon="-3.32139">
        <ele>86</ele>
        <time>2015-01-30T09:35:47.361Z</time>
      </trkpt>
      <trkpt lat="47.78751" lon="-3.32145">
        <ele>86</ele>
        <time>2015-01-30T09:35:48.407Z</time>
      </trkpt>
      <trkpt lat="47.78757" lon="-3.3215">
        <ele>85</ele>
        <time>2015-01-30T09:35:49.418Z</time>
      </trkpt>
      <trkpt lat="47.78762" lon="-3.32155">
        <ele>84</ele>
        <time>2015-01-30T09:35:50.378Z</time>
      </trkpt>
      <trkpt lat="47.78766" lon="-3.32161">
        <ele>84</ele>
        <time>2015-01-30T09:35:51.349Z</time>
      </trkpt>
      <trkpt lat="47.78768" lon="-3.32166">
        <ele>83</ele>
        <time>2015-01-30T09:35:52.352Z</time>
      </trkpt>
      <trkpt lat="47.78762" lon="-3.32174">
        <ele>81</ele>
        <time>2015-01-30T09:35:57.336Z</time>
      </trkpt>
      <trkpt lat="47.78761" lon="-3.32175">
        <ele>82</ele>
        <time>2015-01-30T09:35:58.426Z</time>
      </trkpt>
      <trkpt lat="47.78752" lon="-3.32174">
        <ele>85</ele>
        <time>2015-01-30T09:38:19.418Z</time>
      </trkpt>
      <trkpt lat="47.7875" lon="-3.32172">
        <ele>85</ele>
        <time>2015-01-30T09:38:20.424Z</time>
      </trkpt>
      <trkpt lat="47.78744" lon="-3.32168">
        <ele>86</ele>
        <time>2015-01-30T09:38:22.404Z</time>
      </trkpt>
      <trkpt lat="47.7874" lon="-3.32166">
        <ele>86</ele>
        <time>2015-01-30T09:38:23.352Z</time>
      </trkpt>
      <trkpt lat="47.78734" lon="-3.32158">
        <ele>87</ele>
        <time>2015-01-30T09:38:25.335Z</time>
      </trkpt>
      <trkpt lat="47.78732" lon="-3.32153">
        <ele>86</ele>
        <time>2015-01-30T09:38:26.431Z</time>
      </trkpt>
      <trkpt lat="47.78731" lon="-3.3214">
        <ele>86</ele>
        <time>2015-01-30T09:38:28.460Z</time>
      </trkpt>
      <trkpt lat="47.7873" lon="-3.32134">
        <ele>86</ele>
        <time>2015-01-30T09:38:29.415Z</time>
      </trkpt>
      <trkpt lat="47.78726" lon="-3.32123">
        <ele>86</ele>
        <time>2015-01-30T09:38:31.427Z</time>
      </trkpt>
      <trkpt lat="47.78722" lon="-3.32118">
        <ele>86</ele>
        <time>2015-01-30T09:38:32.338Z</time>
      </trkpt>
      <trkpt lat="47.78714" lon="-3.32114">
        <ele>86</ele>
        <time>2015-01-30T09:38:33.456Z</time>
      </trkpt>
      <trkpt lat="47.7871" lon="-3.3211">
        <ele>86</ele>
        <time>2015-01-30T09:38:34.374Z</time>
      </trkpt>
      <trkpt lat="47.78705" lon="-3.32107">
        <ele>85</ele>
        <time>2015-01-30T09:38:35.413Z</time>
      </trkpt>
      <trkpt lat="47.787" lon="-3.32101">
        <ele>85</ele>
        <time>2015-01-30T09:38:36.414Z</time>
      </trkpt>
      <trkpt lat="47.78694" lon="-3.32095">
        <ele>85</ele>
        <time>2015-01-30T09:38:37.409Z</time>
      </trkpt>
      <trkpt lat="47.78689" lon="-3.3209">
        <ele>87</ele>
        <time>2015-01-30T09:38:38.458Z</time>
      </trkpt>
      <trkpt lat="47.78683" lon="-3.32084">
        <ele>86</ele>
        <time>2015-01-30T09:38:40.326Z</time>
      </trkpt>
      <trkpt lat="47.7868" lon="-3.32082">
        <ele>86</ele>
        <time>2015-01-30T09:38:41.323Z</time>
      </trkpt>
      <trkpt lat="47.78675" lon="-3.32085">
        <ele>85</ele>
        <time>2015-01-30T09:38:42.319Z</time>
      </trkpt>
      <trkpt lat="47.78672" lon="-3.32089">
        <ele>83</ele>
        <time>2015-01-30T09:38:43.328Z</time>
      </trkpt>
      <trkpt lat="47.78668" lon="-3.32091">
        <ele>83</ele>
        <time>2015-01-30T09:38:44.319Z</time>
      </trkpt>
      <trkpt lat="47.78665" lon="-3.32102">
        <ele>83</ele>
        <time>2015-01-30T09:38:45.329Z</time>
      </trkpt>
      <trkpt lat="47.78661" lon="-3.32109">
        <ele>84</ele>
        <time>2015-01-30T09:38:46.331Z</time>
      </trkpt>
      <trkpt lat="47.78657" lon="-3.32118">
        <ele>83</ele>
        <time>2015-01-30T09:38:47.331Z</time>
      </trkpt>
      <trkpt lat="47.78652" lon="-3.32125">
        <ele>82</ele>
        <time>2015-01-30T09:38:48.331Z</time>
      </trkpt>
      <trkpt lat="47.78645" lon="-3.32135">
        <ele>82</ele>
        <time>2015-01-30T09:38:49.331Z</time>
      </trkpt>
      <trkpt lat="47.78639" lon="-3.32143">
        <ele>83</ele>
        <time>2015-01-30T09:38:50.332Z</time>
      </trkpt>
      <trkpt lat="47.78633" lon="-3.32152">
        <ele>82</ele>
        <time>2015-01-30T09:38:51.331Z</time>
      </trkpt>
      <trkpt lat="47.78625" lon="-3.32159">
        <ele>82</ele>
        <time>2015-01-30T09:38:52.332Z</time>
      </trkpt>
      <trkpt lat="47.78618" lon="-3.32167">
        <ele>81</ele>
        <time>2015-01-30T09:38:53.332Z</time>
      </trkpt>
      <trkpt lat="47.7861" lon="-3.32171">
        <ele>81</ele>
        <time>2015-01-30T09:38:54.331Z</time>
      </trkpt>
      <trkpt lat="47.78601" lon="-3.32181">
        <ele>80</ele>
        <time>2015-01-30T09:38:55.332Z</time>
      </trkpt>
      <trkpt lat="47.78592" lon="-3.32186">
        <ele>79</ele>
        <time>2015-01-30T09:38:56.332Z</time>
      </trkpt>
      <trkpt lat="47.78583" lon="-3.32192">
        <ele>80</ele>
        <time>2015-01-30T09:38:57.332Z</time>
      </trkpt>
      <trkpt lat="47.78573" lon="-3.322">
        <ele>81</ele>
        <time>2015-01-30T09:38:58.421Z</time>
      </trkpt>
      <trkpt lat="47.78564" lon="-3.32208">
        <ele>81</ele>
        <time>2015-01-30T09:38:59.378Z</time>
      </trkpt>
      <trkpt lat="47.78555" lon="-3.32213">
        <ele>82</ele>
        <time>2015-01-30T09:39:00.368Z</time>
      </trkpt>
      <trkpt lat="47.78547" lon="-3.32213">
        <ele>80</ele>
        <time>2015-01-30T09:39:01.331Z</time>
      </trkpt>
      <trkpt lat="47.7854" lon="-3.32215">
        <ele>80</ele>
        <time>2015-01-30T09:39:02.331Z</time>
      </trkpt>
      <trkpt lat="47.78532" lon="-3.32221">
        <ele>79</ele>
        <time>2015-01-30T09:39:03.332Z</time>
      </trkpt>
      <trkpt lat="47.78526" lon="-3.32228">
        <ele>81</ele>
        <time>2015-01-30T09:39:05.332Z</time>
      </trkpt>
      <trkpt lat="47.78522" lon="-3.32233">
        <ele>80</ele>
        <time>2015-01-30T09:39:06.332Z</time>
      </trkpt>
      <trkpt lat="47.78523" lon="-3.32246">
        <ele>80</ele>
        <time>2015-01-30T09:39:10.331Z</time>
      </trkpt>
      <trkpt lat="47.78522" lon="-3.32249">
        <ele>79</ele>
        <time>2015-01-30T09:39:11.330Z</time>
      </trkpt>
      <trkpt lat="47.78517" lon="-3.32255">
        <ele>79</ele>
        <time>2015-01-30T09:39:41.381Z</time>
      </trkpt>
      <trkpt lat="47.78514" lon="-3.32257">
        <ele>79</ele>
        <time>2015-01-30T09:39:42.427Z</time>
      </trkpt>
      <trkpt lat="47.78505" lon="-3.32261">
        <ele>79</ele>
        <time>2015-01-30T09:39:44.403Z</time>
      </trkpt>
      <trkpt lat="47.78501" lon="-3.32263">
        <ele>79</ele>
        <time>2015-01-30T09:39:45.330Z</time>
      </trkpt>
      <trkpt lat="47.78495" lon="-3.32267">
        <ele>79</ele>
        <time>2015-01-30T09:39:46.413Z</time>
      </trkpt>
      <trkpt lat="47.78492" lon="-3.32272">
        <ele>79</ele>
        <time>2015-01-30T09:39:47.413Z</time>
      </trkpt>
      <trkpt lat="47.7849" lon="-3.32282">
        <ele>78</ele>
        <time>2015-01-30T09:39:49.425Z</time>
      </trkpt>
      <trkpt lat="47.7849" lon="-3.32287">
        <ele>78</ele>
        <time>2015-01-30T09:39:50.330Z</time>
      </trkpt>
      <trkpt lat="47.78491" lon="-3.32295">
        <ele>78</ele>
        <time>2015-01-30T09:39:51.329Z</time>
      </trkpt>
      <trkpt lat="47.78491" lon="-3.32303">
        <ele>78</ele>
        <time>2015-01-30T09:39:52.329Z</time>
      </trkpt>
      <trkpt lat="47.7849" lon="-3.32311">
        <ele>79</ele>
        <time>2015-01-30T09:39:53.468Z</time>
      </trkpt>
      <trkpt lat="47.78489" lon="-3.32319">
        <ele>79</ele>
        <time>2015-01-30T09:39:54.331Z</time>
      </trkpt>
      <trkpt lat="47.78486" lon="-3.32328">
        <ele>78</ele>
        <time>2015-01-30T09:39:55.331Z</time>
      </trkpt>
      <trkpt lat="47.78484" lon="-3.32336">
        <ele>78</ele>
        <time>2015-01-30T09:39:56.331Z</time>
      </trkpt>
      <trkpt lat="47.78481" lon="-3.32342">
        <ele>78</ele>
        <time>2015-01-30T09:39:57.331Z</time>
      </trkpt>
      <trkpt lat="47.78478" lon="-3.32349">
        <ele>78</ele>
        <time>2015-01-30T09:39:58.331Z</time>
      </trkpt>
      <trkpt lat="47.78476" lon="-3.32356">
        <ele>76</ele>
        <time>2015-01-30T09:39:59.330Z</time>
      </trkpt>
      <trkpt lat="47.78474" lon="-3.32362">
        <ele>76</ele>
        <time>2015-01-30T09:40:00.331Z</time>
      </trkpt>
      <trkpt lat="47.78471" lon="-3.32373">
        <ele>76</ele>
        <time>2015-01-30T09:40:08.329Z</time>
      </trkpt>
      <trkpt lat="47.78471" lon="-3.32374">
        <ele>76</ele>
        <time>2015-01-30T09:40:09.332Z</time>
      </trkpt>
      <trkpt lat="47.78468" lon="-3.32384">
        <ele>80</ele>
        <time>2015-01-30T09:40:29.328Z</time>
      </trkpt>
      <trkpt lat="47.78467" lon="-3.3239">
        <ele>80</ele>
        <time>2015-01-30T09:40:30.330Z</time>
      </trkpt>
      <trkpt lat="47.78466" lon="-3.32397">
        <ele>79</ele>
        <time>2015-01-30T09:40:31.332Z</time>
      </trkpt>
      <trkpt lat="47.78465" lon="-3.3241">
        <ele>80</ele>
        <time>2015-01-30T09:40:32.367Z</time>
      </trkpt>
      <trkpt lat="47.78464" lon="-3.3242">
        <ele>79</ele>
        <time>2015-01-30T09:40:33.330Z</time>
      </trkpt>
      <trkpt lat="47.78463" lon="-3.3243">
        <ele>79</ele>
        <time>2015-01-30T09:40:34.331Z</time>
      </trkpt>
      <trkpt lat="47.78462" lon="-3.3244">
        <ele>79</ele>
        <time>2015-01-30T09:40:35.330Z</time>
      </trkpt>
      <trkpt lat="47.7846" lon="-3.32452">
        <ele>79</ele>
        <time>2015-01-30T09:40:36.329Z</time>
      </trkpt>
      <trkpt lat="47.78459" lon="-3.32464">
        <ele>78</ele>
        <time>2015-01-30T09:40:37.330Z</time>
      </trkpt>
      <trkpt lat="47.78457" lon="-3.3248">
        <ele>78</ele>
        <time>2015-01-30T09:40:38.374Z</time>
      </trkpt>
      <trkpt lat="47.78455" lon="-3.3249">
        <ele>76</ele>
        <time>2015-01-30T09:40:39.377Z</time>
      </trkpt>
      <trkpt lat="47.78454" lon="-3.32501">
        <ele>75</ele>
        <time>2015-01-30T09:40:40.329Z</time>
      </trkpt>
      <trkpt lat="47.78454" lon="-3.32513">
        <ele>76</ele>
        <time>2015-01-30T09:40:41.425Z</time>
      </trkpt>
      <trkpt lat="47.78456" lon="-3.32521">
        <ele>75</ele>
        <time>2015-01-30T09:40:42.378Z</time>
      </trkpt>
      <trkpt lat="47.78459" lon="-3.3253">
        <ele>73</ele>
        <time>2015-01-30T09:40:43.330Z</time>
      </trkpt>
      <trkpt lat="47.78464" lon="-3.32538">
        <ele>74</ele>
        <time>2015-01-30T09:40:44.329Z</time>
      </trkpt>
      <trkpt lat="47.78471" lon="-3.32544">
        <ele>74</ele>
        <time>2015-01-30T09:40:45.330Z</time>
      </trkpt>
      <trkpt lat="47.78477" lon="-3.3255">
        <ele>74</ele>
        <time>2015-01-30T09:40:46.330Z</time>
      </trkpt>
      <trkpt lat="47.78485" lon="-3.32559">
        <ele>75</ele>
        <time>2015-01-30T09:40:47.331Z</time>
      </trkpt>
      <trkpt lat="47.78491" lon="-3.32566">
        <ele>75</ele>
        <time>2015-01-30T09:40:48.331Z</time>
      </trkpt>
      <trkpt lat="47.78498" lon="-3.32571">
        <ele>75</ele>
        <time>2015-01-30T09:40:49.327Z</time>
      </trkpt>
      <trkpt lat="47.78506" lon="-3.32575">
        <ele>75</ele>
        <time>2015-01-30T09:40:50.330Z</time>
      </trkpt>
      <trkpt lat="47.78515" lon="-3.32575">
        <ele>76</ele>
        <time>2015-01-30T09:40:51.330Z</time>
      </trkpt>
      <trkpt lat="47.78525" lon="-3.32574">
        <ele>75</ele>
        <time>2015-01-30T09:40:52.330Z</time>
      </trkpt>
      <trkpt lat="47.78534" lon="-3.32572">
        <ele>76</ele>
        <time>2015-01-30T09:40:53.329Z</time>
      </trkpt>
      <trkpt lat="47.78543" lon="-3.32571">
        <ele>76</ele>
        <time>2015-01-30T09:40:54.329Z</time>
      </trkpt>
      <trkpt lat="47.78551" lon="-3.32571">
        <ele>76</ele>
        <time>2015-01-30T09:40:55.330Z</time>
      </trkpt>
      <trkpt lat="47.78564" lon="-3.32574">
        <ele>77</ele>
        <time>2015-01-30T09:40:56.329Z</time>
      </trkpt>
      <trkpt lat="47.78575" lon="-3.32577">
        <ele>79</ele>
        <time>2015-01-30T09:40:57.331Z</time>
      </trkpt>
      <trkpt lat="47.78585" lon="-3.32579">
        <ele>80</ele>
        <time>2015-01-30T09:40:58.329Z</time>
      </trkpt>
      <trkpt lat="47.78596" lon="-3.32583">
        <ele>80</ele>
        <time>2015-01-30T09:40:59.328Z</time>
      </trkpt>
      <trkpt lat="47.78607" lon="-3.32586">
        <ele>80</ele>
        <time>2015-01-30T09:41:00.330Z</time>
      </trkpt>
      <trkpt lat="47.78618" lon="-3.32587">
        <ele>80</ele>
        <time>2015-01-30T09:41:01.331Z</time>
      </trkpt>
      <trkpt lat="47.78627" lon="-3.32591">
        <ele>80</ele>
        <time>2015-01-30T09:41:02.329Z</time>
      </trkpt>
      <trkpt lat="47.78639" lon="-3.32595">
        <ele>80</ele>
        <time>2015-01-30T09:41:03.328Z</time>
      </trkpt>
      <trkpt lat="47.78649" lon="-3.32601">
        <ele>81</ele>
        <time>2015-01-30T09:41:04.330Z</time>
      </trkpt>
      <trkpt lat="47.78655" lon="-3.32611">
        <ele>81</ele>
        <time>2015-01-30T09:41:05.346Z</time>
      </trkpt>
      <trkpt lat="47.78662" lon="-3.32621">
        <ele>81</ele>
        <time>2015-01-30T09:41:06.341Z</time>
      </trkpt>
      <trkpt lat="47.78667" lon="-3.32631">
        <ele>81</ele>
        <time>2015-01-30T09:41:07.329Z</time>
      </trkpt>
      <trkpt lat="47.78674" lon="-3.32643">
        <ele>82</ele>
        <time>2015-01-30T09:41:08.329Z</time>
      </trkpt>
      <trkpt lat="47.78679" lon="-3.32655">
        <ele>82</ele>
        <time>2015-01-30T09:41:09.327Z</time>
      </trkpt>
      <trkpt lat="47.78684" lon="-3.32666">
        <ele>83</ele>
        <time>2015-01-30T09:41:10.329Z</time>
      </trkpt>
      <trkpt lat="47.78689" lon="-3.32677">
        <ele>84</ele>
        <time>2015-01-30T09:41:11.330Z</time>
      </trkpt>
      <trkpt lat="47.78693" lon="-3.32688">
        <ele>85</ele>
        <time>2015-01-30T09:41:12.329Z</time>
      </trkpt>
      <trkpt lat="47.78696" lon="-3.327">
        <ele>85</ele>
        <time>2015-01-30T09:41:13.330Z</time>
      </trkpt>
      <trkpt lat="47.787" lon="-3.32712">
        <ele>84</ele>
        <time>2015-01-30T09:41:14.330Z</time>
      </trkpt>
      <trkpt lat="47.78704" lon="-3.32723">
        <ele>83</ele>
        <time>2015-01-30T09:41:15.337Z</time>
      </trkpt>
      <trkpt lat="47.78707" lon="-3.32732">
        <ele>84</ele>
        <time>2015-01-30T09:41:16.331Z</time>
      </trkpt>
      <trkpt lat="47.78709" lon="-3.32741">
        <ele>83</ele>
        <time>2015-01-30T09:41:17.328Z</time>
      </trkpt>
      <trkpt lat="47.78711" lon="-3.32748">
        <ele>82</ele>
        <time>2015-01-30T09:41:18.328Z</time>
      </trkpt>
      <trkpt lat="47.78716" lon="-3.32757">
        <ele>81</ele>
        <time>2015-01-30T09:41:20.329Z</time>
      </trkpt>
      <trkpt lat="47.78719" lon="-3.32758">
        <ele>82</ele>
        <time>2015-01-30T09:41:21.331Z</time>
      </trkpt>
      <trkpt lat="47.78722" lon="-3.32751">
        <ele>82</ele>
        <time>2015-01-30T09:41:23.330Z</time>
      </trkpt>
      <trkpt lat="47.78724" lon="-3.32743">
        <ele>83</ele>
        <time>2015-01-30T09:41:24.330Z</time>
      </trkpt>
      <trkpt lat="47.78727" lon="-3.32737">
        <ele>82</ele>
        <time>2015-01-30T09:41:25.330Z</time>
      </trkpt>
      <trkpt lat="47.7873" lon="-3.3273">
        <ele>81</ele>
        <time>2015-01-30T09:41:26.329Z</time>
      </trkpt>
      <trkpt lat="47.78733" lon="-3.32722">
        <ele>81</ele>
        <time>2015-01-30T09:41:27.329Z</time>
      </trkpt>
      <trkpt lat="47.78736" lon="-3.32715">
        <ele>82</ele>
        <time>2015-01-30T09:41:28.326Z</time>
      </trkpt>
      <trkpt lat="47.7874" lon="-3.32707">
        <ele>82</ele>
        <time>2015-01-30T09:41:29.326Z</time>
      </trkpt>
      <trkpt lat="47.78743" lon="-3.327">
        <ele>82</ele>
        <time>2015-01-30T09:41:30.329Z</time>
      </trkpt>
      <trkpt lat="47.78742" lon="-3.32687">
        <ele>80</ele>
        <time>2015-01-30T09:41:33.376Z</time>
      </trkpt>
      <trkpt lat="47.7874" lon="-3.32685">
        <ele>80</ele>
        <time>2015-01-30T09:41:34.330Z</time>
      </trkpt>
      <trkpt lat="47.78742" lon="-3.32672">
        <ele>82</ele>
        <time>2015-01-30T09:42:23.327Z</time>
      </trkpt>
      <trkpt lat="47.78742" lon="-3.32671">
        <ele>83</ele>
        <time>2015-01-30T09:42:24.328Z</time>
      </trkpt>
      <trkpt lat="47.78739" lon="-3.32683">
        <ele>83</ele>
        <time>2015-01-30T09:42:51.331Z</time>
      </trkpt>
      <trkpt lat="47.78737" lon="-3.3269">
        <ele>82</ele>
        <time>2015-01-30T09:42:52.327Z</time>
      </trkpt>
      <trkpt lat="47.78735" lon="-3.32698">
        <ele>82</ele>
        <time>2015-01-30T09:42:53.329Z</time>
      </trkpt>
      <trkpt lat="47.78733" lon="-3.32709">
        <ele>82</ele>
        <time>2015-01-30T09:42:54.326Z</time>
      </trkpt>
      <trkpt lat="47.78731" lon="-3.32719">
        <ele>82</ele>
        <time>2015-01-30T09:42:55.328Z</time>
      </trkpt>
      <trkpt lat="47.78728" lon="-3.32728">
        <ele>82</ele>
        <time>2015-01-30T09:42:56.335Z</time>
      </trkpt>
      <trkpt lat="47.78724" lon="-3.32736">
        <ele>82</ele>
        <time>2015-01-30T09:42:57.326Z</time>
      </trkpt>
      <trkpt lat="47.78722" lon="-3.32742">
        <ele>81</ele>
        <time>2015-01-30T09:42:58.326Z</time>
      </trkpt>
      <trkpt lat="47.78719" lon="-3.3275">
        <ele>79</ele>
        <time>2015-01-30T09:42:59.326Z</time>
      </trkpt>
      <trkpt lat="47.78716" lon="-3.32756">
        <ele>78</ele>
        <time>2015-01-30T09:43:00.329Z</time>
      </trkpt>
      <trkpt lat="47.78715" lon="-3.32767">
        <ele>78</ele>
        <time>2015-01-30T09:43:03.329Z</time>
      </trkpt>
      <trkpt lat="47.78716" lon="-3.3277">
        <ele>78</ele>
        <time>2015-01-30T09:43:04.326Z</time>
      </trkpt>
      <trkpt lat="47.78717" lon="-3.32779">
        <ele>77</ele>
        <time>2015-01-30T09:43:30.421Z</time>
      </trkpt>
      <trkpt lat="47.78717" lon="-3.32784">
        <ele>79</ele>
        <time>2015-01-30T09:43:31.389Z</time>
      </trkpt>
      <trkpt lat="47.78715" lon="-3.32794">
        <ele>79</ele>
        <time>2015-01-30T09:43:34.387Z</time>
      </trkpt>
      <trkpt lat="47.78713" lon="-3.32797">
        <ele>80</ele>
        <time>2015-01-30T09:43:35.411Z</time>
      </trkpt>
      <trkpt lat="47.78707" lon="-3.328">
        <ele>80</ele>
        <time>2015-01-30T09:43:37.333Z</time>
      </trkpt>
      <trkpt lat="47.78702" lon="-3.32799">
        <ele>79</ele>
        <time>2015-01-30T09:43:38.327Z</time>
      </trkpt>
      <trkpt lat="47.78693" lon="-3.32795">
        <ele>79</ele>
        <time>2015-01-30T09:43:39.328Z</time>
      </trkpt>
      <trkpt lat="47.78687" lon="-3.32791">
        <ele>79</ele>
        <time>2015-01-30T09:43:40.326Z</time>
      </trkpt>
      <trkpt lat="47.78681" lon="-3.32786">
        <ele>78</ele>
        <time>2015-01-30T09:43:41.329Z</time>
      </trkpt>
      <trkpt lat="47.78674" lon="-3.32782">
        <ele>78</ele>
        <time>2015-01-30T09:43:42.325Z</time>
      </trkpt>
      <trkpt lat="47.78665" lon="-3.32776">
        <ele>78</ele>
        <time>2015-01-30T09:43:43.327Z</time>
      </trkpt>
      <trkpt lat="47.78656" lon="-3.32771">
        <ele>78</ele>
        <time>2015-01-30T09:43:44.328Z</time>
      </trkpt>
      <trkpt lat="47.78648" lon="-3.32765">
        <ele>78</ele>
        <time>2015-01-30T09:43:45.325Z</time>
      </trkpt>
      <trkpt lat="47.78639" lon="-3.32758">
        <ele>78</ele>
        <time>2015-01-30T09:43:46.329Z</time>
      </trkpt>
      <trkpt lat="47.7863" lon="-3.32752">
        <ele>78</ele>
        <time>2015-01-30T09:43:47.328Z</time>
      </trkpt>
      <trkpt lat="47.78621" lon="-3.32745">
        <ele>78</ele>
        <time>2015-01-30T09:43:48.328Z</time>
      </trkpt>
      <trkpt lat="47.78611" lon="-3.32739">
        <ele>77</ele>
        <time>2015-01-30T09:43:49.328Z</time>
      </trkpt>
      <trkpt lat="47.78601" lon="-3.32732">
        <ele>78</ele>
        <time>2015-01-30T09:43:50.326Z</time>
      </trkpt>
      <trkpt lat="47.78591" lon="-3.32725">
        <ele>78</ele>
        <time>2015-01-30T09:43:51.328Z</time>
      </trkpt>
      <trkpt lat="47.78581" lon="-3.32719">
        <ele>78</ele>
        <time>2015-01-30T09:43:52.326Z</time>
      </trkpt>
      <trkpt lat="47.78572" lon="-3.32713">
        <ele>77</ele>
        <time>2015-01-30T09:43:53.326Z</time>
      </trkpt>
      <trkpt lat="47.78564" lon="-3.32708">
        <ele>77</ele>
        <time>2015-01-30T09:43:54.327Z</time>
      </trkpt>
      <trkpt lat="47.78557" lon="-3.32705">
        <ele>75</ele>
        <time>2015-01-30T09:43:55.327Z</time>
      </trkpt>
      <trkpt lat="47.78549" lon="-3.32702">
        <ele>76</ele>
        <time>2015-01-30T09:43:56.327Z</time>
      </trkpt>
      <trkpt lat="47.78543" lon="-3.32706">
        <ele>77</ele>
        <time>2015-01-30T09:43:57.329Z</time>
      </trkpt>
      <trkpt lat="47.78539" lon="-3.32713">
        <ele>77</ele>
        <time>2015-01-30T09:43:58.326Z</time>
      </trkpt>
      <trkpt lat="47.78536" lon="-3.32721">
        <ele>77</ele>
        <time>2015-01-30T09:43:59.325Z</time>
      </trkpt>
      <trkpt lat="47.78532" lon="-3.3273">
        <ele>76</ele>
        <time>2015-01-30T09:44:00.344Z</time>
      </trkpt>
      <trkpt lat="47.7853" lon="-3.3274">
        <ele>76</ele>
        <time>2015-01-30T09:44:01.326Z</time>
      </trkpt>
      <trkpt lat="47.78527" lon="-3.32749">
        <ele>76</ele>
        <time>2015-01-30T09:44:02.327Z</time>
      </trkpt>
      <trkpt lat="47.78524" lon="-3.3276">
        <ele>76</ele>
        <time>2015-01-30T09:44:03.325Z</time>
      </trkpt>
      <trkpt lat="47.7852" lon="-3.32771">
        <ele>76</ele>
        <time>2015-01-30T09:44:04.326Z</time>
      </trkpt>
      <trkpt lat="47.78517" lon="-3.32781">
        <ele>76</ele>
        <time>2015-01-30T09:44:05.328Z</time>
      </trkpt>
      <trkpt lat="47.78515" lon="-3.32791">
        <ele>75</ele>
        <time>2015-01-30T09:44:06.327Z</time>
      </trkpt>
      <trkpt lat="47.78511" lon="-3.32801">
        <ele>76</ele>
        <time>2015-01-30T09:44:07.327Z</time>
      </trkpt>
      <trkpt lat="47.78509" lon="-3.3281">
        <ele>75</ele>
        <time>2015-01-30T09:44:08.332Z</time>
      </trkpt>
      <trkpt lat="47.78506" lon="-3.32819">
        <ele>75</ele>
        <time>2015-01-30T09:44:09.328Z</time>
      </trkpt>
      <trkpt lat="47.78503" lon="-3.32826">
        <ele>74</ele>
        <time>2015-01-30T09:44:10.327Z</time>
      </trkpt>
      <trkpt lat="47.785" lon="-3.32833">
        <ele>74</ele>
        <time>2015-01-30T09:44:11.326Z</time>
      </trkpt>
      <trkpt lat="47.78497" lon="-3.32841">
        <ele>74</ele>
        <time>2015-01-30T09:44:13.401Z</time>
      </trkpt>
      <trkpt lat="47.78495" lon="-3.32846">
        <ele>74</ele>
        <time>2015-01-30T09:44:14.340Z</time>
      </trkpt>
      <trkpt lat="47.78489" lon="-3.32855">
        <ele>73</ele>
        <time>2015-01-30T09:44:17.328Z</time>
      </trkpt>
      <trkpt lat="47.78487" lon="-3.32859">
        <ele>73</ele>
        <time>2015-01-30T09:44:18.327Z</time>
      </trkpt>
      <trkpt lat="47.78483" lon="-3.32869">
        <ele>74</ele>
        <time>2015-01-30T09:44:20.315Z</time>
      </trkpt>
      <trkpt lat="47.78484" lon="-3.32874">
        <ele>74</ele>
        <time>2015-01-30T09:44:21.339Z</time>
      </trkpt>
      <trkpt lat="47.78482" lon="-3.32884">
        <ele>75</ele>
        <time>2015-01-30T09:44:23.313Z</time>
      </trkpt>
      <trkpt lat="47.78479" lon="-3.32889">
        <ele>75</ele>
        <time>2015-01-30T09:44:24.316Z</time>
      </trkpt>
      <trkpt lat="47.78475" lon="-3.32898">
        <ele>75</ele>
        <time>2015-01-30T09:44:26.327Z</time>
      </trkpt>
      <trkpt lat="47.78473" lon="-3.32902">
        <ele>75</ele>
        <time>2015-01-30T09:44:27.354Z</time>
      </trkpt>
      <trkpt lat="47.78474" lon="-3.32915">
        <ele>75</ele>
        <time>2015-01-30T09:44:33.324Z</time>
      </trkpt>
      <trkpt lat="47.78474" lon="-3.32915">
        <ele>75</ele>
        <time>2015-01-30T09:44:34.326Z</time>
      </trkpt>
      <trkpt lat="47.78472" lon="-3.32927">
        <ele>74</ele>
        <time>2015-01-30T09:45:16.421Z</time>
      </trkpt>
      <trkpt lat="47.78473" lon="-3.32928">
        <ele>74</ele>
        <time>2015-01-30T09:45:17.332Z</time>
      </trkpt>
      <trkpt lat="47.7848" lon="-3.32921">
        <ele>76</ele>
        <time>2015-01-30T09:46:18.325Z</time>
      </trkpt>
      <trkpt lat="47.78481" lon="-3.3292">
        <ele>76</ele>
        <time>2015-01-30T09:46:19.327Z</time>
      </trkpt>
      <trkpt lat="47.78477" lon="-3.32911">
        <ele>77</ele>
        <time>2015-01-30T09:46:47.397Z</time>
      </trkpt>
      <trkpt lat="47.78476" lon="-3.32907">
        <ele>77</ele>
        <time>2015-01-30T09:46:48.332Z</time>
      </trkpt>
      <trkpt lat="47.78478" lon="-3.32895">
        <ele>80</ele>
        <time>2015-01-30T09:46:51.328Z</time>
      </trkpt>
      <trkpt lat="47.78481" lon="-3.32886">
        <ele>81</ele>
        <time>2015-01-30T09:46:52.418Z</time>
      </trkpt>
      <trkpt lat="47.78484" lon="-3.32876">
        <ele>81</ele>
        <time>2015-01-30T09:46:53.392Z</time>
      </trkpt>
      <trkpt lat="47.78486" lon="-3.3287">
        <ele>81</ele>
        <time>2015-01-30T09:46:54.353Z</time>
      </trkpt>
      <trkpt lat="47.78489" lon="-3.32861">
        <ele>81</ele>
        <time>2015-01-30T09:46:55.342Z</time>
      </trkpt>
      <trkpt lat="47.78491" lon="-3.32854">
        <ele>80</ele>
        <time>2015-01-30T09:46:56.325Z</time>
      </trkpt>
      <trkpt lat="47.78496" lon="-3.32843">
        <ele>80</ele>
        <time>2015-01-30T09:46:58.329Z</time>
      </trkpt>
      <trkpt lat="47.78499" lon="-3.32837">
        <ele>80</ele>
        <time>2015-01-30T09:46:59.325Z</time>
      </trkpt>
      <trkpt lat="47.78505" lon="-3.32828">
        <ele>76</ele>
        <time>2015-01-30T09:47:02.322Z</time>
      </trkpt>
      <trkpt lat="47.78506" lon="-3.32826">
        <ele>76</ele>
        <time>2015-01-30T09:47:03.360Z</time>
      </trkpt>
      <trkpt lat="47.78505" lon="-3.32814">
        <ele>79</ele>
        <time>2015-01-30T09:47:31.328Z</time>
      </trkpt>
      <trkpt lat="47.78506" lon="-3.32809">
        <ele>78</ele>
        <time>2015-01-30T09:47:32.394Z</time>
      </trkpt>
      <trkpt lat="47.78508" lon="-3.32797">
        <ele>79</ele>
        <time>2015-01-30T09:47:34.375Z</time>
      </trkpt>
      <trkpt lat="47.78512" lon="-3.32787">
        <ele>78</ele>
        <time>2015-01-30T09:47:35.337Z</time>
      </trkpt>
      <trkpt lat="47.78514" lon="-3.32779">
        <ele>79</ele>
        <time>2015-01-30T09:47:36.325Z</time>
      </trkpt>
      <trkpt lat="47.78518" lon="-3.32769">
        <ele>78</ele>
        <time>2015-01-30T09:47:37.392Z</time>
      </trkpt>
      <trkpt lat="47.78521" lon="-3.3276">
        <ele>78</ele>
        <time>2015-01-30T09:47:38.376Z</time>
      </trkpt>
      <trkpt lat="47.78525" lon="-3.3275">
        <ele>78</ele>
        <time>2015-01-30T09:47:39.417Z</time>
      </trkpt>
      <trkpt lat="47.78529" lon="-3.3274">
        <ele>78</ele>
        <time>2015-01-30T09:47:40.421Z</time>
      </trkpt>
      <trkpt lat="47.78531" lon="-3.3273">
        <ele>79</ele>
        <time>2015-01-30T09:47:41.399Z</time>
      </trkpt>
      <trkpt lat="47.78533" lon="-3.32721">
        <ele>79</ele>
        <time>2015-01-30T09:47:42.391Z</time>
      </trkpt>
      <trkpt lat="47.78536" lon="-3.32713">
        <ele>78</ele>
        <time>2015-01-30T09:47:43.346Z</time>
      </trkpt>
      <trkpt lat="47.78536" lon="-3.32703">
        <ele>77</ele>
        <time>2015-01-30T09:47:45.346Z</time>
      </trkpt>
      <trkpt lat="47.78537" lon="-3.32697">
        <ele>77</ele>
        <time>2015-01-30T09:47:46.338Z</time>
      </trkpt>
      <trkpt lat="47.78533" lon="-3.32692">
        <ele>75</ele>
        <time>2015-01-30T09:47:53.403Z</time>
      </trkpt>
      <trkpt lat="47.7853" lon="-3.32687">
        <ele>75</ele>
        <time>2015-01-30T09:47:54.387Z</time>
      </trkpt>
      <trkpt lat="47.78525" lon="-3.32684">
        <ele>74</ele>
        <time>2015-01-30T09:47:55.409Z</time>
      </trkpt>
      <trkpt lat="47.78519" lon="-3.32681">
        <ele>73</ele>
        <time>2015-01-30T09:47:56.421Z</time>
      </trkpt>
      <trkpt lat="47.78512" lon="-3.32676">
        <ele>73</ele>
        <time>2015-01-30T09:47:57.404Z</time>
      </trkpt>
      <trkpt lat="47.78505" lon="-3.32671">
        <ele>72</ele>
        <time>2015-01-30T09:47:58.385Z</time>
      </trkpt>
      <trkpt lat="47.78497" lon="-3.32665">
        <ele>72</ele>
        <time>2015-01-30T09:47:59.348Z</time>
      </trkpt>
      <trkpt lat="47.78489" lon="-3.32659">
        <ele>72</ele>
        <time>2015-01-30T09:48:00.324Z</time>
      </trkpt>
      <trkpt lat="47.78482" lon="-3.32653">
        <ele>72</ele>
        <time>2015-01-30T09:48:01.325Z</time>
      </trkpt>
      <trkpt lat="47.78472" lon="-3.32646">
        <ele>71</ele>
        <time>2015-01-30T09:48:02.347Z</time>
      </trkpt>
      <trkpt lat="47.78464" lon="-3.3264">
        <ele>70</ele>
        <time>2015-01-30T09:48:03.329Z</time>
      </trkpt>
      <trkpt lat="47.78455" lon="-3.32634">
        <ele>70</ele>
        <time>2015-01-30T09:48:04.325Z</time>
      </trkpt>
      <trkpt lat="47.78446" lon="-3.32627">
        <ele>69</ele>
        <time>2015-01-30T09:48:05.326Z</time>
      </trkpt>
      <trkpt lat="47.78438" lon="-3.32621">
        <ele>69</ele>
        <time>2015-01-30T09:48:06.326Z</time>
      </trkpt>
      <trkpt lat="47.78429" lon="-3.32617">
        <ele>69</ele>
        <time>2015-01-30T09:48:07.325Z</time>
      </trkpt>
      <trkpt lat="47.78421" lon="-3.32612">
        <ele>69</ele>
        <time>2015-01-30T09:48:08.330Z</time>
      </trkpt>
      <trkpt lat="47.78415" lon="-3.32608">
        <ele>69</ele>
        <time>2015-01-30T09:48:09.381Z</time>
      </trkpt>
      <trkpt lat="47.7841" lon="-3.32604">
        <ele>69</ele>
        <time>2015-01-30T09:48:10.332Z</time>
      </trkpt>
      <trkpt lat="47.78403" lon="-3.32595">
        <ele>68</ele>
        <time>2015-01-30T09:48:55.323Z</time>
      </trkpt>
      <trkpt lat="47.784" lon="-3.32592">
        <ele>68</ele>
        <time>2015-01-30T09:48:56.323Z</time>
      </trkpt>
      <trkpt lat="47.78395" lon="-3.32588">
        <ele>68</ele>
        <time>2015-01-30T09:48:57.324Z</time>
      </trkpt>
      <trkpt lat="47.78388" lon="-3.32582">
        <ele>68</ele>
        <time>2015-01-30T09:48:58.322Z</time>
      </trkpt>
      <trkpt lat="47.78382" lon="-3.32578">
        <ele>68</ele>
        <time>2015-01-30T09:48:59.338Z</time>
      </trkpt>
      <trkpt lat="47.78376" lon="-3.32574">
        <ele>69</ele>
        <time>2015-01-30T09:49:00.323Z</time>
      </trkpt>
      <trkpt lat="47.7837" lon="-3.32569">
        <ele>69</ele>
        <time>2015-01-30T09:49:01.325Z</time>
      </trkpt>
      <trkpt lat="47.78363" lon="-3.32565">
        <ele>69</ele>
        <time>2015-01-30T09:49:02.323Z</time>
      </trkpt>
      <trkpt lat="47.78357" lon="-3.32562">
        <ele>69</ele>
        <time>2015-01-30T09:49:03.322Z</time>
      </trkpt>
      <trkpt lat="47.7835" lon="-3.32561">
        <ele>69</ele>
        <time>2015-01-30T09:49:04.324Z</time>
      </trkpt>
      <trkpt lat="47.78343" lon="-3.32562">
        <ele>69</ele>
        <time>2015-01-30T09:49:12.323Z</time>
      </trkpt>
      <trkpt lat="47.78341" lon="-3.32561">
        <ele>69</ele>
        <time>2015-01-30T09:49:13.323Z</time>
      </trkpt>
      <trkpt lat="47.78338" lon="-3.32556">
        <ele>69</ele>
        <time>2015-01-30T09:49:14.325Z</time>
      </trkpt>
      <trkpt lat="47.78335" lon="-3.32549">
        <ele>69</ele>
        <time>2015-01-30T09:49:15.322Z</time>
      </trkpt>
      <trkpt lat="47.78333" lon="-3.32541">
        <ele>68</ele>
        <time>2015-01-30T09:49:16.323Z</time>
      </trkpt>
      <trkpt lat="47.78331" lon="-3.32532">
        <ele>69</ele>
        <time>2015-01-30T09:49:17.325Z</time>
      </trkpt>
      <trkpt lat="47.78328" lon="-3.32523">
        <ele>69</ele>
        <time>2015-01-30T09:49:18.325Z</time>
      </trkpt>
      <trkpt lat="47.78325" lon="-3.32513">
        <ele>70</ele>
        <time>2015-01-30T09:49:19.321Z</time>
      </trkpt>
      <trkpt lat="47.78321" lon="-3.32503">
        <ele>70</ele>
        <time>2015-01-30T09:49:20.325Z</time>
      </trkpt>
      <trkpt lat="47.78316" lon="-3.32493">
        <ele>69</ele>
        <time>2015-01-30T09:49:21.320Z</time>
      </trkpt>
      <trkpt lat="47.7831" lon="-3.32484">
        <ele>68</ele>
        <time>2015-01-30T09:49:22.324Z</time>
      </trkpt>
      <trkpt lat="47.78302" lon="-3.32475">
        <ele>67</ele>
        <time>2015-01-30T09:49:23.335Z</time>
      </trkpt>
      <trkpt lat="47.78294" lon="-3.32466">
        <ele>67</ele>
        <time>2015-01-30T09:49:24.322Z</time>
      </trkpt>
      <trkpt lat="47.78285" lon="-3.32457">
        <ele>67</ele>
        <time>2015-01-30T09:49:25.324Z</time>
      </trkpt>
      <trkpt lat="47.78277" lon="-3.32448">
        <ele>68</ele>
        <time>2015-01-30T09:49:26.324Z</time>
      </trkpt>
      <trkpt lat="47.78267" lon="-3.32439">
        <ele>68</ele>
        <time>2015-01-30T09:49:27.322Z</time>
      </trkpt>
      <trkpt lat="47.78257" lon="-3.32429">
        <ele>68</ele>
        <time>2015-01-30T09:49:28.323Z</time>
      </trkpt>
      <trkpt lat="47.78248" lon="-3.32421">
        <ele>69</ele>
        <time>2015-01-30T09:49:29.323Z</time>
      </trkpt>
      <trkpt lat="47.78238" lon="-3.32411">
        <ele>69</ele>
        <time>2015-01-30T09:49:30.323Z</time>
      </trkpt>
      <trkpt lat="47.78228" lon="-3.324">
        <ele>69</ele>
        <time>2015-01-30T09:49:31.322Z</time>
      </trkpt>
      <trkpt lat="47.78219" lon="-3.3239">
        <ele>69</ele>
        <time>2015-01-30T09:49:32.324Z</time>
      </trkpt>
      <trkpt lat="47.78209" lon="-3.32379">
        <ele>70</ele>
        <time>2015-01-30T09:49:33.367Z</time>
      </trkpt>
      <trkpt lat="47.78199" lon="-3.3237">
        <ele>69</ele>
        <time>2015-01-30T09:49:34.321Z</time>
      </trkpt>
      <trkpt lat="47.78189" lon="-3.3236">
        <ele>70</ele>
        <time>2015-01-30T09:49:35.322Z</time>
      </trkpt>
      <trkpt lat="47.7818" lon="-3.32351">
        <ele>70</ele>
        <time>2015-01-30T09:49:36.323Z</time>
      </trkpt>
      <trkpt lat="47.78171" lon="-3.32341">
        <ele>69</ele>
        <time>2015-01-30T09:49:37.337Z</time>
      </trkpt>
      <trkpt lat="47.78162" lon="-3.32333">
        <ele>70</ele>
        <time>2015-01-30T09:49:38.323Z</time>
      </trkpt>
      <trkpt lat="47.78152" lon="-3.32325">
        <ele>70</ele>
        <time>2015-01-30T09:49:39.327Z</time>
      </trkpt>
      <trkpt lat="47.78142" lon="-3.32315">
        <ele>70</ele>
        <time>2015-01-30T09:49:40.323Z</time>
      </trkpt>
      <trkpt lat="47.78132" lon="-3.32308">
        <ele>70</ele>
        <time>2015-01-30T09:49:41.324Z</time>
      </trkpt>
      <trkpt lat="47.78123" lon="-3.323">
        <ele>69</ele>
        <time>2015-01-30T09:49:42.322Z</time>
      </trkpt>
      <trkpt lat="47.78114" lon="-3.3229">
        <ele>70</ele>
        <time>2015-01-30T09:49:43.320Z</time>
      </trkpt>
      <trkpt lat="47.78105" lon="-3.32282">
        <ele>70</ele>
        <time>2015-01-30T09:49:44.323Z</time>
      </trkpt>
      <trkpt lat="47.78096" lon="-3.32275">
        <ele>71</ele>
        <time>2015-01-30T09:49:45.322Z</time>
      </trkpt>
      <trkpt lat="47.7809" lon="-3.32267">
        <ele>71</ele>
        <time>2015-01-30T09:49:46.326Z</time>
      </trkpt>
      <trkpt lat="47.78083" lon="-3.32262">
        <ele>71</ele>
        <time>2015-01-30T09:49:47.322Z</time>
      </trkpt>
      <trkpt lat="47.7808" lon="-3.32254">
        <ele>70</ele>
        <time>2015-01-30T09:49:48.323Z</time>
      </trkpt>
      <trkpt lat="47.78078" lon="-3.32248">
        <ele>71</ele>
        <time>2015-01-30T09:49:49.339Z</time>
      </trkpt>
      <trkpt lat="47.7808" lon="-3.32235">
        <ele>68</ele>
        <time>2015-01-30T09:49:59.344Z</time>
      </trkpt>
      <trkpt lat="47.7808" lon="-3.32234">
        <ele>67</ele>
        <time>2015-01-30T09:50:00.315Z</time>
      </trkpt>
      <trkpt lat="47.78077" lon="-3.32245">
        <ele>68</ele>
        <time>2015-01-30T09:50:19.322Z</time>
      </trkpt>
      <trkpt lat="47.78079" lon="-3.32249">
        <ele>67</ele>
        <time>2015-01-30T09:50:20.331Z</time>
      </trkpt>
      <trkpt lat="47.78081" lon="-3.32254">
        <ele>68</ele>
        <time>2015-01-30T09:50:21.324Z</time>
      </trkpt>
      <trkpt lat="47.78085" lon="-3.32259">
        <ele>68</ele>
        <time>2015-01-30T09:50:22.322Z</time>
      </trkpt>
      <trkpt lat="47.78092" lon="-3.32265">
        <ele>67</ele>
        <time>2015-01-30T09:50:23.321Z</time>
      </trkpt>
      <trkpt lat="47.78097" lon="-3.32268">
        <ele>67</ele>
        <time>2015-01-30T09:50:24.319Z</time>
      </trkpt>
      <trkpt lat="47.78101" lon="-3.32272">
        <ele>67</ele>
        <time>2015-01-30T09:50:25.327Z</time>
      </trkpt>
      <trkpt lat="47.78106" lon="-3.32276">
        <ele>67</ele>
        <time>2015-01-30T09:50:26.321Z</time>
      </trkpt>
      <trkpt lat="47.78113" lon="-3.32278">
        <ele>67</ele>
        <time>2015-01-30T09:50:28.323Z</time>
      </trkpt>
      <trkpt lat="47.78116" lon="-3.32275">
        <ele>66</ele>
        <time>2015-01-30T09:50:29.323Z</time>
      </trkpt>
      <trkpt lat="47.78118" lon="-3.32269">
        <ele>66</ele>
        <time>2015-01-30T09:50:30.322Z</time>
      </trkpt>
      <trkpt lat="47.78119" lon="-3.32262">
        <ele>66</ele>
        <time>2015-01-30T09:50:31.324Z</time>
      </trkpt>
      <trkpt lat="47.78123" lon="-3.32256">
        <ele>66</ele>
        <time>2015-01-30T09:50:32.322Z</time>
      </trkpt>
      <trkpt lat="47.78125" lon="-3.32248">
        <ele>67</ele>
        <time>2015-01-30T09:50:33.323Z</time>
      </trkpt>
      <trkpt lat="47.78128" lon="-3.32241">
        <ele>67</ele>
        <time>2015-01-30T09:50:34.321Z</time>
      </trkpt>
      <trkpt lat="47.78131" lon="-3.32232">
        <ele>67</ele>
        <time>2015-01-30T09:50:35.340Z</time>
      </trkpt>
      <trkpt lat="47.78135" lon="-3.32223">
        <ele>68</ele>
        <time>2015-01-30T09:50:36.323Z</time>
      </trkpt>
      <trkpt lat="47.78138" lon="-3.32217">
        <ele>68</ele>
        <time>2015-01-30T09:50:37.327Z</time>
      </trkpt>
      <trkpt lat="47.7814" lon="-3.32209">
        <ele>68</ele>
        <time>2015-01-30T09:50:38.322Z</time>
      </trkpt>
      <trkpt lat="47.78141" lon="-3.322">
        <ele>67</ele>
        <time>2015-01-30T09:50:39.321Z</time>
      </trkpt>
      <trkpt lat="47.78142" lon="-3.32192">
        <ele>67</ele>
        <time>2015-01-30T09:50:40.321Z</time>
      </trkpt>
      <trkpt lat="47.78143" lon="-3.32185">
        <ele>67</ele>
        <time>2015-01-30T09:50:41.325Z</time>
      </trkpt>
      <trkpt lat="47.78143" lon="-3.32175">
        <ele>69</ele>
        <time>2015-01-30T09:50:43.322Z</time>
      </trkpt>
      <trkpt lat="47.78144" lon="-3.32171">
        <ele>69</ele>
        <time>2015-01-30T09:50:44.322Z</time>
      </trkpt>
      <trkpt lat="47.78147" lon="-3.32183">
        <ele>65</ele>
        <time>2015-01-30T09:52:15.322Z</time>
      </trkpt>
      <trkpt lat="47.78146" lon="-3.32189">
        <ele>66</ele>
        <time>2015-01-30T09:52:16.321Z</time>
      </trkpt>
      <trkpt lat="47.78144" lon="-3.32196">
        <ele>66</ele>
        <time>2015-01-30T09:52:17.393Z</time>
      </trkpt>
      <trkpt lat="47.78142" lon="-3.32203">
        <ele>67</ele>
        <time>2015-01-30T09:52:18.335Z</time>
      </trkpt>
      <trkpt lat="47.78141" lon="-3.32211">
        <ele>67</ele>
        <time>2015-01-30T09:52:19.336Z</time>
      </trkpt>
      <trkpt lat="47.78139" lon="-3.32219">
        <ele>67</ele>
        <time>2015-01-30T09:52:20.412Z</time>
      </trkpt>
      <trkpt lat="47.78136" lon="-3.32226">
        <ele>67</ele>
        <time>2015-01-30T09:52:21.332Z</time>
      </trkpt>
      <trkpt lat="47.78133" lon="-3.32234">
        <ele>68</ele>
        <time>2015-01-30T09:52:22.327Z</time>
      </trkpt>
      <trkpt lat="47.7813" lon="-3.32243">
        <ele>67</ele>
        <time>2015-01-30T09:52:23.384Z</time>
      </trkpt>
      <trkpt lat="47.78127" lon="-3.32251">
        <ele>67</ele>
        <time>2015-01-30T09:52:24.436Z</time>
      </trkpt>
      <trkpt lat="47.78124" lon="-3.32258">
        <ele>67</ele>
        <time>2015-01-30T09:52:25.338Z</time>
      </trkpt>
      <trkpt lat="47.78122" lon="-3.32263">
        <ele>66</ele>
        <time>2015-01-30T09:52:26.415Z</time>
      </trkpt>
      <trkpt lat="47.78119" lon="-3.32275">
        <ele>66</ele>
        <time>2015-01-30T09:52:29.402Z</time>
      </trkpt>
      <trkpt lat="47.78118" lon="-3.32278">
        <ele>66</ele>
        <time>2015-01-30T09:52:30.390Z</time>
      </trkpt>
      <trkpt lat="47.78119" lon="-3.32287">
        <ele>67</ele>
        <time>2015-01-30T09:52:32.320Z</time>
      </trkpt>
      <trkpt lat="47.78122" lon="-3.32291">
        <ele>66</ele>
        <time>2015-01-30T09:52:33.322Z</time>
      </trkpt>
      <trkpt lat="47.78125" lon="-3.32295">
        <ele>67</ele>
        <time>2015-01-30T09:52:34.320Z</time>
      </trkpt>
      <trkpt lat="47.78129" lon="-3.32299">
        <ele>67</ele>
        <time>2015-01-30T09:52:35.320Z</time>
      </trkpt>
      <trkpt lat="47.78134" lon="-3.32303">
        <ele>67</ele>
        <time>2015-01-30T09:52:36.321Z</time>
      </trkpt>
      <trkpt lat="47.7814" lon="-3.32308">
        <ele>67</ele>
        <time>2015-01-30T09:52:37.322Z</time>
      </trkpt>
      <trkpt lat="47.78145" lon="-3.32313">
        <ele>69</ele>
        <time>2015-01-30T09:52:38.320Z</time>
      </trkpt>
      <trkpt lat="47.78151" lon="-3.32317">
        <ele>68</ele>
        <time>2015-01-30T09:52:39.319Z</time>
      </trkpt>
      <trkpt lat="47.78159" lon="-3.32318">
        <ele>67</ele>
        <time>2015-01-30T09:52:41.407Z</time>
      </trkpt>
      <trkpt lat="47.78163" lon="-3.32316">
        <ele>67</ele>
        <time>2015-01-30T09:52:42.320Z</time>
      </trkpt>
      <trkpt lat="47.78167" lon="-3.32307">
        <ele>67</ele>
        <time>2015-01-30T09:52:44.394Z</time>
      </trkpt>
      <trkpt lat="47.78168" lon="-3.32302">
        <ele>67</ele>
        <time>2015-01-30T09:52:45.336Z</time>
      </trkpt>
      <trkpt lat="47.78165" lon="-3.32289">
        <ele>66</ele>
        <time>2015-01-30T09:52:47.320Z</time>
      </trkpt>
      <trkpt lat="47.78162" lon="-3.32285">
        <ele>66</ele>
        <time>2015-01-30T09:52:48.320Z</time>
      </trkpt>
      <trkpt lat="47.78158" lon="-3.32282">
        <ele>66</ele>
        <time>2015-01-30T09:52:49.318Z</time>
      </trkpt>
      <trkpt lat="47.78154" lon="-3.32281">
        <ele>66</ele>
        <time>2015-01-30T09:52:50.358Z</time>
      </trkpt>
      <trkpt lat="47.78149" lon="-3.32279">
        <ele>66</ele>
        <time>2015-01-30T09:52:51.319Z</time>
      </trkpt>
      <trkpt lat="47.78144" lon="-3.32276">
        <ele>66</ele>
        <time>2015-01-30T09:52:52.320Z</time>
      </trkpt>
      <trkpt lat="47.7814" lon="-3.32272">
        <ele>66</ele>
        <time>2015-01-30T09:52:53.326Z</time>
      </trkpt>
      <trkpt lat="47.78137" lon="-3.32268">
        <ele>65</ele>
        <time>2015-01-30T09:52:54.320Z</time>
      </trkpt>
      <trkpt lat="47.78133" lon="-3.32256">
        <ele>66</ele>
        <time>2015-01-30T09:52:56.319Z</time>
      </trkpt>
      <trkpt lat="47.78133" lon="-3.3225">
        <ele>66</ele>
        <time>2015-01-30T09:52:57.321Z</time>
      </trkpt>
      <trkpt lat="47.78138" lon="-3.32243">
        <ele>66</ele>
        <time>2015-01-30T09:52:59.319Z</time>
      </trkpt>
      <trkpt lat="47.78141" lon="-3.32241">
        <ele>67</ele>
        <time>2015-01-30T09:53:00.319Z</time>
      </trkpt>
      <trkpt lat="47.78139" lon="-3.32251">
        <ele>69</ele>
        <time>2015-01-30T09:54:44.320Z</time>
      </trkpt>
      <trkpt lat="47.78139" lon="-3.32256">
        <ele>69</ele>
        <time>2015-01-30T09:54:45.317Z</time>
      </trkpt>
      <trkpt lat="47.78143" lon="-3.32266">
        <ele>68</ele>
        <time>2015-01-30T09:54:47.318Z</time>
      </trkpt>
      <trkpt lat="47.78146" lon="-3.32271">
        <ele>67</ele>
        <time>2015-01-30T09:54:48.319Z</time>
      </trkpt>
      <trkpt lat="47.7815" lon="-3.32275">
        <ele>67</ele>
        <time>2015-01-30T09:54:49.318Z</time>
      </trkpt>
      <trkpt lat="47.78157" lon="-3.32278">
        <ele>67</ele>
        <time>2015-01-30T09:54:50.317Z</time>
      </trkpt>
      <trkpt lat="47.78162" lon="-3.32281">
        <ele>67</ele>
        <time>2015-01-30T09:54:51.317Z</time>
      </trkpt>
      <trkpt lat="47.78165" lon="-3.32286">
        <ele>67</ele>
        <time>2015-01-30T09:54:52.320Z</time>
      </trkpt>
      <trkpt lat="47.7817" lon="-3.32294">
        <ele>67</ele>
        <time>2015-01-30T09:54:54.316Z</time>
      </trkpt>
      <trkpt lat="47.7817" lon="-3.32303">
        <ele>65</ele>
        <time>2015-01-30T09:54:55.318Z</time>
      </trkpt>
      <trkpt lat="47.78167" lon="-3.32314">
        <ele>65</ele>
        <time>2015-01-30T09:54:57.317Z</time>
      </trkpt>
      <trkpt lat="47.78167" lon="-3.3232">
        <ele>65</ele>
        <time>2015-01-30T09:54:58.337Z</time>
      </trkpt>
      <trkpt lat="47.78169" lon="-3.32332">
        <ele>63</ele>
        <time>2015-01-30T09:55:01.320Z</time>
      </trkpt>
      <trkpt lat="47.78172" lon="-3.32336">
        <ele>63</ele>
        <time>2015-01-30T09:55:02.371Z</time>
      </trkpt>
      <trkpt lat="47.78178" lon="-3.32345">
        <ele>64</ele>
        <time>2015-01-30T09:55:04.315Z</time>
      </trkpt>
      <trkpt lat="47.78184" lon="-3.32349">
        <ele>65</ele>
        <time>2015-01-30T09:55:05.318Z</time>
      </trkpt>
      <trkpt lat="47.78192" lon="-3.32354">
        <ele>66</ele>
        <time>2015-01-30T09:55:07.329Z</time>
      </trkpt>
      <trkpt lat="47.78195" lon="-3.32351">
        <ele>65</ele>
        <time>2015-01-30T09:55:08.319Z</time>
      </trkpt>
      <trkpt lat="47.78199" lon="-3.32343">
        <ele>65</ele>
        <time>2015-01-30T09:55:10.320Z</time>
      </trkpt>
      <trkpt lat="47.78201" lon="-3.32339">
        <ele>64</ele>
        <time>2015-01-30T09:55:11.319Z</time>
      </trkpt>
      <trkpt lat="47.78198" lon="-3.32328">
        <ele>65</ele>
        <time>2015-01-30T09:55:17.318Z</time>
      </trkpt>
      <trkpt lat="47.78196" lon="-3.32328">
        <ele>66</ele>
        <time>2015-01-30T09:55:18.317Z</time>
      </trkpt>
      <trkpt lat="47.78189" lon="-3.3232">
        <ele>64</ele>
        <time>2015-01-30T09:55:35.320Z</time>
      </trkpt>
      <trkpt lat="47.78188" lon="-3.32321">
        <ele>64</ele>
        <time>2015-01-30T09:55:36.318Z</time>
      </trkpt>
      <trkpt lat="47.78196" lon="-3.32325">
        <ele>67</ele>
        <time>2015-01-30T09:56:13.318Z</time>
      </trkpt>
      <trkpt lat="47.78197" lon="-3.32325">
        <ele>67</ele>
        <time>2015-01-30T09:56:14.317Z</time>
      </trkpt>
      <trkpt lat="47.78197" lon="-3.32335">
        <ele>67</ele>
        <time>2015-01-30T09:56:22.319Z</time>
      </trkpt>
      <trkpt lat="47.78197" lon="-3.32339">
        <ele>65</ele>
        <time>2015-01-30T09:56:23.389Z</time>
      </trkpt>
      <trkpt lat="47.78196" lon="-3.32349">
        <ele>66</ele>
        <time>2015-01-30T09:56:27.320Z</time>
      </trkpt>
      <trkpt lat="47.78196" lon="-3.32353">
        <ele>65</ele>
        <time>2015-01-30T09:56:28.318Z</time>
      </trkpt>
      <trkpt lat="47.78198" lon="-3.32362">
        <ele>66</ele>
        <time>2015-01-30T09:56:30.319Z</time>
      </trkpt>
      <trkpt lat="47.78201" lon="-3.32368">
        <ele>67</ele>
        <time>2015-01-30T09:56:31.320Z</time>
      </trkpt>
      <trkpt lat="47.78207" lon="-3.32376">
        <ele>67</ele>
        <time>2015-01-30T09:56:32.319Z</time>
      </trkpt>
      <trkpt lat="47.78213" lon="-3.32381">
        <ele>68</ele>
        <time>2015-01-30T09:56:33.319Z</time>
      </trkpt>
      <trkpt lat="47.78219" lon="-3.32387">
        <ele>67</ele>
        <time>2015-01-30T09:56:34.319Z</time>
      </trkpt>
      <trkpt lat="47.78224" lon="-3.32392">
        <ele>67</ele>
        <time>2015-01-30T09:56:35.317Z</time>
      </trkpt>
      <trkpt lat="47.7823" lon="-3.32399">
        <ele>66</ele>
        <time>2015-01-30T09:56:36.315Z</time>
      </trkpt>
      <trkpt lat="47.78237" lon="-3.32405">
        <ele>67</ele>
        <time>2015-01-30T09:56:37.318Z</time>
      </trkpt>
      <trkpt lat="47.78244" lon="-3.32413">
        <ele>67</ele>
        <time>2015-01-30T09:56:38.316Z</time>
      </trkpt>
      <trkpt lat="47.78251" lon="-3.32421">
        <ele>67</ele>
        <time>2015-01-30T09:56:39.319Z</time>
      </trkpt>
      <trkpt lat="47.78259" lon="-3.32429">
        <ele>66</ele>
        <time>2015-01-30T09:56:40.317Z</time>
      </trkpt>
      <trkpt lat="47.78266" lon="-3.32436">
        <ele>67</ele>
        <time>2015-01-30T09:56:41.317Z</time>
      </trkpt>
      <trkpt lat="47.78274" lon="-3.32444">
        <ele>66</ele>
        <time>2015-01-30T09:56:42.318Z</time>
      </trkpt>
      <trkpt lat="47.78283" lon="-3.32453">
        <ele>65</ele>
        <time>2015-01-30T09:56:43.317Z</time>
      </trkpt>
      <trkpt lat="47.78291" lon="-3.32461">
        <ele>67</ele>
        <time>2015-01-30T09:56:44.317Z</time>
      </trkpt>
      <trkpt lat="47.783" lon="-3.32468">
        <ele>68</ele>
        <time>2015-01-30T09:56:45.318Z</time>
      </trkpt>
      <trkpt lat="47.78307" lon="-3.32475">
        <ele>69</ele>
        <time>2015-01-30T09:56:46.332Z</time>
      </trkpt>
      <trkpt lat="47.78314" lon="-3.32484">
        <ele>70</ele>
        <time>2015-01-30T09:56:47.314Z</time>
      </trkpt>
      <trkpt lat="47.78321" lon="-3.32493">
        <ele>70</ele>
        <time>2015-01-30T09:56:48.316Z</time>
      </trkpt>
      <trkpt lat="47.78326" lon="-3.32502">
        <ele>69</ele>
        <time>2015-01-30T09:56:49.314Z</time>
      </trkpt>
      <trkpt lat="47.7833" lon="-3.32513">
        <ele>69</ele>
        <time>2015-01-30T09:56:50.314Z</time>
      </trkpt>
      <trkpt lat="47.78333" lon="-3.32526">
        <ele>69</ele>
        <time>2015-01-30T09:56:51.315Z</time>
      </trkpt>
      <trkpt lat="47.78336" lon="-3.32536">
        <ele>68</ele>
        <time>2015-01-30T09:56:52.312Z</time>
      </trkpt>
      <trkpt lat="47.7834" lon="-3.32544">
        <ele>69</ele>
        <time>2015-01-30T09:56:53.313Z</time>
      </trkpt>
      <trkpt lat="47.78342" lon="-3.3255">
        <ele>69</ele>
        <time>2015-01-30T09:56:54.316Z</time>
      </trkpt>
      <trkpt lat="47.78341" lon="-3.32557">
        <ele>68</ele>
        <time>2015-01-30T09:56:55.313Z</time>
      </trkpt>
      <trkpt lat="47.78339" lon="-3.32566">
        <ele>68</ele>
        <time>2015-01-30T09:56:56.315Z</time>
      </trkpt>
      <trkpt lat="47.78335" lon="-3.32573">
        <ele>68</ele>
        <time>2015-01-30T09:56:57.336Z</time>
      </trkpt>
      <trkpt lat="47.78331" lon="-3.32581">
        <ele>67</ele>
        <time>2015-01-30T09:56:58.317Z</time>
      </trkpt>
      <trkpt lat="47.78326" lon="-3.32591">
        <ele>67</ele>
        <time>2015-01-30T09:56:59.317Z</time>
      </trkpt>
      <trkpt lat="47.78322" lon="-3.32602">
        <ele>66</ele>
        <time>2015-01-30T09:57:00.313Z</time>
      </trkpt>
      <trkpt lat="47.78318" lon="-3.32613">
        <ele>65</ele>
        <time>2015-01-30T09:57:01.316Z</time>
      </trkpt>
      <trkpt lat="47.78313" lon="-3.32625">
        <ele>66</ele>
        <time>2015-01-30T09:57:02.317Z</time>
      </trkpt>
      <trkpt lat="47.78308" lon="-3.32637">
        <ele>66</ele>
        <time>2015-01-30T09:57:03.315Z</time>
      </trkpt>
      <trkpt lat="47.78303" lon="-3.32649">
        <ele>66</ele>
        <time>2015-01-30T09:57:04.316Z</time>
      </trkpt>
      <trkpt lat="47.78298" lon="-3.32661">
        <ele>67</ele>
        <time>2015-01-30T09:57:05.315Z</time>
      </trkpt>
      <trkpt lat="47.78293" lon="-3.32673">
        <ele>67</ele>
        <time>2015-01-30T09:57:06.317Z</time>
      </trkpt>
      <trkpt lat="47.78287" lon="-3.32686">
        <ele>68</ele>
        <time>2015-01-30T09:57:07.328Z</time>
      </trkpt>
      <trkpt lat="47.78283" lon="-3.32699">
        <ele>67</ele>
        <time>2015-01-30T09:57:08.317Z</time>
      </trkpt>
      <trkpt lat="47.78278" lon="-3.32709">
        <ele>67</ele>
        <time>2015-01-30T09:57:09.316Z</time>
      </trkpt>
      <trkpt lat="47.78274" lon="-3.32718">
        <ele>66</ele>
        <time>2015-01-30T09:57:10.365Z</time>
      </trkpt>
      <trkpt lat="47.7827" lon="-3.32727">
        <ele>66</ele>
        <time>2015-01-30T09:57:11.369Z</time>
      </trkpt>
      <trkpt lat="47.78268" lon="-3.32735">
        <ele>64</ele>
        <time>2015-01-30T09:57:12.316Z</time>
      </trkpt>
      <trkpt lat="47.78268" lon="-3.32743">
        <ele>63</ele>
        <time>2015-01-30T09:57:13.343Z</time>
      </trkpt>
      <trkpt lat="47.7827" lon="-3.32749">
        <ele>61</ele>
        <time>2015-01-30T09:57:14.317Z</time>
      </trkpt>
      <trkpt lat="47.78274" lon="-3.32752">
        <ele>61</ele>
        <time>2015-01-30T09:57:15.323Z</time>
      </trkpt>
      <trkpt lat="47.78279" lon="-3.32753">
        <ele>60</ele>
        <time>2015-01-30T09:57:16.318Z</time>
      </trkpt>
      <trkpt lat="47.78286" lon="-3.32751">
        <ele>61</ele>
        <time>2015-01-30T09:57:18.318Z</time>
      </trkpt>
      <trkpt lat="47.78289" lon="-3.32749">
        <ele>61</ele>
        <time>2015-01-30T09:57:19.314Z</time>
      </trkpt>
      <trkpt lat="47.78297" lon="-3.32745">
        <ele>62</ele>
        <time>2015-01-30T09:58:23.313Z</time>
      </trkpt>
      <trkpt lat="47.78298" lon="-3.32747">
        <ele>62</ele>
        <time>2015-01-30T09:58:24.317Z</time>
      </trkpt>
      <trkpt lat="47.78289" lon="-3.32745">
        <ele>68</ele>
        <time>2015-01-30T09:58:43.317Z</time>
      </trkpt>
      <trkpt lat="47.78288" lon="-3.32745">
        <ele>66</ele>
        <time>2015-01-30T09:58:44.317Z</time>
      </trkpt>
      <trkpt lat="47.78281" lon="-3.32747">
        <ele>68</ele>
        <time>2015-01-30T09:59:12.319Z</time>
      </trkpt>
      <trkpt lat="47.78278" lon="-3.32749">
        <ele>68</ele>
        <time>2015-01-30T09:59:13.313Z</time>
      </trkpt>
      <trkpt lat="47.78271" lon="-3.32752">
        <ele>70</ele>
        <time>2015-01-30T09:59:16.316Z</time>
      </trkpt>
      <trkpt lat="47.78269" lon="-3.32753">
        <ele>71</ele>
        <time>2015-01-30T09:59:17.315Z</time>
      </trkpt>
      <trkpt lat="47.78263" lon="-3.3276">
        <ele>70</ele>
        <time>2015-01-30T09:59:19.315Z</time>
      </trkpt>
      <trkpt lat="47.78258" lon="-3.3277">
        <ele>70</ele>
        <time>2015-01-30T09:59:20.315Z</time>
      </trkpt>
      <trkpt lat="47.78255" lon="-3.32778">
        <ele>70</ele>
        <time>2015-01-30T09:59:21.314Z</time>
      </trkpt>
      <trkpt lat="47.78251" lon="-3.32788">
        <ele>71</ele>
        <time>2015-01-30T09:59:22.315Z</time>
      </trkpt>
      <trkpt lat="47.78246" lon="-3.32799">
        <ele>70</ele>
        <time>2015-01-30T09:59:23.316Z</time>
      </trkpt>
      <trkpt lat="47.78241" lon="-3.3281">
        <ele>69</ele>
        <time>2015-01-30T09:59:24.316Z</time>
      </trkpt>
      <trkpt lat="47.78236" lon="-3.32822">
        <ele>69</ele>
        <time>2015-01-30T09:59:25.316Z</time>
      </trkpt>
      <trkpt lat="47.78231" lon="-3.32834">
        <ele>69</ele>
        <time>2015-01-30T09:59:26.316Z</time>
      </trkpt>
      <trkpt lat="47.78225" lon="-3.32847">
        <ele>69</ele>
        <time>2015-01-30T09:59:27.314Z</time>
      </trkpt>
      <trkpt lat="47.78219" lon="-3.3286">
        <ele>68</ele>
        <time>2015-01-30T09:59:28.314Z</time>
      </trkpt>
      <trkpt lat="47.78215" lon="-3.32873">
        <ele>69</ele>
        <time>2015-01-30T09:59:29.315Z</time>
      </trkpt>
      <trkpt lat="47.78209" lon="-3.32886">
        <ele>69</ele>
        <time>2015-01-30T09:59:30.314Z</time>
      </trkpt>
      <trkpt lat="47.78204" lon="-3.32901">
        <ele>68</ele>
        <time>2015-01-30T09:59:31.314Z</time>
      </trkpt>
      <trkpt lat="47.78199" lon="-3.32915">
        <ele>68</ele>
        <time>2015-01-30T09:59:32.315Z</time>
      </trkpt>
      <trkpt lat="47.78194" lon="-3.32929">
        <ele>69</ele>
        <time>2015-01-30T09:59:33.314Z</time>
      </trkpt>
      <trkpt lat="47.78188" lon="-3.32943">
        <ele>69</ele>
        <time>2015-01-30T09:59:34.316Z</time>
      </trkpt>
      <trkpt lat="47.78182" lon="-3.32958">
        <ele>69</ele>
        <time>2015-01-30T09:59:35.315Z</time>
      </trkpt>
      <trkpt lat="47.78175" lon="-3.32973">
        <ele>69</ele>
        <time>2015-01-30T09:59:36.314Z</time>
      </trkpt>
      <trkpt lat="47.78169" lon="-3.32989">
        <ele>68</ele>
        <time>2015-01-30T09:59:37.314Z</time>
      </trkpt>
      <trkpt lat="47.78163" lon="-3.33003">
        <ele>69</ele>
        <time>2015-01-30T09:59:38.314Z</time>
      </trkpt>
      <trkpt lat="47.78157" lon="-3.33018">
        <ele>68</ele>
        <time>2015-01-30T09:59:39.315Z</time>
      </trkpt>
      <trkpt lat="47.78153" lon="-3.33032">
        <ele>68</ele>
        <time>2015-01-30T09:59:40.315Z</time>
      </trkpt>
      <trkpt lat="47.78148" lon="-3.33045">
        <ele>67</ele>
        <time>2015-01-30T09:59:41.314Z</time>
      </trkpt>
      <trkpt lat="47.78142" lon="-3.33061">
        <ele>66</ele>
        <time>2015-01-30T09:59:42.316Z</time>
      </trkpt>
      <trkpt lat="47.78137" lon="-3.33076">
        <ele>66</ele>
        <time>2015-01-30T09:59:43.318Z</time>
      </trkpt>
      <trkpt lat="47.78132" lon="-3.33089">
        <ele>66</ele>
        <time>2015-01-30T09:59:44.315Z</time>
      </trkpt>
      <trkpt lat="47.78126" lon="-3.33103">
        <ele>66</ele>
        <time>2015-01-30T09:59:45.315Z</time>
      </trkpt>
      <trkpt lat="47.78122" lon="-3.33115">
        <ele>66</ele>
        <time>2015-01-30T09:59:46.314Z</time>
      </trkpt>
      <trkpt lat="47.78116" lon="-3.33129">
        <ele>66</ele>
        <time>2015-01-30T09:59:47.396Z</time>
      </trkpt>
      <trkpt lat="47.7811" lon="-3.33143">
        <ele>66</ele>
        <time>2015-01-30T09:59:48.397Z</time>
      </trkpt>
      <trkpt lat="47.78105" lon="-3.33155">
        <ele>66</ele>
        <time>2015-01-30T09:59:49.371Z</time>
      </trkpt>
      <trkpt lat="47.781" lon="-3.33166">
        <ele>66</ele>
        <time>2015-01-30T09:59:50.313Z</time>
      </trkpt>
      <trkpt lat="47.78097" lon="-3.33178">
        <ele>67</ele>
        <time>2015-01-30T09:59:51.312Z</time>
      </trkpt>
      <trkpt lat="47.78095" lon="-3.33188">
        <ele>69</ele>
        <time>2015-01-30T09:59:52.312Z</time>
      </trkpt>
      <trkpt lat="47.78093" lon="-3.33198">
        <ele>69</ele>
        <time>2015-01-30T09:59:53.314Z</time>
      </trkpt>
      <trkpt lat="47.78099" lon="-3.33201">
        <ele>68</ele>
        <time>2015-01-30T09:59:54.351Z</time>
      </trkpt>
      <trkpt lat="47.78103" lon="-3.33209">
        <ele>70</ele>
        <time>2015-01-30T09:59:55.321Z</time>
      </trkpt>
      <trkpt lat="47.78109" lon="-3.33212">
        <ele>71</ele>
        <time>2015-01-30T09:59:56.315Z</time>
      </trkpt>
      <trkpt lat="47.78115" lon="-3.33216">
        <ele>70</ele>
        <time>2015-01-30T09:59:57.314Z</time>
      </trkpt>
      <trkpt lat="47.78119" lon="-3.33219">
        <ele>69</ele>
        <time>2015-01-30T09:59:58.313Z</time>
      </trkpt>
      <trkpt lat="47.78124" lon="-3.33222">
        <ele>68</ele>
        <time>2015-01-30T09:59:59.313Z</time>
      </trkpt>
      <trkpt lat="47.78131" lon="-3.33227">
        <ele>70</ele>
        <time>2015-01-30T10:00:00.312Z</time>
      </trkpt>
      <trkpt lat="47.78134" lon="-3.33225">
        <ele>69</ele>
        <time>2015-01-30T10:00:01.313Z</time>
      </trkpt>
      <trkpt lat="47.78138" lon="-3.33216">
        <ele>65</ele>
        <time>2015-01-30T10:00:03.316Z</time>
      </trkpt>
      <trkpt lat="47.78141" lon="-3.33212">
        <ele>66</ele>
        <time>2015-01-30T10:00:04.315Z</time>
      </trkpt>
      <trkpt lat="47.78146" lon="-3.33211">
        <ele>65</ele>
        <time>2015-01-30T10:00:05.315Z</time>
      </trkpt>
      <trkpt lat="47.78151" lon="-3.33211">
        <ele>65</ele>
        <time>2015-01-30T10:00:06.314Z</time>
      </trkpt>
      <trkpt lat="47.78156" lon="-3.33212">
        <ele>63</ele>
        <time>2015-01-30T10:00:07.315Z</time>
      </trkpt>
      <trkpt lat="47.78161" lon="-3.33214">
        <ele>63</ele>
        <time>2015-01-30T10:00:08.315Z</time>
      </trkpt>
      <trkpt lat="47.78167" lon="-3.33217">
        <ele>63</ele>
        <time>2015-01-30T10:00:09.315Z</time>
      </trkpt>
      <trkpt lat="47.78172" lon="-3.3322">
        <ele>63</ele>
        <time>2015-01-30T10:00:10.315Z</time>
      </trkpt>
      <trkpt lat="47.78179" lon="-3.33223">
        <ele>63</ele>
        <time>2015-01-30T10:00:11.315Z</time>
      </trkpt>
      <trkpt lat="47.78183" lon="-3.33228">
        <ele>63</ele>
        <time>2015-01-30T10:00:12.316Z</time>
      </trkpt>
      <trkpt lat="47.7819" lon="-3.33234">
        <ele>62</ele>
        <time>2015-01-30T10:00:13.316Z</time>
      </trkpt>
      <trkpt lat="47.78193" lon="-3.33238">
        <ele>62</ele>
        <time>2015-01-30T10:00:14.314Z</time>
      </trkpt>
      <trkpt lat="47.782" lon="-3.33244">
        <ele>62</ele>
        <time>2015-01-30T10:00:15.311Z</time>
      </trkpt>
      <trkpt lat="47.78203" lon="-3.33244">
        <ele>61</ele>
        <time>2015-01-30T10:00:16.315Z</time>
      </trkpt>
      <trkpt lat="47.78207" lon="-3.33248">
        <ele>65</ele>
        <time>2015-01-30T10:00:17.313Z</time>
      </trkpt>
      <trkpt lat="47.7821" lon="-3.33254">
        <ele>64</ele>
        <time>2015-01-30T10:00:18.315Z</time>
      </trkpt>
      <trkpt lat="47.78219" lon="-3.33251">
        <ele>59</ele>
        <time>2015-01-30T10:01:23.315Z</time>
      </trkpt>
      <trkpt lat="47.78219" lon="-3.33254">
        <ele>57</ele>
        <time>2015-01-30T10:01:24.314Z</time>
      </trkpt>
      <trkpt lat="47.78218" lon="-3.33265">
        <ele>58</ele>
        <time>2015-01-30T10:01:27.313Z</time>
      </trkpt>
      <trkpt lat="47.78217" lon="-3.33267">
        <ele>57</ele>
        <time>2015-01-30T10:01:28.312Z</time>
      </trkpt>
      <trkpt lat="47.78216" lon="-3.33277">
        <ele>58</ele>
        <time>2015-01-30T10:01:31.312Z</time>
      </trkpt>
      <trkpt lat="47.78218" lon="-3.33282">
        <ele>57</ele>
        <time>2015-01-30T10:01:32.314Z</time>
      </trkpt>
      <trkpt lat="47.78225" lon="-3.33289">
        <ele>57</ele>
        <time>2015-01-30T10:01:34.314Z</time>
      </trkpt>
      <trkpt lat="47.7823" lon="-3.33292">
        <ele>57</ele>
        <time>2015-01-30T10:01:35.314Z</time>
      </trkpt>
      <trkpt lat="47.78237" lon="-3.33297">
        <ele>57</ele>
        <time>2015-01-30T10:01:36.315Z</time>
      </trkpt>
      <trkpt lat="47.78242" lon="-3.33303">
        <ele>57</ele>
        <time>2015-01-30T10:01:37.312Z</time>
      </trkpt>
      <trkpt lat="47.78248" lon="-3.33308">
        <ele>57</ele>
        <time>2015-01-30T10:01:38.311Z</time>
      </trkpt>
      <trkpt lat="47.78255" lon="-3.33315">
        <ele>58</ele>
        <time>2015-01-30T10:01:39.312Z</time>
      </trkpt>
      <trkpt lat="47.78262" lon="-3.3332">
        <ele>59</ele>
        <time>2015-01-30T10:01:40.312Z</time>
      </trkpt>
      <trkpt lat="47.78269" lon="-3.33326">
        <ele>60</ele>
        <time>2015-01-30T10:01:41.312Z</time>
      </trkpt>
      <trkpt lat="47.78275" lon="-3.33331">
        <ele>59</ele>
        <time>2015-01-30T10:01:42.311Z</time>
      </trkpt>
      <trkpt lat="47.78283" lon="-3.33336">
        <ele>59</ele>
        <time>2015-01-30T10:01:43.316Z</time>
      </trkpt>
      <trkpt lat="47.78288" lon="-3.33343">
        <ele>59</ele>
        <time>2015-01-30T10:01:44.311Z</time>
      </trkpt>
      <trkpt lat="47.78291" lon="-3.33349">
        <ele>58</ele>
        <time>2015-01-30T10:01:45.312Z</time>
      </trkpt>
      <trkpt lat="47.78293" lon="-3.33357">
        <ele>58</ele>
        <time>2015-01-30T10:01:46.311Z</time>
      </trkpt>
      <trkpt lat="47.7829" lon="-3.33365">
        <ele>56</ele>
        <time>2015-01-30T10:01:47.312Z</time>
      </trkpt>
      <trkpt lat="47.78288" lon="-3.33373">
        <ele>56</ele>
        <time>2015-01-30T10:01:48.313Z</time>
      </trkpt>
      <trkpt lat="47.78286" lon="-3.33383">
        <ele>59</ele>
        <time>2015-01-30T10:01:49.313Z</time>
      </trkpt>
      <trkpt lat="47.78283" lon="-3.33392">
        <ele>57</ele>
        <time>2015-01-30T10:01:50.312Z</time>
      </trkpt>
      <trkpt lat="47.7828" lon="-3.33401">
        <ele>59</ele>
        <time>2015-01-30T10:01:51.319Z</time>
      </trkpt>
      <trkpt lat="47.78279" lon="-3.3341">
        <ele>59</ele>
        <time>2015-01-30T10:01:52.381Z</time>
      </trkpt>
      <trkpt lat="47.78279" lon="-3.33418">
        <ele>58</ele>
        <time>2015-01-30T10:01:53.352Z</time>
      </trkpt>
      <trkpt lat="47.78281" lon="-3.33425">
        <ele>58</ele>
        <time>2015-01-30T10:01:54.407Z</time>
      </trkpt>
      <trkpt lat="47.78283" lon="-3.33434">
        <ele>58</ele>
        <time>2015-01-30T10:01:55.312Z</time>
      </trkpt>
      <trkpt lat="47.78287" lon="-3.33439">
        <ele>58</ele>
        <time>2015-01-30T10:01:56.386Z</time>
      </trkpt>
      <trkpt lat="47.78292" lon="-3.33444">
        <ele>58</ele>
        <time>2015-01-30T10:01:57.390Z</time>
      </trkpt>
      <trkpt lat="47.78296" lon="-3.33448">
        <ele>58</ele>
        <time>2015-01-30T10:01:58.312Z</time>
      </trkpt>
      <trkpt lat="47.78301" lon="-3.33454">
        <ele>59</ele>
        <time>2015-01-30T10:01:59.314Z</time>
      </trkpt>
      <trkpt lat="47.78307" lon="-3.33457">
        <ele>58</ele>
        <time>2015-01-30T10:02:00.314Z</time>
      </trkpt>
      <trkpt lat="47.78311" lon="-3.33462">
        <ele>59</ele>
        <time>2015-01-30T10:02:01.312Z</time>
      </trkpt>
      <trkpt lat="47.78317" lon="-3.33472">
        <ele>59</ele>
        <time>2015-01-30T10:02:03.344Z</time>
      </trkpt>
      <trkpt lat="47.7832" lon="-3.33477">
        <ele>59</ele>
        <time>2015-01-30T10:02:04.387Z</time>
      </trkpt>
      <trkpt lat="47.78328" lon="-3.3348">
        <ele>61</ele>
        <time>2015-01-30T10:02:11.312Z</time>
      </trkpt>
      <trkpt lat="47.7833" lon="-3.33481">
        <ele>62</ele>
        <time>2015-01-30T10:02:12.314Z</time>
      </trkpt>
      <trkpt lat="47.78331" lon="-3.33494">
        <ele>57</ele>
        <time>2015-01-30T10:02:47.314Z</time>
      </trkpt>
      <trkpt lat="47.7833" lon="-3.33494">
        <ele>57</ele>
        <time>2015-01-30T10:02:48.311Z</time>
      </trkpt>
      <trkpt lat="47.78322" lon="-3.3349">
        <ele>62</ele>
        <time>2015-01-30T10:04:12.312Z</time>
      </trkpt>
      <trkpt lat="47.78321" lon="-3.33488">
        <ele>62</ele>
        <time>2015-01-30T10:04:13.312Z</time>
      </trkpt>
      <trkpt lat="47.78319" lon="-3.33477">
        <ele>58</ele>
        <time>2015-01-30T10:04:36.309Z</time>
      </trkpt>
      <trkpt lat="47.78319" lon="-3.33473">
        <ele>58</ele>
        <time>2015-01-30T10:04:37.311Z</time>
      </trkpt>
      <trkpt lat="47.78314" lon="-3.33468">
        <ele>58</ele>
        <time>2015-01-30T10:04:39.311Z</time>
      </trkpt>
      <trkpt lat="47.78311" lon="-3.33465">
        <ele>58</ele>
        <time>2015-01-30T10:04:40.310Z</time>
      </trkpt>
      <trkpt lat="47.78306" lon="-3.33463">
        <ele>59</ele>
        <time>2015-01-30T10:04:41.312Z</time>
      </trkpt>
      <trkpt lat="47.78302" lon="-3.3346">
        <ele>59</ele>
        <time>2015-01-30T10:04:42.312Z</time>
      </trkpt>
      <trkpt lat="47.78295" lon="-3.33455">
        <ele>58</ele>
        <time>2015-01-30T10:04:43.312Z</time>
      </trkpt>
      <trkpt lat="47.78291" lon="-3.33449">
        <ele>59</ele>
        <time>2015-01-30T10:04:44.311Z</time>
      </trkpt>
      <trkpt lat="47.78285" lon="-3.33446">
        <ele>60</ele>
        <time>2015-01-30T10:04:45.312Z</time>
      </trkpt>
      <trkpt lat="47.78281" lon="-3.33441">
        <ele>59</ele>
        <time>2015-01-30T10:04:46.310Z</time>
      </trkpt>
      <trkpt lat="47.78276" lon="-3.33437">
        <ele>58</ele>
        <time>2015-01-30T10:04:47.310Z</time>
      </trkpt>
      <trkpt lat="47.78274" lon="-3.33431">
        <ele>57</ele>
        <time>2015-01-30T10:04:48.311Z</time>
      </trkpt>
      <trkpt lat="47.78273" lon="-3.33423">
        <ele>57</ele>
        <time>2015-01-30T10:04:49.310Z</time>
      </trkpt>
      <trkpt lat="47.78272" lon="-3.33415">
        <ele>57</ele>
        <time>2015-01-30T10:04:50.310Z</time>
      </trkpt>
      <trkpt lat="47.78275" lon="-3.33406">
        <ele>57</ele>
        <time>2015-01-30T10:04:51.310Z</time>
      </trkpt>
      <trkpt lat="47.78278" lon="-3.33397">
        <ele>58</ele>
        <time>2015-01-30T10:04:52.310Z</time>
      </trkpt>
      <trkpt lat="47.78281" lon="-3.33389">
        <ele>59</ele>
        <time>2015-01-30T10:04:53.314Z</time>
      </trkpt>
      <trkpt lat="47.78284" lon="-3.3338">
        <ele>58</ele>
        <time>2015-01-30T10:04:54.312Z</time>
      </trkpt>
      <trkpt lat="47.78286" lon="-3.33372">
        <ele>58</ele>
        <time>2015-01-30T10:04:55.311Z</time>
      </trkpt>
      <trkpt lat="47.78287" lon="-3.33363">
        <ele>57</ele>
        <time>2015-01-30T10:04:56.312Z</time>
      </trkpt>
      <trkpt lat="47.78287" lon="-3.33355">
        <ele>57</ele>
        <time>2015-01-30T10:04:57.399Z</time>
      </trkpt>
      <trkpt lat="47.78285" lon="-3.33349">
        <ele>56</ele>
        <time>2015-01-30T10:04:58.311Z</time>
      </trkpt>
      <trkpt lat="47.78281" lon="-3.33344">
        <ele>57</ele>
        <time>2015-01-30T10:04:59.341Z</time>
      </trkpt>
      <trkpt lat="47.78278" lon="-3.33339">
        <ele>56</ele>
        <time>2015-01-30T10:05:00.426Z</time>
      </trkpt>
      <trkpt lat="47.78273" lon="-3.33335">
        <ele>55</ele>
        <time>2015-01-30T10:05:01.375Z</time>
      </trkpt>
      <trkpt lat="47.78267" lon="-3.33331">
        <ele>55</ele>
        <time>2015-01-30T10:05:02.402Z</time>
      </trkpt>
      <trkpt lat="47.78262" lon="-3.33326">
        <ele>55</ele>
        <time>2015-01-30T10:05:03.330Z</time>
      </trkpt>
      <trkpt lat="47.78254" lon="-3.33321">
        <ele>56</ele>
        <time>2015-01-30T10:05:04.345Z</time>
      </trkpt>
      <trkpt lat="47.78247" lon="-3.33317">
        <ele>57</ele>
        <time>2015-01-30T10:05:05.308Z</time>
      </trkpt>
      <trkpt lat="47.78241" lon="-3.33312">
        <ele>58</ele>
        <time>2015-01-30T10:05:06.391Z</time>
      </trkpt>
      <trkpt lat="47.78234" lon="-3.33308">
        <ele>58</ele>
        <time>2015-01-30T10:05:07.397Z</time>
      </trkpt>
      <trkpt lat="47.78229" lon="-3.33304">
        <ele>60</ele>
        <time>2015-01-30T10:05:08.371Z</time>
      </trkpt>
      <trkpt lat="47.78223" lon="-3.33302">
        <ele>60</ele>
        <time>2015-01-30T10:05:09.373Z</time>
      </trkpt>
      <trkpt lat="47.78218" lon="-3.33298">
        <ele>60</ele>
        <time>2015-01-30T10:05:10.361Z</time>
      </trkpt>
      <trkpt lat="47.7821" lon="-3.33294">
        <ele>58</ele>
        <time>2015-01-30T10:05:16.310Z</time>
      </trkpt>
      <trkpt lat="47.7821" lon="-3.33293">
        <ele>58</ele>
        <time>2015-01-30T10:05:17.312Z</time>
      </trkpt>
      <trkpt lat="47.78204" lon="-3.33288">
        <ele>56</ele>
        <time>2015-01-30T10:05:42.310Z</time>
      </trkpt>
      <trkpt lat="47.78199" lon="-3.33285">
        <ele>56</ele>
        <time>2015-01-30T10:05:43.310Z</time>
      </trkpt>
      <trkpt lat="47.78195" lon="-3.33281">
        <ele>56</ele>
        <time>2015-01-30T10:05:44.310Z</time>
      </trkpt>
      <trkpt lat="47.78188" lon="-3.33276">
        <ele>57</ele>
        <time>2015-01-30T10:05:45.311Z</time>
      </trkpt>
      <trkpt lat="47.78182" lon="-3.33272">
        <ele>57</ele>
        <time>2015-01-30T10:05:46.310Z</time>
      </trkpt>
      <trkpt lat="47.78175" lon="-3.33267">
        <ele>57</ele>
        <time>2015-01-30T10:05:47.309Z</time>
      </trkpt>
      <trkpt lat="47.78167" lon="-3.33261">
        <ele>56</ele>
        <time>2015-01-30T10:05:48.310Z</time>
      </trkpt>
      <trkpt lat="47.78159" lon="-3.33255">
        <ele>56</ele>
        <time>2015-01-30T10:05:49.312Z</time>
      </trkpt>
      <trkpt lat="47.78152" lon="-3.3325">
        <ele>56</ele>
        <time>2015-01-30T10:05:50.309Z</time>
      </trkpt>
      <trkpt lat="47.78144" lon="-3.33244">
        <ele>56</ele>
        <time>2015-01-30T10:05:51.309Z</time>
      </trkpt>
      <trkpt lat="47.78136" lon="-3.33237">
        <ele>56</ele>
        <time>2015-01-30T10:05:52.310Z</time>
      </trkpt>
      <trkpt lat="47.78128" lon="-3.33232">
        <ele>56</ele>
        <time>2015-01-30T10:05:53.308Z</time>
      </trkpt>
      <trkpt lat="47.7812" lon="-3.33227">
        <ele>56</ele>
        <time>2015-01-30T10:05:54.311Z</time>
      </trkpt>
      <trkpt lat="47.78112" lon="-3.33222">
        <ele>56</ele>
        <time>2015-01-30T10:05:55.307Z</time>
      </trkpt>
      <trkpt lat="47.78105" lon="-3.33216">
        <ele>57</ele>
        <time>2015-01-30T10:05:56.310Z</time>
      </trkpt>
      <trkpt lat="47.78099" lon="-3.33211">
        <ele>56</ele>
        <time>2015-01-30T10:05:57.310Z</time>
      </trkpt>
      <trkpt lat="47.78094" lon="-3.33207">
        <ele>56</ele>
        <time>2015-01-30T10:05:58.309Z</time>
      </trkpt>
      <trkpt lat="47.78089" lon="-3.33206">
        <ele>55</ele>
        <time>2015-01-30T10:05:59.363Z</time>
      </trkpt>
      <trkpt lat="47.78081" lon="-3.33207">
        <ele>54</ele>
        <time>2015-01-30T10:06:09.309Z</time>
      </trkpt>
      <trkpt lat="47.78078" lon="-3.33209">
        <ele>53</ele>
        <time>2015-01-30T10:06:10.311Z</time>
      </trkpt>
      <trkpt lat="47.78075" lon="-3.33216">
        <ele>52</ele>
        <time>2015-01-30T10:06:11.310Z</time>
      </trkpt>
      <trkpt lat="47.78072" lon="-3.33225">
        <ele>53</ele>
        <time>2015-01-30T10:06:12.310Z</time>
      </trkpt>
      <trkpt lat="47.78068" lon="-3.33234">
        <ele>54</ele>
        <time>2015-01-30T10:06:13.309Z</time>
      </trkpt>
      <trkpt lat="47.78065" lon="-3.33243">
        <ele>54</ele>
        <time>2015-01-30T10:06:14.454Z</time>
      </trkpt>
      <trkpt lat="47.7806" lon="-3.33254">
        <ele>54</ele>
        <time>2015-01-30T10:06:15.307Z</time>
      </trkpt>
      <trkpt lat="47.78055" lon="-3.33265">
        <ele>53</ele>
        <time>2015-01-30T10:06:16.310Z</time>
      </trkpt>
      <trkpt lat="47.78051" lon="-3.33277">
        <ele>53</ele>
        <time>2015-01-30T10:06:17.307Z</time>
      </trkpt>
      <trkpt lat="47.78047" lon="-3.33289">
        <ele>54</ele>
        <time>2015-01-30T10:06:18.316Z</time>
      </trkpt>
      <trkpt lat="47.78042" lon="-3.33302">
        <ele>55</ele>
        <time>2015-01-30T10:06:19.310Z</time>
      </trkpt>
      <trkpt lat="47.78037" lon="-3.33314">
        <ele>55</ele>
        <time>2015-01-30T10:06:20.309Z</time>
      </trkpt>
      <trkpt lat="47.78032" lon="-3.33327">
        <ele>55</ele>
        <time>2015-01-30T10:06:21.308Z</time>
      </trkpt>
      <trkpt lat="47.78027" lon="-3.33337">
        <ele>54</ele>
        <time>2015-01-30T10:06:22.305Z</time>
      </trkpt>
      <trkpt lat="47.78022" lon="-3.33349">
        <ele>53</ele>
        <time>2015-01-30T10:06:23.306Z</time>
      </trkpt>
      <trkpt lat="47.78018" lon="-3.3336">
        <ele>53</ele>
        <time>2015-01-30T10:06:24.307Z</time>
      </trkpt>
      <trkpt lat="47.78016" lon="-3.3337">
        <ele>53</ele>
        <time>2015-01-30T10:06:25.307Z</time>
      </trkpt>
      <trkpt lat="47.78017" lon="-3.33379">
        <ele>52</ele>
        <time>2015-01-30T10:06:26.402Z</time>
      </trkpt>
      <trkpt lat="47.78019" lon="-3.33389">
        <ele>53</ele>
        <time>2015-01-30T10:06:27.306Z</time>
      </trkpt>
      <trkpt lat="47.78023" lon="-3.33396">
        <ele>53</ele>
        <time>2015-01-30T10:06:28.369Z</time>
      </trkpt>
      <trkpt lat="47.7803" lon="-3.33399">
        <ele>51</ele>
        <time>2015-01-30T10:06:29.306Z</time>
      </trkpt>
      <trkpt lat="47.78036" lon="-3.33405">
        <ele>51</ele>
        <time>2015-01-30T10:06:30.305Z</time>
      </trkpt>
      <trkpt lat="47.78043" lon="-3.33412">
        <ele>52</ele>
        <time>2015-01-30T10:06:31.308Z</time>
      </trkpt>
      <trkpt lat="47.78049" lon="-3.3342">
        <ele>52</ele>
        <time>2015-01-30T10:06:32.310Z</time>
      </trkpt>
      <trkpt lat="47.78055" lon="-3.3343">
        <ele>52</ele>
        <time>2015-01-30T10:06:33.306Z</time>
      </trkpt>
      <trkpt lat="47.7806" lon="-3.33438">
        <ele>51</ele>
        <time>2015-01-30T10:06:34.309Z</time>
      </trkpt>
      <trkpt lat="47.78066" lon="-3.33449">
        <ele>51</ele>
        <time>2015-01-30T10:06:35.306Z</time>
      </trkpt>
      <trkpt lat="47.78073" lon="-3.33459">
        <ele>51</ele>
        <time>2015-01-30T10:06:36.302Z</time>
      </trkpt>
      <trkpt lat="47.7808" lon="-3.33469">
        <ele>52</ele>
        <time>2015-01-30T10:06:37.311Z</time>
      </trkpt>
      <trkpt lat="47.78087" lon="-3.33481">
        <ele>52</ele>
        <time>2015-01-30T10:06:38.306Z</time>
      </trkpt>
      <trkpt lat="47.78093" lon="-3.33494">
        <ele>53</ele>
        <time>2015-01-30T10:06:39.308Z</time>
      </trkpt>
      <trkpt lat="47.78099" lon="-3.33501">
        <ele>51</ele>
        <time>2015-01-30T10:06:40.311Z</time>
      </trkpt>
      <trkpt lat="47.78106" lon="-3.3351">
        <ele>51</ele>
        <time>2015-01-30T10:06:41.308Z</time>
      </trkpt>
      <trkpt lat="47.7811" lon="-3.33519">
        <ele>52</ele>
        <time>2015-01-30T10:06:42.310Z</time>
      </trkpt>
      <trkpt lat="47.78113" lon="-3.33528">
        <ele>52</ele>
        <time>2015-01-30T10:06:43.307Z</time>
      </trkpt>
      <trkpt lat="47.78109" lon="-3.33539">
        <ele>53</ele>
        <time>2015-01-30T10:06:45.312Z</time>
      </trkpt>
      <trkpt lat="47.78105" lon="-3.33541">
        <ele>53</ele>
        <time>2015-01-30T10:06:46.309Z</time>
      </trkpt>
      <trkpt lat="47.78098" lon="-3.3354">
        <ele>54</ele>
        <time>2015-01-30T10:06:48.306Z</time>
      </trkpt>
      <trkpt lat="47.78094" lon="-3.33537">
        <ele>51</ele>
        <time>2015-01-30T10:06:49.310Z</time>
      </trkpt>
      <trkpt lat="47.78089" lon="-3.33527">
        <ele>55</ele>
        <time>2015-01-30T10:07:17.312Z</time>
      </trkpt>
      <trkpt lat="47.78088" lon="-3.33526">
        <ele>55</ele>
        <time>2015-01-30T10:07:18.327Z</time>
      </trkpt>
      <trkpt lat="47.78085" lon="-3.33515">
        <ele>58</ele>
        <time>2015-01-30T10:08:01.308Z</time>
      </trkpt>
      <trkpt lat="47.78084" lon="-3.3351">
        <ele>58</ele>
        <time>2015-01-30T10:08:02.309Z</time>
      </trkpt>
      <trkpt lat="47.78084" lon="-3.33498">
        <ele>57</ele>
        <time>2015-01-30T10:08:04.307Z</time>
      </trkpt>
      <trkpt lat="47.78085" lon="-3.33493">
        <ele>60</ele>
        <time>2015-01-30T10:08:05.308Z</time>
      </trkpt>
      <trkpt lat="47.78086" lon="-3.33483">
        <ele>59</ele>
        <time>2015-01-30T10:08:07.313Z</time>
      </trkpt>
      <trkpt lat="47.78084" lon="-3.33478">
        <ele>59</ele>
        <time>2015-01-30T10:08:08.308Z</time>
      </trkpt>
      <trkpt lat="47.78082" lon="-3.33473">
        <ele>57</ele>
        <time>2015-01-30T10:08:09.309Z</time>
      </trkpt>
      <trkpt lat="47.78073" lon="-3.33462">
        <ele>57</ele>
        <time>2015-01-30T10:08:10.307Z</time>
      </trkpt>
      <trkpt lat="47.78068" lon="-3.33455">
        <ele>56</ele>
        <time>2015-01-30T10:08:11.310Z</time>
      </trkpt>
      <trkpt lat="47.78059" lon="-3.33446">
        <ele>56</ele>
        <time>2015-01-30T10:08:12.307Z</time>
      </trkpt>
      <trkpt lat="47.78053" lon="-3.33438">
        <ele>56</ele>
        <time>2015-01-30T10:08:13.308Z</time>
      </trkpt>
      <trkpt lat="47.78049" lon="-3.3343">
        <ele>57</ele>
        <time>2015-01-30T10:08:14.307Z</time>
      </trkpt>
      <trkpt lat="47.78042" lon="-3.33424">
        <ele>57</ele>
        <time>2015-01-30T10:08:15.303Z</time>
      </trkpt>
      <trkpt lat="47.78035" lon="-3.33417">
        <ele>58</ele>
        <time>2015-01-30T10:08:16.401Z</time>
      </trkpt>
      <trkpt lat="47.7803" lon="-3.33413">
        <ele>58</ele>
        <time>2015-01-30T10:08:17.300Z</time>
      </trkpt>
      <trkpt lat="47.78023" lon="-3.33408">
        <ele>60</ele>
        <time>2015-01-30T10:08:18.305Z</time>
      </trkpt>
      <trkpt lat="47.78016" lon="-3.33404">
        <ele>61</ele>
        <time>2015-01-30T10:08:19.310Z</time>
      </trkpt>
      <trkpt lat="47.78008" lon="-3.33407">
        <ele>62</ele>
        <time>2015-01-30T10:08:20.305Z</time>
      </trkpt>
      <trkpt lat="47.78002" lon="-3.33411">
        <ele>62</ele>
        <time>2015-01-30T10:08:21.305Z</time>
      </trkpt>
      <trkpt lat="47.77996" lon="-3.33419">
        <ele>61</ele>
        <time>2015-01-30T10:08:22.352Z</time>
      </trkpt>
      <trkpt lat="47.77992" lon="-3.33429">
        <ele>62</ele>
        <time>2015-01-30T10:08:23.307Z</time>
      </trkpt>
      <trkpt lat="47.77988" lon="-3.33439">
        <ele>62</ele>
        <time>2015-01-30T10:08:24.306Z</time>
      </trkpt>
      <trkpt lat="47.77983" lon="-3.33447">
        <ele>60</ele>
        <time>2015-01-30T10:08:25.305Z</time>
      </trkpt>
      <trkpt lat="47.77979" lon="-3.33458">
        <ele>60</ele>
        <time>2015-01-30T10:08:26.306Z</time>
      </trkpt>
      <trkpt lat="47.77973" lon="-3.33471">
        <ele>60</ele>
        <time>2015-01-30T10:08:27.308Z</time>
      </trkpt>
      <trkpt lat="47.77968" lon="-3.33483">
        <ele>60</ele>
        <time>2015-01-30T10:08:28.309Z</time>
      </trkpt>
      <trkpt lat="47.77964" lon="-3.33495">
        <ele>60</ele>
        <time>2015-01-30T10:08:29.309Z</time>
      </trkpt>
      <trkpt lat="47.77958" lon="-3.33505">
        <ele>57</ele>
        <time>2015-01-30T10:08:30.309Z</time>
      </trkpt>
      <trkpt lat="47.77954" lon="-3.33516">
        <ele>57</ele>
        <time>2015-01-30T10:08:31.310Z</time>
      </trkpt>
      <trkpt lat="47.77951" lon="-3.33527">
        <ele>57</ele>
        <time>2015-01-30T10:08:32.325Z</time>
      </trkpt>
      <trkpt lat="47.7795" lon="-3.33536">
        <ele>56</ele>
        <time>2015-01-30T10:08:33.306Z</time>
      </trkpt>
      <trkpt lat="47.77951" lon="-3.33544">
        <ele>55</ele>
        <time>2015-01-30T10:08:34.305Z</time>
      </trkpt>
      <trkpt lat="47.77952" lon="-3.33554">
        <ele>54</ele>
        <time>2015-01-30T10:08:35.305Z</time>
      </trkpt>
      <trkpt lat="47.77956" lon="-3.33562">
        <ele>55</ele>
        <time>2015-01-30T10:08:36.305Z</time>
      </trkpt>
      <trkpt lat="47.77961" lon="-3.33568">
        <ele>55</ele>
        <time>2015-01-30T10:08:37.307Z</time>
      </trkpt>
      <trkpt lat="47.77961" lon="-3.33574">
        <ele>55</ele>
        <time>2015-01-30T10:08:38.304Z</time>
      </trkpt>
      <trkpt lat="47.77959" lon="-3.33585">
        <ele>54</ele>
        <time>2015-01-30T10:08:40.305Z</time>
      </trkpt>
      <trkpt lat="47.77957" lon="-3.33589">
        <ele>54</ele>
        <time>2015-01-30T10:08:41.309Z</time>
      </trkpt>
      <trkpt lat="47.77954" lon="-3.33601">
        <ele>53</ele>
        <time>2015-01-30T10:09:19.306Z</time>
      </trkpt>
      <trkpt lat="47.77954" lon="-3.33601">
        <ele>54</ele>
        <time>2015-01-30T10:09:20.306Z</time>
      </trkpt>
      <trkpt lat="47.77957" lon="-3.33593">
        <ele>51</ele>
        <time>2015-01-30T10:11:05.306Z</time>
      </trkpt>
      <trkpt lat="47.77959" lon="-3.3359">
        <ele>51</ele>
        <time>2015-01-30T10:11:06.307Z</time>
      </trkpt>
      <trkpt lat="47.77966" lon="-3.33587">
        <ele>51</ele>
        <time>2015-01-30T10:11:08.305Z</time>
      </trkpt>
      <trkpt lat="47.7797" lon="-3.33588">
        <ele>51</ele>
        <time>2015-01-30T10:11:09.305Z</time>
      </trkpt>
      <trkpt lat="47.77978" lon="-3.33595">
        <ele>52</ele>
        <time>2015-01-30T10:11:11.305Z</time>
      </trkpt>
      <trkpt lat="47.77983" lon="-3.33603">
        <ele>53</ele>
        <time>2015-01-30T10:11:12.305Z</time>
      </trkpt>
      <trkpt lat="47.77989" lon="-3.33611">
        <ele>53</ele>
        <time>2015-01-30T10:11:14.305Z</time>
      </trkpt>
      <trkpt lat="47.77992" lon="-3.33615">
        <ele>54</ele>
        <time>2015-01-30T10:11:15.306Z</time>
      </trkpt>
      <trkpt lat="47.77997" lon="-3.33622">
        <ele>56</ele>
        <time>2015-01-30T10:11:46.304Z</time>
      </trkpt>
      <trkpt lat="47.77998" lon="-3.33626">
        <ele>56</ele>
        <time>2015-01-30T10:11:47.305Z</time>
      </trkpt>
      <trkpt lat="47.78002" lon="-3.33636">
        <ele>56</ele>
        <time>2015-01-30T10:11:49.306Z</time>
      </trkpt>
      <trkpt lat="47.78004" lon="-3.33641">
        <ele>55</ele>
        <time>2015-01-30T10:11:50.306Z</time>
      </trkpt>
      <trkpt lat="47.78007" lon="-3.33647">
        <ele>55</ele>
        <time>2015-01-30T10:11:51.312Z</time>
      </trkpt>
      <trkpt lat="47.78011" lon="-3.33655">
        <ele>55</ele>
        <time>2015-01-30T10:11:52.304Z</time>
      </trkpt>
      <trkpt lat="47.78015" lon="-3.33661">
        <ele>54</ele>
        <time>2015-01-30T10:11:53.305Z</time>
      </trkpt>
      <trkpt lat="47.78019" lon="-3.33668">
        <ele>55</ele>
        <time>2015-01-30T10:11:54.304Z</time>
      </trkpt>
      <trkpt lat="47.78024" lon="-3.33675">
        <ele>56</ele>
        <time>2015-01-30T10:11:55.304Z</time>
      </trkpt>
      <trkpt lat="47.78028" lon="-3.33682">
        <ele>56</ele>
        <time>2015-01-30T10:11:56.327Z</time>
      </trkpt>
      <trkpt lat="47.78031" lon="-3.33686">
        <ele>57</ele>
        <time>2015-01-30T10:11:57.306Z</time>
      </trkpt>
      <trkpt lat="47.78036" lon="-3.33688">
        <ele>57</ele>
        <time>2015-01-30T10:11:58.305Z</time>
      </trkpt>
      <trkpt lat="47.78042" lon="-3.33691">
        <ele>57</ele>
        <time>2015-01-30T10:11:59.303Z</time>
      </trkpt>
      <trkpt lat="47.78045" lon="-3.33692">
        <ele>56</ele>
        <time>2015-01-30T10:12:00.326Z</time>
      </trkpt>
      <trkpt lat="47.78054" lon="-3.33695">
        <ele>53</ele>
        <time>2015-01-30T10:12:10.316Z</time>
      </trkpt>
      <trkpt lat="47.78054" lon="-3.33696">
        <ele>53</ele>
        <time>2015-01-30T10:12:11.314Z</time>
      </trkpt>
      <trkpt lat="47.78047" lon="-3.33697">
        <ele>56</ele>
        <time>2015-01-30T10:12:28.303Z</time>
      </trkpt>
      <trkpt lat="47.78045" lon="-3.33697">
        <ele>56</ele>
        <time>2015-01-30T10:12:29.305Z</time>
      </trkpt>
      <trkpt lat="47.78043" lon="-3.33709">
        <ele>56</ele>
        <time>2015-01-30T10:12:46.305Z</time>
      </trkpt>
      <trkpt lat="47.78045" lon="-3.33716">
        <ele>56</ele>
        <time>2015-01-30T10:12:47.304Z</time>
      </trkpt>
      <trkpt lat="47.78047" lon="-3.33723">
        <ele>57</ele>
        <time>2015-01-30T10:12:48.303Z</time>
      </trkpt>
      <trkpt lat="47.78053" lon="-3.33729">
        <ele>56</ele>
        <time>2015-01-30T10:12:49.304Z</time>
      </trkpt>
      <trkpt lat="47.78056" lon="-3.33736">
        <ele>56</ele>
        <time>2015-01-30T10:12:50.305Z</time>
      </trkpt>
      <trkpt lat="47.7806" lon="-3.33744">
        <ele>57</ele>
        <time>2015-01-30T10:12:51.305Z</time>
      </trkpt>
      <trkpt lat="47.78064" lon="-3.33752">
        <ele>57</ele>
        <time>2015-01-30T10:12:52.305Z</time>
      </trkpt>
      <trkpt lat="47.78069" lon="-3.33761">
        <ele>57</ele>
        <time>2015-01-30T10:12:53.305Z</time>
      </trkpt>
      <trkpt lat="47.78074" lon="-3.33769">
        <ele>56</ele>
        <time>2015-01-30T10:12:54.302Z</time>
      </trkpt>
      <trkpt lat="47.78078" lon="-3.33773">
        <ele>59</ele>
        <time>2015-01-30T10:12:55.304Z</time>
      </trkpt>
      <trkpt lat="47.78085" lon="-3.3378">
        <ele>58</ele>
        <time>2015-01-30T10:12:57.304Z</time>
      </trkpt>
      <trkpt lat="47.78088" lon="-3.33777">
        <ele>59</ele>
        <time>2015-01-30T10:12:58.303Z</time>
      </trkpt>
      <trkpt lat="47.78095" lon="-3.33773">
        <ele>57</ele>
        <time>2015-01-30T10:13:00.303Z</time>
      </trkpt>
      <trkpt lat="47.78098" lon="-3.3377">
        <ele>57</ele>
        <time>2015-01-30T10:13:01.305Z</time>
      </trkpt>
      <trkpt lat="47.78104" lon="-3.33761">
        <ele>55</ele>
        <time>2015-01-30T10:13:06.305Z</time>
      </trkpt>
      <trkpt lat="47.78105" lon="-3.3376">
        <ele>57</ele>
        <time>2015-01-30T10:13:07.301Z</time>
      </trkpt>
      <trkpt lat="47.78108" lon="-3.33767">
        <ele>55</ele>
        <time>2015-01-30T10:14:27.305Z</time>
      </trkpt>
      <trkpt lat="47.7811" lon="-3.33771">
        <ele>54</ele>
        <time>2015-01-30T10:14:28.303Z</time>
      </trkpt>
      <trkpt lat="47.78114" lon="-3.33777">
        <ele>54</ele>
        <time>2015-01-30T10:14:29.302Z</time>
      </trkpt>
      <trkpt lat="47.78118" lon="-3.33788">
        <ele>53</ele>
        <time>2015-01-30T10:14:30.304Z</time>
      </trkpt>
      <trkpt lat="47.78124" lon="-3.33788">
        <ele>52</ele>
        <time>2015-01-30T10:14:31.304Z</time>
      </trkpt>
      <trkpt lat="47.78129" lon="-3.33787">
        <ele>57</ele>
        <time>2015-01-30T10:14:32.303Z</time>
      </trkpt>
      <trkpt lat="47.78134" lon="-3.33784">
        <ele>58</ele>
        <time>2015-01-30T10:14:33.303Z</time>
      </trkpt>
      <trkpt lat="47.78139" lon="-3.33786">
        <ele>61</ele>
        <time>2015-01-30T10:14:34.303Z</time>
      </trkpt>
      <trkpt lat="47.78146" lon="-3.33783">
        <ele>63</ele>
        <time>2015-01-30T10:14:35.301Z</time>
      </trkpt>
      <trkpt lat="47.78152" lon="-3.33777">
        <ele>62</ele>
        <time>2015-01-30T10:14:36.304Z</time>
      </trkpt>
      <trkpt lat="47.78157" lon="-3.33773">
        <ele>62</ele>
        <time>2015-01-30T10:14:37.305Z</time>
      </trkpt>
      <trkpt lat="47.7816" lon="-3.33765">
        <ele>64</ele>
        <time>2015-01-30T10:14:38.302Z</time>
      </trkpt>
      <trkpt lat="47.78165" lon="-3.33755">
        <ele>66</ele>
        <time>2015-01-30T10:14:41.304Z</time>
      </trkpt>
      <trkpt lat="47.78157" lon="-3.3374">
        <ele>65</ele>
        <time>2015-01-30T10:14:42.303Z</time>
      </trkpt>
      <trkpt lat="47.78154" lon="-3.33732">
        <ele>64</ele>
        <time>2015-01-30T10:14:45.302Z</time>
      </trkpt>
      <trkpt lat="47.7815" lon="-3.33731">
        <ele>62</ele>
        <time>2015-01-30T10:14:46.302Z</time>
      </trkpt>
      <trkpt lat="47.78142" lon="-3.33737">
        <ele>56</ele>
        <time>2015-01-30T10:14:52.344Z</time>
      </trkpt>
      <trkpt lat="47.78142" lon="-3.33738">
        <ele>56</ele>
        <time>2015-01-30T10:14:53.301Z</time>
      </trkpt>
      <trkpt lat="47.78134" lon="-3.33739">
        <ele>55</ele>
        <time>2015-01-30T10:15:00.301Z</time>
      </trkpt>
      <trkpt lat="47.78132" lon="-3.33737">
        <ele>57</ele>
        <time>2015-01-30T10:15:01.301Z</time>
      </trkpt>
      <trkpt lat="47.78125" lon="-3.33734">
        <ele>60</ele>
        <time>2015-01-30T10:15:04.302Z</time>
      </trkpt>
      <trkpt lat="47.78123" lon="-3.33728">
        <ele>61</ele>
        <time>2015-01-30T10:15:05.306Z</time>
      </trkpt>
      <trkpt lat="47.78122" lon="-3.33716">
        <ele>60</ele>
        <time>2015-01-30T10:15:07.303Z</time>
      </trkpt>
      <trkpt lat="47.78121" lon="-3.3371">
        <ele>62</ele>
        <time>2015-01-30T10:15:08.300Z</time>
      </trkpt>
      <trkpt lat="47.78117" lon="-3.33698">
        <ele>66</ele>
        <time>2015-01-30T10:15:13.301Z</time>
      </trkpt>
      <trkpt lat="47.78117" lon="-3.33696">
        <ele>66</ele>
        <time>2015-01-30T10:15:14.302Z</time>
      </trkpt>
      <trkpt lat="47.7812" lon="-3.33703">
        <ele>67</ele>
        <time>2015-01-30T10:15:16.298Z</time>
      </trkpt>
      <trkpt lat="47.78122" lon="-3.33708">
        <ele>67</ele>
        <time>2015-01-30T10:15:17.301Z</time>
      </trkpt>
      <trkpt lat="47.78128" lon="-3.33717">
        <ele>64</ele>
        <time>2015-01-30T10:15:19.301Z</time>
      </trkpt>
      <trkpt lat="47.7813" lon="-3.33722">
        <ele>64</ele>
        <time>2015-01-30T10:15:20.300Z</time>
      </trkpt>
      <trkpt lat="47.78132" lon="-3.33731">
        <ele>61</ele>
        <time>2015-01-30T10:15:22.300Z</time>
      </trkpt>
      <trkpt lat="47.78132" lon="-3.33735">
        <ele>61</ele>
        <time>2015-01-30T10:15:23.310Z</time>
      </trkpt>
      <trkpt lat="47.78137" lon="-3.33746">
        <ele>62</ele>
        <time>2015-01-30T10:15:27.301Z</time>
      </trkpt>
      <trkpt lat="47.78138" lon="-3.33746">
        <ele>62</ele>
        <time>2015-01-30T10:15:28.308Z</time>
      </trkpt>
      <trkpt lat="47.78136" lon="-3.33736">
        <ele>60</ele>
        <time>2015-01-30T10:16:12.299Z</time>
      </trkpt>
      <trkpt lat="47.78136" lon="-3.33733">
        <ele>59</ele>
        <time>2015-01-30T10:16:13.299Z</time>
      </trkpt>
      <trkpt lat="47.78137" lon="-3.33722">
        <ele>59</ele>
        <time>2015-01-30T10:16:16.302Z</time>
      </trkpt>
      <trkpt lat="47.78138" lon="-3.33718">
        <ele>58</ele>
        <time>2015-01-30T10:16:17.301Z</time>
      </trkpt>
      <trkpt lat="47.78146" lon="-3.33713">
        <ele>59</ele>
        <time>2015-01-30T10:16:20.302Z</time>
      </trkpt>
      <trkpt lat="47.78149" lon="-3.33715">
        <ele>58</ele>
        <time>2015-01-30T10:16:21.300Z</time>
      </trkpt>
      <trkpt lat="47.78154" lon="-3.3372">
        <ele>57</ele>
        <time>2015-01-30T10:16:23.302Z</time>
      </trkpt>
      <trkpt lat="47.78157" lon="-3.33724">
        <ele>56</ele>
        <time>2015-01-30T10:16:24.302Z</time>
      </trkpt>
      <trkpt lat="47.78165" lon="-3.33729">
        <ele>55</ele>
        <time>2015-01-30T10:16:57.301Z</time>
      </trkpt>
      <trkpt lat="47.78165" lon="-3.33729">
        <ele>56</ele>
        <time>2015-01-30T10:16:58.301Z</time>
      </trkpt>
      <trkpt lat="47.78174" lon="-3.33732">
        <ele>56</ele>
        <time>2015-01-30T10:17:04.302Z</time>
      </trkpt>
      <trkpt lat="47.78176" lon="-3.33731">
        <ele>55</ele>
        <time>2015-01-30T10:17:05.301Z</time>
      </trkpt>
      <trkpt lat="47.78177" lon="-3.33723">
        <ele>56</ele>
        <time>2015-01-30T10:17:19.299Z</time>
      </trkpt>
      <trkpt lat="47.78175" lon="-3.33717">
        <ele>56</ele>
        <time>2015-01-30T10:17:21.300Z</time>
      </trkpt>
      <trkpt lat="47.78167" lon="-3.3372">
        <ele>51</ele>
        <time>2015-01-30T10:17:34.299Z</time>
      </trkpt>
      <trkpt lat="47.78166" lon="-3.3372">
        <ele>51</ele>
        <time>2015-01-30T10:17:35.300Z</time>
      </trkpt>
      <trkpt lat="47.78157" lon="-3.33723">
        <ele>53</ele>
        <time>2015-01-30T10:18:00.299Z</time>
      </trkpt>
      <trkpt lat="47.78157" lon="-3.33723">
        <ele>54</ele>
        <time>2015-01-30T10:18:01.303Z</time>
      </trkpt>
      <trkpt lat="47.78151" lon="-3.33715">
        <ele>60</ele>
        <time>2015-01-30T10:18:07.299Z</time>
      </trkpt>
      <trkpt lat="47.7815" lon="-3.33712">
        <ele>60</ele>
        <time>2015-01-30T10:18:08.303Z</time>
      </trkpt>
      <trkpt lat="47.78142" lon="-3.33712">
        <ele>62</ele>
        <time>2015-01-30T10:18:17.300Z</time>
      </trkpt>
      <trkpt lat="47.78141" lon="-3.33715">
        <ele>61</ele>
        <time>2015-01-30T10:18:18.300Z</time>
      </trkpt>
      <trkpt lat="47.78143" lon="-3.33728">
        <ele>62</ele>
        <time>2015-01-30T10:18:21.301Z</time>
      </trkpt>
      <trkpt lat="47.78147" lon="-3.33734">
        <ele>61</ele>
        <time>2015-01-30T10:18:22.297Z</time>
      </trkpt>
      <trkpt lat="47.78153" lon="-3.33742">
        <ele>60</ele>
        <time>2015-01-30T10:18:23.297Z</time>
      </trkpt>
      <trkpt lat="47.78155" lon="-3.33748">
        <ele>60</ele>
        <time>2015-01-30T10:18:24.300Z</time>
      </trkpt>
      <trkpt lat="47.7816" lon="-3.33754">
        <ele>61</ele>
        <time>2015-01-30T10:18:25.297Z</time>
      </trkpt>
      <trkpt lat="47.78165" lon="-3.33757">
        <ele>61</ele>
        <time>2015-01-30T10:18:26.298Z</time>
      </trkpt>
      <trkpt lat="47.7817" lon="-3.33757">
        <ele>62</ele>
        <time>2015-01-30T10:18:27.300Z</time>
      </trkpt>
      <trkpt lat="47.78174" lon="-3.33756">
        <ele>63</ele>
        <time>2015-01-30T10:18:28.300Z</time>
      </trkpt>
      <trkpt lat="47.78178" lon="-3.33752">
        <ele>63</ele>
        <time>2015-01-30T10:18:29.300Z</time>
      </trkpt>
      <trkpt lat="47.78183" lon="-3.33747">
        <ele>64</ele>
        <time>2015-01-30T10:18:30.299Z</time>
      </trkpt>
      <trkpt lat="47.78186" lon="-3.33741">
        <ele>63</ele>
        <time>2015-01-30T10:18:31.302Z</time>
      </trkpt>
      <trkpt lat="47.7819" lon="-3.33737">
        <ele>63</ele>
        <time>2015-01-30T10:18:32.297Z</time>
      </trkpt>
      <trkpt lat="47.78194" lon="-3.33727">
        <ele>62</ele>
        <time>2015-01-30T10:18:34.299Z</time>
      </trkpt>
      <trkpt lat="47.78194" lon="-3.33723">
        <ele>61</ele>
        <time>2015-01-30T10:18:35.297Z</time>
      </trkpt>
      <trkpt lat="47.78192" lon="-3.3371">
        <ele>60</ele>
        <time>2015-01-30T10:18:37.297Z</time>
      </trkpt>
      <trkpt lat="47.78192" lon="-3.33703">
        <ele>59</ele>
        <time>2015-01-30T10:18:38.300Z</time>
      </trkpt>
      <trkpt lat="47.78192" lon="-3.33695">
        <ele>59</ele>
        <time>2015-01-30T10:18:39.299Z</time>
      </trkpt>
      <trkpt lat="47.7819" lon="-3.33688">
        <ele>58</ele>
        <time>2015-01-30T10:18:40.300Z</time>
      </trkpt>
      <trkpt lat="47.78186" lon="-3.3368">
        <ele>59</ele>
        <time>2015-01-30T10:18:42.300Z</time>
      </trkpt>
      <trkpt lat="47.78183" lon="-3.33678">
        <ele>58</ele>
        <time>2015-01-30T10:18:43.297Z</time>
      </trkpt>
      <trkpt lat="47.78185" lon="-3.3369">
        <ele>58</ele>
        <time>2015-01-30T10:19:16.300Z</time>
      </trkpt>
      <trkpt lat="47.78187" lon="-3.33696">
        <ele>58</ele>
        <time>2015-01-30T10:19:17.299Z</time>
      </trkpt>
      <trkpt lat="47.78189" lon="-3.33702">
        <ele>59</ele>
        <time>2015-01-30T10:19:18.302Z</time>
      </trkpt>
      <trkpt lat="47.78191" lon="-3.33708">
        <ele>60</ele>
        <time>2015-01-30T10:19:19.298Z</time>
      </trkpt>
      <trkpt lat="47.78193" lon="-3.33715">
        <ele>61</ele>
        <time>2015-01-30T10:19:20.311Z</time>
      </trkpt>
      <trkpt lat="47.78194" lon="-3.33721">
        <ele>61</ele>
        <time>2015-01-30T10:19:21.298Z</time>
      </trkpt>
      <trkpt lat="47.78196" lon="-3.33731">
        <ele>61</ele>
        <time>2015-01-30T10:19:23.299Z</time>
      </trkpt>
      <trkpt lat="47.78195" lon="-3.33736">
        <ele>59</ele>
        <time>2015-01-30T10:19:24.300Z</time>
      </trkpt>
      <trkpt lat="47.78189" lon="-3.33746">
        <ele>57</ele>
        <time>2015-01-30T10:19:26.357Z</time>
      </trkpt>
      <trkpt lat="47.7818" lon="-3.33752">
        <ele>56</ele>
        <time>2015-01-30T10:19:27.296Z</time>
      </trkpt>
      <trkpt lat="47.78175" lon="-3.33758">
        <ele>56</ele>
        <time>2015-01-30T10:19:28.300Z</time>
      </trkpt>
      <trkpt lat="47.78171" lon="-3.33764">
        <ele>56</ele>
        <time>2015-01-30T10:19:29.296Z</time>
      </trkpt>
      <trkpt lat="47.78169" lon="-3.33771">
        <ele>56</ele>
        <time>2015-01-30T10:19:30.304Z</time>
      </trkpt>
      <trkpt lat="47.78167" lon="-3.33779">
        <ele>56</ele>
        <time>2015-01-30T10:19:31.298Z</time>
      </trkpt>
      <trkpt lat="47.78171" lon="-3.3379">
        <ele>55</ele>
        <time>2015-01-30T10:19:33.299Z</time>
      </trkpt>
      <trkpt lat="47.78174" lon="-3.33795">
        <ele>55</ele>
        <time>2015-01-30T10:19:34.297Z</time>
      </trkpt>
      <trkpt lat="47.78182" lon="-3.33795">
        <ele>55</ele>
        <time>2015-01-30T10:19:36.299Z</time>
      </trkpt>
      <trkpt lat="47.78186" lon="-3.33794">
        <ele>55</ele>
        <time>2015-01-30T10:19:37.299Z</time>
      </trkpt>
      <trkpt lat="47.78191" lon="-3.33795">
        <ele>54</ele>
        <time>2015-01-30T10:19:38.298Z</time>
      </trkpt>
      <trkpt lat="47.78196" lon="-3.33796">
        <ele>55</ele>
        <time>2015-01-30T10:19:39.315Z</time>
      </trkpt>
      <trkpt lat="47.78204" lon="-3.33801">
        <ele>51</ele>
        <time>2015-01-30T10:19:42.299Z</time>
      </trkpt>
      <trkpt lat="47.78205" lon="-3.33803">
        <ele>50</ele>
        <time>2015-01-30T10:19:43.297Z</time>
      </trkpt>
      <trkpt lat="47.78199" lon="-3.33797">
        <ele>55</ele>
        <time>2015-01-30T10:20:41.297Z</time>
      </trkpt>
      <trkpt lat="47.78195" lon="-3.33797">
        <ele>53</ele>
        <time>2015-01-30T10:20:42.298Z</time>
      </trkpt>
      <trkpt lat="47.78187" lon="-3.33799">
        <ele>54</ele>
        <time>2015-01-30T10:20:44.301Z</time>
      </trkpt>
      <trkpt lat="47.78182" lon="-3.33799">
        <ele>54</ele>
        <time>2015-01-30T10:20:45.298Z</time>
      </trkpt>
      <trkpt lat="47.78177" lon="-3.33798">
        <ele>47</ele>
        <time>2015-01-30T10:20:46.298Z</time>
      </trkpt>
      <trkpt lat="47.78171" lon="-3.33794">
        <ele>44</ele>
        <time>2015-01-30T10:20:47.299Z</time>
      </trkpt>
      <trkpt lat="47.78164" lon="-3.33788">
        <ele>43</ele>
        <time>2015-01-30T10:20:48.297Z</time>
      </trkpt>
      <trkpt lat="47.78159" lon="-3.33786">
        <ele>43</ele>
        <time>2015-01-30T10:20:49.298Z</time>
      </trkpt>
      <trkpt lat="47.78152" lon="-3.33785">
        <ele>40</ele>
        <time>2015-01-30T10:20:51.298Z</time>
      </trkpt>
      <trkpt lat="47.78145" lon="-3.33783">
        <ele>40</ele>
        <time>2015-01-30T10:20:52.298Z</time>
      </trkpt>
      <trkpt lat="47.78137" lon="-3.33784">
        <ele>42</ele>
        <time>2015-01-30T10:20:54.298Z</time>
      </trkpt>
      <trkpt lat="47.78133" lon="-3.33794">
        <ele>41</ele>
        <time>2015-01-30T10:20:55.295Z</time>
      </trkpt>
      <trkpt lat="47.78126" lon="-3.338">
        <ele>41</ele>
        <time>2015-01-30T10:20:57.298Z</time>
      </trkpt>
      <trkpt lat="47.7812" lon="-3.33808">
        <ele>42</ele>
        <time>2015-01-30T10:20:58.297Z</time>
      </trkpt>
      <trkpt lat="47.78115" lon="-3.33818">
        <ele>42</ele>
        <time>2015-01-30T10:21:02.299Z</time>
      </trkpt>
      <trkpt lat="47.78114" lon="-3.33825">
        <ele>41</ele>
        <time>2015-01-30T10:21:03.298Z</time>
      </trkpt>
      <trkpt lat="47.78109" lon="-3.33832">
        <ele>44</ele>
        <time>2015-01-30T10:21:04.295Z</time>
      </trkpt>
      <trkpt lat="47.78095" lon="-3.33828">
        <ele>47</ele>
        <time>2015-01-30T10:21:05.294Z</time>
      </trkpt>
      <trkpt lat="47.78093" lon="-3.33838">
        <ele>50</ele>
        <time>2015-01-30T10:21:29.298Z</time>
      </trkpt>
      <trkpt lat="47.78088" lon="-3.33842">
        <ele>51</ele>
        <time>2015-01-30T10:21:30.295Z</time>
      </trkpt>
      <trkpt lat="47.78079" lon="-3.3385">
        <ele>53</ele>
        <time>2015-01-30T10:21:31.297Z</time>
      </trkpt>
      <trkpt lat="47.78074" lon="-3.33854">
        <ele>55</ele>
        <time>2015-01-30T10:21:32.298Z</time>
      </trkpt>
      <trkpt lat="47.78067" lon="-3.33857">
        <ele>54</ele>
        <time>2015-01-30T10:21:33.296Z</time>
      </trkpt>
      <trkpt lat="47.7806" lon="-3.33858">
        <ele>52</ele>
        <time>2015-01-30T10:21:34.296Z</time>
      </trkpt>
      <trkpt lat="47.78053" lon="-3.33864">
        <ele>52</ele>
        <time>2015-01-30T10:21:35.296Z</time>
      </trkpt>
      <trkpt lat="47.78045" lon="-3.33873">
        <ele>51</ele>
        <time>2015-01-30T10:21:36.298Z</time>
      </trkpt>
      <trkpt lat="47.78036" lon="-3.33885">
        <ele>52</ele>
        <time>2015-01-30T10:21:37.293Z</time>
      </trkpt>
      <trkpt lat="47.78029" lon="-3.3389">
        <ele>55</ele>
        <time>2015-01-30T10:21:38.295Z</time>
      </trkpt>
      <trkpt lat="47.78021" lon="-3.33895">
        <ele>56</ele>
        <time>2015-01-30T10:21:39.296Z</time>
      </trkpt>
      <trkpt lat="47.78015" lon="-3.33901">
        <ele>58</ele>
        <time>2015-01-30T10:21:40.295Z</time>
      </trkpt>
      <trkpt lat="47.78008" lon="-3.33908">
        <ele>57</ele>
        <time>2015-01-30T10:21:41.297Z</time>
      </trkpt>
      <trkpt lat="47.78002" lon="-3.33914">
        <ele>57</ele>
        <time>2015-01-30T10:21:42.295Z</time>
      </trkpt>
      <trkpt lat="47.77995" lon="-3.33923">
        <ele>56</ele>
        <time>2015-01-30T10:21:43.297Z</time>
      </trkpt>
      <trkpt lat="47.77988" lon="-3.33934">
        <ele>56</ele>
        <time>2015-01-30T10:21:44.296Z</time>
      </trkpt>
      <trkpt lat="47.77991" lon="-3.3394">
        <ele>56</ele>
        <time>2015-01-30T10:21:45.298Z</time>
      </trkpt>
      <trkpt lat="47.77992" lon="-3.33948">
        <ele>56</ele>
        <time>2015-01-30T10:21:46.298Z</time>
      </trkpt>
      <trkpt lat="47.77993" lon="-3.33956">
        <ele>57</ele>
        <time>2015-01-30T10:21:47.296Z</time>
      </trkpt>
      <trkpt lat="47.77996" lon="-3.3396">
        <ele>58</ele>
        <time>2015-01-30T10:21:48.296Z</time>
      </trkpt>
      <trkpt lat="47.77999" lon="-3.33972">
        <ele>61</ele>
        <time>2015-01-30T10:21:49.297Z</time>
      </trkpt>
      <trkpt lat="47.78001" lon="-3.33979">
        <ele>64</ele>
        <time>2015-01-30T10:21:50.295Z</time>
      </trkpt>
      <trkpt lat="47.78006" lon="-3.33986">
        <ele>64</ele>
        <time>2015-01-30T10:21:51.295Z</time>
      </trkpt>
      <trkpt lat="47.78008" lon="-3.33993">
        <ele>64</ele>
        <time>2015-01-30T10:21:52.325Z</time>
      </trkpt>
      <trkpt lat="47.78003" lon="-3.34001">
        <ele>63</ele>
        <time>2015-01-30T10:21:54.297Z</time>
      </trkpt>
      <trkpt lat="47.78002" lon="-3.34006">
        <ele>63</ele>
        <time>2015-01-30T10:21:55.296Z</time>
      </trkpt>
      <trkpt lat="47.77999" lon="-3.34019">
        <ele>63</ele>
        <time>2015-01-30T10:21:57.297Z</time>
      </trkpt>
      <trkpt lat="47.77994" lon="-3.34019">
        <ele>64</ele>
        <time>2015-01-30T10:21:58.295Z</time>
      </trkpt>
      <trkpt lat="47.77989" lon="-3.34027">
        <ele>64</ele>
        <time>2015-01-30T10:22:00.319Z</time>
      </trkpt>
      <trkpt lat="47.77986" lon="-3.34031">
        <ele>64</ele>
        <time>2015-01-30T10:22:01.296Z</time>
      </trkpt>
      <trkpt lat="47.77985" lon="-3.34019">
        <ele>87</ele>
        <time>2015-01-30T10:22:54.296Z</time>
      </trkpt>
      <trkpt lat="47.77983" lon="-3.34018">
        <ele>87</ele>
        <time>2015-01-30T10:22:55.295Z</time>
      </trkpt>
      <trkpt lat="47.77989" lon="-3.34011">
        <ele>80</ele>
        <time>2015-01-30T10:23:08.297Z</time>
      </trkpt>
      <trkpt lat="47.77991" lon="-3.34011">
        <ele>80</ele>
        <time>2015-01-30T10:23:09.297Z</time>
      </trkpt>
      <trkpt lat="47.77999" lon="-3.34011">
        <ele>71</ele>
        <time>2015-01-30T10:23:40.298Z</time>
      </trkpt>
      <trkpt lat="47.78001" lon="-3.34007">
        <ele>70</ele>
        <time>2015-01-30T10:23:41.298Z</time>
      </trkpt>
      <trkpt lat="47.78005" lon="-3.34001">
        <ele>71</ele>
        <time>2015-01-30T10:23:43.297Z</time>
      </trkpt>
      <trkpt lat="47.78007" lon="-3.33997">
        <ele>71</ele>
        <time>2015-01-30T10:23:44.297Z</time>
      </trkpt>
      <trkpt lat="47.78007" lon="-3.33984">
        <ele>70</ele>
        <time>2015-01-30T10:23:47.297Z</time>
      </trkpt>
      <trkpt lat="47.78004" lon="-3.33979">
        <ele>68</ele>
        <time>2015-01-30T10:23:48.296Z</time>
      </trkpt>
      <trkpt lat="47.77995" lon="-3.3397">
        <ele>67</ele>
        <time>2015-01-30T10:23:49.294Z</time>
      </trkpt>
      <trkpt lat="47.7799" lon="-3.3396">
        <ele>66</ele>
        <time>2015-01-30T10:23:50.295Z</time>
      </trkpt>
      <trkpt lat="47.77983" lon="-3.33956">
        <ele>62</ele>
        <time>2015-01-30T10:23:51.295Z</time>
      </trkpt>
      <trkpt lat="47.77979" lon="-3.33947">
        <ele>62</ele>
        <time>2015-01-30T10:23:52.298Z</time>
      </trkpt>
      <trkpt lat="47.77975" lon="-3.33935">
        <ele>61</ele>
        <time>2015-01-30T10:23:53.295Z</time>
      </trkpt>
      <trkpt lat="47.77972" lon="-3.33923">
        <ele>60</ele>
        <time>2015-01-30T10:23:54.294Z</time>
      </trkpt>
      <trkpt lat="47.77967" lon="-3.33913">
        <ele>59</ele>
        <time>2015-01-30T10:23:55.296Z</time>
      </trkpt>
      <trkpt lat="47.77964" lon="-3.33902">
        <ele>56</ele>
        <time>2015-01-30T10:23:56.296Z</time>
      </trkpt>
      <trkpt lat="47.7796" lon="-3.33891">
        <ele>55</ele>
        <time>2015-01-30T10:23:57.294Z</time>
      </trkpt>
      <trkpt lat="47.77957" lon="-3.33878">
        <ele>54</ele>
        <time>2015-01-30T10:23:58.294Z</time>
      </trkpt>
      <trkpt lat="47.77952" lon="-3.33868">
        <ele>55</ele>
        <time>2015-01-30T10:23:59.293Z</time>
      </trkpt>
      <trkpt lat="47.77948" lon="-3.33856">
        <ele>55</ele>
        <time>2015-01-30T10:24:00.294Z</time>
      </trkpt>
      <trkpt lat="47.77944" lon="-3.33848">
        <ele>55</ele>
        <time>2015-01-30T10:24:01.294Z</time>
      </trkpt>
      <trkpt lat="47.77944" lon="-3.33837">
        <ele>57</ele>
        <time>2015-01-30T10:24:02.295Z</time>
      </trkpt>
      <trkpt lat="47.77944" lon="-3.33828">
        <ele>57</ele>
        <time>2015-01-30T10:24:03.293Z</time>
      </trkpt>
      <trkpt lat="47.77945" lon="-3.3382">
        <ele>56</ele>
        <time>2015-01-30T10:24:04.282Z</time>
      </trkpt>
      <trkpt lat="47.77949" lon="-3.33812">
        <ele>55</ele>
        <time>2015-01-30T10:24:05.281Z</time>
      </trkpt>
      <trkpt lat="47.77951" lon="-3.33803">
        <ele>54</ele>
        <time>2015-01-30T10:24:06.334Z</time>
      </trkpt>
      <trkpt lat="47.77953" lon="-3.33797">
        <ele>53</ele>
        <time>2015-01-30T10:24:07.290Z</time>
      </trkpt>
      <trkpt lat="47.77952" lon="-3.33786">
        <ele>54</ele>
        <time>2015-01-30T10:24:08.294Z</time>
      </trkpt>
      <trkpt lat="47.77951" lon="-3.33777">
        <ele>53</ele>
        <time>2015-01-30T10:24:09.294Z</time>
      </trkpt>
      <trkpt lat="47.77951" lon="-3.3377">
        <ele>54</ele>
        <time>2015-01-30T10:24:10.294Z</time>
      </trkpt>
      <trkpt lat="47.77956" lon="-3.3376">
        <ele>51</ele>
        <time>2015-01-30T10:24:13.295Z</time>
      </trkpt>
      <trkpt lat="47.77956" lon="-3.33756">
        <ele>52</ele>
        <time>2015-01-30T10:24:14.295Z</time>
      </trkpt>
      <trkpt lat="47.77955" lon="-3.33769">
        <ele>58</ele>
        <time>2015-01-30T10:24:31.293Z</time>
      </trkpt>
      <trkpt lat="47.77953" lon="-3.33771">
        <ele>58</ele>
        <time>2015-01-30T10:24:32.294Z</time>
      </trkpt>
      <trkpt lat="47.77952" lon="-3.33781">
        <ele>57</ele>
        <time>2015-01-30T10:24:42.295Z</time>
      </trkpt>
      <trkpt lat="47.77953" lon="-3.33788">
        <ele>57</ele>
        <time>2015-01-30T10:24:43.295Z</time>
      </trkpt>
      <trkpt lat="47.77953" lon="-3.33795">
        <ele>57</ele>
        <time>2015-01-30T10:24:44.295Z</time>
      </trkpt>
      <trkpt lat="47.77952" lon="-3.33802">
        <ele>57</ele>
        <time>2015-01-30T10:24:45.294Z</time>
      </trkpt>
      <trkpt lat="47.77951" lon="-3.33808">
        <ele>57</ele>
        <time>2015-01-30T10:24:46.304Z</time>
      </trkpt>
      <trkpt lat="47.77949" lon="-3.33815">
        <ele>57</ele>
        <time>2015-01-30T10:24:47.296Z</time>
      </trkpt>
      <trkpt lat="47.77945" lon="-3.33826">
        <ele>56</ele>
        <time>2015-01-30T10:24:49.293Z</time>
      </trkpt>
      <trkpt lat="47.77944" lon="-3.3383">
        <ele>56</ele>
        <time>2015-01-30T10:24:50.294Z</time>
      </trkpt>
      <trkpt lat="47.77938" lon="-3.33821">
        <ele>51</ele>
        <time>2015-01-30T10:25:26.294Z</time>
      </trkpt>
      <trkpt lat="47.77935" lon="-3.33817">
        <ele>51</ele>
        <time>2015-01-30T10:25:27.293Z</time>
      </trkpt>
      <trkpt lat="47.77931" lon="-3.3381">
        <ele>50</ele>
        <time>2015-01-30T10:25:28.294Z</time>
      </trkpt>
      <trkpt lat="47.77926" lon="-3.338">
        <ele>51</ele>
        <time>2015-01-30T10:25:29.294Z</time>
      </trkpt>
      <trkpt lat="47.77924" lon="-3.33794">
        <ele>51</ele>
        <time>2015-01-30T10:25:30.294Z</time>
      </trkpt>
      <trkpt lat="47.77921" lon="-3.33787">
        <ele>51</ele>
        <time>2015-01-30T10:25:31.293Z</time>
      </trkpt>
      <trkpt lat="47.77913" lon="-3.3379">
        <ele>50</ele>
        <time>2015-01-30T10:25:34.291Z</time>
      </trkpt>
      <trkpt lat="47.77909" lon="-3.3379">
        <ele>49</ele>
        <time>2015-01-30T10:25:35.293Z</time>
      </trkpt>
      <trkpt lat="47.77903" lon="-3.33798">
        <ele>47</ele>
        <time>2015-01-30T10:25:39.305Z</time>
      </trkpt>
      <trkpt lat="47.77904" lon="-3.33801">
        <ele>48</ele>
        <time>2015-01-30T10:25:40.294Z</time>
      </trkpt>
      <trkpt lat="47.77901" lon="-3.33813">
        <ele>57</ele>
        <time>2015-01-30T10:26:44.291Z</time>
      </trkpt>
      <trkpt lat="47.779" lon="-3.33814">
        <ele>57</ele>
        <time>2015-01-30T10:26:45.294Z</time>
      </trkpt>
      <trkpt lat="47.77903" lon="-3.33803">
        <ele>59</ele>
        <time>2015-01-30T10:27:17.294Z</time>
      </trkpt>
      <trkpt lat="47.77905" lon="-3.33798">
        <ele>58</ele>
        <time>2015-01-30T10:27:18.293Z</time>
      </trkpt>
      <trkpt lat="47.7791" lon="-3.3379">
        <ele>61</ele>
        <time>2015-01-30T10:27:22.292Z</time>
      </trkpt>
      <trkpt lat="47.77911" lon="-3.33788">
        <ele>62</ele>
        <time>2015-01-30T10:27:23.292Z</time>
      </trkpt>
      <trkpt lat="47.77911" lon="-3.33777">
        <ele>65</ele>
        <time>2015-01-30T10:27:26.292Z</time>
      </trkpt>
      <trkpt lat="47.77911" lon="-3.3377">
        <ele>64</ele>
        <time>2015-01-30T10:27:27.292Z</time>
      </trkpt>
      <trkpt lat="47.77911" lon="-3.33762">
        <ele>65</ele>
        <time>2015-01-30T10:27:28.293Z</time>
      </trkpt>
      <trkpt lat="47.77911" lon="-3.33755">
        <ele>64</ele>
        <time>2015-01-30T10:27:29.294Z</time>
      </trkpt>
      <trkpt lat="47.77912" lon="-3.33748">
        <ele>62</ele>
        <time>2015-01-30T10:27:30.295Z</time>
      </trkpt>
      <trkpt lat="47.77914" lon="-3.33741">
        <ele>63</ele>
        <time>2015-01-30T10:27:31.294Z</time>
      </trkpt>
      <trkpt lat="47.77914" lon="-3.33734">
        <ele>61</ele>
        <time>2015-01-30T10:27:32.291Z</time>
      </trkpt>
      <trkpt lat="47.77913" lon="-3.33727">
        <ele>58</ele>
        <time>2015-01-30T10:27:33.294Z</time>
      </trkpt>
      <trkpt lat="47.77911" lon="-3.33721">
        <ele>58</ele>
        <time>2015-01-30T10:27:34.292Z</time>
      </trkpt>
      <trkpt lat="47.77909" lon="-3.33715">
        <ele>58</ele>
        <time>2015-01-30T10:27:35.291Z</time>
      </trkpt>
      <trkpt lat="47.77911" lon="-3.33727">
        <ele>59</ele>
        <time>2015-01-30T10:28:24.291Z</time>
      </trkpt>
      <trkpt lat="47.7791" lon="-3.33729">
        <ele>59</ele>
        <time>2015-01-30T10:28:25.291Z</time>
      </trkpt>
      <trkpt lat="47.77916" lon="-3.33738">
        <ele>57</ele>
        <time>2015-01-30T10:28:32.291Z</time>
      </trkpt>
      <trkpt lat="47.77916" lon="-3.33742">
        <ele>57</ele>
        <time>2015-01-30T10:28:33.290Z</time>
      </trkpt>
      <trkpt lat="47.77908" lon="-3.33749">
        <ele>55</ele>
        <time>2015-01-30T10:28:36.363Z</time>
      </trkpt>
      <trkpt lat="47.77905" lon="-3.33747">
        <ele>56</ele>
        <time>2015-01-30T10:28:37.363Z</time>
      </trkpt>
      <trkpt lat="47.77902" lon="-3.33744">
        <ele>57</ele>
        <time>2015-01-30T10:28:38.346Z</time>
      </trkpt>
      <trkpt lat="47.77898" lon="-3.33737">
        <ele>56</ele>
        <time>2015-01-30T10:28:39.341Z</time>
      </trkpt>
      <trkpt lat="47.77892" lon="-3.33725">
        <ele>55</ele>
        <time>2015-01-30T10:28:40.299Z</time>
      </trkpt>
      <trkpt lat="47.77884" lon="-3.33721">
        <ele>56</ele>
        <time>2015-01-30T10:28:42.314Z</time>
      </trkpt>
      <trkpt lat="47.7788" lon="-3.33721">
        <ele>56</ele>
        <time>2015-01-30T10:28:43.374Z</time>
      </trkpt>
      <trkpt lat="47.77872" lon="-3.33725">
        <ele>56</ele>
        <time>2015-01-30T10:28:47.327Z</time>
      </trkpt>
      <trkpt lat="47.77869" lon="-3.33731">
        <ele>56</ele>
        <time>2015-01-30T10:28:48.393Z</time>
      </trkpt>
      <trkpt lat="47.77866" lon="-3.33737">
        <ele>55</ele>
        <time>2015-01-30T10:28:49.290Z</time>
      </trkpt>
      <trkpt lat="47.77863" lon="-3.33745">
        <ele>55</ele>
        <time>2015-01-30T10:28:50.316Z</time>
      </trkpt>
      <trkpt lat="47.77859" lon="-3.33754">
        <ele>56</ele>
        <time>2015-01-30T10:28:51.323Z</time>
      </trkpt>
      <trkpt lat="47.77856" lon="-3.33763">
        <ele>56</ele>
        <time>2015-01-30T10:28:52.426Z</time>
      </trkpt>
      <trkpt lat="47.77852" lon="-3.33771">
        <ele>56</ele>
        <time>2015-01-30T10:28:53.406Z</time>
      </trkpt>
      <trkpt lat="47.7785" lon="-3.33781">
        <ele>56</ele>
        <time>2015-01-30T10:28:54.306Z</time>
      </trkpt>
      <trkpt lat="47.77847" lon="-3.33791">
        <ele>56</ele>
        <time>2015-01-30T10:28:55.295Z</time>
      </trkpt>
      <trkpt lat="47.77841" lon="-3.33803">
        <ele>54</ele>
        <time>2015-01-30T10:28:56.341Z</time>
      </trkpt>
      <trkpt lat="47.77836" lon="-3.33809">
        <ele>54</ele>
        <time>2015-01-30T10:28:57.341Z</time>
      </trkpt>
      <trkpt lat="47.77835" lon="-3.33816">
        <ele>51</ele>
        <time>2015-01-30T10:28:58.290Z</time>
      </trkpt>
      <trkpt lat="47.77832" lon="-3.33824">
        <ele>53</ele>
        <time>2015-01-30T10:28:59.292Z</time>
      </trkpt>
      <trkpt lat="47.77832" lon="-3.3383">
        <ele>52</ele>
        <time>2015-01-30T10:29:00.305Z</time>
      </trkpt>
      <trkpt lat="47.77839" lon="-3.33836">
        <ele>53</ele>
        <time>2015-01-30T10:29:03.292Z</time>
      </trkpt>
      <trkpt lat="47.77841" lon="-3.33831">
        <ele>53</ele>
        <time>2015-01-30T10:29:04.291Z</time>
      </trkpt>
      <trkpt lat="47.77845" lon="-3.33822">
        <ele>54</ele>
        <time>2015-01-30T10:29:06.290Z</time>
      </trkpt>
      <trkpt lat="47.77848" lon="-3.33817">
        <ele>54</ele>
        <time>2015-01-30T10:29:07.291Z</time>
      </trkpt>
      <trkpt lat="47.77857" lon="-3.33818">
        <ele>54</ele>
        <time>2015-01-30T10:29:11.376Z</time>
      </trkpt>
      <trkpt lat="47.77858" lon="-3.33819">
        <ele>55</ele>
        <time>2015-01-30T10:29:12.289Z</time>
      </trkpt>
      <trkpt lat="47.77851" lon="-3.33824">
        <ele>55</ele>
        <time>2015-01-30T10:31:16.296Z</time>
      </trkpt>
      <trkpt lat="47.77848" lon="-3.33828">
        <ele>55</ele>
        <time>2015-01-30T10:31:17.289Z</time>
      </trkpt>
      <trkpt lat="47.77844" lon="-3.33832">
        <ele>56</ele>
        <time>2015-01-30T10:31:18.288Z</time>
      </trkpt>
      <trkpt lat="47.7784" lon="-3.33836">
        <ele>57</ele>
        <time>2015-01-30T10:31:19.289Z</time>
      </trkpt>
      <trkpt lat="47.77832" lon="-3.33839">
        <ele>58</ele>
        <time>2015-01-30T10:31:21.302Z</time>
      </trkpt>
      <trkpt lat="47.7783" lon="-3.33839">
        <ele>56</ele>
        <time>2015-01-30T10:31:22.289Z</time>
      </trkpt>
      <trkpt lat="47.77823" lon="-3.33838">
        <ele>55</ele>
        <time>2015-01-30T10:31:28.289Z</time>
      </trkpt>
      <trkpt lat="47.7782" lon="-3.3384">
        <ele>55</ele>
        <time>2015-01-30T10:31:29.289Z</time>
      </trkpt>
      <trkpt lat="47.77815" lon="-3.33844">
        <ele>54</ele>
        <time>2015-01-30T10:31:30.289Z</time>
      </trkpt>
      <trkpt lat="47.77809" lon="-3.33853">
        <ele>54</ele>
        <time>2015-01-30T10:31:31.286Z</time>
      </trkpt>
      <trkpt lat="47.77808" lon="-3.3386">
        <ele>54</ele>
        <time>2015-01-30T10:31:32.289Z</time>
      </trkpt>
      <trkpt lat="47.77809" lon="-3.33868">
        <ele>55</ele>
        <time>2015-01-30T10:31:33.287Z</time>
      </trkpt>
      <trkpt lat="47.77811" lon="-3.33876">
        <ele>55</ele>
        <time>2015-01-30T10:31:34.288Z</time>
      </trkpt>
      <trkpt lat="47.77814" lon="-3.33884">
        <ele>55</ele>
        <time>2015-01-30T10:31:35.287Z</time>
      </trkpt>
      <trkpt lat="47.77818" lon="-3.33893">
        <ele>56</ele>
        <time>2015-01-30T10:31:36.286Z</time>
      </trkpt>
      <trkpt lat="47.77821" lon="-3.33901">
        <ele>56</ele>
        <time>2015-01-30T10:31:37.287Z</time>
      </trkpt>
      <trkpt lat="47.77825" lon="-3.3391">
        <ele>57</ele>
        <time>2015-01-30T10:31:38.288Z</time>
      </trkpt>
      <trkpt lat="47.77828" lon="-3.33918">
        <ele>56</ele>
        <time>2015-01-30T10:31:39.289Z</time>
      </trkpt>
      <trkpt lat="47.77831" lon="-3.33927">
        <ele>56</ele>
        <time>2015-01-30T10:31:40.289Z</time>
      </trkpt>
      <trkpt lat="47.77833" lon="-3.33935">
        <ele>56</ele>
        <time>2015-01-30T10:31:41.289Z</time>
      </trkpt>
      <trkpt lat="47.77836" lon="-3.33939">
        <ele>55</ele>
        <time>2015-01-30T10:31:42.365Z</time>
      </trkpt>
      <trkpt lat="47.77839" lon="-3.33946">
        <ele>55</ele>
        <time>2015-01-30T10:31:43.285Z</time>
      </trkpt>
      <trkpt lat="47.77838" lon="-3.33959">
        <ele>62</ele>
        <time>2015-01-30T10:32:08.288Z</time>
      </trkpt>
      <trkpt lat="47.77839" lon="-3.3396">
        <ele>62</ele>
        <time>2015-01-30T10:32:09.287Z</time>
      </trkpt>
      <trkpt lat="47.77845" lon="-3.33969">
        <ele>58</ele>
        <time>2015-01-30T10:33:20.287Z</time>
      </trkpt>
      <trkpt lat="47.77845" lon="-3.33972">
        <ele>57</ele>
        <time>2015-01-30T10:33:21.286Z</time>
      </trkpt>
      <trkpt lat="47.7785" lon="-3.33982">
        <ele>60</ele>
        <time>2015-01-30T10:33:29.286Z</time>
      </trkpt>
      <trkpt lat="47.77851" lon="-3.33983">
        <ele>58</ele>
        <time>2015-01-30T10:33:30.286Z</time>
      </trkpt>
      <trkpt lat="47.77846" lon="-3.33973">
        <ele>58</ele>
        <time>2015-01-30T10:34:41.288Z</time>
      </trkpt>
      <trkpt lat="47.77846" lon="-3.33972">
        <ele>58</ele>
        <time>2015-01-30T10:34:42.284Z</time>
      </trkpt>
      <trkpt lat="47.77845" lon="-3.33963">
        <ele>54</ele>
        <time>2015-01-30T10:36:49.284Z</time>
      </trkpt>
      <trkpt lat="47.77843" lon="-3.33958">
        <ele>55</ele>
        <time>2015-01-30T10:36:50.285Z</time>
      </trkpt>
      <trkpt lat="47.7784" lon="-3.33946">
        <ele>53</ele>
        <time>2015-01-30T10:36:52.284Z</time>
      </trkpt>
      <trkpt lat="47.77838" lon="-3.33938">
        <ele>53</ele>
        <time>2015-01-30T10:36:53.284Z</time>
      </trkpt>
      <trkpt lat="47.77836" lon="-3.33931">
        <ele>54</ele>
        <time>2015-01-30T10:36:54.284Z</time>
      </trkpt>
      <trkpt lat="47.77828" lon="-3.33913">
        <ele>54</ele>
        <time>2015-01-30T10:36:55.284Z</time>
      </trkpt>
      <trkpt lat="47.77824" lon="-3.33905">
        <ele>55</ele>
        <time>2015-01-30T10:36:56.284Z</time>
      </trkpt>
      <trkpt lat="47.77819" lon="-3.33896">
        <ele>54</ele>
        <time>2015-01-30T10:36:57.284Z</time>
      </trkpt>
      <trkpt lat="47.77817" lon="-3.33884">
        <ele>52</ele>
        <time>2015-01-30T10:37:13.370Z</time>
      </trkpt>
      <trkpt lat="47.77816" lon="-3.33881">
        <ele>52</ele>
        <time>2015-01-30T10:37:14.348Z</time>
      </trkpt>
      <trkpt lat="47.77813" lon="-3.33871">
        <ele>52</ele>
        <time>2015-01-30T10:37:16.346Z</time>
      </trkpt>
      <trkpt lat="47.77811" lon="-3.33867">
        <ele>53</ele>
        <time>2015-01-30T10:37:17.352Z</time>
      </trkpt>
      <trkpt lat="47.77806" lon="-3.33856">
        <ele>55</ele>
        <time>2015-01-30T10:37:21.279Z</time>
      </trkpt>
      <trkpt lat="47.77805" lon="-3.33854">
        <ele>55</ele>
        <time>2015-01-30T10:37:22.290Z</time>
      </trkpt>
      <trkpt lat="47.77809" lon="-3.33842">
        <ele>55</ele>
        <time>2015-01-30T10:37:24.367Z</time>
      </trkpt>
      <trkpt lat="47.77811" lon="-3.33836">
        <ele>55</ele>
        <time>2015-01-30T10:37:25.286Z</time>
      </trkpt>
      <trkpt lat="47.77821" lon="-3.33829">
        <ele>56</ele>
        <time>2015-01-30T10:37:26.333Z</time>
      </trkpt>
      <trkpt lat="47.77826" lon="-3.3382">
        <ele>56</ele>
        <time>2015-01-30T10:37:27.308Z</time>
      </trkpt>
      <trkpt lat="47.77831" lon="-3.33813">
        <ele>55</ele>
        <time>2015-01-30T10:37:28.286Z</time>
      </trkpt>
      <trkpt lat="47.77835" lon="-3.33805">
        <ele>56</ele>
        <time>2015-01-30T10:37:29.366Z</time>
      </trkpt>
      <trkpt lat="47.7784" lon="-3.33796">
        <ele>56</ele>
        <time>2015-01-30T10:37:30.282Z</time>
      </trkpt>
      <trkpt lat="47.77844" lon="-3.33786">
        <ele>57</ele>
        <time>2015-01-30T10:37:31.330Z</time>
      </trkpt>
      <trkpt lat="47.77849" lon="-3.33776">
        <ele>57</ele>
        <time>2015-01-30T10:37:32.288Z</time>
      </trkpt>
      <trkpt lat="47.77854" lon="-3.33764">
        <ele>58</ele>
        <time>2015-01-30T10:37:33.378Z</time>
      </trkpt>
      <trkpt lat="47.77857" lon="-3.33755">
        <ele>59</ele>
        <time>2015-01-30T10:37:34.364Z</time>
      </trkpt>
      <trkpt lat="47.77862" lon="-3.33744">
        <ele>60</ele>
        <time>2015-01-30T10:37:35.319Z</time>
      </trkpt>
      <trkpt lat="47.77865" lon="-3.33733">
        <ele>60</ele>
        <time>2015-01-30T10:37:36.374Z</time>
      </trkpt>
      <trkpt lat="47.77869" lon="-3.33722">
        <ele>60</ele>
        <time>2015-01-30T10:37:37.284Z</time>
      </trkpt>
      <trkpt lat="47.77872" lon="-3.33712">
        <ele>60</ele>
        <time>2015-01-30T10:37:38.346Z</time>
      </trkpt>
      <trkpt lat="47.77873" lon="-3.33703">
        <ele>61</ele>
        <time>2015-01-30T10:37:39.283Z</time>
      </trkpt>
      <trkpt lat="47.77872" lon="-3.33693">
        <ele>62</ele>
        <time>2015-01-30T10:37:40.368Z</time>
      </trkpt>
      <trkpt lat="47.7787" lon="-3.33686">
        <ele>62</ele>
        <time>2015-01-30T10:37:41.375Z</time>
      </trkpt>
      <trkpt lat="47.77867" lon="-3.3368">
        <ele>62</ele>
        <time>2015-01-30T10:37:42.350Z</time>
      </trkpt>
      <trkpt lat="47.77864" lon="-3.33673">
        <ele>62</ele>
        <time>2015-01-30T10:37:43.288Z</time>
      </trkpt>
      <trkpt lat="47.7786" lon="-3.33662">
        <ele>61</ele>
        <time>2015-01-30T10:37:46.280Z</time>
      </trkpt>
      <trkpt lat="47.7786" lon="-3.3366">
        <ele>61</ele>
        <time>2015-01-30T10:37:47.373Z</time>
      </trkpt>
      <trkpt lat="47.77852" lon="-3.33654">
        <ele>57</ele>
        <time>2015-01-30T10:38:11.359Z</time>
      </trkpt>
      <trkpt lat="47.77851" lon="-3.33652">
        <ele>56</ele>
        <time>2015-01-30T10:38:12.334Z</time>
      </trkpt>
      <trkpt lat="47.77846" lon="-3.33642">
        <ele>56</ele>
        <time>2015-01-30T10:38:15.281Z</time>
      </trkpt>
      <trkpt lat="47.77846" lon="-3.33637">
        <ele>56</ele>
        <time>2015-01-30T10:38:16.281Z</time>
      </trkpt>
      <trkpt lat="47.77849" lon="-3.33627">
        <ele>55</ele>
        <time>2015-01-30T10:38:18.282Z</time>
      </trkpt>
      <trkpt lat="47.77851" lon="-3.33623">
        <ele>54</ele>
        <time>2015-01-30T10:38:19.305Z</time>
      </trkpt>
      <trkpt lat="47.77858" lon="-3.33615">
        <ele>54</ele>
        <time>2015-01-30T10:38:24.280Z</time>
      </trkpt>
      <trkpt lat="47.77859" lon="-3.33615">
        <ele>55</ele>
        <time>2015-01-30T10:38:25.280Z</time>
      </trkpt>
      <trkpt lat="47.77862" lon="-3.33626">
        <ele>57</ele>
        <time>2015-01-30T10:38:34.282Z</time>
      </trkpt>
      <trkpt lat="47.77863" lon="-3.33627">
        <ele>56</ele>
        <time>2015-01-30T10:38:35.283Z</time>
      </trkpt>
      <trkpt lat="47.77871" lon="-3.33621">
        <ele>54</ele>
        <time>2015-01-30T10:38:51.281Z</time>
      </trkpt>
      <trkpt lat="47.7787" lon="-3.33619">
        <ele>54</ele>
        <time>2015-01-30T10:38:52.283Z</time>
      </trkpt>
      <trkpt lat="47.77862" lon="-3.33618">
        <ele>56</ele>
        <time>2015-01-30T10:38:59.282Z</time>
      </trkpt>
      <trkpt lat="47.7786" lon="-3.33618">
        <ele>57</ele>
        <time>2015-01-30T10:39:00.281Z</time>
      </trkpt>
      <trkpt lat="47.77862" lon="-3.33605">
        <ele>56</ele>
        <time>2015-01-30T10:39:11.318Z</time>
      </trkpt>
      <trkpt lat="47.77863" lon="-3.33604">
        <ele>56</ele>
        <time>2015-01-30T10:39:12.288Z</time>
      </trkpt>
      <trkpt lat="47.77869" lon="-3.33597">
        <ele>55</ele>
        <time>2015-01-30T10:39:18.345Z</time>
      </trkpt>
      <trkpt lat="47.7787" lon="-3.33595">
        <ele>55</ele>
        <time>2015-01-30T10:39:19.377Z</time>
      </trkpt>
      <trkpt lat="47.77867" lon="-3.33607">
        <ele>55</ele>
        <time>2015-01-30T10:39:41.281Z</time>
      </trkpt>
      <trkpt lat="47.77866" lon="-3.33608">
        <ele>56</ele>
        <time>2015-01-30T10:39:42.373Z</time>
      </trkpt>
      <trkpt lat="47.77861" lon="-3.33617">
        <ele>56</ele>
        <time>2015-01-30T10:39:48.288Z</time>
      </trkpt>
      <trkpt lat="47.7786" lon="-3.33618">
        <ele>55</ele>
        <time>2015-01-30T10:39:49.302Z</time>
      </trkpt>
      <trkpt lat="47.77864" lon="-3.3361">
        <ele>55</ele>
        <time>2015-01-30T10:39:59.281Z</time>
      </trkpt>
      <trkpt lat="47.77867" lon="-3.33606">
        <ele>56</ele>
        <time>2015-01-30T10:40:00.281Z</time>
      </trkpt>
      <trkpt lat="47.77872" lon="-3.33597">
        <ele>56</ele>
        <time>2015-01-30T10:40:02.281Z</time>
      </trkpt>
      <trkpt lat="47.77875" lon="-3.33592">
        <ele>56</ele>
        <time>2015-01-30T10:40:03.280Z</time>
      </trkpt>
      <trkpt lat="47.77882" lon="-3.33586">
        <ele>56</ele>
        <time>2015-01-30T10:40:05.281Z</time>
      </trkpt>
      <trkpt lat="47.77886" lon="-3.33586">
        <ele>58</ele>
        <time>2015-01-30T10:40:06.280Z</time>
      </trkpt>
      <trkpt lat="47.77891" lon="-3.33588">
        <ele>58</ele>
        <time>2015-01-30T10:40:07.280Z</time>
      </trkpt>
      <trkpt lat="47.77895" lon="-3.33591">
        <ele>57</ele>
        <time>2015-01-30T10:40:08.281Z</time>
      </trkpt>
      <trkpt lat="47.77902" lon="-3.33599">
        <ele>59</ele>
        <time>2015-01-30T10:40:10.282Z</time>
      </trkpt>
      <trkpt lat="47.77905" lon="-3.33603">
        <ele>59</ele>
        <time>2015-01-30T10:40:11.281Z</time>
      </trkpt>
      <trkpt lat="47.77908" lon="-3.33615">
        <ele>60</ele>
        <time>2015-01-30T10:40:22.281Z</time>
      </trkpt>
      <trkpt lat="47.77907" lon="-3.33617">
        <ele>60</ele>
        <time>2015-01-30T10:40:23.282Z</time>
      </trkpt>
      <trkpt lat="47.77909" lon="-3.33629">
        <ele>63</ele>
        <time>2015-01-30T10:40:29.282Z</time>
      </trkpt>
      <trkpt lat="47.7791" lon="-3.3363">
        <ele>63</ele>
        <time>2015-01-30T10:40:30.284Z</time>
      </trkpt>
      <trkpt lat="47.77913" lon="-3.33641">
        <ele>63</ele>
        <time>2015-01-30T10:40:35.287Z</time>
      </trkpt>
      <trkpt lat="47.77914" lon="-3.33642">
        <ele>60</ele>
        <time>2015-01-30T10:40:36.292Z</time>
      </trkpt>
      <trkpt lat="47.77911" lon="-3.3363">
        <ele>58</ele>
        <time>2015-01-30T10:40:43.280Z</time>
      </trkpt>
      <trkpt lat="47.7791" lon="-3.33627">
        <ele>58</ele>
        <time>2015-01-30T10:40:44.361Z</time>
      </trkpt>
      <trkpt lat="47.77906" lon="-3.33617">
        <ele>58</ele>
        <time>2015-01-30T10:40:49.287Z</time>
      </trkpt>
      <trkpt lat="47.77906" lon="-3.33615">
        <ele>58</ele>
        <time>2015-01-30T10:40:50.362Z</time>
      </trkpt>
      <trkpt lat="47.77911" lon="-3.33605">
        <ele>56</ele>
        <time>2015-01-30T10:41:12.282Z</time>
      </trkpt>
      <trkpt lat="47.77913" lon="-3.33601">
        <ele>55</ele>
        <time>2015-01-30T10:41:13.349Z</time>
      </trkpt>
      <trkpt lat="47.77916" lon="-3.33594">
        <ele>55</ele>
        <time>2015-01-30T10:41:14.292Z</time>
      </trkpt>
      <trkpt lat="47.77922" lon="-3.33581">
        <ele>54</ele>
        <time>2015-01-30T10:41:15.281Z</time>
      </trkpt>
      <trkpt lat="47.77925" lon="-3.33573">
        <ele>55</ele>
        <time>2015-01-30T10:41:16.290Z</time>
      </trkpt>
      <trkpt lat="47.77928" lon="-3.33564">
        <ele>55</ele>
        <time>2015-01-30T10:41:17.356Z</time>
      </trkpt>
      <trkpt lat="47.77931" lon="-3.33556">
        <ele>55</ele>
        <time>2015-01-30T10:41:18.291Z</time>
      </trkpt>
      <trkpt lat="47.77934" lon="-3.33547">
        <ele>55</ele>
        <time>2015-01-30T10:41:19.280Z</time>
      </trkpt>
      <trkpt lat="47.77938" lon="-3.33538">
        <ele>55</ele>
        <time>2015-01-30T10:41:20.281Z</time>
      </trkpt>
      <trkpt lat="47.77941" lon="-3.3353">
        <ele>55</ele>
        <time>2015-01-30T10:41:21.280Z</time>
      </trkpt>
      <trkpt lat="47.77943" lon="-3.33523">
        <ele>55</ele>
        <time>2015-01-30T10:41:22.281Z</time>
      </trkpt>
      <trkpt lat="47.77941" lon="-3.33515">
        <ele>55</ele>
        <time>2015-01-30T10:41:23.278Z</time>
      </trkpt>
      <trkpt lat="47.77936" lon="-3.33507">
        <ele>55</ele>
        <time>2015-01-30T10:41:26.280Z</time>
      </trkpt>
      <trkpt lat="47.77933" lon="-3.33503">
        <ele>54</ele>
        <time>2015-01-30T10:41:27.331Z</time>
      </trkpt>
      <trkpt lat="47.77926" lon="-3.33506">
        <ele>54</ele>
        <time>2015-01-30T10:41:29.287Z</time>
      </trkpt>
      <trkpt lat="47.77927" lon="-3.33516">
        <ele>54</ele>
        <time>2015-01-30T10:41:30.288Z</time>
      </trkpt>
      <trkpt lat="47.77933" lon="-3.33509">
        <ele>55</ele>
        <time>2015-01-30T10:42:08.310Z</time>
      </trkpt>
      <trkpt lat="47.77937" lon="-3.3351">
        <ele>55</ele>
        <time>2015-01-30T10:42:09.306Z</time>
      </trkpt>
      <trkpt lat="47.77945" lon="-3.33511">
        <ele>57</ele>
        <time>2015-01-30T10:42:12.367Z</time>
      </trkpt>
      <trkpt lat="47.77948" lon="-3.33512">
        <ele>57</ele>
        <time>2015-01-30T10:42:13.289Z</time>
      </trkpt>
      <trkpt lat="47.77953" lon="-3.33508">
        <ele>57</ele>
        <time>2015-01-30T10:42:15.364Z</time>
      </trkpt>
      <trkpt lat="47.77955" lon="-3.33504">
        <ele>57</ele>
        <time>2015-01-30T10:42:16.277Z</time>
      </trkpt>
      <trkpt lat="47.77957" lon="-3.33501">
        <ele>57</ele>
        <time>2015-01-30T10:42:17.288Z</time>
      </trkpt>
      <trkpt lat="47.7796" lon="-3.3349">
        <ele>56</ele>
        <time>2015-01-30T10:42:18.322Z</time>
      </trkpt>
      <trkpt lat="47.77963" lon="-3.33478">
        <ele>56</ele>
        <time>2015-01-30T10:42:19.360Z</time>
      </trkpt>
      <trkpt lat="47.77963" lon="-3.3347">
        <ele>56</ele>
        <time>2015-01-30T10:42:20.361Z</time>
      </trkpt>
      <trkpt lat="47.77958" lon="-3.33462">
        <ele>57</ele>
        <time>2015-01-30T10:42:22.370Z</time>
      </trkpt>
      <trkpt lat="47.77955" lon="-3.33459">
        <ele>57</ele>
        <time>2015-01-30T10:42:23.322Z</time>
      </trkpt>
      <trkpt lat="47.7795" lon="-3.33461">
        <ele>57</ele>
        <time>2015-01-30T10:42:24.349Z</time>
      </trkpt>
      <trkpt lat="47.77945" lon="-3.3346">
        <ele>57</ele>
        <time>2015-01-30T10:42:25.280Z</time>
      </trkpt>
      <trkpt lat="47.77939" lon="-3.33458">
        <ele>56</ele>
        <time>2015-01-30T10:42:27.370Z</time>
      </trkpt>
      <trkpt lat="47.77935" lon="-3.33457">
        <ele>56</ele>
        <time>2015-01-30T10:42:28.384Z</time>
      </trkpt>
      <trkpt lat="47.77927" lon="-3.33459">
        <ele>56</ele>
        <time>2015-01-30T10:43:56.275Z</time>
      </trkpt>
      <trkpt lat="47.77926" lon="-3.3346">
        <ele>55</ele>
        <time>2015-01-30T10:43:57.278Z</time>
      </trkpt>
      <trkpt lat="47.77934" lon="-3.33456">
        <ele>56</ele>
        <time>2015-01-30T10:44:52.275Z</time>
      </trkpt>
      <trkpt lat="47.77936" lon="-3.33453">
        <ele>56</ele>
        <time>2015-01-30T10:44:53.279Z</time>
      </trkpt>
      <trkpt lat="47.77943" lon="-3.33452">
        <ele>56</ele>
        <time>2015-01-30T10:44:55.277Z</time>
      </trkpt>
      <trkpt lat="47.77948" lon="-3.33454">
        <ele>56</ele>
        <time>2015-01-30T10:44:56.274Z</time>
      </trkpt>
      <trkpt lat="47.77956" lon="-3.33457">
        <ele>57</ele>
        <time>2015-01-30T10:44:58.274Z</time>
      </trkpt>
      <trkpt lat="47.77959" lon="-3.33458">
        <ele>57</ele>
        <time>2015-01-30T10:44:59.278Z</time>
      </trkpt>
      <trkpt lat="47.77965" lon="-3.33458">
        <ele>56</ele>
        <time>2015-01-30T10:45:09.278Z</time>
      </trkpt>
      <trkpt lat="47.77968" lon="-3.33454">
        <ele>55</ele>
        <time>2015-01-30T10:45:10.280Z</time>
      </trkpt>
      <trkpt lat="47.77972" lon="-3.33448">
        <ele>57</ele>
        <time>2015-01-30T10:45:11.276Z</time>
      </trkpt>
      <trkpt lat="47.77977" lon="-3.33437">
        <ele>56</ele>
        <time>2015-01-30T10:45:12.279Z</time>
      </trkpt>
      <trkpt lat="47.77981" lon="-3.33429">
        <ele>56</ele>
        <time>2015-01-30T10:45:13.356Z</time>
      </trkpt>
      <trkpt lat="47.77985" lon="-3.33421">
        <ele>57</ele>
        <time>2015-01-30T10:45:14.279Z</time>
      </trkpt>
      <trkpt lat="47.77989" lon="-3.33411">
        <ele>57</ele>
        <time>2015-01-30T10:45:15.277Z</time>
      </trkpt>
      <trkpt lat="47.7799" lon="-3.33401">
        <ele>56</ele>
        <time>2015-01-30T10:45:16.278Z</time>
      </trkpt>
      <trkpt lat="47.77991" lon="-3.3339">
        <ele>56</ele>
        <time>2015-01-30T10:45:17.300Z</time>
      </trkpt>
      <trkpt lat="47.77988" lon="-3.33381">
        <ele>56</ele>
        <time>2015-01-30T10:45:18.280Z</time>
      </trkpt>
      <trkpt lat="47.77986" lon="-3.33371">
        <ele>57</ele>
        <time>2015-01-30T10:45:19.275Z</time>
      </trkpt>
      <trkpt lat="47.77982" lon="-3.33359">
        <ele>56</ele>
        <time>2015-01-30T10:45:20.280Z</time>
      </trkpt>
      <trkpt lat="47.7798" lon="-3.33349">
        <ele>56</ele>
        <time>2015-01-30T10:45:21.275Z</time>
      </trkpt>
      <trkpt lat="47.77978" lon="-3.33341">
        <ele>55</ele>
        <time>2015-01-30T10:45:22.279Z</time>
      </trkpt>
      <trkpt lat="47.77976" lon="-3.33333">
        <ele>55</ele>
        <time>2015-01-30T10:45:23.297Z</time>
      </trkpt>
      <trkpt lat="47.77972" lon="-3.33329">
        <ele>55</ele>
        <time>2015-01-30T10:45:24.280Z</time>
      </trkpt>
      <trkpt lat="47.77965" lon="-3.33328">
        <ele>54</ele>
        <time>2015-01-30T10:45:26.279Z</time>
      </trkpt>
      <trkpt lat="47.77963" lon="-3.33331">
        <ele>53</ele>
        <time>2015-01-30T10:45:27.278Z</time>
      </trkpt>
      <trkpt lat="47.77964" lon="-3.33344">
        <ele>53</ele>
        <time>2015-01-30T10:45:30.280Z</time>
      </trkpt>
      <trkpt lat="47.77966" lon="-3.33348">
        <ele>53</ele>
        <time>2015-01-30T10:45:31.278Z</time>
      </trkpt>
      <trkpt lat="47.7796" lon="-3.33357">
        <ele>51</ele>
        <time>2015-01-30T10:46:07.305Z</time>
      </trkpt>
      <trkpt lat="47.7796" lon="-3.33358">
        <ele>50</ele>
        <time>2015-01-30T10:46:08.373Z</time>
      </trkpt>
      <trkpt lat="47.77967" lon="-3.33351">
        <ele>58</ele>
        <time>2015-01-30T10:46:33.275Z</time>
      </trkpt>
      <trkpt lat="47.77967" lon="-3.33348">
        <ele>58</ele>
        <time>2015-01-30T10:46:34.275Z</time>
      </trkpt>
      <trkpt lat="47.77969" lon="-3.33338">
        <ele>58</ele>
        <time>2015-01-30T10:46:36.276Z</time>
      </trkpt>
      <trkpt lat="47.77969" lon="-3.33334">
        <ele>58</ele>
        <time>2015-01-30T10:46:37.276Z</time>
      </trkpt>
      <trkpt lat="47.7797" lon="-3.33323">
        <ele>59</ele>
        <time>2015-01-30T10:46:39.276Z</time>
      </trkpt>
      <trkpt lat="47.77968" lon="-3.33316">
        <ele>59</ele>
        <time>2015-01-30T10:46:40.280Z</time>
      </trkpt>
      <trkpt lat="47.77966" lon="-3.3331">
        <ele>60</ele>
        <time>2015-01-30T10:46:41.277Z</time>
      </trkpt>
      <trkpt lat="47.7796" lon="-3.33303">
        <ele>59</ele>
        <time>2015-01-30T10:46:42.277Z</time>
      </trkpt>
      <trkpt lat="47.77954" lon="-3.33295">
        <ele>58</ele>
        <time>2015-01-30T10:46:44.276Z</time>
      </trkpt>
      <trkpt lat="47.77951" lon="-3.33292">
        <ele>58</ele>
        <time>2015-01-30T10:46:45.276Z</time>
      </trkpt>
      <trkpt lat="47.77944" lon="-3.33294">
        <ele>56</ele>
        <time>2015-01-30T10:46:47.277Z</time>
      </trkpt>
      <trkpt lat="47.77943" lon="-3.33297">
        <ele>57</ele>
        <time>2015-01-30T10:46:48.277Z</time>
      </trkpt>
      <trkpt lat="47.77935" lon="-3.33294">
        <ele>57</ele>
        <time>2015-01-30T10:46:51.274Z</time>
      </trkpt>
      <trkpt lat="47.77933" lon="-3.33292">
        <ele>57</ele>
        <time>2015-01-30T10:46:52.276Z</time>
      </trkpt>
      <trkpt lat="47.77925" lon="-3.33289">
        <ele>56</ele>
        <time>2015-01-30T10:46:56.277Z</time>
      </trkpt>
      <trkpt lat="47.77923" lon="-3.33291">
        <ele>54</ele>
        <time>2015-01-30T10:46:57.276Z</time>
      </trkpt>
      <trkpt lat="47.77931" lon="-3.33295">
        <ele>50</ele>
        <time>2015-01-30T10:47:23.277Z</time>
      </trkpt>
      <trkpt lat="47.77932" lon="-3.33295">
        <ele>50</ele>
        <time>2015-01-30T10:47:24.285Z</time>
      </trkpt>
      <trkpt lat="47.77925" lon="-3.33303">
        <ele>53</ele>
        <time>2015-01-30T10:48:37.276Z</time>
      </trkpt>
      <trkpt lat="47.77922" lon="-3.33306">
        <ele>54</ele>
        <time>2015-01-30T10:48:38.273Z</time>
      </trkpt>
      <trkpt lat="47.77914" lon="-3.33312">
        <ele>54</ele>
        <time>2015-01-30T10:48:40.276Z</time>
      </trkpt>
      <trkpt lat="47.7791" lon="-3.33312">
        <ele>53</ele>
        <time>2015-01-30T10:48:41.276Z</time>
      </trkpt>
      <trkpt lat="47.77903" lon="-3.33307">
        <ele>54</ele>
        <time>2015-01-30T10:48:43.328Z</time>
      </trkpt>
      <trkpt lat="47.779" lon="-3.33304">
        <ele>52</ele>
        <time>2015-01-30T10:48:44.275Z</time>
      </trkpt>
      <trkpt lat="47.77895" lon="-3.33295">
        <ele>50</ele>
        <time>2015-01-30T10:48:47.277Z</time>
      </trkpt>
      <trkpt lat="47.77893" lon="-3.33292">
        <ele>49</ele>
        <time>2015-01-30T10:48:48.276Z</time>
      </trkpt>
      <trkpt lat="47.77889" lon="-3.33287">
        <ele>49</ele>
        <time>2015-01-30T10:48:49.276Z</time>
      </trkpt>
      <trkpt lat="47.77883" lon="-3.3328">
        <ele>49</ele>
        <time>2015-01-30T10:48:50.276Z</time>
      </trkpt>
      <trkpt lat="47.77878" lon="-3.33276">
        <ele>50</ele>
        <time>2015-01-30T10:48:51.285Z</time>
      </trkpt>
      <trkpt lat="47.77873" lon="-3.33272">
        <ele>50</ele>
        <time>2015-01-30T10:48:52.307Z</time>
      </trkpt>
      <trkpt lat="47.77869" lon="-3.33268">
        <ele>50</ele>
        <time>2015-01-30T10:48:53.271Z</time>
      </trkpt>
      <trkpt lat="47.77865" lon="-3.33263">
        <ele>51</ele>
        <time>2015-01-30T10:48:54.274Z</time>
      </trkpt>
      <trkpt lat="47.77861" lon="-3.33258">
        <ele>52</ele>
        <time>2015-01-30T10:48:55.339Z</time>
      </trkpt>
      <trkpt lat="47.77855" lon="-3.33253">
        <ele>53</ele>
        <time>2015-01-30T10:48:56.350Z</time>
      </trkpt>
      <trkpt lat="47.77855" lon="-3.33264">
        <ele>55</ele>
        <time>2015-01-30T10:49:30.274Z</time>
      </trkpt>
      <trkpt lat="47.77857" lon="-3.33267">
        <ele>56</ele>
        <time>2015-01-30T10:49:31.274Z</time>
      </trkpt>
      <trkpt lat="47.77862" lon="-3.33268">
        <ele>56</ele>
        <time>2015-01-30T10:49:32.274Z</time>
      </trkpt>
      <trkpt lat="47.77866" lon="-3.3327">
        <ele>55</ele>
        <time>2015-01-30T10:49:33.275Z</time>
      </trkpt>
      <trkpt lat="47.77873" lon="-3.33274">
        <ele>55</ele>
        <time>2015-01-30T10:49:35.270Z</time>
      </trkpt>
      <trkpt lat="47.77876" lon="-3.33276">
        <ele>55</ele>
        <time>2015-01-30T10:49:36.275Z</time>
      </trkpt>
      <trkpt lat="47.7788" lon="-3.33285">
        <ele>59</ele>
        <time>2015-01-30T10:49:59.273Z</time>
      </trkpt>
      <trkpt lat="47.77881" lon="-3.33287">
        <ele>59</ele>
        <time>2015-01-30T10:50:00.322Z</time>
      </trkpt>
      <trkpt lat="47.77886" lon="-3.33295">
        <ele>60</ele>
        <time>2015-01-30T10:50:03.269Z</time>
      </trkpt>
      <trkpt lat="47.77887" lon="-3.33297">
        <ele>59</ele>
        <time>2015-01-30T10:50:04.273Z</time>
      </trkpt>
      <trkpt lat="47.77886" lon="-3.33309">
        <ele>57</ele>
        <time>2015-01-30T10:50:13.275Z</time>
      </trkpt>
      <trkpt lat="47.77884" lon="-3.33315">
        <ele>58</ele>
        <time>2015-01-30T10:50:14.274Z</time>
      </trkpt>
      <trkpt lat="47.77881" lon="-3.3332">
        <ele>59</ele>
        <time>2015-01-30T10:50:15.274Z</time>
      </trkpt>
      <trkpt lat="47.77878" lon="-3.33325">
        <ele>58</ele>
        <time>2015-01-30T10:50:16.273Z</time>
      </trkpt>
      <trkpt lat="47.77874" lon="-3.3333">
        <ele>58</ele>
        <time>2015-01-30T10:50:17.273Z</time>
      </trkpt>
      <trkpt lat="47.77869" lon="-3.33338">
        <ele>57</ele>
        <time>2015-01-30T10:50:18.273Z</time>
      </trkpt>
      <trkpt lat="47.77865" lon="-3.33345">
        <ele>56</ele>
        <time>2015-01-30T10:50:21.273Z</time>
      </trkpt>
      <trkpt lat="47.77863" lon="-3.33349">
        <ele>56</ele>
        <time>2015-01-30T10:50:22.274Z</time>
      </trkpt>
      <trkpt lat="47.77858" lon="-3.33352">
        <ele>54</ele>
        <time>2015-01-30T10:50:46.322Z</time>
      </trkpt>
      <trkpt lat="47.77855" lon="-3.33355">
        <ele>53</ele>
        <time>2015-01-30T10:50:47.355Z</time>
      </trkpt>
      <trkpt lat="47.77848" lon="-3.33364">
        <ele>56</ele>
        <time>2015-01-30T10:50:49.343Z</time>
      </trkpt>
      <trkpt lat="47.77845" lon="-3.33369">
        <ele>56</ele>
        <time>2015-01-30T10:50:50.355Z</time>
      </trkpt>
      <trkpt lat="47.7784" lon="-3.33379">
        <ele>56</ele>
        <time>2015-01-30T10:50:52.351Z</time>
      </trkpt>
      <trkpt lat="47.77838" lon="-3.33383">
        <ele>56</ele>
        <time>2015-01-30T10:50:53.345Z</time>
      </trkpt>
      <trkpt lat="47.77834" lon="-3.33394">
        <ele>54</ele>
        <time>2015-01-30T10:51:09.343Z</time>
      </trkpt>
      <trkpt lat="47.77834" lon="-3.33396">
        <ele>53</ele>
        <time>2015-01-30T10:51:10.359Z</time>
      </trkpt>
      <trkpt lat="47.77828" lon="-3.334">
        <ele>54</ele>
        <time>2015-01-30T10:51:32.358Z</time>
      </trkpt>
      <trkpt lat="47.77825" lon="-3.33404">
        <ele>54</ele>
        <time>2015-01-30T10:51:33.286Z</time>
      </trkpt>
      <trkpt lat="47.7782" lon="-3.33412">
        <ele>52</ele>
        <time>2015-01-30T10:51:35.348Z</time>
      </trkpt>
      <trkpt lat="47.77817" lon="-3.33417">
        <ele>53</ele>
        <time>2015-01-30T10:51:36.275Z</time>
      </trkpt>
      <trkpt lat="47.77811" lon="-3.33423">
        <ele>54</ele>
        <time>2015-01-30T10:51:38.351Z</time>
      </trkpt>
      <trkpt lat="47.77806" lon="-3.33424">
        <ele>54</ele>
        <time>2015-01-30T10:51:39.344Z</time>
      </trkpt>
      <trkpt lat="47.77799" lon="-3.33417">
        <ele>54</ele>
        <time>2015-01-30T10:51:41.353Z</time>
      </trkpt>
      <trkpt lat="47.77796" lon="-3.33412">
        <ele>54</ele>
        <time>2015-01-30T10:51:42.272Z</time>
      </trkpt>
      <trkpt lat="47.77804" lon="-3.33412">
        <ele>57</ele>
        <time>2015-01-30T10:52:21.271Z</time>
      </trkpt>
      <trkpt lat="47.77805" lon="-3.33413">
        <ele>55</ele>
        <time>2015-01-30T10:52:22.271Z</time>
      </trkpt>
      <trkpt lat="47.77811" lon="-3.3342">
        <ele>55</ele>
        <time>2015-01-30T10:52:25.272Z</time>
      </trkpt>
      <trkpt lat="47.77813" lon="-3.33422">
        <ele>54</ele>
        <time>2015-01-30T10:52:26.270Z</time>
      </trkpt>
      <trkpt lat="47.77811" lon="-3.33432">
        <ele>57</ele>
        <time>2015-01-30T10:52:56.271Z</time>
      </trkpt>
      <trkpt lat="47.77809" lon="-3.33436">
        <ele>57</ele>
        <time>2015-01-30T10:52:57.272Z</time>
      </trkpt>
      <trkpt lat="47.77805" lon="-3.33442">
        <ele>57</ele>
        <time>2015-01-30T10:52:58.270Z</time>
      </trkpt>
      <trkpt lat="47.77802" lon="-3.33448">
        <ele>56</ele>
        <time>2015-01-30T10:52:59.270Z</time>
      </trkpt>
      <trkpt lat="47.77795" lon="-3.33456">
        <ele>57</ele>
        <time>2015-01-30T10:53:00.271Z</time>
      </trkpt>
      <trkpt lat="47.77795" lon="-3.33458">
        <ele>56</ele>
        <time>2015-01-30T10:53:01.331Z</time>
      </trkpt>
      <trkpt lat="47.77787" lon="-3.33458">
        <ele>64</ele>
        <time>2015-01-30T10:53:10.271Z</time>
      </trkpt>
      <trkpt lat="47.77785" lon="-3.3346">
        <ele>63</ele>
        <time>2015-01-30T10:53:11.285Z</time>
      </trkpt>
      <trkpt lat="47.77776" lon="-3.3346">
        <ele>61</ele>
        <time>2015-01-30T10:53:54.326Z</time>
      </trkpt>
      <trkpt lat="47.77776" lon="-3.3346">
        <ele>60</ele>
        <time>2015-01-30T10:53:55.270Z</time>
      </trkpt>
      <trkpt lat="47.77773" lon="-3.33469">
        <ele>58</ele>
        <time>2015-01-30T10:54:12.372Z</time>
      </trkpt>
      <trkpt lat="47.7777" lon="-3.33475">
        <ele>58</ele>
        <time>2015-01-30T10:54:13.296Z</time>
      </trkpt>
      <trkpt lat="47.77767" lon="-3.33481">
        <ele>57</ele>
        <time>2015-01-30T10:54:14.314Z</time>
      </trkpt>
      <trkpt lat="47.77761" lon="-3.33489">
        <ele>58</ele>
        <time>2015-01-30T10:54:15.351Z</time>
      </trkpt>
      <trkpt lat="47.77757" lon="-3.33493">
        <ele>58</ele>
        <time>2015-01-30T10:54:16.269Z</time>
      </trkpt>
      <trkpt lat="47.77753" lon="-3.33498">
        <ele>58</ele>
        <time>2015-01-30T10:54:17.325Z</time>
      </trkpt>
      <trkpt lat="47.77745" lon="-3.33501">
        <ele>59</ele>
        <time>2015-01-30T10:54:19.342Z</time>
      </trkpt>
      <trkpt lat="47.77743" lon="-3.33502">
        <ele>58</ele>
        <time>2015-01-30T10:54:20.352Z</time>
      </trkpt>
      <trkpt lat="47.77737" lon="-3.33496">
        <ele>56</ele>
        <time>2015-01-30T10:54:41.267Z</time>
      </trkpt>
      <trkpt lat="47.77734" lon="-3.33492">
        <ele>56</ele>
        <time>2015-01-30T10:54:42.270Z</time>
      </trkpt>
      <trkpt lat="47.77728" lon="-3.33483">
        <ele>55</ele>
        <time>2015-01-30T10:54:44.270Z</time>
      </trkpt>
      <trkpt lat="47.77725" lon="-3.33481">
        <ele>54</ele>
        <time>2015-01-30T10:54:45.269Z</time>
      </trkpt>
      <trkpt lat="47.77717" lon="-3.33481">
        <ele>55</ele>
        <time>2015-01-30T10:54:47.270Z</time>
      </trkpt>
      <trkpt lat="47.77715" lon="-3.33483">
        <ele>53</ele>
        <time>2015-01-30T10:54:48.274Z</time>
      </trkpt>
      <trkpt lat="47.77717" lon="-3.33495">
        <ele>55</ele>
        <time>2015-01-30T10:55:07.269Z</time>
      </trkpt>
      <trkpt lat="47.77715" lon="-3.33496">
        <ele>57</ele>
        <time>2015-01-30T10:55:08.266Z</time>
      </trkpt>
      <trkpt lat="47.77723" lon="-3.33488">
        <ele>59</ele>
        <time>2015-01-30T10:56:43.272Z</time>
      </trkpt>
      <trkpt lat="47.77725" lon="-3.33488">
        <ele>59</ele>
        <time>2015-01-30T10:56:44.269Z</time>
      </trkpt>
      <trkpt lat="47.77732" lon="-3.33492">
        <ele>58</ele>
        <time>2015-01-30T10:56:46.269Z</time>
      </trkpt>
      <trkpt lat="47.77735" lon="-3.33495">
        <ele>57</ele>
        <time>2015-01-30T10:56:47.271Z</time>
      </trkpt>
      <trkpt lat="47.77742" lon="-3.33502">
        <ele>53</ele>
        <time>2015-01-30T10:56:49.268Z</time>
      </trkpt>
      <trkpt lat="47.77745" lon="-3.33506">
        <ele>54</ele>
        <time>2015-01-30T10:56:50.269Z</time>
      </trkpt>
      <trkpt lat="47.77749" lon="-3.33516">
        <ele>55</ele>
        <time>2015-01-30T10:56:53.268Z</time>
      </trkpt>
      <trkpt lat="47.77748" lon="-3.3352">
        <ele>54</ele>
        <time>2015-01-30T10:56:54.267Z</time>
      </trkpt>
      <trkpt lat="47.77746" lon="-3.33525">
        <ele>55</ele>
        <time>2015-01-30T10:56:55.268Z</time>
      </trkpt>
      <trkpt lat="47.77742" lon="-3.33531">
        <ele>52</ele>
        <time>2015-01-30T10:56:56.268Z</time>
      </trkpt>
      <trkpt lat="47.77733" lon="-3.33536">
        <ele>52</ele>
        <time>2015-01-30T10:56:57.266Z</time>
      </trkpt>
      <trkpt lat="47.7773" lon="-3.33542">
        <ele>52</ele>
        <time>2015-01-30T10:56:58.266Z</time>
      </trkpt>
      <trkpt lat="47.77723" lon="-3.33549">
        <ele>53</ele>
        <time>2015-01-30T10:56:59.267Z</time>
      </trkpt>
      <trkpt lat="47.77716" lon="-3.33556">
        <ele>53</ele>
        <time>2015-01-30T10:57:00.268Z</time>
      </trkpt>
      <trkpt lat="47.77712" lon="-3.33559">
        <ele>52</ele>
        <time>2015-01-30T10:57:01.265Z</time>
      </trkpt>
      <trkpt lat="47.77704" lon="-3.33559">
        <ele>53</ele>
        <time>2015-01-30T10:57:04.268Z</time>
      </trkpt>
      <trkpt lat="47.777" lon="-3.3356">
        <ele>53</ele>
        <time>2015-01-30T10:57:05.268Z</time>
      </trkpt>
      <trkpt lat="47.77693" lon="-3.33563">
        <ele>53</ele>
        <time>2015-01-30T10:57:07.267Z</time>
      </trkpt>
      <trkpt lat="47.7769" lon="-3.33568">
        <ele>55</ele>
        <time>2015-01-30T10:57:08.268Z</time>
      </trkpt>
      <trkpt lat="47.77682" lon="-3.33571">
        <ele>56</ele>
        <time>2015-01-30T10:57:33.268Z</time>
      </trkpt>
      <trkpt lat="47.77681" lon="-3.33572">
        <ele>56</ele>
        <time>2015-01-30T10:57:34.266Z</time>
      </trkpt>
      <trkpt lat="47.77684" lon="-3.33578">
        <ele>59</ele>
        <time>2015-01-30T10:57:59.267Z</time>
      </trkpt>
      <trkpt lat="47.77687" lon="-3.33582">
        <ele>58</ele>
        <time>2015-01-30T10:58:00.307Z</time>
      </trkpt>
      <trkpt lat="47.7769" lon="-3.33588">
        <ele>57</ele>
        <time>2015-01-30T10:58:01.265Z</time>
      </trkpt>
      <trkpt lat="47.77694" lon="-3.33594">
        <ele>58</ele>
        <time>2015-01-30T10:58:02.267Z</time>
      </trkpt>
      <trkpt lat="47.77697" lon="-3.336">
        <ele>57</ele>
        <time>2015-01-30T10:58:03.266Z</time>
      </trkpt>
      <trkpt lat="47.777" lon="-3.33605">
        <ele>57</ele>
        <time>2015-01-30T10:58:04.266Z</time>
      </trkpt>
      <trkpt lat="47.77707" lon="-3.33613">
        <ele>55</ele>
        <time>2015-01-30T10:58:07.265Z</time>
      </trkpt>
      <trkpt lat="47.77709" lon="-3.33613">
        <ele>54</ele>
        <time>2015-01-30T10:58:08.265Z</time>
      </trkpt>
      <trkpt lat="47.77716" lon="-3.33609">
        <ele>54</ele>
        <time>2015-01-30T10:58:11.264Z</time>
      </trkpt>
      <trkpt lat="47.77719" lon="-3.33608">
        <ele>53</ele>
        <time>2015-01-30T10:58:12.265Z</time>
      </trkpt>
      <trkpt lat="47.77727" lon="-3.33604">
        <ele>53</ele>
        <time>2015-01-30T10:58:22.335Z</time>
      </trkpt>
      <trkpt lat="47.77727" lon="-3.33603">
        <ele>53</ele>
        <time>2015-01-30T10:58:23.286Z</time>
      </trkpt>
      <trkpt lat="47.77731" lon="-3.33613">
        <ele>52</ele>
        <time>2015-01-30T10:58:56.275Z</time>
      </trkpt>
      <trkpt lat="47.77732" lon="-3.33617">
        <ele>53</ele>
        <time>2015-01-30T10:58:57.266Z</time>
      </trkpt>
      <trkpt lat="47.77735" lon="-3.33629">
        <ele>52</ele>
        <time>2015-01-30T10:59:02.267Z</time>
      </trkpt>
      <trkpt lat="47.77735" lon="-3.33631">
        <ele>54</ele>
        <time>2015-01-30T10:59:03.265Z</time>
      </trkpt>
      <trkpt lat="47.77729" lon="-3.33637">
        <ele>60</ele>
        <time>2015-01-30T10:59:12.268Z</time>
      </trkpt>
      <trkpt lat="47.77728" lon="-3.33639">
        <ele>60</ele>
        <time>2015-01-30T10:59:13.265Z</time>
      </trkpt>
      <trkpt lat="47.77732" lon="-3.3365">
        <ele>56</ele>
        <time>2015-01-30T10:59:19.265Z</time>
      </trkpt>
      <trkpt lat="47.77732" lon="-3.33652">
        <ele>56</ele>
        <time>2015-01-30T10:59:20.268Z</time>
      </trkpt>
      <trkpt lat="47.77739" lon="-3.3365">
        <ele>58</ele>
        <time>2015-01-30T10:59:28.283Z</time>
      </trkpt>
      <trkpt lat="47.77741" lon="-3.3365">
        <ele>59</ele>
        <time>2015-01-30T10:59:29.276Z</time>
      </trkpt>
      <trkpt lat="47.77733" lon="-3.33652">
        <ele>60</ele>
        <time>2015-01-30T10:59:59.265Z</time>
      </trkpt>
      <trkpt lat="47.77729" lon="-3.33655">
        <ele>61</ele>
        <time>2015-01-30T11:00:00.267Z</time>
      </trkpt>
      <trkpt lat="47.77722" lon="-3.33661">
        <ele>62</ele>
        <time>2015-01-30T11:00:02.265Z</time>
      </trkpt>
      <trkpt lat="47.7772" lon="-3.33664">
        <ele>63</ele>
        <time>2015-01-30T11:00:03.266Z</time>
      </trkpt>
      <trkpt lat="47.77711" lon="-3.33669">
        <ele>57</ele>
        <time>2015-01-30T11:00:09.266Z</time>
      </trkpt>
      <trkpt lat="47.77711" lon="-3.33669">
        <ele>57</ele>
        <time>2015-01-30T11:00:10.266Z</time>
      </trkpt>
      <trkpt lat="47.77709" lon="-3.33676">
        <ele>54</ele>
        <time>2015-01-30T11:00:15.265Z</time>
      </trkpt>
      <trkpt lat="47.77705" lon="-3.33682">
        <ele>52</ele>
        <time>2015-01-30T11:00:16.268Z</time>
      </trkpt>
      <trkpt lat="47.77698" lon="-3.33689">
        <ele>54</ele>
        <time>2015-01-30T11:00:39.266Z</time>
      </trkpt>
      <trkpt lat="47.77698" lon="-3.33689">
        <ele>52</ele>
        <time>2015-01-30T11:00:40.266Z</time>
      </trkpt>
      <trkpt lat="47.77706" lon="-3.33684">
        <ele>57</ele>
        <time>2015-01-30T11:00:47.262Z</time>
      </trkpt>
      <trkpt lat="47.77709" lon="-3.33682">
        <ele>57</ele>
        <time>2015-01-30T11:00:48.266Z</time>
      </trkpt>
      <trkpt lat="47.77716" lon="-3.33679">
        <ele>58</ele>
        <time>2015-01-30T11:00:50.266Z</time>
      </trkpt>
      <trkpt lat="47.77718" lon="-3.33678">
        <ele>58</ele>
        <time>2015-01-30T11:00:51.266Z</time>
      </trkpt>
      <trkpt lat="47.77726" lon="-3.33673">
        <ele>57</ele>
        <time>2015-01-30T11:00:56.264Z</time>
      </trkpt>
      <trkpt lat="47.77726" lon="-3.33671">
        <ele>57</ele>
        <time>2015-01-30T11:00:57.264Z</time>
      </trkpt>
      <trkpt lat="47.77733" lon="-3.33673">
        <ele>54</ele>
        <time>2015-01-30T11:01:03.266Z</time>
      </trkpt>
      <trkpt lat="47.77735" lon="-3.33675">
        <ele>53</ele>
        <time>2015-01-30T11:01:04.264Z</time>
      </trkpt>
      <trkpt lat="47.7774" lon="-3.3368">
        <ele>54</ele>
        <time>2015-01-30T11:01:06.262Z</time>
      </trkpt>
      <trkpt lat="47.77742" lon="-3.33685">
        <ele>54</ele>
        <time>2015-01-30T11:01:07.265Z</time>
      </trkpt>
      <trkpt lat="47.77747" lon="-3.33693">
        <ele>53</ele>
        <time>2015-01-30T11:01:09.265Z</time>
      </trkpt>
      <trkpt lat="47.77749" lon="-3.33696">
        <ele>54</ele>
        <time>2015-01-30T11:01:10.265Z</time>
      </trkpt>
      <trkpt lat="47.77748" lon="-3.33709">
        <ele>57</ele>
        <time>2015-01-30T11:01:28.262Z</time>
      </trkpt>
      <trkpt lat="47.77747" lon="-3.3371">
        <ele>58</ele>
        <time>2015-01-30T11:01:29.267Z</time>
      </trkpt>
      <trkpt lat="47.77753" lon="-3.33702">
        <ele>59</ele>
        <time>2015-01-30T11:01:55.268Z</time>
      </trkpt>
      <trkpt lat="47.77755" lon="-3.337">
        <ele>58</ele>
        <time>2015-01-30T11:01:56.365Z</time>
      </trkpt>
      <trkpt lat="47.77762" lon="-3.33692">
        <ele>55</ele>
        <time>2015-01-30T11:02:10.360Z</time>
      </trkpt>
      <trkpt lat="47.77762" lon="-3.33691">
        <ele>55</ele>
        <time>2015-01-30T11:02:11.272Z</time>
      </trkpt>
      <trkpt lat="47.77755" lon="-3.33699">
        <ele>58</ele>
        <time>2015-01-30T11:03:06.335Z</time>
      </trkpt>
      <trkpt lat="47.77754" lon="-3.33699">
        <ele>57</ele>
        <time>2015-01-30T11:03:07.271Z</time>
      </trkpt>
      <trkpt lat="47.77759" lon="-3.33706">
        <ele>56</ele>
        <time>2015-01-30T11:03:25.267Z</time>
      </trkpt>
      <trkpt lat="47.77762" lon="-3.33711">
        <ele>57</ele>
        <time>2015-01-30T11:03:26.263Z</time>
      </trkpt>
      <trkpt lat="47.77767" lon="-3.33722">
        <ele>56</ele>
        <time>2015-01-30T11:03:27.265Z</time>
      </trkpt>
      <trkpt lat="47.77771" lon="-3.3373">
        <ele>56</ele>
        <time>2015-01-30T11:03:28.263Z</time>
      </trkpt>
      <trkpt lat="47.77774" lon="-3.3374">
        <ele>55</ele>
        <time>2015-01-30T11:03:29.262Z</time>
      </trkpt>
      <trkpt lat="47.7778" lon="-3.3375">
        <ele>52</ele>
        <time>2015-01-30T11:03:30.264Z</time>
      </trkpt>
      <trkpt lat="47.77783" lon="-3.33759">
        <ele>51</ele>
        <time>2015-01-30T11:03:31.274Z</time>
      </trkpt>
      <trkpt lat="47.77787" lon="-3.33772">
        <ele>53</ele>
        <time>2015-01-30T11:03:32.261Z</time>
      </trkpt>
      <trkpt lat="47.77791" lon="-3.33783">
        <ele>52</ele>
        <time>2015-01-30T11:03:33.262Z</time>
      </trkpt>
      <trkpt lat="47.77795" lon="-3.33796">
        <ele>52</ele>
        <time>2015-01-30T11:03:34.262Z</time>
      </trkpt>
      <trkpt lat="47.77797" lon="-3.33807">
        <ele>53</ele>
        <time>2015-01-30T11:03:35.263Z</time>
      </trkpt>
      <trkpt lat="47.77801" lon="-3.33814">
        <ele>52</ele>
        <time>2015-01-30T11:03:36.264Z</time>
      </trkpt>
      <trkpt lat="47.77805" lon="-3.33822">
        <ele>52</ele>
        <time>2015-01-30T11:03:37.262Z</time>
      </trkpt>
      <trkpt lat="47.77805" lon="-3.33827">
        <ele>53</ele>
        <time>2015-01-30T11:03:38.263Z</time>
      </trkpt>
      <trkpt lat="47.77813" lon="-3.33831">
        <ele>55</ele>
        <time>2015-01-30T11:03:43.260Z</time>
      </trkpt>
      <trkpt lat="47.77814" lon="-3.33835">
        <ele>56</ele>
        <time>2015-01-30T11:03:44.260Z</time>
      </trkpt>
      <trkpt lat="47.77812" lon="-3.33847">
        <ele>55</ele>
        <time>2015-01-30T11:03:46.261Z</time>
      </trkpt>
      <trkpt lat="47.77809" lon="-3.33854">
        <ele>55</ele>
        <time>2015-01-30T11:03:47.304Z</time>
      </trkpt>
      <trkpt lat="47.77804" lon="-3.33858">
        <ele>56</ele>
        <time>2015-01-30T11:03:48.304Z</time>
      </trkpt>
      <trkpt lat="47.77799" lon="-3.33863">
        <ele>55</ele>
        <time>2015-01-30T11:03:49.264Z</time>
      </trkpt>
      <trkpt lat="47.77793" lon="-3.33868">
        <ele>56</ele>
        <time>2015-01-30T11:03:50.263Z</time>
      </trkpt>
      <trkpt lat="47.77787" lon="-3.33873">
        <ele>56</ele>
        <time>2015-01-30T11:03:51.288Z</time>
      </trkpt>
      <trkpt lat="47.7778" lon="-3.33876">
        <ele>57</ele>
        <time>2015-01-30T11:03:52.277Z</time>
      </trkpt>
      <trkpt lat="47.77775" lon="-3.33878">
        <ele>56</ele>
        <time>2015-01-30T11:03:53.304Z</time>
      </trkpt>
      <trkpt lat="47.7777" lon="-3.33881">
        <ele>56</ele>
        <time>2015-01-30T11:03:54.261Z</time>
      </trkpt>
      <trkpt lat="47.77766" lon="-3.33885">
        <ele>57</ele>
        <time>2015-01-30T11:03:55.353Z</time>
      </trkpt>
      <trkpt lat="47.77757" lon="-3.33886">
        <ele>50</ele>
        <time>2015-01-30T11:04:05.303Z</time>
      </trkpt>
      <trkpt lat="47.77756" lon="-3.33886">
        <ele>50</ele>
        <time>2015-01-30T11:04:06.263Z</time>
      </trkpt>
      <trkpt lat="47.77751" lon="-3.33892">
        <ele>50</ele>
        <time>2015-01-30T11:04:10.261Z</time>
      </trkpt>
      <trkpt lat="47.77746" lon="-3.33898">
        <ele>51</ele>
        <time>2015-01-30T11:04:11.321Z</time>
      </trkpt>
      <trkpt lat="47.7774" lon="-3.33907">
        <ele>53</ele>
        <time>2015-01-30T11:04:12.323Z</time>
      </trkpt>
      <trkpt lat="47.77734" lon="-3.33913">
        <ele>53</ele>
        <time>2015-01-30T11:04:13.309Z</time>
      </trkpt>
      <trkpt lat="47.77728" lon="-3.33914">
        <ele>54</ele>
        <time>2015-01-30T11:04:14.288Z</time>
      </trkpt>
      <trkpt lat="47.7772" lon="-3.33911">
        <ele>54</ele>
        <time>2015-01-30T11:04:15.259Z</time>
      </trkpt>
      <trkpt lat="47.77714" lon="-3.3391">
        <ele>54</ele>
        <time>2015-01-30T11:04:16.273Z</time>
      </trkpt>
      <trkpt lat="47.7771" lon="-3.33902">
        <ele>62</ele>
        <time>2015-01-30T11:04:17.262Z</time>
      </trkpt>
      <trkpt lat="47.77702" lon="-3.33899">
        <ele>60</ele>
        <time>2015-01-30T11:04:18.337Z</time>
      </trkpt>
      <trkpt lat="47.77695" lon="-3.33897">
        <ele>59</ele>
        <time>2015-01-30T11:04:19.285Z</time>
      </trkpt>
      <trkpt lat="47.77685" lon="-3.33894">
        <ele>57</ele>
        <time>2015-01-30T11:04:20.292Z</time>
      </trkpt>
      <trkpt lat="47.77676" lon="-3.33893">
        <ele>57</ele>
        <time>2015-01-30T11:04:21.307Z</time>
      </trkpt>
      <trkpt lat="47.77668" lon="-3.33891">
        <ele>58</ele>
        <time>2015-01-30T11:04:22.275Z</time>
      </trkpt>
      <trkpt lat="47.7766" lon="-3.33886">
        <ele>58</ele>
        <time>2015-01-30T11:04:23.284Z</time>
      </trkpt>
      <trkpt lat="47.7765" lon="-3.33884">
        <ele>59</ele>
        <time>2015-01-30T11:04:24.259Z</time>
      </trkpt>
      <trkpt lat="47.77642" lon="-3.33882">
        <ele>59</ele>
        <time>2015-01-30T11:04:25.262Z</time>
      </trkpt>
      <trkpt lat="47.77636" lon="-3.33882">
        <ele>59</ele>
        <time>2015-01-30T11:04:26.316Z</time>
      </trkpt>
      <trkpt lat="47.77631" lon="-3.3389">
        <ele>60</ele>
        <time>2015-01-30T11:04:28.325Z</time>
      </trkpt>
      <trkpt lat="47.7763" lon="-3.33896">
        <ele>60</ele>
        <time>2015-01-30T11:04:29.317Z</time>
      </trkpt>
      <trkpt lat="47.77628" lon="-3.33907">
        <ele>58</ele>
        <time>2015-01-30T11:04:32.315Z</time>
      </trkpt>
      <trkpt lat="47.77629" lon="-3.33911">
        <ele>58</ele>
        <time>2015-01-30T11:04:33.264Z</time>
      </trkpt>
      <trkpt lat="47.77628" lon="-3.33919">
        <ele>56</ele>
        <time>2015-01-30T11:05:09.263Z</time>
      </trkpt>
      <trkpt lat="47.77627" lon="-3.33926">
        <ele>56</ele>
        <time>2015-01-30T11:05:10.263Z</time>
      </trkpt>
      <trkpt lat="47.77625" lon="-3.33934">
        <ele>56</ele>
        <time>2015-01-30T11:05:11.264Z</time>
      </trkpt>
      <trkpt lat="47.77623" lon="-3.33941">
        <ele>57</ele>
        <time>2015-01-30T11:05:12.263Z</time>
      </trkpt>
      <trkpt lat="47.7762" lon="-3.33954">
        <ele>57</ele>
        <time>2015-01-30T11:05:13.261Z</time>
      </trkpt>
      <trkpt lat="47.77619" lon="-3.33961">
        <ele>57</ele>
        <time>2015-01-30T11:05:14.261Z</time>
      </trkpt>
      <trkpt lat="47.77616" lon="-3.33969">
        <ele>57</ele>
        <time>2015-01-30T11:05:15.262Z</time>
      </trkpt>
      <trkpt lat="47.77615" lon="-3.33977">
        <ele>57</ele>
        <time>2015-01-30T11:05:16.344Z</time>
      </trkpt>
      <trkpt lat="47.77613" lon="-3.33983">
        <ele>58</ele>
        <time>2015-01-30T11:05:17.332Z</time>
      </trkpt>
      <trkpt lat="47.77607" lon="-3.33987">
        <ele>53</ele>
        <time>2015-01-30T11:05:19.298Z</time>
      </trkpt>
      <trkpt lat="47.77604" lon="-3.33987">
        <ele>53</ele>
        <time>2015-01-30T11:05:20.348Z</time>
      </trkpt>
      <trkpt lat="47.77597" lon="-3.33984">
        <ele>53</ele>
        <time>2015-01-30T11:05:22.356Z</time>
      </trkpt>
      <trkpt lat="47.77594" lon="-3.33982">
        <ele>53</ele>
        <time>2015-01-30T11:05:23.352Z</time>
      </trkpt>
      <trkpt lat="47.77587" lon="-3.33979">
        <ele>54</ele>
        <time>2015-01-30T11:05:25.328Z</time>
      </trkpt>
      <trkpt lat="47.77584" lon="-3.33979">
        <ele>51</ele>
        <time>2015-01-30T11:05:26.314Z</time>
      </trkpt>
      <trkpt lat="47.77578" lon="-3.33982">
        <ele>52</ele>
        <time>2015-01-30T11:05:28.258Z</time>
      </trkpt>
      <trkpt lat="47.77574" lon="-3.33982">
        <ele>51</ele>
        <time>2015-01-30T11:05:29.280Z</time>
      </trkpt>
      <trkpt lat="47.77566" lon="-3.33981">
        <ele>52</ele>
        <time>2015-01-30T11:05:31.335Z</time>
      </trkpt>
      <trkpt lat="47.77563" lon="-3.3398">
        <ele>51</ele>
        <time>2015-01-30T11:05:32.339Z</time>
      </trkpt>
      <trkpt lat="47.77563" lon="-3.33967">
        <ele>54</ele>
        <time>2015-01-30T11:06:50.285Z</time>
      </trkpt>
      <trkpt lat="47.77562" lon="-3.33966">
        <ele>54</ele>
        <time>2015-01-30T11:06:51.263Z</time>
      </trkpt>
      <trkpt lat="47.7756" lon="-3.33957">
        <ele>54</ele>
        <time>2015-01-30T11:06:58.260Z</time>
      </trkpt>
      <trkpt lat="47.77579" lon="-3.33985">
        <ele>56</ele>
        <time>2015-01-30T11:08:31.346Z</time>
      </trkpt>
      <trkpt lat="47.77571" lon="-3.33987">
        <ele>57</ele>
        <time>2015-01-30T11:08:42.258Z</time>
      </trkpt>
      <trkpt lat="47.77569" lon="-3.33987">
        <ele>57</ele>
        <time>2015-01-30T11:08:43.258Z</time>
      </trkpt>
      <trkpt lat="47.77561" lon="-3.33982">
        <ele>53</ele>
        <time>2015-01-30T11:09:04.371Z</time>
      </trkpt>
      <trkpt lat="47.77561" lon="-3.33981">
        <ele>54</ele>
        <time>2015-01-30T11:09:05.363Z</time>
      </trkpt>
      <trkpt lat="47.77554" lon="-3.33976">
        <ele>56</ele>
        <time>2015-01-30T11:09:53.257Z</time>
      </trkpt>
      <trkpt lat="47.77551" lon="-3.33974">
        <ele>55</ele>
        <time>2015-01-30T11:09:54.258Z</time>
      </trkpt>
      <trkpt lat="47.77544" lon="-3.33969">
        <ele>55</ele>
        <time>2015-01-30T11:09:56.256Z</time>
      </trkpt>
      <trkpt lat="47.7754" lon="-3.33967">
        <ele>56</ele>
        <time>2015-01-30T11:09:57.327Z</time>
      </trkpt>
      <trkpt lat="47.77532" lon="-3.33964">
        <ele>58</ele>
        <time>2015-01-30T11:09:59.258Z</time>
      </trkpt>
      <trkpt lat="47.77529" lon="-3.33964">
        <ele>59</ele>
        <time>2015-01-30T11:10:00.257Z</time>
      </trkpt>
      <trkpt lat="47.7752" lon="-3.33961">
        <ele>58</ele>
        <time>2015-01-30T11:10:03.257Z</time>
      </trkpt>
      <trkpt lat="47.77517" lon="-3.3396">
        <ele>59</ele>
        <time>2015-01-30T11:10:04.257Z</time>
      </trkpt>
      <trkpt lat="47.77524" lon="-3.33964">
        <ele>59</ele>
        <time>2015-01-30T11:10:44.345Z</time>
      </trkpt>
      <trkpt lat="47.77525" lon="-3.33969">
        <ele>56</ele>
        <time>2015-01-30T11:10:45.340Z</time>
      </trkpt>
      <trkpt lat="47.77526" lon="-3.3398">
        <ele>57</ele>
        <time>2015-01-30T11:10:47.271Z</time>
      </trkpt>
      <trkpt lat="47.77529" lon="-3.33984">
        <ele>56</ele>
        <time>2015-01-30T11:10:48.257Z</time>
      </trkpt>
      <trkpt lat="47.77536" lon="-3.33987">
        <ele>57</ele>
        <time>2015-01-30T11:10:50.256Z</time>
      </trkpt>
      <trkpt lat="47.77541" lon="-3.33988">
        <ele>57</ele>
        <time>2015-01-30T11:10:51.258Z</time>
      </trkpt>
      <trkpt lat="47.7755" lon="-3.33991">
        <ele>58</ele>
        <time>2015-01-30T11:10:52.258Z</time>
      </trkpt>
      <trkpt lat="47.77557" lon="-3.33993">
        <ele>58</ele>
        <time>2015-01-30T11:10:53.258Z</time>
      </trkpt>
      <trkpt lat="47.77563" lon="-3.33994">
        <ele>56</ele>
        <time>2015-01-30T11:10:54.257Z</time>
      </trkpt>
      <trkpt lat="47.7757" lon="-3.33996">
        <ele>56</ele>
        <time>2015-01-30T11:10:55.258Z</time>
      </trkpt>
      <trkpt lat="47.77577" lon="-3.33996">
        <ele>55</ele>
        <time>2015-01-30T11:10:56.376Z</time>
      </trkpt>
      <trkpt lat="47.77586" lon="-3.33998">
        <ele>55</ele>
        <time>2015-01-30T11:10:57.255Z</time>
      </trkpt>
      <trkpt lat="47.77591" lon="-3.33999">
        <ele>55</ele>
        <time>2015-01-30T11:10:58.352Z</time>
      </trkpt>
      <trkpt lat="47.77598" lon="-3.33999">
        <ele>56</ele>
        <time>2015-01-30T11:10:59.325Z</time>
      </trkpt>
      <trkpt lat="47.776" lon="-3.33997">
        <ele>56</ele>
        <time>2015-01-30T11:11:00.335Z</time>
      </trkpt>
      <trkpt lat="47.776" lon="-3.33984">
        <ele>54</ele>
        <time>2015-01-30T11:11:03.390Z</time>
      </trkpt>
      <trkpt lat="47.77602" lon="-3.3398">
        <ele>53</ele>
        <time>2015-01-30T11:11:04.254Z</time>
      </trkpt>
      <trkpt lat="47.77609" lon="-3.33978">
        <ele>54</ele>
        <time>2015-01-30T11:11:20.260Z</time>
      </trkpt>
      <trkpt lat="47.77611" lon="-3.33977">
        <ele>54</ele>
        <time>2015-01-30T11:11:21.353Z</time>
      </trkpt>
      <trkpt lat="47.77616" lon="-3.33975">
        <ele>55</ele>
        <time>2015-01-30T11:11:23.326Z</time>
      </trkpt>
      <trkpt lat="47.77621" lon="-3.33974">
        <ele>55</ele>
        <time>2015-01-30T11:11:24.334Z</time>
      </trkpt>
      <trkpt lat="47.77627" lon="-3.33974">
        <ele>54</ele>
        <time>2015-01-30T11:11:25.269Z</time>
      </trkpt>
      <trkpt lat="47.77634" lon="-3.33977">
        <ele>54</ele>
        <time>2015-01-30T11:11:26.253Z</time>
      </trkpt>
      <trkpt lat="47.77639" lon="-3.33979">
        <ele>54</ele>
        <time>2015-01-30T11:11:27.280Z</time>
      </trkpt>
      <trkpt lat="47.77643" lon="-3.33981">
        <ele>54</ele>
        <time>2015-01-30T11:11:28.314Z</time>
      </trkpt>
      <trkpt lat="47.77651" lon="-3.33982">
        <ele>54</ele>
        <time>2015-01-30T11:11:30.354Z</time>
      </trkpt>
      <trkpt lat="47.77654" lon="-3.33983">
        <ele>54</ele>
        <time>2015-01-30T11:11:31.263Z</time>
      </trkpt>
      <trkpt lat="47.77654" lon="-3.33972">
        <ele>55</ele>
        <time>2015-01-30T11:11:33.258Z</time>
      </trkpt>
      <trkpt lat="47.77654" lon="-3.33968">
        <ele>55</ele>
        <time>2015-01-30T11:11:34.252Z</time>
      </trkpt>
      <trkpt lat="47.77651" lon="-3.33956">
        <ele>56</ele>
        <time>2015-01-30T11:12:00.255Z</time>
      </trkpt>
      <trkpt lat="47.77651" lon="-3.33955">
        <ele>56</ele>
        <time>2015-01-30T11:12:01.255Z</time>
      </trkpt>
      <trkpt lat="47.77648" lon="-3.33944">
        <ele>54</ele>
        <time>2015-01-30T11:12:09.348Z</time>
      </trkpt>
      <trkpt lat="47.77648" lon="-3.33943">
        <ele>54</ele>
        <time>2015-01-30T11:12:10.341Z</time>
      </trkpt>
      <trkpt lat="47.77655" lon="-3.33952">
        <ele>50</ele>
        <time>2015-01-30T11:12:26.394Z</time>
      </trkpt>
      <trkpt lat="47.77655" lon="-3.33953">
        <ele>50</ele>
        <time>2015-01-30T11:12:27.259Z</time>
      </trkpt>
      <trkpt lat="47.77655" lon="-3.33965">
        <ele>54</ele>
        <time>2015-01-30T11:12:58.303Z</time>
      </trkpt>
      <trkpt lat="47.77654" lon="-3.33967">
        <ele>55</ele>
        <time>2015-01-30T11:12:59.333Z</time>
      </trkpt>
      <trkpt lat="47.77659" lon="-3.33972">
        <ele>54</ele>
        <time>2015-01-30T11:13:27.364Z</time>
      </trkpt>
      <trkpt lat="47.77664" lon="-3.33976">
        <ele>54</ele>
        <time>2015-01-30T11:13:28.257Z</time>
      </trkpt>
      <trkpt lat="47.77668" lon="-3.3398">
        <ele>53</ele>
        <time>2015-01-30T11:13:29.333Z</time>
      </trkpt>
      <trkpt lat="47.77677" lon="-3.33986">
        <ele>54</ele>
        <time>2015-01-30T11:13:30.278Z</time>
      </trkpt>
      <trkpt lat="47.77681" lon="-3.33991">
        <ele>53</ele>
        <time>2015-01-30T11:13:31.335Z</time>
      </trkpt>
      <trkpt lat="47.77684" lon="-3.33997">
        <ele>54</ele>
        <time>2015-01-30T11:13:32.352Z</time>
      </trkpt>
      <trkpt lat="47.77686" lon="-3.3401">
        <ele>55</ele>
        <time>2015-01-30T11:13:34.326Z</time>
      </trkpt>
      <trkpt lat="47.77685" lon="-3.34015">
        <ele>57</ele>
        <time>2015-01-30T11:13:35.285Z</time>
      </trkpt>
      <trkpt lat="47.7768" lon="-3.34024">
        <ele>56</ele>
        <time>2015-01-30T11:13:43.271Z</time>
      </trkpt>
      <trkpt lat="47.7768" lon="-3.34028">
        <ele>58</ele>
        <time>2015-01-30T11:13:44.259Z</time>
      </trkpt>
      <trkpt lat="47.77683" lon="-3.34038">
        <ele>55</ele>
        <time>2015-01-30T11:13:47.340Z</time>
      </trkpt>
      <trkpt lat="47.77685" lon="-3.3404">
        <ele>56</ele>
        <time>2015-01-30T11:13:48.384Z</time>
      </trkpt>
      <trkpt lat="47.77694" lon="-3.34038">
        <ele>56</ele>
        <time>2015-01-30T11:13:51.289Z</time>
      </trkpt>
      <trkpt lat="47.77696" lon="-3.34036">
        <ele>56</ele>
        <time>2015-01-30T11:13:52.342Z</time>
      </trkpt>
      <trkpt lat="47.77689" lon="-3.3404">
        <ele>54</ele>
        <time>2015-01-30T11:14:48.250Z</time>
      </trkpt>
      <trkpt lat="47.77689" lon="-3.34045">
        <ele>54</ele>
        <time>2015-01-30T11:14:49.251Z</time>
      </trkpt>
      <trkpt lat="47.77692" lon="-3.34057">
        <ele>55</ele>
        <time>2015-01-30T11:14:51.251Z</time>
      </trkpt>
      <trkpt lat="47.77694" lon="-3.34064">
        <ele>55</ele>
        <time>2015-01-30T11:14:52.364Z</time>
      </trkpt>
      <trkpt lat="47.77696" lon="-3.34071">
        <ele>55</ele>
        <time>2015-01-30T11:14:53.334Z</time>
      </trkpt>
      <trkpt lat="47.777" lon="-3.34081">
        <ele>55</ele>
        <time>2015-01-30T11:14:54.323Z</time>
      </trkpt>
      <trkpt lat="47.77702" lon="-3.34089">
        <ele>55</ele>
        <time>2015-01-30T11:14:55.277Z</time>
      </trkpt>
      <trkpt lat="47.77706" lon="-3.34096">
        <ele>55</ele>
        <time>2015-01-30T11:14:56.344Z</time>
      </trkpt>
      <trkpt lat="47.77708" lon="-3.34105">
        <ele>55</ele>
        <time>2015-01-30T11:14:57.250Z</time>
      </trkpt>
      <trkpt lat="47.7771" lon="-3.34113">
        <ele>56</ele>
        <time>2015-01-30T11:14:58.335Z</time>
      </trkpt>
      <trkpt lat="47.77712" lon="-3.34121">
        <ele>57</ele>
        <time>2015-01-30T11:14:59.252Z</time>
      </trkpt>
      <trkpt lat="47.77714" lon="-3.34127">
        <ele>58</ele>
        <time>2015-01-30T11:15:00.266Z</time>
      </trkpt>
      <trkpt lat="47.77723" lon="-3.34128">
        <ele>55</ele>
        <time>2015-01-30T11:15:03.252Z</time>
      </trkpt>
      <trkpt lat="47.77725" lon="-3.34129">
        <ele>56</ele>
        <time>2015-01-30T11:15:04.267Z</time>
      </trkpt>
      <trkpt lat="47.77731" lon="-3.34138">
        <ele>59</ele>
        <time>2015-01-30T11:15:13.250Z</time>
      </trkpt>
      <trkpt lat="47.77731" lon="-3.34138">
        <ele>59</ele>
        <time>2015-01-30T11:15:14.250Z</time>
      </trkpt>
      <trkpt lat="47.77733" lon="-3.34126">
        <ele>53</ele>
        <time>2015-01-30T11:15:27.290Z</time>
      </trkpt>
      <trkpt lat="47.77733" lon="-3.34125">
        <ele>52</ele>
        <time>2015-01-30T11:15:28.360Z</time>
      </trkpt>
      <trkpt lat="47.77733" lon="-3.34112">
        <ele>50</ele>
        <time>2015-01-30T11:15:37.254Z</time>
      </trkpt>
      <trkpt lat="47.77732" lon="-3.3411">
        <ele>50</ele>
        <time>2015-01-30T11:15:38.255Z</time>
      </trkpt>
      <trkpt lat="47.77726" lon="-3.34117">
        <ele>57</ele>
        <time>2015-01-30T11:15:55.258Z</time>
      </trkpt>
      <trkpt lat="47.77727" lon="-3.34122">
        <ele>61</ele>
        <time>2015-01-30T11:15:56.361Z</time>
      </trkpt>
      <trkpt lat="47.77733" lon="-3.34131">
        <ele>58</ele>
        <time>2015-01-30T11:16:02.255Z</time>
      </trkpt>
      <trkpt lat="47.77734" lon="-3.34132">
        <ele>58</ele>
        <time>2015-01-30T11:16:03.338Z</time>
      </trkpt>
      <trkpt lat="47.77741" lon="-3.34136">
        <ele>53</ele>
        <time>2015-01-30T11:16:12.324Z</time>
      </trkpt>
      <trkpt lat="47.77742" lon="-3.34137">
        <ele>52</ele>
        <time>2015-01-30T11:16:13.304Z</time>
      </trkpt>
      <trkpt lat="47.77735" lon="-3.34145">
        <ele>53</ele>
        <time>2015-01-30T11:16:35.338Z</time>
      </trkpt>
      <trkpt lat="47.77733" lon="-3.34145">
        <ele>53</ele>
        <time>2015-01-30T11:16:36.264Z</time>
      </trkpt>
      <trkpt lat="47.77729" lon="-3.34155">
        <ele>56</ele>
        <time>2015-01-30T11:16:52.324Z</time>
      </trkpt>
      <trkpt lat="47.77728" lon="-3.3416">
        <ele>54</ele>
        <time>2015-01-30T11:16:53.254Z</time>
      </trkpt>
      <trkpt lat="47.77724" lon="-3.34169">
        <ele>56</ele>
        <time>2015-01-30T11:16:57.336Z</time>
      </trkpt>
      <trkpt lat="47.77722" lon="-3.34171">
        <ele>58</ele>
        <time>2015-01-30T11:16:58.254Z</time>
      </trkpt>
      <trkpt lat="47.77721" lon="-3.34179">
        <ele>58</ele>
        <time>2015-01-30T11:17:00.332Z</time>
      </trkpt>
      <trkpt lat="47.77721" lon="-3.34185">
        <ele>58</ele>
        <time>2015-01-30T11:17:01.286Z</time>
      </trkpt>
      <trkpt lat="47.77721" lon="-3.34192">
        <ele>57</ele>
        <time>2015-01-30T11:17:02.299Z</time>
      </trkpt>
      <trkpt lat="47.77722" lon="-3.342">
        <ele>57</ele>
        <time>2015-01-30T11:17:03.252Z</time>
      </trkpt>
      <trkpt lat="47.77722" lon="-3.34209">
        <ele>56</ele>
        <time>2015-01-30T11:17:04.301Z</time>
      </trkpt>
      <trkpt lat="47.7772" lon="-3.34225">
        <ele>55</ele>
        <time>2015-01-30T11:17:05.254Z</time>
      </trkpt>
      <trkpt lat="47.77719" lon="-3.34238">
        <ele>53</ele>
        <time>2015-01-30T11:17:07.287Z</time>
      </trkpt>
      <trkpt lat="47.77722" lon="-3.34243">
        <ele>53</ele>
        <time>2015-01-30T11:17:08.266Z</time>
      </trkpt>
      <trkpt lat="47.77728" lon="-3.34248">
        <ele>54</ele>
        <time>2015-01-30T11:17:10.260Z</time>
      </trkpt>
      <trkpt lat="47.77731" lon="-3.3425">
        <ele>54</ele>
        <time>2015-01-30T11:17:11.252Z</time>
      </trkpt>
      <trkpt lat="47.77737" lon="-3.3426">
        <ele>52</ele>
        <time>2015-01-30T11:17:14.250Z</time>
      </trkpt>
      <trkpt lat="47.77739" lon="-3.34264">
        <ele>54</ele>
        <time>2015-01-30T11:17:15.249Z</time>
      </trkpt>
      <trkpt lat="47.77746" lon="-3.34268">
        <ele>55</ele>
        <time>2015-01-30T11:17:17.259Z</time>
      </trkpt>
      <trkpt lat="47.77749" lon="-3.34269">
        <ele>56</ele>
        <time>2015-01-30T11:17:18.252Z</time>
      </trkpt>
      <trkpt lat="47.77757" lon="-3.34269">
        <ele>58</ele>
        <time>2015-01-30T11:17:20.250Z</time>
      </trkpt>
      <trkpt lat="47.77759" lon="-3.34268">
        <ele>57</ele>
        <time>2015-01-30T11:17:21.250Z</time>
      </trkpt>
      <trkpt lat="47.77755" lon="-3.34257">
        <ele>58</ele>
        <time>2015-01-30T11:17:31.254Z</time>
      </trkpt>
      <trkpt lat="47.77755" lon="-3.34255">
        <ele>57</ele>
        <time>2015-01-30T11:17:32.338Z</time>
      </trkpt>
      <trkpt lat="47.77762" lon="-3.34248">
        <ele>62</ele>
        <time>2015-01-30T11:17:49.289Z</time>
      </trkpt>
      <trkpt lat="47.77762" lon="-3.34247">
        <ele>62</ele>
        <time>2015-01-30T11:17:50.266Z</time>
      </trkpt>
      <trkpt lat="47.77755" lon="-3.34242">
        <ele>61</ele>
        <time>2015-01-30T11:18:23.284Z</time>
      </trkpt>
      <trkpt lat="47.77754" lon="-3.34239">
        <ele>61</ele>
        <time>2015-01-30T11:18:24.328Z</time>
      </trkpt>
      <trkpt lat="47.77749" lon="-3.34231">
        <ele>61</ele>
        <time>2015-01-30T11:18:26.315Z</time>
      </trkpt>
      <trkpt lat="47.77747" lon="-3.34226">
        <ele>61</ele>
        <time>2015-01-30T11:18:27.309Z</time>
      </trkpt>
      <trkpt lat="47.77744" lon="-3.34218">
        <ele>63</ele>
        <time>2015-01-30T11:18:29.334Z</time>
      </trkpt>
      <trkpt lat="47.77741" lon="-3.34215">
        <ele>63</ele>
        <time>2015-01-30T11:18:30.270Z</time>
      </trkpt>
      <trkpt lat="47.77734" lon="-3.3421">
        <ele>63</ele>
        <time>2015-01-30T11:18:32.252Z</time>
      </trkpt>
      <trkpt lat="47.7773" lon="-3.34211">
        <ele>60</ele>
        <time>2015-01-30T11:18:33.303Z</time>
      </trkpt>
      <trkpt lat="47.77722" lon="-3.34211">
        <ele>62</ele>
        <time>2015-01-30T11:18:35.252Z</time>
      </trkpt>
      <trkpt lat="47.77719" lon="-3.34212">
        <ele>58</ele>
        <time>2015-01-30T11:18:36.291Z</time>
      </trkpt>
      <trkpt lat="47.77712" lon="-3.34211">
        <ele>55</ele>
        <time>2015-01-30T11:18:43.251Z</time>
      </trkpt>
      <trkpt lat="47.7771" lon="-3.34205">
        <ele>53</ele>
        <time>2015-01-30T11:18:44.252Z</time>
      </trkpt>
      <trkpt lat="47.77709" lon="-3.34198">
        <ele>53</ele>
        <time>2015-01-30T11:18:45.250Z</time>
      </trkpt>
      <trkpt lat="47.77709" lon="-3.34191">
        <ele>52</ele>
        <time>2015-01-30T11:18:46.250Z</time>
      </trkpt>
      <trkpt lat="47.77709" lon="-3.34185">
        <ele>52</ele>
        <time>2015-01-30T11:18:47.250Z</time>
      </trkpt>
      <trkpt lat="47.77709" lon="-3.34177">
        <ele>51</ele>
        <time>2015-01-30T11:18:48.248Z</time>
      </trkpt>
      <trkpt lat="47.7771" lon="-3.34168">
        <ele>51</ele>
        <time>2015-01-30T11:18:49.248Z</time>
      </trkpt>
      <trkpt lat="47.7771" lon="-3.34145">
        <ele>49</ele>
        <time>2015-01-30T11:18:50.249Z</time>
      </trkpt>
      <trkpt lat="47.7771" lon="-3.34125">
        <ele>47</ele>
        <time>2015-01-30T11:18:51.247Z</time>
      </trkpt>
      <trkpt lat="47.77712" lon="-3.34113">
        <ele>47</ele>
        <time>2015-01-30T11:18:52.249Z</time>
      </trkpt>
      <trkpt lat="47.77709" lon="-3.34099">
        <ele>46</ele>
        <time>2015-01-30T11:18:53.294Z</time>
      </trkpt>
      <trkpt lat="47.77709" lon="-3.3409">
        <ele>47</ele>
        <time>2015-01-30T11:18:54.307Z</time>
      </trkpt>
      <trkpt lat="47.77702" lon="-3.34079">
        <ele>47</ele>
        <time>2015-01-30T11:18:55.247Z</time>
      </trkpt>
      <trkpt lat="47.77699" lon="-3.34066">
        <ele>47</ele>
        <time>2015-01-30T11:18:56.299Z</time>
      </trkpt>
      <trkpt lat="47.77695" lon="-3.34058">
        <ele>46</ele>
        <time>2015-01-30T11:18:57.258Z</time>
      </trkpt>
      <trkpt lat="47.77694" lon="-3.34053">
        <ele>45</ele>
        <time>2015-01-30T11:18:58.250Z</time>
      </trkpt>
      <trkpt lat="47.77689" lon="-3.3405">
        <ele>45</ele>
        <time>2015-01-30T11:18:59.250Z</time>
      </trkpt>
      <trkpt lat="47.77685" lon="-3.34043">
        <ele>48</ele>
        <time>2015-01-30T11:19:00.316Z</time>
      </trkpt>
      <trkpt lat="47.7768" lon="-3.3405">
        <ele>46</ele>
        <time>2015-01-30T11:19:02.266Z</time>
      </trkpt>
      <trkpt lat="47.77678" lon="-3.34055">
        <ele>47</ele>
        <time>2015-01-30T11:19:03.341Z</time>
      </trkpt>
      <trkpt lat="47.77673" lon="-3.34065">
        <ele>50</ele>
        <time>2015-01-30T11:19:05.313Z</time>
      </trkpt>
      <trkpt lat="47.77671" lon="-3.34068">
        <ele>49</ele>
        <time>2015-01-30T11:19:06.315Z</time>
      </trkpt>
      <trkpt lat="47.77678" lon="-3.34077">
        <ele>55</ele>
        <time>2015-01-30T11:19:41.287Z</time>
      </trkpt>
      <trkpt lat="47.77678" lon="-3.34077">
        <ele>55</ele>
        <time>2015-01-30T11:19:42.297Z</time>
      </trkpt>
      <trkpt lat="47.77672" lon="-3.34069">
        <ele>59</ele>
        <time>2015-01-30T11:20:11.251Z</time>
      </trkpt>
      <trkpt lat="47.77672" lon="-3.34068">
        <ele>60</ele>
        <time>2015-01-30T11:20:12.248Z</time>
      </trkpt>
      <trkpt lat="47.77676" lon="-3.34059">
        <ele>59</ele>
        <time>2015-01-30T11:20:15.251Z</time>
      </trkpt>
      <trkpt lat="47.77678" lon="-3.34055">
        <ele>60</ele>
        <time>2015-01-30T11:20:16.249Z</time>
      </trkpt>
      <trkpt lat="47.77684" lon="-3.34046">
        <ele>58</ele>
        <time>2015-01-30T11:20:21.249Z</time>
      </trkpt>
      <trkpt lat="47.77684" lon="-3.34044">
        <ele>57</ele>
        <time>2015-01-30T11:20:22.249Z</time>
      </trkpt>
      <trkpt lat="47.77681" lon="-3.34033">
        <ele>56</ele>
        <time>2015-01-30T11:20:25.340Z</time>
      </trkpt>
      <trkpt lat="47.77678" lon="-3.34027">
        <ele>56</ele>
        <time>2015-01-30T11:20:26.250Z</time>
      </trkpt>
      <trkpt lat="47.77674" lon="-3.34021">
        <ele>55</ele>
        <time>2015-01-30T11:20:27.306Z</time>
      </trkpt>
      <trkpt lat="47.77666" lon="-3.34012">
        <ele>55</ele>
        <time>2015-01-30T11:20:28.314Z</time>
      </trkpt>
      <trkpt lat="47.77663" lon="-3.34007">
        <ele>55</ele>
        <time>2015-01-30T11:20:29.314Z</time>
      </trkpt>
      <trkpt lat="47.7766" lon="-3.34003">
        <ele>55</ele>
        <time>2015-01-30T11:20:30.259Z</time>
      </trkpt>
      <trkpt lat="47.77652" lon="-3.34002">
        <ele>55</ele>
        <time>2015-01-30T11:20:32.250Z</time>
      </trkpt>
      <trkpt lat="47.77649" lon="-3.34002">
        <ele>55</ele>
        <time>2015-01-30T11:20:33.249Z</time>
      </trkpt>
      <trkpt lat="47.77642" lon="-3.3401">
        <ele>54</ele>
        <time>2015-01-30T11:20:46.306Z</time>
      </trkpt>
      <trkpt lat="47.77642" lon="-3.34009">
        <ele>54</ele>
        <time>2015-01-30T11:20:47.246Z</time>
      </trkpt>
      <trkpt lat="47.77636" lon="-3.34003">
        <ele>50</ele>
        <time>2015-01-30T11:21:14.306Z</time>
      </trkpt>
      <trkpt lat="47.77633" lon="-3.34001">
        <ele>49</ele>
        <time>2015-01-30T11:21:15.251Z</time>
      </trkpt>
      <trkpt lat="47.77627" lon="-3.33998">
        <ele>48</ele>
        <time>2015-01-30T11:21:17.289Z</time>
      </trkpt>
      <trkpt lat="47.77624" lon="-3.33996">
        <ele>48</ele>
        <time>2015-01-30T11:21:18.319Z</time>
      </trkpt>
      <trkpt lat="47.77617" lon="-3.33998">
        <ele>46</ele>
        <time>2015-01-30T11:21:20.311Z</time>
      </trkpt>
      <trkpt lat="47.77614" lon="-3.34002">
        <ele>48</ele>
        <time>2015-01-30T11:21:21.258Z</time>
      </trkpt>
      <trkpt lat="47.7761" lon="-3.34011">
        <ele>46</ele>
        <time>2015-01-30T11:21:23.247Z</time>
      </trkpt>
      <trkpt lat="47.77609" lon="-3.34016">
        <ele>46</ele>
        <time>2015-01-30T11:21:24.245Z</time>
      </trkpt>
      <trkpt lat="47.77606" lon="-3.34026">
        <ele>49</ele>
        <time>2015-01-30T11:21:26.248Z</time>
      </trkpt>
      <trkpt lat="47.77604" lon="-3.34032">
        <ele>51</ele>
        <time>2015-01-30T11:21:27.245Z</time>
      </trkpt>
      <trkpt lat="47.77603" lon="-3.34039">
        <ele>52</ele>
        <time>2015-01-30T11:21:28.249Z</time>
      </trkpt>
      <trkpt lat="47.77602" lon="-3.34046">
        <ele>53</ele>
        <time>2015-01-30T11:21:29.247Z</time>
      </trkpt>
      <trkpt lat="47.77602" lon="-3.34059">
        <ele>55</ele>
        <time>2015-01-30T11:21:31.249Z</time>
      </trkpt>
      <trkpt lat="47.77603" lon="-3.34065">
        <ele>53</ele>
        <time>2015-01-30T11:21:32.256Z</time>
      </trkpt>
      <trkpt lat="47.77607" lon="-3.34076">
        <ele>53</ele>
        <time>2015-01-30T11:21:37.247Z</time>
      </trkpt>
      <trkpt lat="47.77607" lon="-3.34077">
        <ele>52</ele>
        <time>2015-01-30T11:21:38.315Z</time>
      </trkpt>
      <trkpt lat="47.776" lon="-3.34079">
        <ele>59</ele>
        <time>2015-01-30T11:22:13.304Z</time>
      </trkpt>
      <trkpt lat="47.77598" lon="-3.3408">
        <ele>61</ele>
        <time>2015-01-30T11:22:14.283Z</time>
      </trkpt>
      <trkpt lat="47.77594" lon="-3.34089">
        <ele>59</ele>
        <time>2015-01-30T11:22:17.318Z</time>
      </trkpt>
      <trkpt lat="47.77592" lon="-3.34092">
        <ele>59</ele>
        <time>2015-01-30T11:22:18.348Z</time>
      </trkpt>
      <trkpt lat="47.77585" lon="-3.34098">
        <ele>57</ele>
        <time>2015-01-30T11:22:21.299Z</time>
      </trkpt>
      <trkpt lat="47.77583" lon="-3.34098">
        <ele>57</ele>
        <time>2015-01-30T11:22:22.320Z</time>
      </trkpt>
      <trkpt lat="47.77575" lon="-3.34095">
        <ele>56</ele>
        <time>2015-01-30T11:22:29.331Z</time>
      </trkpt>
      <trkpt lat="47.77572" lon="-3.34092">
        <ele>56</ele>
        <time>2015-01-30T11:22:30.282Z</time>
      </trkpt>
      <trkpt lat="47.77566" lon="-3.34088">
        <ele>55</ele>
        <time>2015-01-30T11:22:32.246Z</time>
      </trkpt>
      <trkpt lat="47.77563" lon="-3.34086">
        <ele>56</ele>
        <time>2015-01-30T11:22:33.322Z</time>
      </trkpt>
      <trkpt lat="47.77554" lon="-3.34085">
        <ele>56</ele>
        <time>2015-01-30T11:22:35.336Z</time>
      </trkpt>
      <trkpt lat="47.77549" lon="-3.34085">
        <ele>55</ele>
        <time>2015-01-30T11:22:36.304Z</time>
      </trkpt>
      <trkpt lat="47.77542" lon="-3.34082">
        <ele>52</ele>
        <time>2015-01-30T11:22:38.247Z</time>
      </trkpt>
      <trkpt lat="47.7754" lon="-3.34077">
        <ele>52</ele>
        <time>2015-01-30T11:22:39.271Z</time>
      </trkpt>
      <trkpt lat="47.77543" lon="-3.34069">
        <ele>49</ele>
        <time>2015-01-30T11:22:41.246Z</time>
      </trkpt>
      <trkpt lat="47.77547" lon="-3.34068">
        <ele>45</ele>
        <time>2015-01-30T11:22:42.252Z</time>
      </trkpt>
      <trkpt lat="47.77554" lon="-3.34066">
        <ele>47</ele>
        <time>2015-01-30T11:22:44.308Z</time>
      </trkpt>
      <trkpt lat="47.77557" lon="-3.34066">
        <ele>46</ele>
        <time>2015-01-30T11:22:45.319Z</time>
      </trkpt>
      <trkpt lat="47.77555" lon="-3.34077">
        <ele>55</ele>
        <time>2015-01-30T11:24:34.247Z</time>
      </trkpt>
      <trkpt lat="47.77556" lon="-3.3408">
        <ele>45</ele>
        <time>2015-01-30T11:24:35.247Z</time>
      </trkpt>
      <trkpt lat="47.77559" lon="-3.3409">
        <ele>49</ele>
        <time>2015-01-30T11:24:37.245Z</time>
      </trkpt>
      <trkpt lat="47.7756" lon="-3.34093">
        <ele>48</ele>
        <time>2015-01-30T11:24:38.248Z</time>
      </trkpt>
      <trkpt lat="47.77558" lon="-3.34103">
        <ele>48</ele>
        <time>2015-01-30T11:24:43.250Z</time>
      </trkpt>
      <trkpt lat="47.77554" lon="-3.34105">
        <ele>51</ele>
        <time>2015-01-30T11:24:44.247Z</time>
      </trkpt>
      <trkpt lat="47.77546" lon="-3.34108">
        <ele>50</ele>
        <time>2015-01-30T11:24:46.244Z</time>
      </trkpt>
      <trkpt lat="47.77542" lon="-3.34109">
        <ele>50</ele>
        <time>2015-01-30T11:24:47.246Z</time>
      </trkpt>
      <trkpt lat="47.77534" lon="-3.34112">
        <ele>52</ele>
        <time>2015-01-30T11:24:51.247Z</time>
      </trkpt>
      <trkpt lat="47.77532" lon="-3.34112">
        <ele>53</ele>
        <time>2015-01-30T11:24:52.249Z</time>
      </trkpt>
      <trkpt lat="47.77527" lon="-3.3412">
        <ele>54</ele>
        <time>2015-01-30T11:25:02.300Z</time>
      </trkpt>
      <trkpt lat="47.77527" lon="-3.34125">
        <ele>54</ele>
        <time>2015-01-30T11:25:03.265Z</time>
      </trkpt>
      <trkpt lat="47.77528" lon="-3.34137">
        <ele>55</ele>
        <time>2015-01-30T11:25:05.292Z</time>
      </trkpt>
      <trkpt lat="47.77528" lon="-3.34143">
        <ele>54</ele>
        <time>2015-01-30T11:25:06.247Z</time>
      </trkpt>
      <trkpt lat="47.77529" lon="-3.3415">
        <ele>55</ele>
        <time>2015-01-30T11:25:07.240Z</time>
      </trkpt>
      <trkpt lat="47.77529" lon="-3.34157">
        <ele>55</ele>
        <time>2015-01-30T11:25:08.245Z</time>
      </trkpt>
      <trkpt lat="47.7753" lon="-3.34169">
        <ele>53</ele>
        <time>2015-01-30T11:25:10.317Z</time>
      </trkpt>
      <trkpt lat="47.7753" lon="-3.34175">
        <ele>51</ele>
        <time>2015-01-30T11:25:11.311Z</time>
      </trkpt>
      <trkpt lat="47.7753" lon="-3.34185">
        <ele>53</ele>
        <time>2015-01-30T11:25:13.322Z</time>
      </trkpt>
      <trkpt lat="47.7753" lon="-3.3419">
        <ele>52</ele>
        <time>2015-01-30T11:25:14.306Z</time>
      </trkpt>
      <trkpt lat="47.7753" lon="-3.34199">
        <ele>53</ele>
        <time>2015-01-30T11:25:16.302Z</time>
      </trkpt>
      <trkpt lat="47.7753" lon="-3.34204">
        <ele>53</ele>
        <time>2015-01-30T11:25:17.323Z</time>
      </trkpt>
      <trkpt lat="47.77531" lon="-3.34215">
        <ele>53</ele>
        <time>2015-01-30T11:25:19.256Z</time>
      </trkpt>
      <trkpt lat="47.77531" lon="-3.34222">
        <ele>53</ele>
        <time>2015-01-30T11:25:20.340Z</time>
      </trkpt>
      <trkpt lat="47.77533" lon="-3.34233">
        <ele>57</ele>
        <time>2015-01-30T11:25:28.249Z</time>
      </trkpt>
      <trkpt lat="47.77533" lon="-3.34237">
        <ele>56</ele>
        <time>2015-01-30T11:25:29.314Z</time>
      </trkpt>
      <trkpt lat="47.77533" lon="-3.34248">
        <ele>55</ele>
        <time>2015-01-30T11:25:31.297Z</time>
      </trkpt>
      <trkpt lat="47.77532" lon="-3.34254">
        <ele>55</ele>
        <time>2015-01-30T11:25:32.277Z</time>
      </trkpt>
      <trkpt lat="47.7753" lon="-3.34258">
        <ele>55</ele>
        <time>2015-01-30T11:25:33.273Z</time>
      </trkpt>
      <trkpt lat="47.775" lon="-3.34262">
        <ele>55</ele>
        <time>2015-01-30T11:25:48.265Z</time>
      </trkpt>
      <trkpt lat="47.77494" lon="-3.34258">
        <ele>54</ele>
        <time>2015-01-30T11:25:49.247Z</time>
      </trkpt>
      <trkpt lat="47.77467" lon="-3.34245">
        <ele>54</ele>
        <time>2015-01-30T11:25:50.248Z</time>
      </trkpt>
      <trkpt lat="47.7746" lon="-3.34249">
        <ele>57</ele>
        <time>2015-01-30T11:25:52.322Z</time>
      </trkpt>
      <trkpt lat="47.77457" lon="-3.34245">
        <ele>59</ele>
        <time>2015-01-30T11:25:53.246Z</time>
      </trkpt>
      <trkpt lat="47.77449" lon="-3.3424">
        <ele>62</ele>
        <time>2015-01-30T11:25:55.302Z</time>
      </trkpt>
      <trkpt lat="47.77446" lon="-3.34241">
        <ele>60</ele>
        <time>2015-01-30T11:25:56.276Z</time>
      </trkpt>
      <trkpt lat="47.77438" lon="-3.34244">
        <ele>59</ele>
        <time>2015-01-30T11:25:58.270Z</time>
      </trkpt>
      <trkpt lat="47.77431" lon="-3.34251">
        <ele>58</ele>
        <time>2015-01-30T11:25:59.287Z</time>
      </trkpt>
      <trkpt lat="47.77424" lon="-3.34244">
        <ele>57</ele>
        <time>2015-01-30T11:26:01.300Z</time>
      </trkpt>
      <trkpt lat="47.77424" lon="-3.34243">
        <ele>57</ele>
        <time>2015-01-30T11:26:02.316Z</time>
      </trkpt>
      <trkpt lat="47.77417" lon="-3.34234">
        <ele>53</ele>
        <time>2015-01-30T11:26:27.244Z</time>
      </trkpt>
      <trkpt lat="47.77418" lon="-3.3423">
        <ele>53</ele>
        <time>2015-01-30T11:26:29.244Z</time>
      </trkpt>
      <trkpt lat="47.7742" lon="-3.3422">
        <ele>64</ele>
        <time>2015-01-30T11:26:54.246Z</time>
      </trkpt>
      <trkpt lat="47.77424" lon="-3.3422">
        <ele>62</ele>
        <time>2015-01-30T11:26:55.246Z</time>
      </trkpt>
      <trkpt lat="47.7743" lon="-3.34227">
        <ele>63</ele>
        <time>2015-01-30T11:26:57.245Z</time>
      </trkpt>
      <trkpt lat="47.77431" lon="-3.34232">
        <ele>63</ele>
        <time>2015-01-30T11:26:58.321Z</time>
      </trkpt>
      <trkpt lat="47.77433" lon="-3.34242">
        <ele>62</ele>
        <time>2015-01-30T11:27:00.263Z</time>
      </trkpt>
      <trkpt lat="47.77435" lon="-3.34244">
        <ele>61</ele>
        <time>2015-01-30T11:27:01.336Z</time>
      </trkpt>
      <trkpt lat="47.77443" lon="-3.3424">
        <ele>59</ele>
        <time>2015-01-30T11:27:05.333Z</time>
      </trkpt>
      <trkpt lat="47.77445" lon="-3.34232">
        <ele>59</ele>
        <time>2015-01-30T11:27:06.319Z</time>
      </trkpt>
      <trkpt lat="47.77445" lon="-3.34223">
        <ele>58</ele>
        <time>2015-01-30T11:27:07.333Z</time>
      </trkpt>
      <trkpt lat="47.77441" lon="-3.3421">
        <ele>57</ele>
        <time>2015-01-30T11:27:08.348Z</time>
      </trkpt>
      <trkpt lat="47.7744" lon="-3.34201">
        <ele>57</ele>
        <time>2015-01-30T11:27:09.312Z</time>
      </trkpt>
      <trkpt lat="47.7744" lon="-3.34192">
        <ele>58</ele>
        <time>2015-01-30T11:27:10.257Z</time>
      </trkpt>
      <trkpt lat="47.77441" lon="-3.34181">
        <ele>58</ele>
        <time>2015-01-30T11:27:11.243Z</time>
      </trkpt>
      <trkpt lat="47.77438" lon="-3.34175">
        <ele>57</ele>
        <time>2015-01-30T11:27:12.319Z</time>
      </trkpt>
      <trkpt lat="47.77435" lon="-3.34166">
        <ele>57</ele>
        <time>2015-01-30T11:27:14.322Z</time>
      </trkpt>
      <trkpt lat="47.7743" lon="-3.34164">
        <ele>58</ele>
        <time>2015-01-30T11:27:15.246Z</time>
      </trkpt>
      <trkpt lat="47.77423" lon="-3.34169">
        <ele>58</ele>
        <time>2015-01-30T11:27:17.319Z</time>
      </trkpt>
      <trkpt lat="47.7742" lon="-3.34172">
        <ele>58</ele>
        <time>2015-01-30T11:27:18.306Z</time>
      </trkpt>
      <trkpt lat="47.77416" lon="-3.34163">
        <ele>56</ele>
        <time>2015-01-30T11:27:51.242Z</time>
      </trkpt>
      <trkpt lat="47.77418" lon="-3.34149">
        <ele>57</ele>
        <time>2015-01-30T11:27:52.239Z</time>
      </trkpt>
      <trkpt lat="47.77416" lon="-3.34139">
        <ele>55</ele>
        <time>2015-01-30T11:27:53.244Z</time>
      </trkpt>
      <trkpt lat="47.77418" lon="-3.34131">
        <ele>53</ele>
        <time>2015-01-30T11:27:54.243Z</time>
      </trkpt>
      <trkpt lat="47.77419" lon="-3.34122">
        <ele>52</ele>
        <time>2015-01-30T11:27:55.322Z</time>
      </trkpt>
      <trkpt lat="47.77423" lon="-3.34117">
        <ele>49</ele>
        <time>2015-01-30T11:27:56.280Z</time>
      </trkpt>
      <trkpt lat="47.77424" lon="-3.34108">
        <ele>52</ele>
        <time>2015-01-30T11:27:57.275Z</time>
      </trkpt>
      <trkpt lat="47.77423" lon="-3.34103">
        <ele>52</ele>
        <time>2015-01-30T11:27:58.250Z</time>
      </trkpt>
      <trkpt lat="47.77424" lon="-3.34091">
        <ele>53</ele>
        <time>2015-01-30T11:28:00.408Z</time>
      </trkpt>
      <trkpt lat="47.77423" lon="-3.34088">
        <ele>53</ele>
        <time>2015-01-30T11:28:01.248Z</time>
      </trkpt>
      <trkpt lat="47.77415" lon="-3.34088">
        <ele>54</ele>
        <time>2015-01-30T11:28:12.243Z</time>
      </trkpt>
      <trkpt lat="47.77413" lon="-3.34086">
        <ele>53</ele>
        <time>2015-01-30T11:28:13.245Z</time>
      </trkpt>
      <trkpt lat="47.7742" lon="-3.34082">
        <ele>52</ele>
        <time>2015-01-30T11:28:29.241Z</time>
      </trkpt>
      <trkpt lat="47.77422" lon="-3.34081">
        <ele>53</ele>
        <time>2015-01-30T11:28:30.243Z</time>
      </trkpt>
      <trkpt lat="47.77424" lon="-3.34093">
        <ele>50</ele>
        <time>2015-01-30T11:28:47.242Z</time>
      </trkpt>
      <trkpt lat="47.77425" lon="-3.34097">
        <ele>49</ele>
        <time>2015-01-30T11:28:48.287Z</time>
      </trkpt>
      <trkpt lat="47.77434" lon="-3.34097">
        <ele>49</ele>
        <time>2015-01-30T11:28:56.243Z</time>
      </trkpt>
      <trkpt lat="47.77436" lon="-3.34091">
        <ele>48</ele>
        <time>2015-01-30T11:28:57.303Z</time>
      </trkpt>
      <trkpt lat="47.77437" lon="-3.34085">
        <ele>51</ele>
        <time>2015-01-30T11:28:58.295Z</time>
      </trkpt>
      <trkpt lat="47.77437" lon="-3.34075">
        <ele>51</ele>
        <time>2015-01-30T11:28:59.332Z</time>
      </trkpt>
      <trkpt lat="47.77435" lon="-3.34066">
        <ele>51</ele>
        <time>2015-01-30T11:29:00.281Z</time>
      </trkpt>
      <trkpt lat="47.77431" lon="-3.34058">
        <ele>48</ele>
        <time>2015-01-30T11:29:01.285Z</time>
      </trkpt>
      <trkpt lat="47.77432" lon="-3.34047">
        <ele>48</ele>
        <time>2015-01-30T11:29:02.294Z</time>
      </trkpt>
      <trkpt lat="47.77431" lon="-3.34038">
        <ele>48</ele>
        <time>2015-01-30T11:29:03.241Z</time>
      </trkpt>
      <trkpt lat="47.77431" lon="-3.34026">
        <ele>50</ele>
        <time>2015-01-30T11:29:04.242Z</time>
      </trkpt>
      <trkpt lat="47.77432" lon="-3.34016">
        <ele>50</ele>
        <time>2015-01-30T11:29:05.248Z</time>
      </trkpt>
      <trkpt lat="47.7743" lon="-3.34004">
        <ele>51</ele>
        <time>2015-01-30T11:29:07.284Z</time>
      </trkpt>
      <trkpt lat="47.77428" lon="-3.33999">
        <ele>52</ele>
        <time>2015-01-30T11:29:08.263Z</time>
      </trkpt>
      <trkpt lat="47.77423" lon="-3.34009">
        <ele>45</ele>
        <time>2015-01-30T11:29:19.241Z</time>
      </trkpt>
      <trkpt lat="47.77422" lon="-3.34009">
        <ele>45</ele>
        <time>2015-01-30T11:29:20.241Z</time>
      </trkpt>
      <trkpt lat="47.77414" lon="-3.34014">
        <ele>53</ele>
        <time>2015-01-30T11:31:39.330Z</time>
      </trkpt>
      <trkpt lat="47.77413" lon="-3.34014">
        <ele>53</ele>
        <time>2015-01-30T11:31:40.306Z</time>
      </trkpt>
      <trkpt lat="47.77418" lon="-3.34006">
        <ele>51</ele>
        <time>2015-01-30T11:31:49.308Z</time>
      </trkpt>
      <trkpt lat="47.7742" lon="-3.34006">
        <ele>52</ele>
        <time>2015-01-30T11:31:50.310Z</time>
      </trkpt>
      <trkpt lat="47.77425" lon="-3.33999">
        <ele>53</ele>
        <time>2015-01-30T11:32:33.241Z</time>
      </trkpt>
      <trkpt lat="47.77426" lon="-3.33992">
        <ele>53</ele>
        <time>2015-01-30T11:32:34.287Z</time>
      </trkpt>
      <trkpt lat="47.77427" lon="-3.33982">
        <ele>55</ele>
        <time>2015-01-30T11:32:36.272Z</time>
      </trkpt>
      <trkpt lat="47.77427" lon="-3.33976">
        <ele>55</ele>
        <time>2015-01-30T11:32:37.261Z</time>
      </trkpt>
      <trkpt lat="47.77427" lon="-3.33964">
        <ele>55</ele>
        <time>2015-01-30T11:32:39.277Z</time>
      </trkpt>
      <trkpt lat="47.77426" lon="-3.33954">
        <ele>55</ele>
        <time>2015-01-30T11:32:40.274Z</time>
      </trkpt>
      <trkpt lat="47.77428" lon="-3.33933">
        <ele>54</ele>
        <time>2015-01-30T11:32:41.272Z</time>
      </trkpt>
      <trkpt lat="47.77428" lon="-3.33918">
        <ele>54</ele>
        <time>2015-01-30T11:32:42.242Z</time>
      </trkpt>
      <trkpt lat="47.77429" lon="-3.33909">
        <ele>54</ele>
        <time>2015-01-30T11:32:43.255Z</time>
      </trkpt>
      <trkpt lat="47.77428" lon="-3.33895">
        <ele>54</ele>
        <time>2015-01-30T11:32:44.266Z</time>
      </trkpt>
      <trkpt lat="47.77426" lon="-3.33884">
        <ele>54</ele>
        <time>2015-01-30T11:32:45.241Z</time>
      </trkpt>
      <trkpt lat="47.77426" lon="-3.33871">
        <ele>54</ele>
        <time>2015-01-30T11:32:46.240Z</time>
      </trkpt>
      <trkpt lat="47.77427" lon="-3.33853">
        <ele>53</ele>
        <time>2015-01-30T11:32:47.240Z</time>
      </trkpt>
      <trkpt lat="47.77428" lon="-3.33841">
        <ele>55</ele>
        <time>2015-01-30T11:32:48.239Z</time>
      </trkpt>
      <trkpt lat="47.77427" lon="-3.33828">
        <ele>54</ele>
        <time>2015-01-30T11:32:49.239Z</time>
      </trkpt>
      <trkpt lat="47.7743" lon="-3.33813">
        <ele>53</ele>
        <time>2015-01-30T11:32:50.248Z</time>
      </trkpt>
      <trkpt lat="47.77427" lon="-3.338">
        <ele>51</ele>
        <time>2015-01-30T11:32:51.239Z</time>
      </trkpt>
      <trkpt lat="47.77423" lon="-3.33787">
        <ele>51</ele>
        <time>2015-01-30T11:32:52.240Z</time>
      </trkpt>
      <trkpt lat="47.77421" lon="-3.33775">
        <ele>52</ele>
        <time>2015-01-30T11:32:53.239Z</time>
      </trkpt>
      <trkpt lat="47.77418" lon="-3.3376">
        <ele>51</ele>
        <time>2015-01-30T11:32:54.237Z</time>
      </trkpt>
      <trkpt lat="47.77413" lon="-3.33746">
        <ele>51</ele>
        <time>2015-01-30T11:32:55.238Z</time>
      </trkpt>
      <trkpt lat="47.77409" lon="-3.33737">
        <ele>52</ele>
        <time>2015-01-30T11:32:56.239Z</time>
      </trkpt>
      <trkpt lat="47.77405" lon="-3.33724">
        <ele>52</ele>
        <time>2015-01-30T11:32:57.237Z</time>
      </trkpt>
      <trkpt lat="47.774" lon="-3.33711">
        <ele>52</ele>
        <time>2015-01-30T11:32:58.239Z</time>
      </trkpt>
      <trkpt lat="47.77395" lon="-3.33701">
        <ele>52</ele>
        <time>2015-01-30T11:32:59.239Z</time>
      </trkpt>
      <trkpt lat="47.7739" lon="-3.33691">
        <ele>52</ele>
        <time>2015-01-30T11:33:00.268Z</time>
      </trkpt>
      <trkpt lat="47.77387" lon="-3.3368">
        <ele>51</ele>
        <time>2015-01-30T11:33:01.233Z</time>
      </trkpt>
      <trkpt lat="47.77383" lon="-3.33668">
        <ele>51</ele>
        <time>2015-01-30T11:33:02.239Z</time>
      </trkpt>
      <trkpt lat="47.7738" lon="-3.33661">
        <ele>52</ele>
        <time>2015-01-30T11:33:03.238Z</time>
      </trkpt>
      <trkpt lat="47.77376" lon="-3.33658">
        <ele>52</ele>
        <time>2015-01-30T11:33:04.239Z</time>
      </trkpt>
      <trkpt lat="47.77371" lon="-3.33659">
        <ele>53</ele>
        <time>2015-01-30T11:33:05.231Z</time>
      </trkpt>
      <trkpt lat="47.77366" lon="-3.33655">
        <ele>54</ele>
        <time>2015-01-30T11:33:06.238Z</time>
      </trkpt>
      <trkpt lat="47.77366" lon="-3.3367">
        <ele>49</ele>
        <time>2015-01-30T11:33:07.229Z</time>
      </trkpt>
      <trkpt lat="47.77359" lon="-3.33677">
        <ele>48</ele>
        <time>2015-01-30T11:33:09.240Z</time>
      </trkpt>
      <trkpt lat="47.77356" lon="-3.33678">
        <ele>49</ele>
        <time>2015-01-30T11:33:10.239Z</time>
      </trkpt>
      <trkpt lat="47.77351" lon="-3.33668">
        <ele>58</ele>
        <time>2015-01-30T11:33:22.237Z</time>
      </trkpt>
      <trkpt lat="47.77349" lon="-3.33667">
        <ele>57</ele>
        <time>2015-01-30T11:33:23.239Z</time>
      </trkpt>
      <trkpt lat="47.77341" lon="-3.33662">
        <ele>63</ele>
        <time>2015-01-30T11:33:27.240Z</time>
      </trkpt>
      <trkpt lat="47.77339" lon="-3.33662">
        <ele>64</ele>
        <time>2015-01-30T11:33:28.238Z</time>
      </trkpt>
      <trkpt lat="47.77331" lon="-3.33658">
        <ele>65</ele>
        <time>2015-01-30T11:33:34.296Z</time>
      </trkpt>
      <trkpt lat="47.7733" lon="-3.33656">
        <ele>65</ele>
        <time>2015-01-30T11:33:35.239Z</time>
      </trkpt>
      <trkpt lat="47.77327" lon="-3.33645">
        <ele>67</ele>
        <time>2015-01-30T11:33:42.277Z</time>
      </trkpt>
      <trkpt lat="47.77327" lon="-3.33643">
        <ele>66</ele>
        <time>2015-01-30T11:33:43.236Z</time>
      </trkpt>
      <trkpt lat="47.77321" lon="-3.33634">
        <ele>51</ele>
        <time>2015-01-30T11:34:00.237Z</time>
      </trkpt>
      <trkpt lat="47.77319" lon="-3.33634">
        <ele>51</ele>
        <time>2015-01-30T11:34:01.240Z</time>
      </trkpt>
      <trkpt lat="47.77323" lon="-3.33644">
        <ele>56</ele>
        <time>2015-01-30T11:34:26.316Z</time>
      </trkpt>
      <trkpt lat="47.77324" lon="-3.33646">
        <ele>57</ele>
        <time>2015-01-30T11:34:27.332Z</time>
      </trkpt>
      <trkpt lat="47.77329" lon="-3.33656">
        <ele>61</ele>
        <time>2015-01-30T11:34:35.302Z</time>
      </trkpt>
      <trkpt lat="47.7733" lon="-3.33656">
        <ele>60</ele>
        <time>2015-01-30T11:34:36.237Z</time>
      </trkpt>
      <trkpt lat="47.77337" lon="-3.33664">
        <ele>60</ele>
        <time>2015-01-30T11:34:45.311Z</time>
      </trkpt>
      <trkpt lat="47.77338" lon="-3.33664">
        <ele>60</ele>
        <time>2015-01-30T11:34:46.273Z</time>
      </trkpt>
      <trkpt lat="47.77347" lon="-3.33665">
        <ele>57</ele>
        <time>2015-01-30T11:34:54.299Z</time>
      </trkpt>
      <trkpt lat="47.77349" lon="-3.33663">
        <ele>58</ele>
        <time>2015-01-30T11:34:55.257Z</time>
      </trkpt>
      <trkpt lat="47.77357" lon="-3.3366">
        <ele>56</ele>
        <time>2015-01-30T11:35:00.311Z</time>
      </trkpt>
      <trkpt lat="47.77358" lon="-3.3366">
        <ele>57</ele>
        <time>2015-01-30T11:35:01.302Z</time>
      </trkpt>
      <trkpt lat="47.77362" lon="-3.33648">
        <ele>57</ele>
        <time>2015-01-30T11:35:42.235Z</time>
      </trkpt>
      <trkpt lat="47.77365" lon="-3.33645">
        <ele>56</ele>
        <time>2015-01-30T11:35:43.237Z</time>
      </trkpt>
      <trkpt lat="47.77369" lon="-3.33638">
        <ele>49</ele>
        <time>2015-01-30T11:35:51.235Z</time>
      </trkpt>
      <trkpt lat="47.77369" lon="-3.33633">
        <ele>49</ele>
        <time>2015-01-30T11:35:52.236Z</time>
      </trkpt>
      <trkpt lat="47.77369" lon="-3.33623">
        <ele>50</ele>
        <time>2015-01-30T11:35:54.238Z</time>
      </trkpt>
      <trkpt lat="47.77368" lon="-3.33617">
        <ele>49</ele>
        <time>2015-01-30T11:35:55.238Z</time>
      </trkpt>
      <trkpt lat="47.77367" lon="-3.33609">
        <ele>49</ele>
        <time>2015-01-30T11:35:56.238Z</time>
      </trkpt>
      <trkpt lat="47.77365" lon="-3.33595">
        <ele>49</ele>
        <time>2015-01-30T11:35:57.238Z</time>
      </trkpt>
      <trkpt lat="47.77364" lon="-3.33584">
        <ele>49</ele>
        <time>2015-01-30T11:35:58.236Z</time>
      </trkpt>
      <trkpt lat="47.77362" lon="-3.33573">
        <ele>49</ele>
        <time>2015-01-30T11:35:59.236Z</time>
      </trkpt>
      <trkpt lat="47.77347" lon="-3.33554">
        <ele>47</ele>
        <time>2015-01-30T11:36:00.261Z</time>
      </trkpt>
      <trkpt lat="47.77345" lon="-3.33541">
        <ele>46</ele>
        <time>2015-01-30T11:36:01.237Z</time>
      </trkpt>
      <trkpt lat="47.77341" lon="-3.33527">
        <ele>47</ele>
        <time>2015-01-30T11:36:02.254Z</time>
      </trkpt>
      <trkpt lat="47.77334" lon="-3.33516">
        <ele>47</ele>
        <time>2015-01-30T11:36:03.238Z</time>
      </trkpt>
      <trkpt lat="47.77328" lon="-3.33505">
        <ele>47</ele>
        <time>2015-01-30T11:36:04.237Z</time>
      </trkpt>
      <trkpt lat="47.77322" lon="-3.33498">
        <ele>46</ele>
        <time>2015-01-30T11:36:05.266Z</time>
      </trkpt>
      <trkpt lat="47.77315" lon="-3.3349">
        <ele>47</ele>
        <time>2015-01-30T11:36:06.241Z</time>
      </trkpt>
      <trkpt lat="47.77313" lon="-3.33481">
        <ele>48</ele>
        <time>2015-01-30T11:36:07.249Z</time>
      </trkpt>
      <trkpt lat="47.77308" lon="-3.3347">
        <ele>47</ele>
        <time>2015-01-30T11:36:08.234Z</time>
      </trkpt>
      <trkpt lat="47.77306" lon="-3.33461">
        <ele>48</ele>
        <time>2015-01-30T11:36:09.273Z</time>
      </trkpt>
      <trkpt lat="47.773" lon="-3.33456">
        <ele>47</ele>
        <time>2015-01-30T11:36:10.285Z</time>
      </trkpt>
      <trkpt lat="47.77301" lon="-3.33445">
        <ele>53</ele>
        <time>2015-01-30T11:36:16.297Z</time>
      </trkpt>
      <trkpt lat="47.77305" lon="-3.33443">
        <ele>56</ele>
        <time>2015-01-30T11:36:17.252Z</time>
      </trkpt>
      <trkpt lat="47.77309" lon="-3.33439">
        <ele>55</ele>
        <time>2015-01-30T11:36:18.240Z</time>
      </trkpt>
      <trkpt lat="47.77315" lon="-3.33433">
        <ele>55</ele>
        <time>2015-01-30T11:36:19.238Z</time>
      </trkpt>
      <trkpt lat="47.77319" lon="-3.33429">
        <ele>55</ele>
        <time>2015-01-30T11:36:20.275Z</time>
      </trkpt>
      <trkpt lat="47.77325" lon="-3.33426">
        <ele>55</ele>
        <time>2015-01-30T11:36:21.277Z</time>
      </trkpt>
      <trkpt lat="47.77329" lon="-3.33421">
        <ele>55</ele>
        <time>2015-01-30T11:36:22.249Z</time>
      </trkpt>
      <trkpt lat="47.77333" lon="-3.33417">
        <ele>55</ele>
        <time>2015-01-30T11:36:23.292Z</time>
      </trkpt>
      <trkpt lat="47.77338" lon="-3.33413">
        <ele>56</ele>
        <time>2015-01-30T11:36:24.236Z</time>
      </trkpt>
      <trkpt lat="47.77341" lon="-3.33406">
        <ele>57</ele>
        <time>2015-01-30T11:36:25.274Z</time>
      </trkpt>
      <trkpt lat="47.77346" lon="-3.33403">
        <ele>57</ele>
        <time>2015-01-30T11:36:26.284Z</time>
      </trkpt>
      <trkpt lat="47.77352" lon="-3.33404">
        <ele>55</ele>
        <time>2015-01-30T11:36:27.307Z</time>
      </trkpt>
      <trkpt lat="47.77357" lon="-3.3341">
        <ele>56</ele>
        <time>2015-01-30T11:36:29.280Z</time>
      </trkpt>
      <trkpt lat="47.77359" lon="-3.33413">
        <ele>58</ele>
        <time>2015-01-30T11:36:30.262Z</time>
      </trkpt>
      <trkpt lat="47.77362" lon="-3.33417">
        <ele>59</ele>
        <time>2015-01-30T11:36:31.236Z</time>
      </trkpt>
      <trkpt lat="47.77367" lon="-3.33418">
        <ele>59</ele>
        <time>2015-01-30T11:36:32.244Z</time>
      </trkpt>
      <trkpt lat="47.77377" lon="-3.33419">
        <ele>59</ele>
        <time>2015-01-30T11:36:33.237Z</time>
      </trkpt>
      <trkpt lat="47.77381" lon="-3.33421">
        <ele>59</ele>
        <time>2015-01-30T11:36:34.253Z</time>
      </trkpt>
      <trkpt lat="47.77389" lon="-3.33421">
        <ele>59</ele>
        <time>2015-01-30T11:36:35.265Z</time>
      </trkpt>
      <trkpt lat="47.77395" lon="-3.33422">
        <ele>59</ele>
        <time>2015-01-30T11:36:36.238Z</time>
      </trkpt>
      <trkpt lat="47.77402" lon="-3.33429">
        <ele>58</ele>
        <time>2015-01-30T11:36:37.236Z</time>
      </trkpt>
      <trkpt lat="47.77407" lon="-3.33438">
        <ele>56</ele>
        <time>2015-01-30T11:36:39.261Z</time>
      </trkpt>
      <trkpt lat="47.77417" lon="-3.33443">
        <ele>57</ele>
        <time>2015-01-30T11:36:40.252Z</time>
      </trkpt>
      <trkpt lat="47.77419" lon="-3.33453">
        <ele>57</ele>
        <time>2015-01-30T11:36:43.235Z</time>
      </trkpt>
      <trkpt lat="47.77415" lon="-3.33458">
        <ele>55</ele>
        <time>2015-01-30T11:36:44.237Z</time>
      </trkpt>
      <trkpt lat="47.77421" lon="-3.33467">
        <ele>61</ele>
        <time>2015-01-30T11:37:01.237Z</time>
      </trkpt>
      <trkpt lat="47.77422" lon="-3.33467">
        <ele>61</ele>
        <time>2015-01-30T11:37:02.239Z</time>
      </trkpt>
      <trkpt lat="47.77427" lon="-3.33476">
        <ele>57</ele>
        <time>2015-01-30T11:37:06.236Z</time>
      </trkpt>
      <trkpt lat="47.77428" lon="-3.3348">
        <ele>59</ele>
        <time>2015-01-30T11:37:07.300Z</time>
      </trkpt>
      <trkpt lat="47.77434" lon="-3.33486">
        <ele>56</ele>
        <time>2015-01-30T11:37:15.238Z</time>
      </trkpt>
      <trkpt lat="47.77436" lon="-3.33483">
        <ele>55</ele>
        <time>2015-01-30T11:37:16.289Z</time>
      </trkpt>
      <trkpt lat="47.77441" lon="-3.33493">
        <ele>59</ele>
        <time>2015-01-30T11:37:48.313Z</time>
      </trkpt>
      <trkpt lat="47.7744" lon="-3.33495">
        <ele>58</ele>
        <time>2015-01-30T11:37:49.283Z</time>
      </trkpt>
      <trkpt lat="47.77446" lon="-3.33498">
        <ele>56</ele>
        <time>2015-01-30T11:38:02.304Z</time>
      </trkpt>
      <trkpt lat="47.7745" lon="-3.33503">
        <ele>56</ele>
        <time>2015-01-30T11:38:03.234Z</time>
      </trkpt>
      <trkpt lat="47.77445" lon="-3.33492">
        <ele>60</ele>
        <time>2015-01-30T11:39:24.232Z</time>
      </trkpt>
      <trkpt lat="47.77444" lon="-3.33491">
        <ele>60</ele>
        <time>2015-01-30T11:39:25.233Z</time>
      </trkpt>
      <trkpt lat="47.77441" lon="-3.3348">
        <ele>62</ele>
        <time>2015-01-30T11:39:30.236Z</time>
      </trkpt>
      <trkpt lat="47.7744" lon="-3.33477">
        <ele>62</ele>
        <time>2015-01-30T11:39:31.234Z</time>
      </trkpt>
      <trkpt lat="47.77448" lon="-3.3348">
        <ele>57</ele>
        <time>2015-01-30T11:39:40.234Z</time>
      </trkpt>
      <trkpt lat="47.7745" lon="-3.33484">
        <ele>57</ele>
        <time>2015-01-30T11:39:41.238Z</time>
      </trkpt>
      <trkpt lat="47.77455" lon="-3.33493">
        <ele>59</ele>
        <time>2015-01-30T11:39:43.234Z</time>
      </trkpt>
      <trkpt lat="47.77458" lon="-3.33496">
        <ele>60</ele>
        <time>2015-01-30T11:39:44.233Z</time>
      </trkpt>
      <trkpt lat="47.77451" lon="-3.33488">
        <ele>52</ele>
        <time>2015-01-30T11:40:28.233Z</time>
      </trkpt>
      <trkpt lat="47.77449" lon="-3.33486">
        <ele>51</ele>
        <time>2015-01-30T11:40:29.324Z</time>
      </trkpt>
      <trkpt lat="47.77444" lon="-3.33482">
        <ele>47</ele>
        <time>2015-01-30T11:40:31.296Z</time>
      </trkpt>
      <trkpt lat="47.77439" lon="-3.33478">
        <ele>49</ele>
        <time>2015-01-30T11:40:32.240Z</time>
      </trkpt>
      <trkpt lat="47.77434" lon="-3.33472">
        <ele>49</ele>
        <time>2015-01-30T11:40:33.261Z</time>
      </trkpt>
      <trkpt lat="47.77429" lon="-3.33465">
        <ele>46</ele>
        <time>2015-01-30T11:40:34.238Z</time>
      </trkpt>
      <trkpt lat="47.77416" lon="-3.33451">
        <ele>46</ele>
        <time>2015-01-30T11:40:35.298Z</time>
      </trkpt>
      <trkpt lat="47.77411" lon="-3.33447">
        <ele>46</ele>
        <time>2015-01-30T11:40:36.250Z</time>
      </trkpt>
      <trkpt lat="47.77404" lon="-3.33448">
        <ele>47</ele>
        <time>2015-01-30T11:40:37.237Z</time>
      </trkpt>
      <trkpt lat="47.77397" lon="-3.33444">
        <ele>46</ele>
        <time>2015-01-30T11:40:38.275Z</time>
      </trkpt>
      <trkpt lat="47.7739" lon="-3.33442">
        <ele>45</ele>
        <time>2015-01-30T11:40:39.255Z</time>
      </trkpt>
      <trkpt lat="47.77382" lon="-3.33434">
        <ele>46</ele>
        <time>2015-01-30T11:40:40.233Z</time>
      </trkpt>
      <trkpt lat="47.77371" lon="-3.33429">
        <ele>46</ele>
        <time>2015-01-30T11:40:41.237Z</time>
      </trkpt>
      <trkpt lat="47.77368" lon="-3.3342">
        <ele>45</ele>
        <time>2015-01-30T11:40:42.244Z</time>
      </trkpt>
      <trkpt lat="47.7736" lon="-3.33415">
        <ele>46</ele>
        <time>2015-01-30T11:40:43.233Z</time>
      </trkpt>
      <trkpt lat="47.77353" lon="-3.33408">
        <ele>45</ele>
        <time>2015-01-30T11:40:45.234Z</time>
      </trkpt>
      <trkpt lat="47.77351" lon="-3.33423">
        <ele>47</ele>
        <time>2015-01-30T11:40:46.233Z</time>
      </trkpt>
      <trkpt lat="47.77341" lon="-3.33427">
        <ele>47</ele>
        <time>2015-01-30T11:40:47.288Z</time>
      </trkpt>
      <trkpt lat="47.77337" lon="-3.33429">
        <ele>46</ele>
        <time>2015-01-30T11:40:48.232Z</time>
      </trkpt>
      <trkpt lat="47.77331" lon="-3.33427">
        <ele>47</ele>
        <time>2015-01-30T11:40:49.258Z</time>
      </trkpt>
      <trkpt lat="47.77324" lon="-3.33432">
        <ele>48</ele>
        <time>2015-01-30T11:40:50.235Z</time>
      </trkpt>
      <trkpt lat="47.77317" lon="-3.33435">
        <ele>48</ele>
        <time>2015-01-30T11:40:51.286Z</time>
      </trkpt>
      <trkpt lat="47.77311" lon="-3.33441">
        <ele>50</ele>
        <time>2015-01-30T11:40:52.291Z</time>
      </trkpt>
      <trkpt lat="47.77309" lon="-3.33444">
        <ele>51</ele>
        <time>2015-01-30T11:40:53.292Z</time>
      </trkpt>
      <trkpt lat="47.77302" lon="-3.3345">
        <ele>56</ele>
        <time>2015-01-30T11:40:56.281Z</time>
      </trkpt>
      <trkpt lat="47.77302" lon="-3.3346">
        <ele>58</ele>
        <time>2015-01-30T11:40:57.238Z</time>
      </trkpt>
      <trkpt lat="47.77304" lon="-3.33467">
        <ele>57</ele>
        <time>2015-01-30T11:40:58.285Z</time>
      </trkpt>
      <trkpt lat="47.77304" lon="-3.33476">
        <ele>56</ele>
        <time>2015-01-30T11:40:59.237Z</time>
      </trkpt>
      <trkpt lat="47.77306" lon="-3.33484">
        <ele>57</ele>
        <time>2015-01-30T11:41:00.256Z</time>
      </trkpt>
      <trkpt lat="47.7731" lon="-3.33494">
        <ele>55</ele>
        <time>2015-01-30T11:41:01.232Z</time>
      </trkpt>
      <trkpt lat="47.77318" lon="-3.335">
        <ele>55</ele>
        <time>2015-01-30T11:41:02.233Z</time>
      </trkpt>
      <trkpt lat="47.77322" lon="-3.33511">
        <ele>54</ele>
        <time>2015-01-30T11:41:03.233Z</time>
      </trkpt>
      <trkpt lat="47.77327" lon="-3.3352">
        <ele>55</ele>
        <time>2015-01-30T11:41:04.231Z</time>
      </trkpt>
      <trkpt lat="47.77333" lon="-3.33526">
        <ele>55</ele>
        <time>2015-01-30T11:41:05.281Z</time>
      </trkpt>
      <trkpt lat="47.77336" lon="-3.33539">
        <ele>57</ele>
        <time>2015-01-30T11:41:06.233Z</time>
      </trkpt>
      <trkpt lat="47.77343" lon="-3.33557">
        <ele>57</ele>
        <time>2015-01-30T11:41:07.234Z</time>
      </trkpt>
      <trkpt lat="47.77351" lon="-3.33571">
        <ele>57</ele>
        <time>2015-01-30T11:41:08.232Z</time>
      </trkpt>
      <trkpt lat="47.77365" lon="-3.33577">
        <ele>59</ele>
        <time>2015-01-30T11:41:09.262Z</time>
      </trkpt>
      <trkpt lat="47.77371" lon="-3.3359">
        <ele>57</ele>
        <time>2015-01-30T11:41:10.232Z</time>
      </trkpt>
      <trkpt lat="47.77378" lon="-3.33604">
        <ele>57</ele>
        <time>2015-01-30T11:41:11.271Z</time>
      </trkpt>
      <trkpt lat="47.77379" lon="-3.33623">
        <ele>57</ele>
        <time>2015-01-30T11:41:12.231Z</time>
      </trkpt>
      <trkpt lat="47.77382" lon="-3.33643">
        <ele>58</ele>
        <time>2015-01-30T11:41:13.284Z</time>
      </trkpt>
      <trkpt lat="47.77385" lon="-3.33656">
        <ele>59</ele>
        <time>2015-01-30T11:41:14.232Z</time>
      </trkpt>
      <trkpt lat="47.77393" lon="-3.33668">
        <ele>59</ele>
        <time>2015-01-30T11:41:15.234Z</time>
      </trkpt>
      <trkpt lat="47.77398" lon="-3.33678">
        <ele>58</ele>
        <time>2015-01-30T11:41:16.271Z</time>
      </trkpt>
      <trkpt lat="47.77407" lon="-3.33688">
        <ele>59</ele>
        <time>2015-01-30T11:41:17.272Z</time>
      </trkpt>
      <trkpt lat="47.77403" lon="-3.33708">
        <ele>58</ele>
        <time>2015-01-30T11:41:18.291Z</time>
      </trkpt>
      <trkpt lat="47.774" lon="-3.33727">
        <ele>61</ele>
        <time>2015-01-30T11:41:19.231Z</time>
      </trkpt>
      <trkpt lat="47.77411" lon="-3.33737">
        <ele>57</ele>
        <time>2015-01-30T11:41:20.269Z</time>
      </trkpt>
      <trkpt lat="47.77418" lon="-3.33744">
        <ele>58</ele>
        <time>2015-01-30T11:41:21.231Z</time>
      </trkpt>
      <trkpt lat="47.77419" lon="-3.33761">
        <ele>58</ele>
        <time>2015-01-30T11:41:22.283Z</time>
      </trkpt>
      <trkpt lat="47.77425" lon="-3.33764">
        <ele>56</ele>
        <time>2015-01-30T11:41:23.231Z</time>
      </trkpt>
      <trkpt lat="47.7743" lon="-3.33769">
        <ele>55</ele>
        <time>2015-01-30T11:41:24.231Z</time>
      </trkpt>
      <trkpt lat="47.7743" lon="-3.3378">
        <ele>54</ele>
        <time>2015-01-30T11:41:26.242Z</time>
      </trkpt>
      <trkpt lat="47.77432" lon="-3.33784">
        <ele>54</ele>
        <time>2015-01-30T11:41:27.243Z</time>
      </trkpt>
      <trkpt lat="47.77431" lon="-3.33787">
        <ele>54</ele>
        <time>2015-01-30T11:41:32.231Z</time>
      </trkpt>
      <trkpt lat="47.77434" lon="-3.33804">
        <ele>55</ele>
        <time>2015-01-30T11:41:33.231Z</time>
      </trkpt>
      <trkpt lat="47.77439" lon="-3.33813">
        <ele>55</ele>
        <time>2015-01-30T11:41:35.231Z</time>
      </trkpt>
      <trkpt lat="47.7744" lon="-3.33814">
        <ele>56</ele>
        <time>2015-01-30T11:41:36.274Z</time>
      </trkpt>
      <trkpt lat="47.77445" lon="-3.3382">
        <ele>58</ele>
        <time>2015-01-30T11:41:37.232Z</time>
      </trkpt>
      <trkpt lat="47.77449" lon="-3.33821">
        <ele>58</ele>
        <time>2015-01-30T11:41:38.283Z</time>
      </trkpt>
      <trkpt lat="47.77457" lon="-3.33823">
        <ele>59</ele>
        <time>2015-01-30T11:41:40.275Z</time>
      </trkpt>
      <trkpt lat="47.77461" lon="-3.33815">
        <ele>57</ele>
        <time>2015-01-30T11:41:41.264Z</time>
      </trkpt>
      <trkpt lat="47.77467" lon="-3.33808">
        <ele>58</ele>
        <time>2015-01-30T11:41:43.291Z</time>
      </trkpt>
      <trkpt lat="47.7747" lon="-3.33802">
        <ele>58</ele>
        <time>2015-01-30T11:41:44.230Z</time>
      </trkpt>
      <trkpt lat="47.77476" lon="-3.33794">
        <ele>57</ele>
        <time>2015-01-30T11:41:46.229Z</time>
      </trkpt>
      <trkpt lat="47.77477" lon="-3.33789">
        <ele>56</ele>
        <time>2015-01-30T11:41:47.282Z</time>
      </trkpt>
      <trkpt lat="47.7748" lon="-3.33779">
        <ele>55</ele>
        <time>2015-01-30T11:41:50.238Z</time>
      </trkpt>
      <trkpt lat="47.77481" lon="-3.33776">
        <ele>56</ele>
        <time>2015-01-30T11:41:51.232Z</time>
      </trkpt>
      <trkpt lat="47.77475" lon="-3.33783">
        <ele>48</ele>
        <time>2015-01-30T11:45:29.229Z</time>
      </trkpt>
      <trkpt lat="47.77475" lon="-3.33789">
        <ele>49</ele>
        <time>2015-01-30T11:45:30.229Z</time>
      </trkpt>
      <trkpt lat="47.77475" lon="-3.338">
        <ele>49</ele>
        <time>2015-01-30T11:45:32.230Z</time>
      </trkpt>
      <trkpt lat="47.77478" lon="-3.33804">
        <ele>48</ele>
        <time>2015-01-30T11:45:33.228Z</time>
      </trkpt>
      <trkpt lat="47.77485" lon="-3.33809">
        <ele>47</ele>
        <time>2015-01-30T11:45:35.226Z</time>
      </trkpt>
      <trkpt lat="47.77492" lon="-3.33814">
        <ele>48</ele>
        <time>2015-01-30T11:45:36.229Z</time>
      </trkpt>
      <trkpt lat="47.77504" lon="-3.3382">
        <ele>45</ele>
        <time>2015-01-30T11:45:37.228Z</time>
      </trkpt>
      <trkpt lat="47.7751" lon="-3.33825">
        <ele>46</ele>
        <time>2015-01-30T11:45:38.228Z</time>
      </trkpt>
      <trkpt lat="47.7752" lon="-3.33826">
        <ele>44</ele>
        <time>2015-01-30T11:45:39.228Z</time>
      </trkpt>
      <trkpt lat="47.77525" lon="-3.3383">
        <ele>45</ele>
        <time>2015-01-30T11:45:40.229Z</time>
      </trkpt>
      <trkpt lat="47.7753" lon="-3.33832">
        <ele>45</ele>
        <time>2015-01-30T11:45:41.228Z</time>
      </trkpt>
      <trkpt lat="47.77536" lon="-3.33835">
        <ele>43</ele>
        <time>2015-01-30T11:45:42.227Z</time>
      </trkpt>
      <trkpt lat="47.77542" lon="-3.33836">
        <ele>44</ele>
        <time>2015-01-30T11:45:43.230Z</time>
      </trkpt>
      <trkpt lat="47.7755" lon="-3.33837">
        <ele>41</ele>
        <time>2015-01-30T11:45:45.229Z</time>
      </trkpt>
      <trkpt lat="47.77551" lon="-3.33836">
        <ele>41</ele>
        <time>2015-01-30T11:45:46.226Z</time>
      </trkpt>
      <trkpt lat="47.77554" lon="-3.33849">
        <ele>45</ele>
        <time>2015-01-30T11:46:21.231Z</time>
      </trkpt>
      <trkpt lat="47.77555" lon="-3.33849">
        <ele>44</ele>
        <time>2015-01-30T11:46:22.230Z</time>
      </trkpt>
      <trkpt lat="47.77563" lon="-3.33849">
        <ele>44</ele>
        <time>2015-01-30T11:46:28.309Z</time>
      </trkpt>
      <trkpt lat="47.77564" lon="-3.33849">
        <ele>45</ele>
        <time>2015-01-30T11:46:29.304Z</time>
      </trkpt>
      <trkpt lat="47.77556" lon="-3.33853">
        <ele>48</ele>
        <time>2015-01-30T11:46:51.228Z</time>
      </trkpt>
      <trkpt lat="47.77555" lon="-3.33853">
        <ele>48</ele>
        <time>2015-01-30T11:46:52.230Z</time>
      </trkpt>
      <trkpt lat="47.77562" lon="-3.33857">
        <ele>47</ele>
        <time>2015-01-30T11:47:01.234Z</time>
      </trkpt>
      <trkpt lat="47.77567" lon="-3.33858">
        <ele>46</ele>
        <time>2015-01-30T11:47:02.236Z</time>
      </trkpt>
      <trkpt lat="47.77576" lon="-3.3386">
        <ele>46</ele>
        <time>2015-01-30T11:47:03.318Z</time>
      </trkpt>
      <trkpt lat="47.77582" lon="-3.3386">
        <ele>46</ele>
        <time>2015-01-30T11:47:04.230Z</time>
      </trkpt>
      <trkpt lat="47.77589" lon="-3.3386">
        <ele>46</ele>
        <time>2015-01-30T11:47:05.333Z</time>
      </trkpt>
      <trkpt lat="47.77597" lon="-3.33859">
        <ele>46</ele>
        <time>2015-01-30T11:47:06.227Z</time>
      </trkpt>
      <trkpt lat="47.77606" lon="-3.33862">
        <ele>45</ele>
        <time>2015-01-30T11:47:07.327Z</time>
      </trkpt>
      <trkpt lat="47.77614" lon="-3.33861">
        <ele>46</ele>
        <time>2015-01-30T11:47:08.312Z</time>
      </trkpt>
      <trkpt lat="47.77622" lon="-3.33861">
        <ele>44</ele>
        <time>2015-01-30T11:47:09.303Z</time>
      </trkpt>
      <trkpt lat="47.77628" lon="-3.33859">
        <ele>44</ele>
        <time>2015-01-30T11:47:10.246Z</time>
      </trkpt>
      <trkpt lat="47.77635" lon="-3.3386">
        <ele>43</ele>
        <time>2015-01-30T11:47:11.250Z</time>
      </trkpt>
      <trkpt lat="47.77642" lon="-3.33863">
        <ele>42</ele>
        <time>2015-01-30T11:47:19.229Z</time>
      </trkpt>
      <trkpt lat="47.77644" lon="-3.33864">
        <ele>41</ele>
        <time>2015-01-30T11:47:20.229Z</time>
      </trkpt>
      <trkpt lat="47.77653" lon="-3.33867">
        <ele>44</ele>
        <time>2015-01-30T11:47:28.229Z</time>
      </trkpt>
      <trkpt lat="47.77653" lon="-3.33867">
        <ele>44</ele>
        <time>2015-01-30T11:47:29.226Z</time>
      </trkpt>
      <trkpt lat="47.77662" lon="-3.33863">
        <ele>48</ele>
        <time>2015-01-30T11:48:12.238Z</time>
      </trkpt>
      <trkpt lat="47.77662" lon="-3.33862">
        <ele>48</ele>
        <time>2015-01-30T11:48:13.229Z</time>
      </trkpt>
      <trkpt lat="47.77654" lon="-3.33865">
        <ele>52</ele>
        <time>2015-01-30T11:48:32.227Z</time>
      </trkpt>
      <trkpt lat="47.77652" lon="-3.33865">
        <ele>51</ele>
        <time>2015-01-30T11:48:33.229Z</time>
      </trkpt>
      <trkpt lat="47.77643" lon="-3.33864">
        <ele>52</ele>
        <time>2015-01-30T11:48:54.228Z</time>
      </trkpt>
      <trkpt lat="47.77643" lon="-3.33864">
        <ele>52</ele>
        <time>2015-01-30T11:48:55.230Z</time>
      </trkpt>
      <trkpt lat="47.77649" lon="-3.33869">
        <ele>54</ele>
        <time>2015-01-30T11:49:01.228Z</time>
      </trkpt>
      <trkpt lat="47.77653" lon="-3.33871">
        <ele>54</ele>
        <time>2015-01-30T11:49:02.228Z</time>
      </trkpt>
      <trkpt lat="47.7766" lon="-3.33873">
        <ele>54</ele>
        <time>2015-01-30T11:49:03.226Z</time>
      </trkpt>
      <trkpt lat="47.77667" lon="-3.33873">
        <ele>53</ele>
        <time>2015-01-30T11:49:04.228Z</time>
      </trkpt>
      <trkpt lat="47.77674" lon="-3.33874">
        <ele>54</ele>
        <time>2015-01-30T11:49:05.230Z</time>
      </trkpt>
      <trkpt lat="47.77681" lon="-3.33875">
        <ele>53</ele>
        <time>2015-01-30T11:49:06.228Z</time>
      </trkpt>
      <trkpt lat="47.7769" lon="-3.33878">
        <ele>52</ele>
        <time>2015-01-30T11:49:07.234Z</time>
      </trkpt>
      <trkpt lat="47.77697" lon="-3.33879">
        <ele>52</ele>
        <time>2015-01-30T11:49:08.226Z</time>
      </trkpt>
      <trkpt lat="47.77703" lon="-3.33879">
        <ele>51</ele>
        <time>2015-01-30T11:49:09.226Z</time>
      </trkpt>
      <trkpt lat="47.77709" lon="-3.3388">
        <ele>51</ele>
        <time>2015-01-30T11:49:10.226Z</time>
      </trkpt>
      <trkpt lat="47.77714" lon="-3.33878">
        <ele>51</ele>
        <time>2015-01-30T11:49:11.227Z</time>
      </trkpt>
      <trkpt lat="47.77719" lon="-3.33873">
        <ele>52</ele>
        <time>2015-01-30T11:49:12.227Z</time>
      </trkpt>
      <trkpt lat="47.77723" lon="-3.33867">
        <ele>52</ele>
        <time>2015-01-30T11:49:13.225Z</time>
      </trkpt>
      <trkpt lat="47.77725" lon="-3.3386">
        <ele>52</ele>
        <time>2015-01-30T11:49:14.226Z</time>
      </trkpt>
      <trkpt lat="47.77726" lon="-3.33847">
        <ele>51</ele>
        <time>2015-01-30T11:49:16.228Z</time>
      </trkpt>
      <trkpt lat="47.77724" lon="-3.33841">
        <ele>51</ele>
        <time>2015-01-30T11:49:17.225Z</time>
      </trkpt>
      <trkpt lat="47.77721" lon="-3.3383">
        <ele>51</ele>
        <time>2015-01-30T11:49:19.225Z</time>
      </trkpt>
      <trkpt lat="47.77722" lon="-3.33824">
        <ele>50</ele>
        <time>2015-01-30T11:49:20.223Z</time>
      </trkpt>
      <trkpt lat="47.77726" lon="-3.33815">
        <ele>49</ele>
        <time>2015-01-30T11:49:22.231Z</time>
      </trkpt>
      <trkpt lat="47.77729" lon="-3.33812">
        <ele>49</ele>
        <time>2015-01-30T11:49:23.226Z</time>
      </trkpt>
      <trkpt lat="47.77735" lon="-3.33805">
        <ele>50</ele>
        <time>2015-01-30T11:49:25.227Z</time>
      </trkpt>
      <trkpt lat="47.77738" lon="-3.33802">
        <ele>50</ele>
        <time>2015-01-30T11:49:26.235Z</time>
      </trkpt>
      <trkpt lat="47.77745" lon="-3.33797">
        <ele>50</ele>
        <time>2015-01-30T11:49:29.227Z</time>
      </trkpt>
      <trkpt lat="47.77746" lon="-3.33796">
        <ele>49</ele>
        <time>2015-01-30T11:49:30.226Z</time>
      </trkpt>
      <trkpt lat="47.77738" lon="-3.33799">
        <ele>50</ele>
        <time>2015-01-30T11:49:39.297Z</time>
      </trkpt>
      <trkpt lat="47.77736" lon="-3.33799">
        <ele>49</ele>
        <time>2015-01-30T11:49:40.244Z</time>
      </trkpt>
      <trkpt lat="47.77728" lon="-3.33799">
        <ele>50</ele>
        <time>2015-01-30T11:49:46.224Z</time>
      </trkpt>
      <trkpt lat="47.77727" lon="-3.338">
        <ele>51</ele>
        <time>2015-01-30T11:49:47.225Z</time>
      </trkpt>
      <trkpt lat="47.77729" lon="-3.33812">
        <ele>53</ele>
        <time>2015-01-30T11:50:08.228Z</time>
      </trkpt>
      <trkpt lat="47.77731" lon="-3.33817">
        <ele>51</ele>
        <time>2015-01-30T11:50:09.228Z</time>
      </trkpt>
      <trkpt lat="47.77739" lon="-3.33812">
        <ele>50</ele>
        <time>2015-01-30T11:50:15.225Z</time>
      </trkpt>
      <trkpt lat="47.77739" lon="-3.33811">
        <ele>50</ele>
        <time>2015-01-30T11:50:16.226Z</time>
      </trkpt>
      <trkpt lat="47.77732" lon="-3.33815">
        <ele>49</ele>
        <time>2015-01-30T11:51:20.223Z</time>
      </trkpt>
      <trkpt lat="47.7773" lon="-3.33817">
        <ele>48</ele>
        <time>2015-01-30T11:51:21.225Z</time>
      </trkpt>
      <trkpt lat="47.77723" lon="-3.33824">
        <ele>48</ele>
        <time>2015-01-30T11:51:24.224Z</time>
      </trkpt>
      <trkpt lat="47.7772" lon="-3.33827">
        <ele>49</ele>
        <time>2015-01-30T11:51:25.225Z</time>
      </trkpt>
      <trkpt lat="47.77717" lon="-3.33838">
        <ele>51</ele>
        <time>2015-01-30T11:51:28.227Z</time>
      </trkpt>
      <trkpt lat="47.77718" lon="-3.33842">
        <ele>50</ele>
        <time>2015-01-30T11:51:29.227Z</time>
      </trkpt>
      <trkpt lat="47.7772" lon="-3.33849">
        <ele>50</ele>
        <time>2015-01-30T11:51:30.226Z</time>
      </trkpt>
      <trkpt lat="47.77726" lon="-3.33861">
        <ele>49</ele>
        <time>2015-01-30T11:51:31.226Z</time>
      </trkpt>
      <trkpt lat="47.77726" lon="-3.33871">
        <ele>50</ele>
        <time>2015-01-30T11:51:32.226Z</time>
      </trkpt>
      <trkpt lat="47.7773" lon="-3.33879">
        <ele>50</ele>
        <time>2015-01-30T11:51:33.227Z</time>
      </trkpt>
      <trkpt lat="47.77733" lon="-3.33887">
        <ele>50</ele>
        <time>2015-01-30T11:51:34.226Z</time>
      </trkpt>
      <trkpt lat="47.77734" lon="-3.33898">
        <ele>50</ele>
        <time>2015-01-30T11:51:35.231Z</time>
      </trkpt>
      <trkpt lat="47.77734" lon="-3.33911">
        <ele>52</ele>
        <time>2015-01-30T11:51:36.223Z</time>
      </trkpt>
      <trkpt lat="47.77734" lon="-3.33922">
        <ele>50</ele>
        <time>2015-01-30T11:51:37.225Z</time>
      </trkpt>
      <trkpt lat="47.77732" lon="-3.33934">
        <ele>46</ele>
        <time>2015-01-30T11:51:44.222Z</time>
      </trkpt>
      <trkpt lat="47.77735" lon="-3.33944">
        <ele>47</ele>
        <time>2015-01-30T11:51:45.224Z</time>
      </trkpt>
      <trkpt lat="47.77737" lon="-3.33953">
        <ele>47</ele>
        <time>2015-01-30T11:51:46.223Z</time>
      </trkpt>
      <trkpt lat="47.77741" lon="-3.33955">
        <ele>45</ele>
        <time>2015-01-30T11:51:47.225Z</time>
      </trkpt>
      <trkpt lat="47.77745" lon="-3.33965">
        <ele>46</ele>
        <time>2015-01-30T11:51:48.223Z</time>
      </trkpt>
      <trkpt lat="47.77748" lon="-3.33977">
        <ele>48</ele>
        <time>2015-01-30T11:51:49.223Z</time>
      </trkpt>
      <trkpt lat="47.77753" lon="-3.33986">
        <ele>48</ele>
        <time>2015-01-30T11:51:50.266Z</time>
      </trkpt>
      <trkpt lat="47.77758" lon="-3.33998">
        <ele>49</ele>
        <time>2015-01-30T11:51:51.237Z</time>
      </trkpt>
      <trkpt lat="47.77761" lon="-3.34011">
        <ele>49</ele>
        <time>2015-01-30T11:51:52.223Z</time>
      </trkpt>
      <trkpt lat="47.77764" lon="-3.34025">
        <ele>49</ele>
        <time>2015-01-30T11:51:53.224Z</time>
      </trkpt>
      <trkpt lat="47.77767" lon="-3.34039">
        <ele>50</ele>
        <time>2015-01-30T11:51:54.220Z</time>
      </trkpt>
      <trkpt lat="47.77771" lon="-3.34055">
        <ele>51</ele>
        <time>2015-01-30T11:51:55.225Z</time>
      </trkpt>
      <trkpt lat="47.77776" lon="-3.34066">
        <ele>52</ele>
        <time>2015-01-30T11:51:56.223Z</time>
      </trkpt>
      <trkpt lat="47.77781" lon="-3.34078">
        <ele>52</ele>
        <time>2015-01-30T11:51:57.224Z</time>
      </trkpt>
      <trkpt lat="47.77785" lon="-3.3409">
        <ele>52</ele>
        <time>2015-01-30T11:51:58.223Z</time>
      </trkpt>
      <trkpt lat="47.77792" lon="-3.34098">
        <ele>52</ele>
        <time>2015-01-30T11:51:59.223Z</time>
      </trkpt>
      <trkpt lat="47.77797" lon="-3.34105">
        <ele>52</ele>
        <time>2015-01-30T11:52:00.223Z</time>
      </trkpt>
      <trkpt lat="47.77803" lon="-3.34112">
        <ele>53</ele>
        <time>2015-01-30T11:52:01.236Z</time>
      </trkpt>
      <trkpt lat="47.7781" lon="-3.34116">
        <ele>53</ele>
        <time>2015-01-30T11:52:02.222Z</time>
      </trkpt>
      <trkpt lat="47.77815" lon="-3.34119">
        <ele>54</ele>
        <time>2015-01-30T11:52:03.224Z</time>
      </trkpt>
      <trkpt lat="47.77819" lon="-3.34123">
        <ele>53</ele>
        <time>2015-01-30T11:52:04.227Z</time>
      </trkpt>
      <trkpt lat="47.77824" lon="-3.34124">
        <ele>53</ele>
        <time>2015-01-30T11:52:05.224Z</time>
      </trkpt>
      <trkpt lat="47.77829" lon="-3.34115">
        <ele>53</ele>
        <time>2015-01-30T11:52:07.225Z</time>
      </trkpt>
      <trkpt lat="47.7783" lon="-3.34111">
        <ele>51</ele>
        <time>2015-01-30T11:52:08.224Z</time>
      </trkpt>
      <trkpt lat="47.77826" lon="-3.34101">
        <ele>48</ele>
        <time>2015-01-30T11:52:10.233Z</time>
      </trkpt>
      <trkpt lat="47.77825" lon="-3.34098">
        <ele>49</ele>
        <time>2015-01-30T11:52:11.223Z</time>
      </trkpt>
      <trkpt lat="47.77819" lon="-3.34087">
        <ele>49</ele>
        <time>2015-01-30T11:52:23.224Z</time>
      </trkpt>
      <trkpt lat="47.77818" lon="-3.34088">
        <ele>50</ele>
        <time>2015-01-30T11:52:24.221Z</time>
      </trkpt>
      <trkpt lat="47.77823" lon="-3.34098">
        <ele>45</ele>
        <time>2015-01-30T11:52:56.221Z</time>
      </trkpt>
      <trkpt lat="47.77824" lon="-3.34101">
        <ele>44</ele>
        <time>2015-01-30T11:52:57.224Z</time>
      </trkpt>
      <trkpt lat="47.7783" lon="-3.34111">
        <ele>45</ele>
        <time>2015-01-30T11:53:00.265Z</time>
      </trkpt>
      <trkpt lat="47.77834" lon="-3.34117">
        <ele>48</ele>
        <time>2015-01-30T11:53:01.223Z</time>
      </trkpt>
      <trkpt lat="47.77837" lon="-3.34123">
        <ele>47</ele>
        <time>2015-01-30T11:53:02.224Z</time>
      </trkpt>
      <trkpt lat="47.77841" lon="-3.3413">
        <ele>48</ele>
        <time>2015-01-30T11:53:03.226Z</time>
      </trkpt>
      <trkpt lat="47.77852" lon="-3.34147">
        <ele>50</ele>
        <time>2015-01-30T11:53:04.224Z</time>
      </trkpt>
      <trkpt lat="47.7785" lon="-3.34159">
        <ele>51</ele>
        <time>2015-01-30T11:53:05.224Z</time>
      </trkpt>
      <trkpt lat="47.77851" lon="-3.34165">
        <ele>52</ele>
        <time>2015-01-30T11:53:06.227Z</time>
      </trkpt>
      <trkpt lat="47.77855" lon="-3.34171">
        <ele>51</ele>
        <time>2015-01-30T11:53:07.224Z</time>
      </trkpt>
      <trkpt lat="47.77861" lon="-3.34175">
        <ele>49</ele>
        <time>2015-01-30T11:53:08.223Z</time>
      </trkpt>
      <trkpt lat="47.77865" lon="-3.34182">
        <ele>50</ele>
        <time>2015-01-30T11:53:09.222Z</time>
      </trkpt>
      <trkpt lat="47.77868" lon="-3.34184">
        <ele>51</ele>
        <time>2015-01-30T11:53:10.222Z</time>
      </trkpt>
      <trkpt lat="47.77875" lon="-3.34189">
        <ele>51</ele>
        <time>2015-01-30T11:53:14.224Z</time>
      </trkpt>
      <trkpt lat="47.77876" lon="-3.34189">
        <ele>52</ele>
        <time>2015-01-30T11:53:15.228Z</time>
      </trkpt>
      <trkpt lat="47.77885" lon="-3.34192">
        <ele>55</ele>
        <time>2015-01-30T11:53:33.222Z</time>
      </trkpt>
      <trkpt lat="47.77886" lon="-3.34191">
        <ele>55</ele>
        <time>2015-01-30T11:53:34.225Z</time>
      </trkpt>
      <trkpt lat="47.77881" lon="-3.34201">
        <ele>58</ele>
        <time>2015-01-30T11:53:46.222Z</time>
      </trkpt>
      <trkpt lat="47.77879" lon="-3.34204">
        <ele>58</ele>
        <time>2015-01-30T11:53:47.225Z</time>
      </trkpt>
      <trkpt lat="47.77876" lon="-3.34216">
        <ele>61</ele>
        <time>2015-01-30T11:54:00.245Z</time>
      </trkpt>
      <trkpt lat="47.77878" lon="-3.34221">
        <ele>61</ele>
        <time>2015-01-30T11:54:01.224Z</time>
      </trkpt>
      <trkpt lat="47.77882" lon="-3.34232">
        <ele>60</ele>
        <time>2015-01-30T11:54:03.226Z</time>
      </trkpt>
      <trkpt lat="47.77884" lon="-3.34236">
        <ele>60</ele>
        <time>2015-01-30T11:54:04.223Z</time>
      </trkpt>
      <trkpt lat="47.77892" lon="-3.34236">
        <ele>55</ele>
        <time>2015-01-30T11:54:19.225Z</time>
      </trkpt>
      <trkpt lat="47.77894" lon="-3.34235">
        <ele>56</ele>
        <time>2015-01-30T11:54:20.223Z</time>
      </trkpt>
      <trkpt lat="47.77901" lon="-3.34229">
        <ele>54</ele>
        <time>2015-01-30T11:54:25.223Z</time>
      </trkpt>
      <trkpt lat="47.77902" lon="-3.34228">
        <ele>53</ele>
        <time>2015-01-30T11:54:26.225Z</time>
      </trkpt>
      <trkpt lat="47.77897" lon="-3.34238">
        <ele>57</ele>
        <time>2015-01-30T11:54:46.272Z</time>
      </trkpt>
      <trkpt lat="47.77896" lon="-3.34239">
        <ele>57</ele>
        <time>2015-01-30T11:54:47.236Z</time>
      </trkpt>
      <trkpt lat="47.77891" lon="-3.34248">
        <ele>59</ele>
        <time>2015-01-30T11:55:10.306Z</time>
      </trkpt>
      <trkpt lat="47.77892" lon="-3.34253">
        <ele>58</ele>
        <time>2015-01-30T11:55:11.222Z</time>
      </trkpt>
      <trkpt lat="47.77894" lon="-3.34259">
        <ele>58</ele>
        <time>2015-01-30T11:55:12.224Z</time>
      </trkpt>
      <trkpt lat="47.77894" lon="-3.34267">
        <ele>58</ele>
        <time>2015-01-30T11:55:13.215Z</time>
      </trkpt>
      <trkpt lat="47.77892" lon="-3.34274">
        <ele>61</ele>
        <time>2015-01-30T11:55:14.220Z</time>
      </trkpt>
      <trkpt lat="47.77891" lon="-3.34282">
        <ele>60</ele>
        <time>2015-01-30T11:55:15.221Z</time>
      </trkpt>
      <trkpt lat="47.77889" lon="-3.34294">
        <ele>60</ele>
        <time>2015-01-30T11:55:17.221Z</time>
      </trkpt>
      <trkpt lat="47.7789" lon="-3.343">
        <ele>60</ele>
        <time>2015-01-30T11:55:18.222Z</time>
      </trkpt>
      <trkpt lat="47.77888" lon="-3.34313">
        <ele>58</ele>
        <time>2015-01-30T11:55:20.227Z</time>
      </trkpt>
      <trkpt lat="47.77886" lon="-3.34318">
        <ele>57</ele>
        <time>2015-01-30T11:55:21.226Z</time>
      </trkpt>
      <trkpt lat="47.77882" lon="-3.34323">
        <ele>57</ele>
        <time>2015-01-30T11:55:22.224Z</time>
      </trkpt>
      <trkpt lat="47.77874" lon="-3.34332">
        <ele>56</ele>
        <time>2015-01-30T11:55:23.222Z</time>
      </trkpt>
      <trkpt lat="47.7787" lon="-3.34336">
        <ele>56</ele>
        <time>2015-01-30T11:55:24.221Z</time>
      </trkpt>
      <trkpt lat="47.77866" lon="-3.34342">
        <ele>58</ele>
        <time>2015-01-30T11:55:25.222Z</time>
      </trkpt>
      <trkpt lat="47.77863" lon="-3.34345">
        <ele>58</ele>
        <time>2015-01-30T11:55:26.221Z</time>
      </trkpt>
      <trkpt lat="47.77857" lon="-3.34349">
        <ele>58</ele>
        <time>2015-01-30T11:55:27.220Z</time>
      </trkpt>
      <trkpt lat="47.77849" lon="-3.34353">
        <ele>57</ele>
        <time>2015-01-30T11:55:29.223Z</time>
      </trkpt>
      <trkpt lat="47.77846" lon="-3.34354">
        <ele>57</ele>
        <time>2015-01-30T11:55:30.221Z</time>
      </trkpt>
      <trkpt lat="47.7784" lon="-3.34352">
        <ele>56</ele>
        <time>2015-01-30T11:55:32.222Z</time>
      </trkpt>
      <trkpt lat="47.77836" lon="-3.34352">
        <ele>57</ele>
        <time>2015-01-30T11:55:33.233Z</time>
      </trkpt>
      <trkpt lat="47.77841" lon="-3.34347">
        <ele>59</ele>
        <time>2015-01-30T11:55:36.221Z</time>
      </trkpt>
      <trkpt lat="47.77843" lon="-3.34339">
        <ele>58</ele>
        <time>2015-01-30T11:55:37.221Z</time>
      </trkpt>
      <trkpt lat="47.77845" lon="-3.34327">
        <ele>58</ele>
        <time>2015-01-30T11:55:40.248Z</time>
      </trkpt>
      <trkpt lat="47.77847" lon="-3.34325">
        <ele>55</ele>
        <time>2015-01-30T11:55:41.221Z</time>
      </trkpt>
      <trkpt lat="47.77842" lon="-3.34313">
        <ele>58</ele>
        <time>2015-01-30T11:55:49.221Z</time>
      </trkpt>
      <trkpt lat="47.77841" lon="-3.34314">
        <ele>59</ele>
        <time>2015-01-30T11:55:50.220Z</time>
      </trkpt>
      <trkpt lat="47.77835" lon="-3.34322">
        <ele>62</ele>
        <time>2015-01-30T11:56:25.222Z</time>
      </trkpt>
      <trkpt lat="47.77834" lon="-3.34323">
        <ele>63</ele>
        <time>2015-01-30T11:56:26.276Z</time>
      </trkpt>
      <trkpt lat="47.77841" lon="-3.34314">
        <ele>60</ele>
        <time>2015-01-30T11:56:38.265Z</time>
      </trkpt>
      <trkpt lat="47.77844" lon="-3.34309">
        <ele>56</ele>
        <time>2015-01-30T11:56:39.261Z</time>
      </trkpt>
      <trkpt lat="47.77847" lon="-3.34304">
        <ele>54</ele>
        <time>2015-01-30T11:56:40.274Z</time>
      </trkpt>
      <trkpt lat="47.77851" lon="-3.34299">
        <ele>52</ele>
        <time>2015-01-30T11:56:41.282Z</time>
      </trkpt>
      <trkpt lat="47.77855" lon="-3.34293">
        <ele>53</ele>
        <time>2015-01-30T11:56:42.221Z</time>
      </trkpt>
      <trkpt lat="47.7786" lon="-3.34284">
        <ele>52</ele>
        <time>2015-01-30T11:56:43.221Z</time>
      </trkpt>
      <trkpt lat="47.77867" lon="-3.3428">
        <ele>53</ele>
        <time>2015-01-30T11:56:44.221Z</time>
      </trkpt>
      <trkpt lat="47.7787" lon="-3.34277">
        <ele>50</ele>
        <time>2015-01-30T11:56:45.219Z</time>
      </trkpt>
      <trkpt lat="47.77873" lon="-3.34276">
        <ele>50</ele>
        <time>2015-01-30T11:56:46.218Z</time>
      </trkpt>
      <trkpt lat="47.77879" lon="-3.34272">
        <ele>50</ele>
        <time>2015-01-30T11:56:47.219Z</time>
      </trkpt>
      <trkpt lat="47.7788" lon="-3.34265">
        <ele>60</ele>
        <time>2015-01-30T11:56:51.220Z</time>
      </trkpt>
      <trkpt lat="47.77875" lon="-3.34255">
        <ele>60</ele>
        <time>2015-01-30T11:56:52.219Z</time>
      </trkpt>
      <trkpt lat="47.7787" lon="-3.34245">
        <ele>58</ele>
        <time>2015-01-30T11:56:53.224Z</time>
      </trkpt>
      <trkpt lat="47.77867" lon="-3.34244">
        <ele>57</ele>
        <time>2015-01-30T11:56:54.217Z</time>
      </trkpt>
      <trkpt lat="47.77864" lon="-3.34228">
        <ele>57</ele>
        <time>2015-01-30T11:56:55.221Z</time>
      </trkpt>
      <trkpt lat="47.77861" lon="-3.34219">
        <ele>57</ele>
        <time>2015-01-30T11:56:56.220Z</time>
      </trkpt>
      <trkpt lat="47.77856" lon="-3.34206">
        <ele>57</ele>
        <time>2015-01-30T11:56:57.219Z</time>
      </trkpt>
      <trkpt lat="47.77851" lon="-3.34195">
        <ele>57</ele>
        <time>2015-01-30T11:59:11.217Z</time>
      </trkpt>
      <trkpt lat="47.77848" lon="-3.34195">
        <ele>57</ele>
        <time>2015-01-30T11:59:12.214Z</time>
      </trkpt>
      <trkpt lat="47.77841" lon="-3.34199">
        <ele>56</ele>
        <time>2015-01-30T11:59:14.218Z</time>
      </trkpt>
      <trkpt lat="47.77837" lon="-3.34202">
        <ele>56</ele>
        <time>2015-01-30T11:59:15.218Z</time>
      </trkpt>
      <trkpt lat="47.77829" lon="-3.34205">
        <ele>56</ele>
        <time>2015-01-30T11:59:17.218Z</time>
      </trkpt>
      <trkpt lat="47.77825" lon="-3.34205">
        <ele>54</ele>
        <time>2015-01-30T11:59:18.218Z</time>
      </trkpt>
      <trkpt lat="47.77821" lon="-3.34201">
        <ele>57</ele>
        <time>2015-01-30T11:59:19.218Z</time>
      </trkpt>
      <trkpt lat="47.77819" lon="-3.34194">
        <ele>55</ele>
        <time>2015-01-30T11:59:20.216Z</time>
      </trkpt>
      <trkpt lat="47.77821" lon="-3.34182">
        <ele>58</ele>
        <time>2015-01-30T11:59:22.217Z</time>
      </trkpt>
      <trkpt lat="47.77823" lon="-3.34178">
        <ele>55</ele>
        <time>2015-01-30T11:59:23.222Z</time>
      </trkpt>
      <trkpt lat="47.77831" lon="-3.34175">
        <ele>43</ele>
        <time>2015-01-30T11:59:42.307Z</time>
      </trkpt>
      <trkpt lat="47.77831" lon="-3.34174">
        <ele>43</ele>
        <time>2015-01-30T11:59:43.226Z</time>
      </trkpt>
      <trkpt lat="47.77824" lon="-3.34177">
        <ele>47</ele>
        <time>2015-01-30T12:00:03.218Z</time>
      </trkpt>
      <trkpt lat="47.77822" lon="-3.34176">
        <ele>47</ele>
        <time>2015-01-30T12:00:04.219Z</time>
      </trkpt>
      <trkpt lat="47.77818" lon="-3.34166">
        <ele>46</ele>
        <time>2015-01-30T12:00:09.218Z</time>
      </trkpt>
      <trkpt lat="47.77818" lon="-3.34164">
        <ele>46</ele>
        <time>2015-01-30T12:00:10.219Z</time>
      </trkpt>
      <trkpt lat="47.77819" lon="-3.34177">
        <ele>53</ele>
        <time>2015-01-30T12:01:15.216Z</time>
      </trkpt>
      <trkpt lat="47.7782" lon="-3.34178">
        <ele>53</ele>
        <time>2015-01-30T12:01:16.217Z</time>
      </trkpt>
      <trkpt lat="47.77828" lon="-3.34182">
        <ele>50</ele>
        <time>2015-01-30T12:01:21.216Z</time>
      </trkpt>
      <trkpt lat="47.77832" lon="-3.3418">
        <ele>49</ele>
        <time>2015-01-30T12:01:22.216Z</time>
      </trkpt>
      <trkpt lat="47.7784" lon="-3.34178">
        <ele>46</ele>
        <time>2015-01-30T12:01:24.290Z</time>
      </trkpt>
      <trkpt lat="47.77844" lon="-3.3418">
        <ele>48</ele>
        <time>2015-01-30T12:01:25.249Z</time>
      </trkpt>
      <trkpt lat="47.7785" lon="-3.3419">
        <ele>45</ele>
        <time>2015-01-30T12:01:27.330Z</time>
      </trkpt>
      <trkpt lat="47.77853" lon="-3.34194">
        <ele>45</ele>
        <time>2015-01-30T12:01:28.217Z</time>
      </trkpt>
      <trkpt lat="47.7786" lon="-3.34199">
        <ele>45</ele>
        <time>2015-01-30T12:01:30.272Z</time>
      </trkpt>
      <trkpt lat="47.77864" lon="-3.34198">
        <ele>45</ele>
        <time>2015-01-30T12:01:31.299Z</time>
      </trkpt>
      <trkpt lat="47.77868" lon="-3.34187">
        <ele>46</ele>
        <time>2015-01-30T12:01:34.318Z</time>
      </trkpt>
      <trkpt lat="47.77868" lon="-3.34182">
        <ele>45</ele>
        <time>2015-01-30T12:01:35.256Z</time>
      </trkpt>
      <trkpt lat="47.77866" lon="-3.34177">
        <ele>46</ele>
        <time>2015-01-30T12:01:36.281Z</time>
      </trkpt>
      <trkpt lat="47.77863" lon="-3.3417">
        <ele>46</ele>
        <time>2015-01-30T12:01:37.216Z</time>
      </trkpt>
      <trkpt lat="47.77855" lon="-3.34162">
        <ele>45</ele>
        <time>2015-01-30T12:01:38.301Z</time>
      </trkpt>
      <trkpt lat="47.77852" lon="-3.3415">
        <ele>45</ele>
        <time>2015-01-30T12:01:40.314Z</time>
      </trkpt>
      <trkpt lat="47.77853" lon="-3.34146">
        <ele>45</ele>
        <time>2015-01-30T12:01:41.285Z</time>
      </trkpt>
      <trkpt lat="47.77859" lon="-3.34139">
        <ele>45</ele>
        <time>2015-01-30T12:01:43.294Z</time>
      </trkpt>
      <trkpt lat="47.77862" lon="-3.34135">
        <ele>45</ele>
        <time>2015-01-30T12:01:44.218Z</time>
      </trkpt>
      <trkpt lat="47.77866" lon="-3.34129">
        <ele>45</ele>
        <time>2015-01-30T12:01:45.302Z</time>
      </trkpt>
      <trkpt lat="47.7787" lon="-3.34124">
        <ele>45</ele>
        <time>2015-01-30T12:01:46.252Z</time>
      </trkpt>
      <trkpt lat="47.77875" lon="-3.34118">
        <ele>45</ele>
        <time>2015-01-30T12:01:47.282Z</time>
      </trkpt>
      <trkpt lat="47.77879" lon="-3.34112">
        <ele>44</ele>
        <time>2015-01-30T12:01:48.335Z</time>
      </trkpt>
      <trkpt lat="47.77884" lon="-3.34107">
        <ele>45</ele>
        <time>2015-01-30T12:01:49.267Z</time>
      </trkpt>
      <trkpt lat="47.77889" lon="-3.34103">
        <ele>46</ele>
        <time>2015-01-30T12:01:50.312Z</time>
      </trkpt>
      <trkpt lat="47.77898" lon="-3.34101">
        <ele>46</ele>
        <time>2015-01-30T12:01:51.246Z</time>
      </trkpt>
      <trkpt lat="47.77901" lon="-3.34106">
        <ele>46</ele>
        <time>2015-01-30T12:01:52.219Z</time>
      </trkpt>
      <trkpt lat="47.77905" lon="-3.34114">
        <ele>46</ele>
        <time>2015-01-30T12:01:53.216Z</time>
      </trkpt>
      <trkpt lat="47.77907" lon="-3.34119">
        <ele>46</ele>
        <time>2015-01-30T12:01:54.219Z</time>
      </trkpt>
      <trkpt lat="47.77911" lon="-3.34128">
        <ele>46</ele>
        <time>2015-01-30T12:01:55.217Z</time>
      </trkpt>
      <trkpt lat="47.77917" lon="-3.34137">
        <ele>45</ele>
        <time>2015-01-30T12:01:56.217Z</time>
      </trkpt>
      <trkpt lat="47.77922" lon="-3.34143">
        <ele>44</ele>
        <time>2015-01-30T12:01:57.217Z</time>
      </trkpt>
      <trkpt lat="47.77927" lon="-3.34149">
        <ele>42</ele>
        <time>2015-01-30T12:01:58.238Z</time>
      </trkpt>
      <trkpt lat="47.77931" lon="-3.34158">
        <ele>43</ele>
        <time>2015-01-30T12:02:00.228Z</time>
      </trkpt>
      <trkpt lat="47.7793" lon="-3.34164">
        <ele>44</ele>
        <time>2015-01-30T12:02:01.212Z</time>
      </trkpt>
      <trkpt lat="47.77928" lon="-3.34175">
        <ele>43</ele>
        <time>2015-01-30T12:02:03.216Z</time>
      </trkpt>
      <trkpt lat="47.77927" lon="-3.34183">
        <ele>44</ele>
        <time>2015-01-30T12:02:04.217Z</time>
      </trkpt>
      <trkpt lat="47.77928" lon="-3.3419">
        <ele>43</ele>
        <time>2015-01-30T12:02:05.216Z</time>
      </trkpt>
      <trkpt lat="47.77929" lon="-3.34198">
        <ele>42</ele>
        <time>2015-01-30T12:02:06.303Z</time>
      </trkpt>
      <trkpt lat="47.7793" lon="-3.34205">
        <ele>42</ele>
        <time>2015-01-30T12:02:07.216Z</time>
      </trkpt>
      <trkpt lat="47.77931" lon="-3.34214">
        <ele>42</ele>
        <time>2015-01-30T12:02:08.215Z</time>
      </trkpt>
      <trkpt lat="47.7794" lon="-3.34216">
        <ele>40</ele>
        <time>2015-01-30T12:02:10.250Z</time>
      </trkpt>
      <trkpt lat="47.7794" lon="-3.3422">
        <ele>41</ele>
        <time>2015-01-30T12:02:11.221Z</time>
      </trkpt>
      <trkpt lat="47.77941" lon="-3.34207">
        <ele>54</ele>
        <time>2015-01-30T12:02:58.214Z</time>
      </trkpt>
      <trkpt lat="47.77939" lon="-3.34206">
        <ele>55</ele>
        <time>2015-01-30T12:02:59.214Z</time>
      </trkpt>
      <trkpt lat="47.77933" lon="-3.342">
        <ele>55</ele>
        <time>2015-01-30T12:03:02.217Z</time>
      </trkpt>
      <trkpt lat="47.77932" lon="-3.34198">
        <ele>55</ele>
        <time>2015-01-30T12:03:03.220Z</time>
      </trkpt>
      <trkpt lat="47.77929" lon="-3.3419">
        <ele>55</ele>
        <time>2015-01-30T12:03:05.272Z</time>
      </trkpt>
      <trkpt lat="47.77929" lon="-3.34184">
        <ele>56</ele>
        <time>2015-01-30T12:03:06.282Z</time>
      </trkpt>
      <trkpt lat="47.77928" lon="-3.34171">
        <ele>54</ele>
        <time>2015-01-30T12:03:09.212Z</time>
      </trkpt>
      <trkpt lat="47.77928" lon="-3.34167">
        <ele>55</ele>
        <time>2015-01-30T12:03:10.272Z</time>
      </trkpt>
      <trkpt lat="47.77932" lon="-3.34155">
        <ele>57</ele>
        <time>2015-01-30T12:03:22.255Z</time>
      </trkpt>
      <trkpt lat="47.77934" lon="-3.34153">
        <ele>58</ele>
        <time>2015-01-30T12:03:23.282Z</time>
      </trkpt>
      <trkpt lat="47.77938" lon="-3.34144">
        <ele>54</ele>
        <time>2015-01-30T12:03:29.219Z</time>
      </trkpt>
      <trkpt lat="47.7794" lon="-3.34142">
        <ele>53</ele>
        <time>2015-01-30T12:03:30.328Z</time>
      </trkpt>
      <trkpt lat="47.77946" lon="-3.34133">
        <ele>50</ele>
        <time>2015-01-30T12:03:33.267Z</time>
      </trkpt>
      <trkpt lat="47.77948" lon="-3.34131">
        <ele>49</ele>
        <time>2015-01-30T12:03:34.234Z</time>
      </trkpt>
      <trkpt lat="47.77956" lon="-3.34128">
        <ele>47</ele>
        <time>2015-01-30T12:03:38.242Z</time>
      </trkpt>
      <trkpt lat="47.77957" lon="-3.34128">
        <ele>49</ele>
        <time>2015-01-30T12:03:39.280Z</time>
      </trkpt>
      <trkpt lat="47.77966" lon="-3.3413">
        <ele>53</ele>
        <time>2015-01-30T12:04:04.212Z</time>
      </trkpt>
      <trkpt lat="47.77967" lon="-3.3413">
        <ele>53</ele>
        <time>2015-01-30T12:04:05.212Z</time>
      </trkpt>
      <trkpt lat="47.77971" lon="-3.34124">
        <ele>52</ele>
        <time>2015-01-30T12:04:08.217Z</time>
      </trkpt>
      <trkpt lat="47.77972" lon="-3.3412">
        <ele>52</ele>
        <time>2015-01-30T12:04:09.214Z</time>
      </trkpt>
      <trkpt lat="47.77976" lon="-3.3411">
        <ele>52</ele>
        <time>2015-01-30T12:04:11.214Z</time>
      </trkpt>
      <trkpt lat="47.77979" lon="-3.34105">
        <ele>52</ele>
        <time>2015-01-30T12:04:12.215Z</time>
      </trkpt>
      <trkpt lat="47.77984" lon="-3.341">
        <ele>50</ele>
        <time>2015-01-30T12:04:13.266Z</time>
      </trkpt>
      <trkpt lat="47.77989" lon="-3.34097">
        <ele>51</ele>
        <time>2015-01-30T12:04:14.216Z</time>
      </trkpt>
      <trkpt lat="47.77995" lon="-3.34093">
        <ele>50</ele>
        <time>2015-01-30T12:04:15.215Z</time>
      </trkpt>
      <trkpt lat="47.78002" lon="-3.3409">
        <ele>51</ele>
        <time>2015-01-30T12:04:16.216Z</time>
      </trkpt>
      <trkpt lat="47.78019" lon="-3.34084">
        <ele>51</ele>
        <time>2015-01-30T12:04:17.214Z</time>
      </trkpt>
      <trkpt lat="47.78015" lon="-3.34088">
        <ele>53</ele>
        <time>2015-01-30T12:04:23.214Z</time>
      </trkpt>
      <trkpt lat="47.7801" lon="-3.34088">
        <ele>53</ele>
        <time>2015-01-30T12:04:24.212Z</time>
      </trkpt>
      <trkpt lat="47.78006" lon="-3.34081">
        <ele>55</ele>
        <time>2015-01-30T12:04:27.214Z</time>
      </trkpt>
      <trkpt lat="47.78003" lon="-3.34078">
        <ele>55</ele>
        <time>2015-01-30T12:04:28.213Z</time>
      </trkpt>
      <trkpt lat="47.78002" lon="-3.34067">
        <ele>53</ele>
        <time>2015-01-30T12:04:32.214Z</time>
      </trkpt>
      <trkpt lat="47.78002" lon="-3.34064">
        <ele>55</ele>
        <time>2015-01-30T12:04:33.212Z</time>
      </trkpt>
      <trkpt lat="47.77995" lon="-3.34062">
        <ele>52</ele>
        <time>2015-01-30T12:07:10.219Z</time>
      </trkpt>
      <trkpt lat="47.77993" lon="-3.34062">
        <ele>48</ele>
        <time>2015-01-30T12:07:11.213Z</time>
      </trkpt>
      <trkpt lat="47.77986" lon="-3.34056">
        <ele>49</ele>
        <time>2015-01-30T12:07:15.211Z</time>
      </trkpt>
      <trkpt lat="47.77985" lon="-3.34055">
        <ele>50</ele>
        <time>2015-01-30T12:07:16.210Z</time>
      </trkpt>
      <trkpt lat="47.77988" lon="-3.34067">
        <ele>47</ele>
        <time>2015-01-30T12:07:39.305Z</time>
      </trkpt>
      <trkpt lat="47.77989" lon="-3.34071">
        <ele>46</ele>
        <time>2015-01-30T12:07:40.222Z</time>
      </trkpt>
      <trkpt lat="47.77992" lon="-3.3408">
        <ele>47</ele>
        <time>2015-01-30T12:07:42.213Z</time>
      </trkpt>
      <trkpt lat="47.77994" lon="-3.34084">
        <ele>46</ele>
        <time>2015-01-30T12:07:43.312Z</time>
      </trkpt>
      <trkpt lat="47.78001" lon="-3.34088">
        <ele>47</ele>
        <time>2015-01-30T12:07:45.452Z</time>
      </trkpt>
      <trkpt lat="47.78004" lon="-3.34086">
        <ele>47</ele>
        <time>2015-01-30T12:07:46.291Z</time>
      </trkpt>
      <trkpt lat="47.78008" lon="-3.34083">
        <ele>46</ele>
        <time>2015-01-30T12:07:47.256Z</time>
      </trkpt>
      <trkpt lat="47.78013" lon="-3.3408">
        <ele>47</ele>
        <time>2015-01-30T12:07:48.315Z</time>
      </trkpt>
      <trkpt lat="47.7802" lon="-3.34077">
        <ele>48</ele>
        <time>2015-01-30T12:07:49.213Z</time>
      </trkpt>
      <trkpt lat="47.78024" lon="-3.3408">
        <ele>48</ele>
        <time>2015-01-30T12:07:50.292Z</time>
      </trkpt>
      <trkpt lat="47.78028" lon="-3.34085">
        <ele>47</ele>
        <time>2015-01-30T12:07:51.279Z</time>
      </trkpt>
      <trkpt lat="47.78031" lon="-3.34089">
        <ele>48</ele>
        <time>2015-01-30T12:07:52.310Z</time>
      </trkpt>
      <trkpt lat="47.78036" lon="-3.34097">
        <ele>48</ele>
        <time>2015-01-30T12:07:55.215Z</time>
      </trkpt>
      <trkpt lat="47.78038" lon="-3.34099">
        <ele>48</ele>
        <time>2015-01-30T12:07:56.211Z</time>
      </trkpt>
      <trkpt lat="47.78042" lon="-3.34108">
        <ele>49</ele>
        <time>2015-01-30T12:07:58.211Z</time>
      </trkpt>
      <trkpt lat="47.78045" lon="-3.34113">
        <ele>49</ele>
        <time>2015-01-30T12:07:59.210Z</time>
      </trkpt>
      <trkpt lat="47.78048" lon="-3.3412">
        <ele>49</ele>
        <time>2015-01-30T12:08:00.315Z</time>
      </trkpt>
      <trkpt lat="47.78049" lon="-3.34127">
        <ele>49</ele>
        <time>2015-01-30T12:08:01.302Z</time>
      </trkpt>
      <trkpt lat="47.78046" lon="-3.34138">
        <ele>47</ele>
        <time>2015-01-30T12:08:03.271Z</time>
      </trkpt>
      <trkpt lat="47.78043" lon="-3.34144">
        <ele>48</ele>
        <time>2015-01-30T12:08:04.287Z</time>
      </trkpt>
      <trkpt lat="47.78035" lon="-3.34149">
        <ele>47</ele>
        <time>2015-01-30T12:08:06.268Z</time>
      </trkpt>
      <trkpt lat="47.78032" lon="-3.34152">
        <ele>47</ele>
        <time>2015-01-30T12:08:07.295Z</time>
      </trkpt>
      <trkpt lat="47.78028" lon="-3.34157">
        <ele>55</ele>
        <time>2015-01-30T12:09:40.292Z</time>
      </trkpt>
      <trkpt lat="47.78024" lon="-3.34159">
        <ele>55</ele>
        <time>2015-01-30T12:09:41.299Z</time>
      </trkpt>
      <trkpt lat="47.78016" lon="-3.34162">
        <ele>55</ele>
        <time>2015-01-30T12:09:43.229Z</time>
      </trkpt>
      <trkpt lat="47.78011" lon="-3.34163">
        <ele>55</ele>
        <time>2015-01-30T12:09:44.212Z</time>
      </trkpt>
      <trkpt lat="47.78003" lon="-3.34159">
        <ele>55</ele>
        <time>2015-01-30T12:09:46.214Z</time>
      </trkpt>
      <trkpt lat="47.78" lon="-3.34155">
        <ele>55</ele>
        <time>2015-01-30T12:09:47.255Z</time>
      </trkpt>
      <trkpt lat="47.77995" lon="-3.34144">
        <ele>54</ele>
        <time>2015-01-30T12:09:50.218Z</time>
      </trkpt>
      <trkpt lat="47.77996" lon="-3.34142">
        <ele>53</ele>
        <time>2015-01-30T12:09:51.212Z</time>
      </trkpt>
      <trkpt lat="47.77997" lon="-3.34136">
        <ele>54</ele>
        <time>2015-01-30T12:09:53.212Z</time>
      </trkpt>
      <trkpt lat="47.78" lon="-3.3413">
        <ele>54</ele>
        <time>2015-01-30T12:09:54.211Z</time>
      </trkpt>
      <trkpt lat="47.78007" lon="-3.34123">
        <ele>54</ele>
        <time>2015-01-30T12:09:55.214Z</time>
      </trkpt>
      <trkpt lat="47.78013" lon="-3.34119">
        <ele>53</ele>
        <time>2015-01-30T12:09:56.239Z</time>
      </trkpt>
      <trkpt lat="47.78018" lon="-3.34115">
        <ele>53</ele>
        <time>2015-01-30T12:09:57.218Z</time>
      </trkpt>
      <trkpt lat="47.78023" lon="-3.3411">
        <ele>53</ele>
        <time>2015-01-30T12:09:58.283Z</time>
      </trkpt>
      <trkpt lat="47.78028" lon="-3.34105">
        <ele>53</ele>
        <time>2015-01-30T12:09:59.292Z</time>
      </trkpt>
      <trkpt lat="47.78034" lon="-3.34102">
        <ele>52</ele>
        <time>2015-01-30T12:10:00.212Z</time>
      </trkpt>
      <trkpt lat="47.78041" lon="-3.34093">
        <ele>52</ele>
        <time>2015-01-30T12:10:03.298Z</time>
      </trkpt>
      <trkpt lat="47.78043" lon="-3.34092">
        <ele>52</ele>
        <time>2015-01-30T12:10:04.261Z</time>
      </trkpt>
      <trkpt lat="47.7805" lon="-3.3409">
        <ele>51</ele>
        <time>2015-01-30T12:10:06.214Z</time>
      </trkpt>
      <trkpt lat="47.78054" lon="-3.34095">
        <ele>50</ele>
        <time>2015-01-30T12:10:07.267Z</time>
      </trkpt>
      <trkpt lat="47.78057" lon="-3.341">
        <ele>51</ele>
        <time>2015-01-30T12:10:08.281Z</time>
      </trkpt>
      <trkpt lat="47.78061" lon="-3.34106">
        <ele>50</ele>
        <time>2015-01-30T12:10:09.210Z</time>
      </trkpt>
      <trkpt lat="47.78064" lon="-3.34114">
        <ele>50</ele>
        <time>2015-01-30T12:10:10.272Z</time>
      </trkpt>
      <trkpt lat="47.78068" lon="-3.34123">
        <ele>51</ele>
        <time>2015-01-30T12:10:11.211Z</time>
      </trkpt>
      <trkpt lat="47.78072" lon="-3.34131">
        <ele>51</ele>
        <time>2015-01-30T12:10:12.275Z</time>
      </trkpt>
      <trkpt lat="47.78077" lon="-3.34139">
        <ele>52</ele>
        <time>2015-01-30T12:10:13.315Z</time>
      </trkpt>
      <trkpt lat="47.78081" lon="-3.34145">
        <ele>51</ele>
        <time>2015-01-30T12:10:14.251Z</time>
      </trkpt>
      <trkpt lat="47.78084" lon="-3.3415">
        <ele>52</ele>
        <time>2015-01-30T12:10:15.293Z</time>
      </trkpt>
      <trkpt lat="47.78092" lon="-3.34153">
        <ele>50</ele>
        <time>2015-01-30T12:10:19.323Z</time>
      </trkpt>
      <trkpt lat="47.78094" lon="-3.34152">
        <ele>49</ele>
        <time>2015-01-30T12:10:20.211Z</time>
      </trkpt>
      <trkpt lat="47.78099" lon="-3.34148">
        <ele>49</ele>
        <time>2015-01-30T12:10:21.279Z</time>
      </trkpt>
      <trkpt lat="47.78104" lon="-3.34143">
        <ele>49</ele>
        <time>2015-01-30T12:10:22.298Z</time>
      </trkpt>
      <trkpt lat="47.7811" lon="-3.34137">
        <ele>49</ele>
        <time>2015-01-30T12:10:23.243Z</time>
      </trkpt>
      <trkpt lat="47.78115" lon="-3.3413">
        <ele>49</ele>
        <time>2015-01-30T12:10:24.200Z</time>
      </trkpt>
      <trkpt lat="47.78121" lon="-3.34122">
        <ele>48</ele>
        <time>2015-01-30T12:10:25.210Z</time>
      </trkpt>
      <trkpt lat="47.78128" lon="-3.34114">
        <ele>48</ele>
        <time>2015-01-30T12:10:26.235Z</time>
      </trkpt>
      <trkpt lat="47.78137" lon="-3.34106">
        <ele>48</ele>
        <time>2015-01-30T12:10:27.297Z</time>
      </trkpt>
      <trkpt lat="47.78145" lon="-3.34098">
        <ele>49</ele>
        <time>2015-01-30T12:10:28.302Z</time>
      </trkpt>
      <trkpt lat="47.78153" lon="-3.34088">
        <ele>48</ele>
        <time>2015-01-30T12:10:29.209Z</time>
      </trkpt>
      <trkpt lat="47.78161" lon="-3.34079">
        <ele>48</ele>
        <time>2015-01-30T12:10:30.209Z</time>
      </trkpt>
      <trkpt lat="47.7817" lon="-3.34069">
        <ele>48</ele>
        <time>2015-01-30T12:10:31.274Z</time>
      </trkpt>
      <trkpt lat="47.78178" lon="-3.34059">
        <ele>49</ele>
        <time>2015-01-30T12:10:32.215Z</time>
      </trkpt>
      <trkpt lat="47.78186" lon="-3.34048">
        <ele>49</ele>
        <time>2015-01-30T12:10:33.217Z</time>
      </trkpt>
      <trkpt lat="47.78193" lon="-3.34036">
        <ele>49</ele>
        <time>2015-01-30T12:10:34.210Z</time>
      </trkpt>
      <trkpt lat="47.78201" lon="-3.34024">
        <ele>48</ele>
        <time>2015-01-30T12:10:35.305Z</time>
      </trkpt>
      <trkpt lat="47.78209" lon="-3.34014">
        <ele>46</ele>
        <time>2015-01-30T12:10:36.238Z</time>
      </trkpt>
      <trkpt lat="47.78217" lon="-3.34002">
        <ele>47</ele>
        <time>2015-01-30T12:10:37.211Z</time>
      </trkpt>
      <trkpt lat="47.78223" lon="-3.33989">
        <ele>45</ele>
        <time>2015-01-30T12:10:38.285Z</time>
      </trkpt>
      <trkpt lat="47.7823" lon="-3.33976">
        <ele>45</ele>
        <time>2015-01-30T12:10:39.264Z</time>
      </trkpt>
      <trkpt lat="47.78236" lon="-3.33963">
        <ele>46</ele>
        <time>2015-01-30T12:10:40.307Z</time>
      </trkpt>
      <trkpt lat="47.78241" lon="-3.33952">
        <ele>46</ele>
        <time>2015-01-30T12:10:41.209Z</time>
      </trkpt>
      <trkpt lat="47.78244" lon="-3.33942">
        <ele>46</ele>
        <time>2015-01-30T12:10:42.226Z</time>
      </trkpt>
      <trkpt lat="47.78247" lon="-3.33933">
        <ele>46</ele>
        <time>2015-01-30T12:10:43.210Z</time>
      </trkpt>
      <trkpt lat="47.78246" lon="-3.33925">
        <ele>46</ele>
        <time>2015-01-30T12:10:44.257Z</time>
      </trkpt>
      <trkpt lat="47.78245" lon="-3.33916">
        <ele>46</ele>
        <time>2015-01-30T12:10:45.209Z</time>
      </trkpt>
      <trkpt lat="47.78244" lon="-3.33909">
        <ele>46</ele>
        <time>2015-01-30T12:10:46.227Z</time>
      </trkpt>
      <trkpt lat="47.78243" lon="-3.33901">
        <ele>46</ele>
        <time>2015-01-30T12:10:47.211Z</time>
      </trkpt>
      <trkpt lat="47.78244" lon="-3.33894">
        <ele>47</ele>
        <time>2015-01-30T12:10:48.207Z</time>
      </trkpt>
      <trkpt lat="47.78246" lon="-3.33882">
        <ele>48</ele>
        <time>2015-01-30T12:10:51.303Z</time>
      </trkpt>
      <trkpt lat="47.78247" lon="-3.33882">
        <ele>47</ele>
        <time>2015-01-30T12:10:52.270Z</time>
      </trkpt>
      <trkpt lat="47.78248" lon="-3.33869">
        <ele>51</ele>
        <time>2015-01-30T12:11:55.297Z</time>
      </trkpt>
      <trkpt lat="47.78248" lon="-3.33868">
        <ele>51</ele>
        <time>2015-01-30T12:11:56.214Z</time>
      </trkpt>
      <trkpt lat="47.78254" lon="-3.33859">
        <ele>51</ele>
        <time>2015-01-30T12:12:03.211Z</time>
      </trkpt>
      <trkpt lat="47.78255" lon="-3.33857">
        <ele>51</ele>
        <time>2015-01-30T12:12:04.211Z</time>
      </trkpt>
      <trkpt lat="47.78256" lon="-3.33869">
        <ele>51</ele>
        <time>2015-01-30T12:12:34.298Z</time>
      </trkpt>
      <trkpt lat="47.78256" lon="-3.33871">
        <ele>51</ele>
        <time>2015-01-30T12:12:35.263Z</time>
      </trkpt>
      <trkpt lat="47.78251" lon="-3.33879">
        <ele>49</ele>
        <time>2015-01-30T12:12:43.207Z</time>
      </trkpt>
      <trkpt lat="47.7825" lon="-3.33881">
        <ele>49</ele>
        <time>2015-01-30T12:12:44.208Z</time>
      </trkpt>
      <trkpt lat="47.78252" lon="-3.3389">
        <ele>52</ele>
        <time>2015-01-30T12:13:16.287Z</time>
      </trkpt>
      <trkpt lat="47.78251" lon="-3.33895">
        <ele>52</ele>
        <time>2015-01-30T12:13:17.277Z</time>
      </trkpt>
      <trkpt lat="47.78247" lon="-3.33905">
        <ele>53</ele>
        <time>2015-01-30T12:13:19.246Z</time>
      </trkpt>
      <trkpt lat="47.78246" lon="-3.33909">
        <ele>53</ele>
        <time>2015-01-30T12:13:20.213Z</time>
      </trkpt>
      <trkpt lat="47.78248" lon="-3.33919">
        <ele>53</ele>
        <time>2015-01-30T12:13:22.285Z</time>
      </trkpt>
      <trkpt lat="47.7825" lon="-3.33921">
        <ele>53</ele>
        <time>2015-01-30T12:13:23.296Z</time>
      </trkpt>
      <trkpt lat="47.78256" lon="-3.33918">
        <ele>52</ele>
        <time>2015-01-30T12:13:25.276Z</time>
      </trkpt>
      <trkpt lat="47.78259" lon="-3.33913">
        <ele>54</ele>
        <time>2015-01-30T12:13:26.298Z</time>
      </trkpt>
      <trkpt lat="47.78264" lon="-3.33901">
        <ele>54</ele>
        <time>2015-01-30T12:13:27.280Z</time>
      </trkpt>
      <trkpt lat="47.78268" lon="-3.33893">
        <ele>54</ele>
        <time>2015-01-30T12:13:28.213Z</time>
      </trkpt>
      <trkpt lat="47.78271" lon="-3.33885">
        <ele>54</ele>
        <time>2015-01-30T12:13:29.298Z</time>
      </trkpt>
      <trkpt lat="47.78275" lon="-3.33878">
        <ele>55</ele>
        <time>2015-01-30T12:13:30.283Z</time>
      </trkpt>
      <trkpt lat="47.7828" lon="-3.33871">
        <ele>55</ele>
        <time>2015-01-30T12:13:31.317Z</time>
      </trkpt>
      <trkpt lat="47.78284" lon="-3.33863">
        <ele>55</ele>
        <time>2015-01-30T12:13:32.215Z</time>
      </trkpt>
      <trkpt lat="47.78286" lon="-3.33852">
        <ele>54</ele>
        <time>2015-01-30T12:13:33.281Z</time>
      </trkpt>
      <trkpt lat="47.7829" lon="-3.33842">
        <ele>53</ele>
        <time>2015-01-30T12:13:34.206Z</time>
      </trkpt>
      <trkpt lat="47.78293" lon="-3.33831">
        <ele>54</ele>
        <time>2015-01-30T12:13:35.208Z</time>
      </trkpt>
      <trkpt lat="47.78297" lon="-3.3382">
        <ele>54</ele>
        <time>2015-01-30T12:13:36.212Z</time>
      </trkpt>
      <trkpt lat="47.78305" lon="-3.33812">
        <ele>53</ele>
        <time>2015-01-30T12:13:37.212Z</time>
      </trkpt>
      <trkpt lat="47.78312" lon="-3.33805">
        <ele>54</ele>
        <time>2015-01-30T12:13:38.282Z</time>
      </trkpt>
      <trkpt lat="47.7832" lon="-3.33798">
        <ele>53</ele>
        <time>2015-01-30T12:13:39.292Z</time>
      </trkpt>
      <trkpt lat="47.78327" lon="-3.3379">
        <ele>53</ele>
        <time>2015-01-30T12:13:40.317Z</time>
      </trkpt>
      <trkpt lat="47.78337" lon="-3.33784">
        <ele>53</ele>
        <time>2015-01-30T12:13:41.297Z</time>
      </trkpt>
      <trkpt lat="47.78345" lon="-3.33776">
        <ele>53</ele>
        <time>2015-01-30T12:13:42.268Z</time>
      </trkpt>
      <trkpt lat="47.78355" lon="-3.33767">
        <ele>53</ele>
        <time>2015-01-30T12:13:43.255Z</time>
      </trkpt>
      <trkpt lat="47.78364" lon="-3.33758">
        <ele>53</ele>
        <time>2015-01-30T12:13:44.206Z</time>
      </trkpt>
      <trkpt lat="47.78374" lon="-3.33747">
        <ele>52</ele>
        <time>2015-01-30T12:13:45.208Z</time>
      </trkpt>
      <trkpt lat="47.78384" lon="-3.3374">
        <ele>52</ele>
        <time>2015-01-30T12:13:46.206Z</time>
      </trkpt>
      <trkpt lat="47.78395" lon="-3.3373">
        <ele>52</ele>
        <time>2015-01-30T12:13:47.208Z</time>
      </trkpt>
      <trkpt lat="47.78403" lon="-3.3372">
        <ele>50</ele>
        <time>2015-01-30T12:13:48.207Z</time>
      </trkpt>
      <trkpt lat="47.78413" lon="-3.33711">
        <ele>50</ele>
        <time>2015-01-30T12:13:49.287Z</time>
      </trkpt>
      <trkpt lat="47.78422" lon="-3.33702">
        <ele>50</ele>
        <time>2015-01-30T12:13:50.276Z</time>
      </trkpt>
      <trkpt lat="47.78432" lon="-3.33691">
        <ele>49</ele>
        <time>2015-01-30T12:13:51.265Z</time>
      </trkpt>
      <trkpt lat="47.78442" lon="-3.3368">
        <ele>50</ele>
        <time>2015-01-30T12:13:52.274Z</time>
      </trkpt>
      <trkpt lat="47.78451" lon="-3.33668">
        <ele>50</ele>
        <time>2015-01-30T12:13:53.206Z</time>
      </trkpt>
      <trkpt lat="47.78459" lon="-3.33657">
        <ele>49</ele>
        <time>2015-01-30T12:13:54.208Z</time>
      </trkpt>
      <trkpt lat="47.78468" lon="-3.33644">
        <ele>49</ele>
        <time>2015-01-30T12:13:55.207Z</time>
      </trkpt>
      <trkpt lat="47.78476" lon="-3.3363">
        <ele>50</ele>
        <time>2015-01-30T12:13:56.207Z</time>
      </trkpt>
      <trkpt lat="47.78483" lon="-3.33616">
        <ele>49</ele>
        <time>2015-01-30T12:13:57.205Z</time>
      </trkpt>
      <trkpt lat="47.78489" lon="-3.33602">
        <ele>49</ele>
        <time>2015-01-30T12:13:58.206Z</time>
      </trkpt>
      <trkpt lat="47.78497" lon="-3.33587">
        <ele>49</ele>
        <time>2015-01-30T12:13:59.207Z</time>
      </trkpt>
      <trkpt lat="47.78504" lon="-3.33572">
        <ele>49</ele>
        <time>2015-01-30T12:14:00.206Z</time>
      </trkpt>
      <trkpt lat="47.7851" lon="-3.33556">
        <ele>50</ele>
        <time>2015-01-30T12:14:01.261Z</time>
      </trkpt>
      <trkpt lat="47.78515" lon="-3.33541">
        <ele>50</ele>
        <time>2015-01-30T12:14:02.206Z</time>
      </trkpt>
      <trkpt lat="47.78522" lon="-3.33524">
        <ele>50</ele>
        <time>2015-01-30T12:14:03.207Z</time>
      </trkpt>
      <trkpt lat="47.78525" lon="-3.33508">
        <ele>50</ele>
        <time>2015-01-30T12:14:04.207Z</time>
      </trkpt>
      <trkpt lat="47.78529" lon="-3.33488">
        <ele>50</ele>
        <time>2015-01-30T12:14:05.207Z</time>
      </trkpt>
      <trkpt lat="47.78534" lon="-3.33472">
        <ele>51</ele>
        <time>2015-01-30T12:14:06.208Z</time>
      </trkpt>
      <trkpt lat="47.78541" lon="-3.33456">
        <ele>52</ele>
        <time>2015-01-30T12:14:07.204Z</time>
      </trkpt>
      <trkpt lat="47.78544" lon="-3.33441">
        <ele>52</ele>
        <time>2015-01-30T12:14:08.207Z</time>
      </trkpt>
      <trkpt lat="47.78549" lon="-3.33425">
        <ele>52</ele>
        <time>2015-01-30T12:14:09.206Z</time>
      </trkpt>
      <trkpt lat="47.78554" lon="-3.33412">
        <ele>52</ele>
        <time>2015-01-30T12:14:10.207Z</time>
      </trkpt>
      <trkpt lat="47.78558" lon="-3.33394">
        <ele>53</ele>
        <time>2015-01-30T12:14:11.208Z</time>
      </trkpt>
      <trkpt lat="47.78563" lon="-3.33378">
        <ele>53</ele>
        <time>2015-01-30T12:14:12.206Z</time>
      </trkpt>
      <trkpt lat="47.78569" lon="-3.33363">
        <ele>54</ele>
        <time>2015-01-30T12:14:13.315Z</time>
      </trkpt>
      <trkpt lat="47.78574" lon="-3.33348">
        <ele>55</ele>
        <time>2015-01-30T12:14:14.269Z</time>
      </trkpt>
      <trkpt lat="47.78579" lon="-3.33333">
        <ele>54</ele>
        <time>2015-01-30T12:14:15.255Z</time>
      </trkpt>
      <trkpt lat="47.78584" lon="-3.33321">
        <ele>55</ele>
        <time>2015-01-30T12:14:16.207Z</time>
      </trkpt>
      <trkpt lat="47.78588" lon="-3.33307">
        <ele>56</ele>
        <time>2015-01-30T12:14:17.239Z</time>
      </trkpt>
      <trkpt lat="47.78594" lon="-3.33295">
        <ele>58</ele>
        <time>2015-01-30T12:14:18.206Z</time>
      </trkpt>
      <trkpt lat="47.78597" lon="-3.33282">
        <ele>58</ele>
        <time>2015-01-30T12:14:19.208Z</time>
      </trkpt>
      <trkpt lat="47.786" lon="-3.33271">
        <ele>57</ele>
        <time>2015-01-30T12:14:20.207Z</time>
      </trkpt>
      <trkpt lat="47.786" lon="-3.33262">
        <ele>58</ele>
        <time>2015-01-30T12:14:21.206Z</time>
      </trkpt>
      <trkpt lat="47.78597" lon="-3.33254">
        <ele>58</ele>
        <time>2015-01-30T12:14:22.207Z</time>
      </trkpt>
      <trkpt lat="47.78593" lon="-3.33247">
        <ele>58</ele>
        <time>2015-01-30T12:14:23.208Z</time>
      </trkpt>
      <trkpt lat="47.78586" lon="-3.33243">
        <ele>60</ele>
        <time>2015-01-30T12:14:24.205Z</time>
      </trkpt>
      <trkpt lat="47.78581" lon="-3.33238">
        <ele>60</ele>
        <time>2015-01-30T12:14:25.206Z</time>
      </trkpt>
      <trkpt lat="47.78574" lon="-3.33232">
        <ele>60</ele>
        <time>2015-01-30T12:14:26.206Z</time>
      </trkpt>
      <trkpt lat="47.78566" lon="-3.33227">
        <ele>60</ele>
        <time>2015-01-30T12:14:27.206Z</time>
      </trkpt>
      <trkpt lat="47.78559" lon="-3.33219">
        <ele>60</ele>
        <time>2015-01-30T12:14:28.219Z</time>
      </trkpt>
      <trkpt lat="47.78551" lon="-3.33214">
        <ele>60</ele>
        <time>2015-01-30T12:14:29.216Z</time>
      </trkpt>
      <trkpt lat="47.78545" lon="-3.33208">
        <ele>61</ele>
        <time>2015-01-30T12:14:30.207Z</time>
      </trkpt>
      <trkpt lat="47.78536" lon="-3.33204">
        <ele>61</ele>
        <time>2015-01-30T12:14:31.206Z</time>
      </trkpt>
      <trkpt lat="47.78527" lon="-3.33203">
        <ele>60</ele>
        <time>2015-01-30T12:14:32.207Z</time>
      </trkpt>
      <trkpt lat="47.78519" lon="-3.33199">
        <ele>61</ele>
        <time>2015-01-30T12:14:33.207Z</time>
      </trkpt>
      <trkpt lat="47.78513" lon="-3.33198">
        <ele>60</ele>
        <time>2015-01-30T12:14:34.203Z</time>
      </trkpt>
      <trkpt lat="47.78504" lon="-3.3319">
        <ele>59</ele>
        <time>2015-01-30T12:14:35.206Z</time>
      </trkpt>
      <trkpt lat="47.78493" lon="-3.3318">
        <ele>57</ele>
        <time>2015-01-30T12:14:36.205Z</time>
      </trkpt>
      <trkpt lat="47.78483" lon="-3.33173">
        <ele>55</ele>
        <time>2015-01-30T12:14:37.270Z</time>
      </trkpt>
      <trkpt lat="47.78476" lon="-3.3317">
        <ele>56</ele>
        <time>2015-01-30T12:14:38.212Z</time>
      </trkpt>
      <trkpt lat="47.78469" lon="-3.33164">
        <ele>56</ele>
        <time>2015-01-30T12:14:39.205Z</time>
      </trkpt>
      <trkpt lat="47.78463" lon="-3.33158">
        <ele>55</ele>
        <time>2015-01-30T12:14:40.207Z</time>
      </trkpt>
      <trkpt lat="47.78455" lon="-3.33153">
        <ele>56</ele>
        <time>2015-01-30T12:14:41.205Z</time>
      </trkpt>
      <trkpt lat="47.7845" lon="-3.33151">
        <ele>54</ele>
        <time>2015-01-30T12:14:42.206Z</time>
      </trkpt>
      <trkpt lat="47.78446" lon="-3.33156">
        <ele>54</ele>
        <time>2015-01-30T12:14:43.206Z</time>
      </trkpt>
      <trkpt lat="47.78444" lon="-3.33161">
        <ele>53</ele>
        <time>2015-01-30T12:14:44.205Z</time>
      </trkpt>
      <trkpt lat="47.78442" lon="-3.33168">
        <ele>53</ele>
        <time>2015-01-30T12:14:45.207Z</time>
      </trkpt>
      <trkpt lat="47.7844" lon="-3.33176">
        <ele>53</ele>
        <time>2015-01-30T12:14:46.205Z</time>
      </trkpt>
      <trkpt lat="47.78439" lon="-3.33184">
        <ele>53</ele>
        <time>2015-01-30T12:14:47.206Z</time>
      </trkpt>
      <trkpt lat="47.78436" lon="-3.33191">
        <ele>52</ele>
        <time>2015-01-30T12:14:48.225Z</time>
      </trkpt>
      <trkpt lat="47.78435" lon="-3.33199">
        <ele>52</ele>
        <time>2015-01-30T12:14:49.301Z</time>
      </trkpt>
      <trkpt lat="47.7843" lon="-3.3321">
        <ele>53</ele>
        <time>2015-01-30T12:14:51.261Z</time>
      </trkpt>
      <trkpt lat="47.7843" lon="-3.33212">
        <ele>54</ele>
        <time>2015-01-30T12:14:52.296Z</time>
      </trkpt>
      <trkpt lat="47.78433" lon="-3.332">
        <ele>58</ele>
        <time>2015-01-30T12:15:21.202Z</time>
      </trkpt>
      <trkpt lat="47.78434" lon="-3.33198">
        <ele>58</ele>
        <time>2015-01-30T12:15:22.204Z</time>
      </trkpt>
      <trkpt lat="47.78439" lon="-3.33188">
        <ele>57</ele>
        <time>2015-01-30T12:15:25.202Z</time>
      </trkpt>
      <trkpt lat="47.78441" lon="-3.33181">
        <ele>58</ele>
        <time>2015-01-30T12:15:26.205Z</time>
      </trkpt>
      <trkpt lat="47.78444" lon="-3.33175">
        <ele>59</ele>
        <time>2015-01-30T12:15:27.206Z</time>
      </trkpt>
      <trkpt lat="47.78446" lon="-3.33168">
        <ele>59</ele>
        <time>2015-01-30T12:15:28.206Z</time>
      </trkpt>
      <trkpt lat="47.78449" lon="-3.33158">
        <ele>57</ele>
        <time>2015-01-30T12:15:30.206Z</time>
      </trkpt>
      <trkpt lat="47.78449" lon="-3.33155">
        <ele>57</ele>
        <time>2015-01-30T12:15:31.206Z</time>
      </trkpt>
      <trkpt lat="47.78446" lon="-3.33147">
        <ele>58</ele>
        <time>2015-01-30T12:15:33.203Z</time>
      </trkpt>
      <trkpt lat="47.78443" lon="-3.33143">
        <ele>57</ele>
        <time>2015-01-30T12:15:34.204Z</time>
      </trkpt>
      <trkpt lat="47.78438" lon="-3.33139">
        <ele>57</ele>
        <time>2015-01-30T12:15:35.206Z</time>
      </trkpt>
      <trkpt lat="47.78428" lon="-3.33135">
        <ele>57</ele>
        <time>2015-01-30T12:15:36.204Z</time>
      </trkpt>
      <trkpt lat="47.78421" lon="-3.3313">
        <ele>57</ele>
        <time>2015-01-30T12:15:37.206Z</time>
      </trkpt>
      <trkpt lat="47.78414" lon="-3.33124">
        <ele>56</ele>
        <time>2015-01-30T12:15:38.204Z</time>
      </trkpt>
      <trkpt lat="47.78406" lon="-3.33118">
        <ele>56</ele>
        <time>2015-01-30T12:15:39.204Z</time>
      </trkpt>
      <trkpt lat="47.78398" lon="-3.33112">
        <ele>56</ele>
        <time>2015-01-30T12:15:40.229Z</time>
      </trkpt>
      <trkpt lat="47.78389" lon="-3.33106">
        <ele>56</ele>
        <time>2015-01-30T12:15:41.284Z</time>
      </trkpt>
      <trkpt lat="47.78381" lon="-3.331">
        <ele>55</ele>
        <time>2015-01-30T12:15:42.278Z</time>
      </trkpt>
      <trkpt lat="47.78372" lon="-3.33093">
        <ele>55</ele>
        <time>2015-01-30T12:15:43.239Z</time>
      </trkpt>
      <trkpt lat="47.78363" lon="-3.33087">
        <ele>55</ele>
        <time>2015-01-30T12:15:44.268Z</time>
      </trkpt>
      <trkpt lat="47.78353" lon="-3.33081">
        <ele>56</ele>
        <time>2015-01-30T12:15:45.203Z</time>
      </trkpt>
      <trkpt lat="47.78344" lon="-3.33074">
        <ele>56</ele>
        <time>2015-01-30T12:15:46.203Z</time>
      </trkpt>
      <trkpt lat="47.78334" lon="-3.33067">
        <ele>56</ele>
        <time>2015-01-30T12:15:47.204Z</time>
      </trkpt>
      <trkpt lat="47.78324" lon="-3.33061">
        <ele>56</ele>
        <time>2015-01-30T12:15:48.214Z</time>
      </trkpt>
      <trkpt lat="47.78315" lon="-3.33053">
        <ele>55</ele>
        <time>2015-01-30T12:15:49.203Z</time>
      </trkpt>
      <trkpt lat="47.78305" lon="-3.33047">
        <ele>55</ele>
        <time>2015-01-30T12:15:50.204Z</time>
      </trkpt>
      <trkpt lat="47.78295" lon="-3.3304">
        <ele>55</ele>
        <time>2015-01-30T12:15:51.266Z</time>
      </trkpt>
      <trkpt lat="47.78285" lon="-3.33033">
        <ele>55</ele>
        <time>2015-01-30T12:15:52.205Z</time>
      </trkpt>
      <trkpt lat="47.78275" lon="-3.33027">
        <ele>55</ele>
        <time>2015-01-30T12:15:53.211Z</time>
      </trkpt>
      <trkpt lat="47.78266" lon="-3.33021">
        <ele>54</ele>
        <time>2015-01-30T12:15:54.217Z</time>
      </trkpt>
      <trkpt lat="47.78258" lon="-3.33015">
        <ele>54</ele>
        <time>2015-01-30T12:15:55.206Z</time>
      </trkpt>
      <trkpt lat="47.7825" lon="-3.33009">
        <ele>55</ele>
        <time>2015-01-30T12:15:56.208Z</time>
      </trkpt>
      <trkpt lat="47.78243" lon="-3.33003">
        <ele>55</ele>
        <time>2015-01-30T12:15:57.206Z</time>
      </trkpt>
      <trkpt lat="47.78238" lon="-3.33002">
        <ele>55</ele>
        <time>2015-01-30T12:15:58.311Z</time>
      </trkpt>
      <trkpt lat="47.78233" lon="-3.33001">
        <ele>55</ele>
        <time>2015-01-30T12:15:59.236Z</time>
      </trkpt>
      <trkpt lat="47.78226" lon="-3.32997">
        <ele>55</ele>
        <time>2015-01-30T12:16:01.204Z</time>
      </trkpt>
      <trkpt lat="47.78224" lon="-3.32995">
        <ele>55</ele>
        <time>2015-01-30T12:16:02.298Z</time>
      </trkpt>
      <trkpt lat="47.78218" lon="-3.32986">
        <ele>57</ele>
        <time>2015-01-30T12:16:30.205Z</time>
      </trkpt>
      <trkpt lat="47.78219" lon="-3.32982">
        <ele>57</ele>
        <time>2015-01-30T12:16:31.206Z</time>
      </trkpt>
      <trkpt lat="47.78227" lon="-3.32987">
        <ele>57</ele>
        <time>2015-01-30T12:16:35.309Z</time>
      </trkpt>
      <trkpt lat="47.78229" lon="-3.32989">
        <ele>57</ele>
        <time>2015-01-30T12:16:36.215Z</time>
      </trkpt>
      <trkpt lat="47.78236" lon="-3.32994">
        <ele>56</ele>
        <time>2015-01-30T12:16:37.311Z</time>
      </trkpt>
      <trkpt lat="47.7824" lon="-3.32996">
        <ele>55</ele>
        <time>2015-01-30T12:16:38.273Z</time>
      </trkpt>
      <trkpt lat="47.78244" lon="-3.32999">
        <ele>54</ele>
        <time>2015-01-30T12:16:39.252Z</time>
      </trkpt>
      <trkpt lat="47.78248" lon="-3.33001">
        <ele>55</ele>
        <time>2015-01-30T12:16:40.208Z</time>
      </trkpt>
      <trkpt lat="47.78256" lon="-3.33006">
        <ele>54</ele>
        <time>2015-01-30T12:16:43.283Z</time>
      </trkpt>
      <trkpt lat="47.78257" lon="-3.33006">
        <ele>54</ele>
        <time>2015-01-30T12:16:44.285Z</time>
      </trkpt>
      <trkpt lat="47.78253" lon="-3.33018">
        <ele>56</ele>
        <time>2015-01-30T12:17:07.266Z</time>
      </trkpt>
      <trkpt lat="47.78253" lon="-3.33018">
        <ele>56</ele>
        <time>2015-01-30T12:17:08.207Z</time>
      </trkpt>
      <trkpt lat="47.7826" lon="-3.33011">
        <ele>58</ele>
        <time>2015-01-30T12:17:23.207Z</time>
      </trkpt>
      <trkpt lat="47.7826" lon="-3.3301">
        <ele>58</ele>
        <time>2015-01-30T12:17:24.207Z</time>
      </trkpt>
      <trkpt lat="47.78266" lon="-3.33015">
        <ele>56</ele>
        <time>2015-01-30T12:17:51.252Z</time>
      </trkpt>
      <trkpt lat="47.7827" lon="-3.33018">
        <ele>56</ele>
        <time>2015-01-30T12:17:52.280Z</time>
      </trkpt>
      <trkpt lat="47.78278" lon="-3.33023">
        <ele>56</ele>
        <time>2015-01-30T12:17:54.215Z</time>
      </trkpt>
      <trkpt lat="47.78282" lon="-3.33026">
        <ele>56</ele>
        <time>2015-01-30T12:17:55.295Z</time>
      </trkpt>
      <trkpt lat="47.7829" lon="-3.3303">
        <ele>57</ele>
        <time>2015-01-30T12:17:57.221Z</time>
      </trkpt>
      <trkpt lat="47.78293" lon="-3.33032">
        <ele>58</ele>
        <time>2015-01-30T12:17:58.268Z</time>
      </trkpt>
      <trkpt lat="47.78286" lon="-3.33023">
        <ele>58</ele>
        <time>2015-01-30T12:18:08.212Z</time>
      </trkpt>
      <trkpt lat="47.78286" lon="-3.33021">
        <ele>58</ele>
        <time>2015-01-30T12:18:09.217Z</time>
      </trkpt>
      <trkpt lat="47.78292" lon="-3.33028">
        <ele>58</ele>
        <time>2015-01-30T12:18:14.276Z</time>
      </trkpt>
      <trkpt lat="47.78294" lon="-3.33029">
        <ele>58</ele>
        <time>2015-01-30T12:18:15.291Z</time>
      </trkpt>
      <trkpt lat="47.78302" lon="-3.33033">
        <ele>57</ele>
        <time>2015-01-30T12:18:20.244Z</time>
      </trkpt>
      <trkpt lat="47.78303" lon="-3.33033">
        <ele>57</ele>
        <time>2015-01-30T12:18:21.295Z</time>
      </trkpt>
      <trkpt lat="47.78295" lon="-3.33031">
        <ele>57</ele>
        <time>2015-01-30T12:18:30.287Z</time>
      </trkpt>
      <trkpt lat="47.78293" lon="-3.3303">
        <ele>57</ele>
        <time>2015-01-30T12:18:31.214Z</time>
      </trkpt>
      <trkpt lat="47.783" lon="-3.33039">
        <ele>56</ele>
        <time>2015-01-30T12:18:47.284Z</time>
      </trkpt>
      <trkpt lat="47.78304" lon="-3.33042">
        <ele>56</ele>
        <time>2015-01-30T12:18:48.205Z</time>
      </trkpt>
      <trkpt lat="47.78309" lon="-3.33045">
        <ele>56</ele>
        <time>2015-01-30T12:18:49.205Z</time>
      </trkpt>
      <trkpt lat="47.78315" lon="-3.3305">
        <ele>57</ele>
        <time>2015-01-30T12:18:50.206Z</time>
      </trkpt>
      <trkpt lat="47.7832" lon="-3.33054">
        <ele>57</ele>
        <time>2015-01-30T12:18:51.238Z</time>
      </trkpt>
      <trkpt lat="47.78325" lon="-3.33058">
        <ele>56</ele>
        <time>2015-01-30T12:18:52.204Z</time>
      </trkpt>
      <trkpt lat="47.78333" lon="-3.33058">
        <ele>57</ele>
        <time>2015-01-30T12:19:03.204Z</time>
      </trkpt>
      <trkpt lat="47.78334" lon="-3.33058">
        <ele>56</ele>
        <time>2015-01-30T12:19:04.209Z</time>
      </trkpt>
      <trkpt lat="47.78338" lon="-3.33066">
        <ele>58</ele>
        <time>2015-01-30T12:19:25.281Z</time>
      </trkpt>
      <trkpt lat="47.78342" lon="-3.33069">
        <ele>58</ele>
        <time>2015-01-30T12:19:26.293Z</time>
      </trkpt>
      <trkpt lat="47.7835" lon="-3.33074">
        <ele>57</ele>
        <time>2015-01-30T12:19:28.269Z</time>
      </trkpt>
      <trkpt lat="47.78354" lon="-3.33076">
        <ele>57</ele>
        <time>2015-01-30T12:19:29.204Z</time>
      </trkpt>
      <trkpt lat="47.78361" lon="-3.33077">
        <ele>59</ele>
        <time>2015-01-30T12:20:02.234Z</time>
      </trkpt>
      <trkpt lat="47.78363" lon="-3.33079">
        <ele>59</ele>
        <time>2015-01-30T12:20:03.269Z</time>
      </trkpt>
      <trkpt lat="47.78366" lon="-3.33082">
        <ele>60</ele>
        <time>2015-01-30T12:20:04.280Z</time>
      </trkpt>
      <trkpt lat="47.78371" lon="-3.33085">
        <ele>60</ele>
        <time>2015-01-30T12:20:05.280Z</time>
      </trkpt>
      <trkpt lat="47.78376" lon="-3.33088">
        <ele>60</ele>
        <time>2015-01-30T12:20:06.266Z</time>
      </trkpt>
      <trkpt lat="47.78383" lon="-3.33094">
        <ele>60</ele>
        <time>2015-01-30T12:20:07.297Z</time>
      </trkpt>
      <trkpt lat="47.7839" lon="-3.33099">
        <ele>60</ele>
        <time>2015-01-30T12:20:08.214Z</time>
      </trkpt>
      <trkpt lat="47.78396" lon="-3.33103">
        <ele>60</ele>
        <time>2015-01-30T12:20:09.213Z</time>
      </trkpt>
      <trkpt lat="47.78403" lon="-3.33108">
        <ele>60</ele>
        <time>2015-01-30T12:20:10.254Z</time>
      </trkpt>
      <trkpt lat="47.7841" lon="-3.33112">
        <ele>60</ele>
        <time>2015-01-30T12:20:11.288Z</time>
      </trkpt>
      <trkpt lat="47.78417" lon="-3.33117">
        <ele>61</ele>
        <time>2015-01-30T12:20:12.205Z</time>
      </trkpt>
      <trkpt lat="47.78424" lon="-3.33122">
        <ele>61</ele>
        <time>2015-01-30T12:20:13.207Z</time>
      </trkpt>
      <trkpt lat="47.78431" lon="-3.33126">
        <ele>60</ele>
        <time>2015-01-30T12:20:14.214Z</time>
      </trkpt>
      <trkpt lat="47.78437" lon="-3.3313">
        <ele>61</ele>
        <time>2015-01-30T12:20:15.251Z</time>
      </trkpt>
      <trkpt lat="47.78445" lon="-3.33131">
        <ele>59</ele>
        <time>2015-01-30T12:20:17.201Z</time>
      </trkpt>
      <trkpt lat="47.78448" lon="-3.33128">
        <ele>61</ele>
        <time>2015-01-30T12:20:18.274Z</time>
      </trkpt>
      <trkpt lat="47.78446" lon="-3.33116">
        <ele>60</ele>
        <time>2015-01-30T12:20:22.201Z</time>
      </trkpt>
      <trkpt lat="47.78445" lon="-3.33115">
        <ele>59</ele>
        <time>2015-01-30T12:20:23.203Z</time>
      </trkpt>
      <trkpt lat="47.78447" lon="-3.33126">
        <ele>59</ele>
        <time>2015-01-30T12:20:50.203Z</time>
      </trkpt>
      <trkpt lat="47.78447" lon="-3.33129">
        <ele>59</ele>
        <time>2015-01-30T12:20:51.252Z</time>
      </trkpt>
      <trkpt lat="47.78449" lon="-3.33138">
        <ele>59</ele>
        <time>2015-01-30T12:20:54.280Z</time>
      </trkpt>
      <trkpt lat="47.78452" lon="-3.3314">
        <ele>60</ele>
        <time>2015-01-30T12:20:55.204Z</time>
      </trkpt>
      <trkpt lat="47.78457" lon="-3.33143">
        <ele>60</ele>
        <time>2015-01-30T12:20:56.204Z</time>
      </trkpt>
      <trkpt lat="47.78465" lon="-3.33147">
        <ele>60</ele>
        <time>2015-01-30T12:20:57.305Z</time>
      </trkpt>
      <trkpt lat="47.78471" lon="-3.33152">
        <ele>61</ele>
        <time>2015-01-30T12:20:58.304Z</time>
      </trkpt>
      <trkpt lat="47.78478" lon="-3.33157">
        <ele>61</ele>
        <time>2015-01-30T12:20:59.280Z</time>
      </trkpt>
      <trkpt lat="47.78484" lon="-3.33161">
        <ele>61</ele>
        <time>2015-01-30T12:21:00.272Z</time>
      </trkpt>
      <trkpt lat="47.78491" lon="-3.33166">
        <ele>61</ele>
        <time>2015-01-30T12:21:01.206Z</time>
      </trkpt>
      <trkpt lat="47.78499" lon="-3.33171">
        <ele>61</ele>
        <time>2015-01-30T12:21:02.209Z</time>
      </trkpt>
      <trkpt lat="47.78507" lon="-3.33178">
        <ele>61</ele>
        <time>2015-01-30T12:21:03.231Z</time>
      </trkpt>
      <trkpt lat="47.78515" lon="-3.33184">
        <ele>61</ele>
        <time>2015-01-30T12:21:04.244Z</time>
      </trkpt>
      <trkpt lat="47.78524" lon="-3.33189">
        <ele>61</ele>
        <time>2015-01-30T12:21:05.200Z</time>
      </trkpt>
      <trkpt lat="47.78532" lon="-3.33195">
        <ele>61</ele>
        <time>2015-01-30T12:21:06.292Z</time>
      </trkpt>
      <trkpt lat="47.7854" lon="-3.33201">
        <ele>60</ele>
        <time>2015-01-30T12:21:07.266Z</time>
      </trkpt>
      <trkpt lat="47.78548" lon="-3.33207">
        <ele>60</ele>
        <time>2015-01-30T12:21:08.216Z</time>
      </trkpt>
      <trkpt lat="47.78554" lon="-3.33211">
        <ele>61</ele>
        <time>2015-01-30T12:21:09.276Z</time>
      </trkpt>
      <trkpt lat="47.7856" lon="-3.33214">
        <ele>61</ele>
        <time>2015-01-30T12:21:10.262Z</time>
      </trkpt>
      <trkpt lat="47.78565" lon="-3.33216">
        <ele>60</ele>
        <time>2015-01-30T12:21:11.292Z</time>
      </trkpt>
      <trkpt lat="47.78573" lon="-3.33211">
        <ele>60</ele>
        <time>2015-01-30T12:21:14.285Z</time>
      </trkpt>
      <trkpt lat="47.78575" lon="-3.33208">
        <ele>60</ele>
        <time>2015-01-30T12:21:15.285Z</time>
      </trkpt>
      <trkpt lat="47.78568" lon="-3.332">
        <ele>60</ele>
        <time>2015-01-30T12:21:19.237Z</time>
      </trkpt>
      <trkpt lat="47.78567" lon="-3.33199">
        <ele>60</ele>
        <time>2015-01-30T12:21:20.284Z</time>
      </trkpt>
      <trkpt lat="47.78576" lon="-3.33204">
        <ele>61</ele>
        <time>2015-01-30T12:21:28.206Z</time>
      </trkpt>
      <trkpt lat="47.78576" lon="-3.33204">
        <ele>60</ele>
        <time>2015-01-30T12:21:29.273Z</time>
      </trkpt>
      <trkpt lat="47.7857" lon="-3.3321">
        <ele>57</ele>
        <time>2015-01-30T12:21:44.200Z</time>
      </trkpt>
      <trkpt lat="47.78569" lon="-3.33212">
        <ele>57</ele>
        <time>2015-01-30T12:21:45.207Z</time>
      </trkpt>
      <trkpt lat="47.78571" lon="-3.33222">
        <ele>59</ele>
        <time>2015-01-30T12:21:47.287Z</time>
      </trkpt>
      <trkpt lat="47.78573" lon="-3.33225">
        <ele>59</ele>
        <time>2015-01-30T12:21:48.290Z</time>
      </trkpt>
      <trkpt lat="47.7858" lon="-3.33233">
        <ele>58</ele>
        <time>2015-01-30T12:21:50.235Z</time>
      </trkpt>
      <trkpt lat="47.78585" lon="-3.33238">
        <ele>58</ele>
        <time>2015-01-30T12:21:51.202Z</time>
      </trkpt>
      <trkpt lat="47.78594" lon="-3.33242">
        <ele>58</ele>
        <time>2015-01-30T12:21:52.203Z</time>
      </trkpt>
      <trkpt lat="47.78599" lon="-3.33245">
        <ele>58</ele>
        <time>2015-01-30T12:21:53.203Z</time>
      </trkpt>
      <trkpt lat="47.78604" lon="-3.33248">
        <ele>59</ele>
        <time>2015-01-30T12:21:54.200Z</time>
      </trkpt>
      <trkpt lat="47.7861" lon="-3.33247">
        <ele>60</ele>
        <time>2015-01-30T12:22:03.201Z</time>
      </trkpt>
      <trkpt lat="47.78614" lon="-3.33243">
        <ele>61</ele>
        <time>2015-01-30T12:22:04.215Z</time>
      </trkpt>
      <trkpt lat="47.78618" lon="-3.33238">
        <ele>61</ele>
        <time>2015-01-30T12:22:05.255Z</time>
      </trkpt>
      <trkpt lat="47.78622" lon="-3.33232">
        <ele>62</ele>
        <time>2015-01-30T12:22:06.301Z</time>
      </trkpt>
      <trkpt lat="47.78625" lon="-3.33223">
        <ele>61</ele>
        <time>2015-01-30T12:22:07.268Z</time>
      </trkpt>
      <trkpt lat="47.78629" lon="-3.33215">
        <ele>61</ele>
        <time>2015-01-30T12:22:08.208Z</time>
      </trkpt>
      <trkpt lat="47.78632" lon="-3.332">
        <ele>62</ele>
        <time>2015-01-30T12:22:09.209Z</time>
      </trkpt>
      <trkpt lat="47.78635" lon="-3.3319">
        <ele>62</ele>
        <time>2015-01-30T12:22:10.291Z</time>
      </trkpt>
      <trkpt lat="47.78639" lon="-3.33178">
        <ele>63</ele>
        <time>2015-01-30T12:22:11.279Z</time>
      </trkpt>
      <trkpt lat="47.78643" lon="-3.33167">
        <ele>63</ele>
        <time>2015-01-30T12:22:12.203Z</time>
      </trkpt>
      <trkpt lat="47.78647" lon="-3.33153">
        <ele>62</ele>
        <time>2015-01-30T12:22:13.258Z</time>
      </trkpt>
      <trkpt lat="47.78651" lon="-3.33141">
        <ele>63</ele>
        <time>2015-01-30T12:22:14.278Z</time>
      </trkpt>
      <trkpt lat="47.78654" lon="-3.33128">
        <ele>62</ele>
        <time>2015-01-30T12:22:15.279Z</time>
      </trkpt>
      <trkpt lat="47.78658" lon="-3.33118">
        <ele>63</ele>
        <time>2015-01-30T12:22:16.202Z</time>
      </trkpt>
      <trkpt lat="47.78662" lon="-3.33106">
        <ele>63</ele>
        <time>2015-01-30T12:22:17.200Z</time>
      </trkpt>
      <trkpt lat="47.78663" lon="-3.33096">
        <ele>65</ele>
        <time>2015-01-30T12:22:18.274Z</time>
      </trkpt>
      <trkpt lat="47.78664" lon="-3.33087">
        <ele>65</ele>
        <time>2015-01-30T12:22:19.208Z</time>
      </trkpt>
      <trkpt lat="47.7866" lon="-3.3308">
        <ele>69</ele>
        <time>2015-01-30T12:22:20.204Z</time>
      </trkpt>
      <trkpt lat="47.78658" lon="-3.33076">
        <ele>70</ele>
        <time>2015-01-30T12:22:21.281Z</time>
      </trkpt>
      <trkpt lat="47.78653" lon="-3.33071">
        <ele>70</ele>
        <time>2015-01-30T12:22:22.277Z</time>
      </trkpt>
      <trkpt lat="47.78647" lon="-3.33068">
        <ele>70</ele>
        <time>2015-01-30T12:22:23.230Z</time>
      </trkpt>
      <trkpt lat="47.78641" lon="-3.33063">
        <ele>71</ele>
        <time>2015-01-30T12:22:24.305Z</time>
      </trkpt>
      <trkpt lat="47.78636" lon="-3.33059">
        <ele>71</ele>
        <time>2015-01-30T12:22:25.200Z</time>
      </trkpt>
      <trkpt lat="47.7863" lon="-3.33055">
        <ele>71</ele>
        <time>2015-01-30T12:22:26.204Z</time>
      </trkpt>
      <trkpt lat="47.78622" lon="-3.33051">
        <ele>71</ele>
        <time>2015-01-30T12:22:27.284Z</time>
      </trkpt>
      <trkpt lat="47.78616" lon="-3.33045">
        <ele>71</ele>
        <time>2015-01-30T12:22:28.280Z</time>
      </trkpt>
      <trkpt lat="47.78608" lon="-3.3304">
        <ele>71</ele>
        <time>2015-01-30T12:22:29.294Z</time>
      </trkpt>
      <trkpt lat="47.78601" lon="-3.33037">
        <ele>73</ele>
        <time>2015-01-30T12:22:30.229Z</time>
      </trkpt>
      <trkpt lat="47.78596" lon="-3.33034">
        <ele>73</ele>
        <time>2015-01-30T12:22:31.288Z</time>
      </trkpt>
      <trkpt lat="47.78588" lon="-3.3303">
        <ele>72</ele>
        <time>2015-01-30T12:22:32.201Z</time>
      </trkpt>
      <trkpt lat="47.78581" lon="-3.33027">
        <ele>71</ele>
        <time>2015-01-30T12:22:33.207Z</time>
      </trkpt>
      <trkpt lat="47.78574" lon="-3.33023">
        <ele>71</ele>
        <time>2015-01-30T12:22:35.286Z</time>
      </trkpt>
      <trkpt lat="47.78569" lon="-3.33021">
        <ele>72</ele>
        <time>2015-01-30T12:22:36.294Z</time>
      </trkpt>
      <trkpt lat="47.78561" lon="-3.33018">
        <ele>73</ele>
        <time>2015-01-30T12:22:39.241Z</time>
      </trkpt>
      <trkpt lat="47.78558" lon="-3.33014">
        <ele>76</ele>
        <time>2015-01-30T12:22:40.262Z</time>
      </trkpt>
      <trkpt lat="47.78565" lon="-3.3301">
        <ele>72</ele>
        <time>2015-01-30T12:22:43.204Z</time>
      </trkpt>
      <trkpt lat="47.78569" lon="-3.33017">
        <ele>71</ele>
        <time>2015-01-30T12:22:44.312Z</time>
      </trkpt>
      <trkpt lat="47.78562" lon="-3.33012">
        <ele>71</ele>
        <time>2015-01-30T12:22:53.201Z</time>
      </trkpt>
      <trkpt lat="47.78561" lon="-3.33011">
        <ele>71</ele>
        <time>2015-01-30T12:22:54.255Z</time>
      </trkpt>
      <trkpt lat="47.78568" lon="-3.33018">
        <ele>72</ele>
        <time>2015-01-30T12:23:09.205Z</time>
      </trkpt>
      <trkpt lat="47.78574" lon="-3.33021">
        <ele>73</ele>
        <time>2015-01-30T12:23:10.309Z</time>
      </trkpt>
      <trkpt lat="47.78579" lon="-3.33023">
        <ele>73</ele>
        <time>2015-01-30T12:23:11.244Z</time>
      </trkpt>
      <trkpt lat="47.78586" lon="-3.33028">
        <ele>73</ele>
        <time>2015-01-30T12:23:12.276Z</time>
      </trkpt>
      <trkpt lat="47.78591" lon="-3.33032">
        <ele>74</ele>
        <time>2015-01-30T12:23:13.199Z</time>
      </trkpt>
      <trkpt lat="47.78596" lon="-3.33035">
        <ele>73</ele>
        <time>2015-01-30T12:23:14.248Z</time>
      </trkpt>
      <trkpt lat="47.78602" lon="-3.33039">
        <ele>75</ele>
        <time>2015-01-30T12:23:15.248Z</time>
      </trkpt>
      <trkpt lat="47.7861" lon="-3.33043">
        <ele>75</ele>
        <time>2015-01-30T12:23:16.302Z</time>
      </trkpt>
      <trkpt lat="47.78616" lon="-3.33048">
        <ele>75</ele>
        <time>2015-01-30T12:23:17.261Z</time>
      </trkpt>
      <trkpt lat="47.78623" lon="-3.33051">
        <ele>75</ele>
        <time>2015-01-30T12:23:18.242Z</time>
      </trkpt>
      <trkpt lat="47.78627" lon="-3.33056">
        <ele>73</ele>
        <time>2015-01-30T12:23:19.191Z</time>
      </trkpt>
      <trkpt lat="47.78634" lon="-3.33061">
        <ele>73</ele>
        <time>2015-01-30T12:23:20.200Z</time>
      </trkpt>
      <trkpt lat="47.7864" lon="-3.33066">
        <ele>73</ele>
        <time>2015-01-30T12:23:21.289Z</time>
      </trkpt>
      <trkpt lat="47.78647" lon="-3.33071">
        <ele>74</ele>
        <time>2015-01-30T12:23:22.200Z</time>
      </trkpt>
      <trkpt lat="47.78652" lon="-3.33076">
        <ele>74</ele>
        <time>2015-01-30T12:23:23.223Z</time>
      </trkpt>
      <trkpt lat="47.78656" lon="-3.3308">
        <ele>73</ele>
        <time>2015-01-30T12:23:24.199Z</time>
      </trkpt>
      <trkpt lat="47.78661" lon="-3.33083">
        <ele>73</ele>
        <time>2015-01-30T12:23:25.190Z</time>
      </trkpt>
      <trkpt lat="47.78665" lon="-3.33085">
        <ele>72</ele>
        <time>2015-01-30T12:23:26.209Z</time>
      </trkpt>
      <trkpt lat="47.78671" lon="-3.33083">
        <ele>70</ele>
        <time>2015-01-30T12:23:38.261Z</time>
      </trkpt>
      <trkpt lat="47.78673" lon="-3.33079">
        <ele>71</ele>
        <time>2015-01-30T12:23:39.269Z</time>
      </trkpt>
      <trkpt lat="47.78675" lon="-3.33068">
        <ele>70</ele>
        <time>2015-01-30T12:23:41.273Z</time>
      </trkpt>
      <trkpt lat="47.78676" lon="-3.33063">
        <ele>70</ele>
        <time>2015-01-30T12:23:42.284Z</time>
      </trkpt>
      <trkpt lat="47.78672" lon="-3.33053">
        <ele>70</ele>
        <time>2015-01-30T12:23:44.296Z</time>
      </trkpt>
      <trkpt lat="47.78668" lon="-3.33051">
        <ele>70</ele>
        <time>2015-01-30T12:23:45.200Z</time>
      </trkpt>
      <trkpt lat="47.78659" lon="-3.3305">
        <ele>71</ele>
        <time>2015-01-30T12:23:47.268Z</time>
      </trkpt>
      <trkpt lat="47.78655" lon="-3.33052">
        <ele>70</ele>
        <time>2015-01-30T12:23:48.290Z</time>
      </trkpt>
      <trkpt lat="47.78647" lon="-3.33054">
        <ele>70</ele>
        <time>2015-01-30T12:23:50.254Z</time>
      </trkpt>
      <trkpt lat="47.78643" lon="-3.33054">
        <ele>70</ele>
        <time>2015-01-30T12:23:51.274Z</time>
      </trkpt>
      <trkpt lat="47.78647" lon="-3.33046">
        <ele>70</ele>
        <time>2015-01-30T12:24:41.299Z</time>
      </trkpt>
      <trkpt lat="47.78651" lon="-3.33045">
        <ele>69</ele>
        <time>2015-01-30T12:24:42.253Z</time>
      </trkpt>
      <trkpt lat="47.78656" lon="-3.33045">
        <ele>70</ele>
        <time>2015-01-30T12:24:43.278Z</time>
      </trkpt>
      <trkpt lat="47.7866" lon="-3.33045">
        <ele>70</ele>
        <time>2015-01-30T12:24:44.286Z</time>
      </trkpt>
      <trkpt lat="47.78665" lon="-3.33045">
        <ele>69</ele>
        <time>2015-01-30T12:24:45.202Z</time>
      </trkpt>
      <trkpt lat="47.78672" lon="-3.33047">
        <ele>70</ele>
        <time>2015-01-30T12:24:46.312Z</time>
      </trkpt>
      <trkpt lat="47.7868" lon="-3.33047">
        <ele>71</ele>
        <time>2015-01-30T12:25:13.198Z</time>
      </trkpt>
      <trkpt lat="47.78683" lon="-3.33044">
        <ele>71</ele>
        <time>2015-01-30T12:25:14.196Z</time>
      </trkpt>
      <trkpt lat="47.78686" lon="-3.33039">
        <ele>71</ele>
        <time>2015-01-30T12:25:15.200Z</time>
      </trkpt>
      <trkpt lat="47.7869" lon="-3.33031">
        <ele>73</ele>
        <time>2015-01-30T12:25:16.200Z</time>
      </trkpt>
      <trkpt lat="47.78692" lon="-3.33022">
        <ele>72</ele>
        <time>2015-01-30T12:25:17.196Z</time>
      </trkpt>
      <trkpt lat="47.78695" lon="-3.33012">
        <ele>73</ele>
        <time>2015-01-30T12:25:18.197Z</time>
      </trkpt>
      <trkpt lat="47.78699" lon="-3.33002">
        <ele>73</ele>
        <time>2015-01-30T12:25:19.191Z</time>
      </trkpt>
      <trkpt lat="47.78703" lon="-3.32991">
        <ele>73</ele>
        <time>2015-01-30T12:25:20.199Z</time>
      </trkpt>
      <trkpt lat="47.78707" lon="-3.32978">
        <ele>74</ele>
        <time>2015-01-30T12:25:21.198Z</time>
      </trkpt>
      <trkpt lat="47.78711" lon="-3.32965">
        <ele>73</ele>
        <time>2015-01-30T12:25:22.225Z</time>
      </trkpt>
      <trkpt lat="47.78716" lon="-3.32952">
        <ele>73</ele>
        <time>2015-01-30T12:25:23.203Z</time>
      </trkpt>
      <trkpt lat="47.78721" lon="-3.32938">
        <ele>75</ele>
        <time>2015-01-30T12:25:24.268Z</time>
      </trkpt>
      <trkpt lat="47.78727" lon="-3.32923">
        <ele>75</ele>
        <time>2015-01-30T12:25:25.273Z</time>
      </trkpt>
      <trkpt lat="47.78731" lon="-3.32908">
        <ele>76</ele>
        <time>2015-01-30T12:25:26.260Z</time>
      </trkpt>
      <trkpt lat="47.78736" lon="-3.32893">
        <ele>76</ele>
        <time>2015-01-30T12:25:27.294Z</time>
      </trkpt>
      <trkpt lat="47.78741" lon="-3.32877">
        <ele>76</ele>
        <time>2015-01-30T12:25:28.211Z</time>
      </trkpt>
      <trkpt lat="47.78746" lon="-3.32861">
        <ele>76</ele>
        <time>2015-01-30T12:25:29.327Z</time>
      </trkpt>
      <trkpt lat="47.78752" lon="-3.32846">
        <ele>77</ele>
        <time>2015-01-30T12:25:30.244Z</time>
      </trkpt>
      <trkpt lat="47.78757" lon="-3.3283">
        <ele>78</ele>
        <time>2015-01-30T12:25:31.275Z</time>
      </trkpt>
      <trkpt lat="47.78762" lon="-3.32814">
        <ele>78</ele>
        <time>2015-01-30T12:25:32.285Z</time>
      </trkpt>
      <trkpt lat="47.78767" lon="-3.32797">
        <ele>78</ele>
        <time>2015-01-30T12:25:33.304Z</time>
      </trkpt>
      <trkpt lat="47.78773" lon="-3.32781">
        <ele>78</ele>
        <time>2015-01-30T12:25:34.203Z</time>
      </trkpt>
      <trkpt lat="47.78779" lon="-3.32764">
        <ele>78</ele>
        <time>2015-01-30T12:25:35.226Z</time>
      </trkpt>
      <trkpt lat="47.78785" lon="-3.32748">
        <ele>79</ele>
        <time>2015-01-30T12:25:36.197Z</time>
      </trkpt>
      <trkpt lat="47.78791" lon="-3.32732">
        <ele>80</ele>
        <time>2015-01-30T12:25:37.194Z</time>
      </trkpt>
      <trkpt lat="47.78796" lon="-3.32715">
        <ele>80</ele>
        <time>2015-01-30T12:25:38.198Z</time>
      </trkpt>
      <trkpt lat="47.78802" lon="-3.32699">
        <ele>80</ele>
        <time>2015-01-30T12:25:39.197Z</time>
      </trkpt>
      <trkpt lat="47.78807" lon="-3.32682">
        <ele>80</ele>
        <time>2015-01-30T12:25:40.197Z</time>
      </trkpt>
      <trkpt lat="47.78812" lon="-3.32666">
        <ele>80</ele>
        <time>2015-01-30T12:25:41.198Z</time>
      </trkpt>
      <trkpt lat="47.78817" lon="-3.3265">
        <ele>80</ele>
        <time>2015-01-30T12:25:42.198Z</time>
      </trkpt>
      <trkpt lat="47.78823" lon="-3.32633">
        <ele>80</ele>
        <time>2015-01-30T12:25:43.197Z</time>
      </trkpt>
      <trkpt lat="47.78828" lon="-3.32617">
        <ele>80</ele>
        <time>2015-01-30T12:25:44.196Z</time>
      </trkpt>
      <trkpt lat="47.78834" lon="-3.32601">
        <ele>80</ele>
        <time>2015-01-30T12:25:45.203Z</time>
      </trkpt>
      <trkpt lat="47.78839" lon="-3.32583">
        <ele>79</ele>
        <time>2015-01-30T12:25:46.275Z</time>
      </trkpt>
      <trkpt lat="47.78844" lon="-3.32567">
        <ele>79</ele>
        <time>2015-01-30T12:25:47.274Z</time>
      </trkpt>
      <trkpt lat="47.78849" lon="-3.3255">
        <ele>79</ele>
        <time>2015-01-30T12:25:48.276Z</time>
      </trkpt>
      <trkpt lat="47.78853" lon="-3.32533">
        <ele>80</ele>
        <time>2015-01-30T12:25:49.274Z</time>
      </trkpt>
      <trkpt lat="47.78856" lon="-3.32515">
        <ele>81</ele>
        <time>2015-01-30T12:25:50.290Z</time>
      </trkpt>
      <trkpt lat="47.78859" lon="-3.32496">
        <ele>80</ele>
        <time>2015-01-30T12:25:51.226Z</time>
      </trkpt>
      <trkpt lat="47.78861" lon="-3.32478">
        <ele>80</ele>
        <time>2015-01-30T12:25:52.267Z</time>
      </trkpt>
      <trkpt lat="47.78864" lon="-3.3246">
        <ele>80</ele>
        <time>2015-01-30T12:25:53.197Z</time>
      </trkpt>
      <trkpt lat="47.78865" lon="-3.32443">
        <ele>81</ele>
        <time>2015-01-30T12:25:54.287Z</time>
      </trkpt>
      <trkpt lat="47.78866" lon="-3.32425">
        <ele>80</ele>
        <time>2015-01-30T12:25:55.250Z</time>
      </trkpt>
      <trkpt lat="47.78867" lon="-3.32408">
        <ele>81</ele>
        <time>2015-01-30T12:25:56.203Z</time>
      </trkpt>
      <trkpt lat="47.78867" lon="-3.32391">
        <ele>81</ele>
        <time>2015-01-30T12:25:57.206Z</time>
      </trkpt>
      <trkpt lat="47.78867" lon="-3.32375">
        <ele>81</ele>
        <time>2015-01-30T12:25:58.259Z</time>
      </trkpt>
      <trkpt lat="47.78867" lon="-3.32357">
        <ele>81</ele>
        <time>2015-01-30T12:25:59.288Z</time>
      </trkpt>
      <trkpt lat="47.78868" lon="-3.3234">
        <ele>80</ele>
        <time>2015-01-30T12:26:00.227Z</time>
      </trkpt>
      <trkpt lat="47.7887" lon="-3.32323">
        <ele>83</ele>
        <time>2015-01-30T12:26:01.296Z</time>
      </trkpt>
      <trkpt lat="47.78871" lon="-3.32307">
        <ele>83</ele>
        <time>2015-01-30T12:26:02.237Z</time>
      </trkpt>
      <trkpt lat="47.78873" lon="-3.32291">
        <ele>82</ele>
        <time>2015-01-30T12:26:03.279Z</time>
      </trkpt>
      <trkpt lat="47.78876" lon="-3.32276">
        <ele>83</ele>
        <time>2015-01-30T12:26:04.204Z</time>
      </trkpt>
      <trkpt lat="47.7888" lon="-3.32262">
        <ele>84</ele>
        <time>2015-01-30T12:26:05.272Z</time>
      </trkpt>
      <trkpt lat="47.78883" lon="-3.32247">
        <ele>84</ele>
        <time>2015-01-30T12:26:06.201Z</time>
      </trkpt>
      <trkpt lat="47.78891" lon="-3.32237">
        <ele>83</ele>
        <time>2015-01-30T12:26:07.228Z</time>
      </trkpt>
      <trkpt lat="47.78899" lon="-3.32225">
        <ele>83</ele>
        <time>2015-01-30T12:26:08.234Z</time>
      </trkpt>
      <trkpt lat="47.78908" lon="-3.32215">
        <ele>83</ele>
        <time>2015-01-30T12:26:09.196Z</time>
      </trkpt>
      <trkpt lat="47.78917" lon="-3.32207">
        <ele>84</ele>
        <time>2015-01-30T12:26:10.197Z</time>
      </trkpt>
      <trkpt lat="47.78927" lon="-3.32197">
        <ele>84</ele>
        <time>2015-01-30T12:26:11.197Z</time>
      </trkpt>
      <trkpt lat="47.78936" lon="-3.32186">
        <ele>84</ele>
        <time>2015-01-30T12:26:12.194Z</time>
      </trkpt>
      <trkpt lat="47.78946" lon="-3.32176">
        <ele>85</ele>
        <time>2015-01-30T12:26:13.198Z</time>
      </trkpt>
      <trkpt lat="47.78955" lon="-3.32166">
        <ele>85</ele>
        <time>2015-01-30T12:26:14.198Z</time>
      </trkpt>
      <trkpt lat="47.78964" lon="-3.32154">
        <ele>86</ele>
        <time>2015-01-30T12:26:15.198Z</time>
      </trkpt>
      <trkpt lat="47.78971" lon="-3.32143">
        <ele>86</ele>
        <time>2015-01-30T12:26:16.199Z</time>
      </trkpt>
      <trkpt lat="47.78978" lon="-3.32132">
        <ele>86</ele>
        <time>2015-01-30T12:26:17.197Z</time>
      </trkpt>
      <trkpt lat="47.78982" lon="-3.32121">
        <ele>86</ele>
        <time>2015-01-30T12:26:18.198Z</time>
      </trkpt>
      <trkpt lat="47.78985" lon="-3.32111">
        <ele>86</ele>
        <time>2015-01-30T12:26:19.196Z</time>
      </trkpt>
      <trkpt lat="47.78986" lon="-3.32101">
        <ele>85</ele>
        <time>2015-01-30T12:26:20.264Z</time>
      </trkpt>
      <trkpt lat="47.78985" lon="-3.32094">
        <ele>85</ele>
        <time>2015-01-30T12:26:21.274Z</time>
      </trkpt>
      <trkpt lat="47.78981" lon="-3.32082">
        <ele>80</ele>
        <time>2015-01-30T12:26:31.196Z</time>
      </trkpt>
      <trkpt lat="47.78981" lon="-3.32082">
        <ele>82</ele>
        <time>2015-01-30T12:26:32.235Z</time>
      </trkpt>
      <trkpt lat="47.78982" lon="-3.32069">
        <ele>87</ele>
        <time>2015-01-30T12:29:01.276Z</time>
      </trkpt>
      <trkpt lat="47.78984" lon="-3.32067">
        <ele>87</ele>
        <time>2015-01-30T12:29:02.194Z</time>
      </trkpt>
      <trkpt lat="47.78991" lon="-3.32063">
        <ele>86</ele>
        <time>2015-01-30T12:29:04.194Z</time>
      </trkpt>
      <trkpt lat="47.78994" lon="-3.32063">
        <ele>86</ele>
        <time>2015-01-30T12:29:05.202Z</time>
      </trkpt>
      <trkpt lat="47.79" lon="-3.32059">
        <ele>86</ele>
        <time>2015-01-30T12:29:07.196Z</time>
      </trkpt>
      <trkpt lat="47.79002" lon="-3.32055">
        <ele>86</ele>
        <time>2015-01-30T12:29:08.192Z</time>
      </trkpt>
      <trkpt lat="47.79006" lon="-3.32049">
        <ele>85</ele>
        <time>2015-01-30T12:29:09.194Z</time>
      </trkpt>
      <trkpt lat="47.79009" lon="-3.32037">
        <ele>85</ele>
        <time>2015-01-30T12:29:10.195Z</time>
      </trkpt>
      <trkpt lat="47.79013" lon="-3.32025">
        <ele>85</ele>
        <time>2015-01-30T12:29:11.196Z</time>
      </trkpt>
      <trkpt lat="47.79016" lon="-3.32014">
        <ele>85</ele>
        <time>2015-01-30T12:29:12.236Z</time>
      </trkpt>
      <trkpt lat="47.79019" lon="-3.32002">
        <ele>86</ele>
        <time>2015-01-30T12:29:13.192Z</time>
      </trkpt>
      <trkpt lat="47.79023" lon="-3.31989">
        <ele>86</ele>
        <time>2015-01-30T12:29:14.194Z</time>
      </trkpt>
      <trkpt lat="47.79027" lon="-3.31978">
        <ele>85</ele>
        <time>2015-01-30T12:29:15.325Z</time>
      </trkpt>
      <trkpt lat="47.79031" lon="-3.31967">
        <ele>84</ele>
        <time>2015-01-30T12:29:16.230Z</time>
      </trkpt>
      <trkpt lat="47.79034" lon="-3.31954">
        <ele>85</ele>
        <time>2015-01-30T12:29:17.290Z</time>
      </trkpt>
      <trkpt lat="47.79039" lon="-3.31942">
        <ele>84</ele>
        <time>2015-01-30T12:29:18.196Z</time>
      </trkpt>
      <trkpt lat="47.79044" lon="-3.31929">
        <ele>84</ele>
        <time>2015-01-30T12:29:19.261Z</time>
      </trkpt>
      <trkpt lat="47.79048" lon="-3.31916">
        <ele>85</ele>
        <time>2015-01-30T12:29:20.196Z</time>
      </trkpt>
      <trkpt lat="47.79054" lon="-3.31906">
        <ele>83</ele>
        <time>2015-01-30T12:29:21.195Z</time>
      </trkpt>
      <trkpt lat="47.79058" lon="-3.31893">
        <ele>83</ele>
        <time>2015-01-30T12:29:22.196Z</time>
      </trkpt>
      <trkpt lat="47.79063" lon="-3.3188">
        <ele>83</ele>
        <time>2015-01-30T12:29:23.194Z</time>
      </trkpt>
      <trkpt lat="47.79067" lon="-3.31868">
        <ele>84</ele>
        <time>2015-01-30T12:29:24.193Z</time>
      </trkpt>
      <trkpt lat="47.79069" lon="-3.31856">
        <ele>84</ele>
        <time>2015-01-30T12:29:25.195Z</time>
      </trkpt>
      <trkpt lat="47.7907" lon="-3.31848">
        <ele>83</ele>
        <time>2015-01-30T12:29:26.274Z</time>
      </trkpt>
      <trkpt lat="47.7907" lon="-3.31837">
        <ele>83</ele>
        <time>2015-01-30T12:29:27.196Z</time>
      </trkpt>
      <trkpt lat="47.79067" lon="-3.31829">
        <ele>79</ele>
        <time>2015-01-30T12:29:28.289Z</time>
      </trkpt>
      <trkpt lat="47.79064" lon="-3.31819">
        <ele>79</ele>
        <time>2015-01-30T12:29:29.255Z</time>
      </trkpt>
      <trkpt lat="47.79061" lon="-3.3181">
        <ele>79</ele>
        <time>2015-01-30T12:29:30.208Z</time>
      </trkpt>
      <trkpt lat="47.79057" lon="-3.31799">
        <ele>79</ele>
        <time>2015-01-30T12:29:31.198Z</time>
      </trkpt>
      <trkpt lat="47.79053" lon="-3.31788">
        <ele>79</ele>
        <time>2015-01-30T12:29:32.195Z</time>
      </trkpt>
      <trkpt lat="47.79047" lon="-3.31779">
        <ele>79</ele>
        <time>2015-01-30T12:29:33.196Z</time>
      </trkpt>
      <trkpt lat="47.79042" lon="-3.31773">
        <ele>81</ele>
        <time>2015-01-30T12:29:34.195Z</time>
      </trkpt>
      <trkpt lat="47.79034" lon="-3.31767">
        <ele>81</ele>
        <time>2015-01-30T12:29:35.197Z</time>
      </trkpt>
      <trkpt lat="47.79026" lon="-3.31761">
        <ele>81</ele>
        <time>2015-01-30T12:29:36.195Z</time>
      </trkpt>
      <trkpt lat="47.79018" lon="-3.31756">
        <ele>81</ele>
        <time>2015-01-30T12:29:37.195Z</time>
      </trkpt>
      <trkpt lat="47.7901" lon="-3.3175">
        <ele>81</ele>
        <time>2015-01-30T12:29:38.193Z</time>
      </trkpt>
      <trkpt lat="47.79001" lon="-3.31743">
        <ele>81</ele>
        <time>2015-01-30T12:29:39.196Z</time>
      </trkpt>
      <trkpt lat="47.78992" lon="-3.31737">
        <ele>80</ele>
        <time>2015-01-30T12:29:40.196Z</time>
      </trkpt>
      <trkpt lat="47.78982" lon="-3.3173">
        <ele>80</ele>
        <time>2015-01-30T12:29:41.206Z</time>
      </trkpt>
      <trkpt lat="47.78972" lon="-3.31723">
        <ele>80</ele>
        <time>2015-01-30T12:29:42.273Z</time>
      </trkpt>
      <trkpt lat="47.78962" lon="-3.31716">
        <ele>80</ele>
        <time>2015-01-30T12:29:43.195Z</time>
      </trkpt>
      <trkpt lat="47.78952" lon="-3.3171">
        <ele>80</ele>
        <time>2015-01-30T12:29:44.194Z</time>
      </trkpt>
      <trkpt lat="47.78941" lon="-3.31703">
        <ele>81</ele>
        <time>2015-01-30T12:29:45.195Z</time>
      </trkpt>
      <trkpt lat="47.78931" lon="-3.31695">
        <ele>82</ele>
        <time>2015-01-30T12:29:46.194Z</time>
      </trkpt>
      <trkpt lat="47.7892" lon="-3.31688">
        <ele>82</ele>
        <time>2015-01-30T12:29:47.195Z</time>
      </trkpt>
      <trkpt lat="47.78909" lon="-3.3168">
        <ele>82</ele>
        <time>2015-01-30T12:29:48.193Z</time>
      </trkpt>
      <trkpt lat="47.78899" lon="-3.31672">
        <ele>81</ele>
        <time>2015-01-30T12:29:49.196Z</time>
      </trkpt>
      <trkpt lat="47.78888" lon="-3.31665">
        <ele>83</ele>
        <time>2015-01-30T12:29:50.194Z</time>
      </trkpt>
      <trkpt lat="47.78878" lon="-3.31658">
        <ele>83</ele>
        <time>2015-01-30T12:29:51.195Z</time>
      </trkpt>
      <trkpt lat="47.78869" lon="-3.31652">
        <ele>83</ele>
        <time>2015-01-30T12:29:52.194Z</time>
      </trkpt>
      <trkpt lat="47.78859" lon="-3.31646">
        <ele>83</ele>
        <time>2015-01-30T12:29:53.194Z</time>
      </trkpt>
      <trkpt lat="47.78852" lon="-3.3164">
        <ele>83</ele>
        <time>2015-01-30T12:29:54.282Z</time>
      </trkpt>
      <trkpt lat="47.78844" lon="-3.31635">
        <ele>84</ele>
        <time>2015-01-30T12:29:55.318Z</time>
      </trkpt>
      <trkpt lat="47.78839" lon="-3.31631">
        <ele>84</ele>
        <time>2015-01-30T12:29:56.231Z</time>
      </trkpt>
      <trkpt lat="47.78835" lon="-3.31627">
        <ele>84</ele>
        <time>2015-01-30T12:29:57.274Z</time>
      </trkpt>
      <trkpt lat="47.7883" lon="-3.31619">
        <ele>85</ele>
        <time>2015-01-30T12:29:59.285Z</time>
      </trkpt>
      <trkpt lat="47.78829" lon="-3.31614">
        <ele>85</ele>
        <time>2015-01-30T12:30:00.238Z</time>
      </trkpt>
      <trkpt lat="47.78829" lon="-3.31601">
        <ele>85</ele>
        <time>2015-01-30T12:30:02.250Z</time>
      </trkpt>
      <trkpt lat="47.78829" lon="-3.31593">
        <ele>85</ele>
        <time>2015-01-30T12:30:03.277Z</time>
      </trkpt>
      <trkpt lat="47.78829" lon="-3.31583">
        <ele>85</ele>
        <time>2015-01-30T12:30:04.293Z</time>
      </trkpt>
      <trkpt lat="47.78829" lon="-3.31576">
        <ele>85</ele>
        <time>2015-01-30T12:30:05.194Z</time>
      </trkpt>
      <trkpt lat="47.78829" lon="-3.31567">
        <ele>85</ele>
        <time>2015-01-30T12:30:06.301Z</time>
      </trkpt>
      <trkpt lat="47.78829" lon="-3.31556">
        <ele>85</ele>
        <time>2015-01-30T12:30:07.229Z</time>
      </trkpt>
      <trkpt lat="47.78828" lon="-3.31546">
        <ele>85</ele>
        <time>2015-01-30T12:30:08.273Z</time>
      </trkpt>
      <trkpt lat="47.78828" lon="-3.31535">
        <ele>85</ele>
        <time>2015-01-30T12:30:09.193Z</time>
      </trkpt>
      <trkpt lat="47.78828" lon="-3.31525">
        <ele>85</ele>
        <time>2015-01-30T12:30:10.321Z</time>
      </trkpt>
      <trkpt lat="47.78827" lon="-3.31515">
        <ele>85</ele>
        <time>2015-01-30T12:30:11.296Z</time>
      </trkpt>
      <trkpt lat="47.78826" lon="-3.31503">
        <ele>86</ele>
        <time>2015-01-30T12:30:12.262Z</time>
      </trkpt>
      <trkpt lat="47.78828" lon="-3.31495">
        <ele>87</ele>
        <time>2015-01-30T12:30:13.266Z</time>
      </trkpt>
      <trkpt lat="47.78827" lon="-3.31484">
        <ele>87</ele>
        <time>2015-01-30T12:30:14.202Z</time>
      </trkpt>
      <trkpt lat="47.78826" lon="-3.31473">
        <ele>87</ele>
        <time>2015-01-30T12:30:15.213Z</time>
      </trkpt>
      <trkpt lat="47.78824" lon="-3.31465">
        <ele>85</ele>
        <time>2015-01-30T12:30:17.295Z</time>
      </trkpt>
      <trkpt lat="47.7882" lon="-3.3146">
        <ele>86</ele>
        <time>2015-01-30T12:30:18.245Z</time>
      </trkpt>
      <trkpt lat="47.78814" lon="-3.31459">
        <ele>86</ele>
        <time>2015-01-30T12:30:19.286Z</time>
      </trkpt>
      <trkpt lat="47.78808" lon="-3.31458">
        <ele>86</ele>
        <time>2015-01-30T12:30:20.267Z</time>
      </trkpt>
      <trkpt lat="47.78803" lon="-3.31458">
        <ele>87</ele>
        <time>2015-01-30T12:30:21.275Z</time>
      </trkpt>
      <trkpt lat="47.78797" lon="-3.31459">
        <ele>87</ele>
        <time>2015-01-30T12:30:22.199Z</time>
      </trkpt>
      <trkpt lat="47.78792" lon="-3.31464">
        <ele>86</ele>
        <time>2015-01-30T12:30:23.255Z</time>
      </trkpt>
      <trkpt lat="47.78787" lon="-3.31468">
        <ele>86</ele>
        <time>2015-01-30T12:30:24.289Z</time>
      </trkpt>
      <trkpt lat="47.78783" lon="-3.31472">
        <ele>87</ele>
        <time>2015-01-30T12:30:25.194Z</time>
      </trkpt>
      <trkpt lat="47.78779" lon="-3.31474">
        <ele>87</ele>
        <time>2015-01-30T12:30:26.277Z</time>
      </trkpt>
      <trkpt lat="47.78774" lon="-3.31466">
        <ele>95</ele>
        <time>2015-01-30T12:31:24.279Z</time>
      </trkpt>
      <trkpt lat="47.78774" lon="-3.31462">
        <ele>95</ele>
        <time>2015-01-30T12:31:25.197Z</time>
      </trkpt>
      <trkpt lat="47.78771" lon="-3.31474">
        <ele>85</ele>
        <time>2015-01-30T12:31:59.194Z</time>
      </trkpt>
      <trkpt lat="47.78772" lon="-3.31476">
        <ele>85</ele>
        <time>2015-01-30T12:32:00.193Z</time>
      </trkpt>
      <trkpt lat="47.78777" lon="-3.31485">
        <ele>83</ele>
        <time>2015-01-30T12:32:05.197Z</time>
      </trkpt>
      <trkpt lat="47.78777" lon="-3.31487">
        <ele>83</ele>
        <time>2015-01-30T12:32:06.195Z</time>
      </trkpt>
      <trkpt lat="47.78782" lon="-3.31495">
        <ele>80</ele>
        <time>2015-01-30T12:33:11.561Z</time>
      </trkpt>
    </trkseg>
  </trk>
</gpx>